<?xml version="1.0" encoding="UTF-8" standalone="no" ?>
<gpx xmlns="http://www.topografix.com/GPX/1/1" xmlns:xsi="http://www.w3.org/2001/XMLSchema-instance" xsi:schemaLocation="http://www.topografix.com/GPX/1/1 http://www.topografix.com/GPX/1/1/gpx.xsd" version="1.1" creator="VisuGPX - https://www.visugpx.com">
  <metadata>
    <name>premiere sortie</name>
    <desc><![CDATA[sortie vtt 2016]]></desc>
  </metadata>
  <trk>
    <name><![CDATA[2016-09-04 14:37:42]]></name>
    <trkseg>
      <trkpt lat="45.74579" lon="4.72429">
        <ele>267.38</ele>
        <time>2016-09-04T06:56:07Z</time>
      </trkpt>
      <trkpt lat="45.74586" lon="4.72445">
        <ele>280.36</ele>
        <time>2016-09-04T06:56:11Z</time>
      </trkpt>
      <trkpt lat="45.74586" lon="4.72476">
        <ele>280.36</ele>
        <time>2016-09-04T06:56:16Z</time>
      </trkpt>
      <trkpt lat="45.74586" lon="4.7251">
        <ele>280.36</ele>
        <time>2016-09-04T06:56:21Z</time>
      </trkpt>
      <trkpt lat="45.74586" lon="4.72544">
        <ele>279.88</ele>
        <time>2016-09-04T06:56:26Z</time>
      </trkpt>
      <trkpt lat="45.74587" lon="4.72576">
        <ele>279.88</ele>
        <time>2016-09-04T06:56:31Z</time>
      </trkpt>
      <trkpt lat="45.74588" lon="4.7261">
        <ele>279.4</ele>
        <time>2016-09-04T06:56:36Z</time>
      </trkpt>
      <trkpt lat="45.74589" lon="4.72637">
        <ele>278.92</ele>
        <time>2016-09-04T06:56:41Z</time>
      </trkpt>
      <trkpt lat="45.74589" lon="4.72655">
        <ele>278.44</ele>
        <time>2016-09-04T06:56:46Z</time>
      </trkpt>
      <trkpt lat="45.74584" lon="4.72671">
        <ele>278.44</ele>
        <time>2016-09-04T06:56:51Z</time>
      </trkpt>
      <trkpt lat="45.74575" lon="4.7266">
        <ele>278.44</ele>
        <time>2016-09-04T06:56:56Z</time>
      </trkpt>
      <trkpt lat="45.74565" lon="4.72646">
        <ele>277.96</ele>
        <time>2016-09-04T06:57:01Z</time>
      </trkpt>
      <trkpt lat="45.74554" lon="4.72631">
        <ele>277.96</ele>
        <time>2016-09-04T06:57:06Z</time>
      </trkpt>
      <trkpt lat="45.74543" lon="4.72626">
        <ele>277.96</ele>
        <time>2016-09-04T06:57:11Z</time>
      </trkpt>
      <trkpt lat="45.74543" lon="4.72638">
        <ele>277.96</ele>
        <time>2016-09-04T06:57:16Z</time>
      </trkpt>
      <trkpt lat="45.74559" lon="4.72644">
        <ele>277.48</ele>
        <time>2016-09-04T06:57:21Z</time>
      </trkpt>
      <trkpt lat="45.7457" lon="4.72658">
        <ele>278.44</ele>
        <time>2016-09-04T06:57:26Z</time>
      </trkpt>
      <trkpt lat="45.74579" lon="4.72672">
        <ele>278.44</ele>
        <time>2016-09-04T06:57:31Z</time>
      </trkpt>
      <trkpt lat="45.74588" lon="4.72686">
        <ele>278.92</ele>
        <time>2016-09-04T06:57:36Z</time>
      </trkpt>
      <trkpt lat="45.7459" lon="4.72701">
        <ele>278.92</ele>
        <time>2016-09-04T06:57:41Z</time>
      </trkpt>
      <trkpt lat="45.74591" lon="4.72725">
        <ele>278.92</ele>
        <time>2016-09-04T06:57:46Z</time>
      </trkpt>
      <trkpt lat="45.74592" lon="4.72753">
        <ele>277.96</ele>
        <time>2016-09-04T06:57:51Z</time>
      </trkpt>
      <trkpt lat="45.74592" lon="4.72782">
        <ele>277</ele>
        <time>2016-09-04T06:57:56Z</time>
      </trkpt>
      <trkpt lat="45.74593" lon="4.72813">
        <ele>276.52</ele>
        <time>2016-09-04T06:58:01Z</time>
      </trkpt>
      <trkpt lat="45.74594" lon="4.72846">
        <ele>276.04</ele>
        <time>2016-09-04T06:58:06Z</time>
      </trkpt>
      <trkpt lat="45.74594" lon="4.72883">
        <ele>275.56</ele>
        <time>2016-09-04T06:58:11Z</time>
      </trkpt>
      <trkpt lat="45.74594" lon="4.72919">
        <ele>275.07</ele>
        <time>2016-09-04T06:58:16Z</time>
      </trkpt>
      <trkpt lat="45.74594" lon="4.72961">
        <ele>273.63</ele>
        <time>2016-09-04T06:58:21Z</time>
      </trkpt>
      <trkpt lat="45.74594" lon="4.73001">
        <ele>271.71</ele>
        <time>2016-09-04T06:58:26Z</time>
      </trkpt>
      <trkpt lat="45.74594" lon="4.73041">
        <ele>269.79</ele>
        <time>2016-09-04T06:58:31Z</time>
      </trkpt>
      <trkpt lat="45.74594" lon="4.73063">
        <ele>267.86</ele>
        <time>2016-09-04T06:58:36Z</time>
      </trkpt>
      <trkpt lat="45.74592" lon="4.73066">
        <ele>268.83</ele>
        <time>2016-09-04T06:58:41Z</time>
      </trkpt>
      <trkpt lat="45.74592" lon="4.73067">
        <ele>269.31</ele>
        <time>2016-09-04T06:58:46Z</time>
      </trkpt>
      <trkpt lat="45.74591" lon="4.73083">
        <ele>269.79</ele>
        <time>2016-09-04T06:58:51Z</time>
      </trkpt>
      <trkpt lat="45.74599" lon="4.73106">
        <ele>268.83</ele>
        <time>2016-09-04T06:58:56Z</time>
      </trkpt>
      <trkpt lat="45.746" lon="4.73131">
        <ele>267.86</ele>
        <time>2016-09-04T06:59:01Z</time>
      </trkpt>
      <trkpt lat="45.74598" lon="4.73164">
        <ele>266.9</ele>
        <time>2016-09-04T06:59:06Z</time>
      </trkpt>
      <trkpt lat="45.74597" lon="4.732">
        <ele>265.94</ele>
        <time>2016-09-04T06:59:11Z</time>
      </trkpt>
      <trkpt lat="45.74594" lon="4.73239">
        <ele>264.98</ele>
        <time>2016-09-04T06:59:16Z</time>
      </trkpt>
      <trkpt lat="45.74588" lon="4.73278">
        <ele>264.5</ele>
        <time>2016-09-04T06:59:21Z</time>
      </trkpt>
      <trkpt lat="45.74579" lon="4.73314">
        <ele>264.5</ele>
        <time>2016-09-04T06:59:26Z</time>
      </trkpt>
      <trkpt lat="45.74566" lon="4.73349">
        <ele>264.02</ele>
        <time>2016-09-04T06:59:31Z</time>
      </trkpt>
      <trkpt lat="45.74551" lon="4.73381">
        <ele>264.5</ele>
        <time>2016-09-04T06:59:36Z</time>
      </trkpt>
      <trkpt lat="45.74537" lon="4.73408">
        <ele>265.46</ele>
        <time>2016-09-04T06:59:41Z</time>
      </trkpt>
      <trkpt lat="45.74523" lon="4.73431">
        <ele>265.94</ele>
        <time>2016-09-04T06:59:46Z</time>
      </trkpt>
      <trkpt lat="45.74508" lon="4.73454">
        <ele>267.38</ele>
        <time>2016-09-04T06:59:51Z</time>
      </trkpt>
      <trkpt lat="45.74493" lon="4.73476">
        <ele>267.38</ele>
        <time>2016-09-04T06:59:56Z</time>
      </trkpt>
      <trkpt lat="45.74479" lon="4.73502">
        <ele>267.86</ele>
        <time>2016-09-04T07:00:01Z</time>
      </trkpt>
      <trkpt lat="45.74468" lon="4.73529">
        <ele>267.86</ele>
        <time>2016-09-04T07:00:06Z</time>
      </trkpt>
      <trkpt lat="45.74457" lon="4.73559">
        <ele>266.9</ele>
        <time>2016-09-04T07:00:11Z</time>
      </trkpt>
      <trkpt lat="45.74447" lon="4.73593">
        <ele>265.94</ele>
        <time>2016-09-04T07:00:16Z</time>
      </trkpt>
      <trkpt lat="45.74437" lon="4.73627">
        <ele>264.5</ele>
        <time>2016-09-04T07:00:21Z</time>
      </trkpt>
      <trkpt lat="45.74432" lon="4.73642">
        <ele>264.5</ele>
        <time>2016-09-04T07:00:26Z</time>
      </trkpt>
      <trkpt lat="45.7443" lon="4.73644">
        <ele>264.98</ele>
        <time>2016-09-04T07:00:31Z</time>
      </trkpt>
      <trkpt lat="45.74431" lon="4.73644">
        <ele>265.46</ele>
        <time>2016-09-04T07:00:36Z</time>
      </trkpt>
      <trkpt lat="45.7443" lon="4.7365">
        <ele>265.94</ele>
        <time>2016-09-04T07:00:41Z</time>
      </trkpt>
      <trkpt lat="45.74432" lon="4.73653">
        <ele>266.42</ele>
        <time>2016-09-04T07:00:46Z</time>
      </trkpt>
      <trkpt lat="45.74431" lon="4.73653">
        <ele>266.42</ele>
        <time>2016-09-04T07:00:51Z</time>
      </trkpt>
      <trkpt lat="45.74431" lon="4.73654">
        <ele>266.9</ele>
        <time>2016-09-04T07:00:56Z</time>
      </trkpt>
      <trkpt lat="45.74431" lon="4.73653">
        <ele>266.42</ele>
        <time>2016-09-04T07:01:01Z</time>
      </trkpt>
      <trkpt lat="45.74431" lon="4.73653">
        <ele>266.42</ele>
        <time>2016-09-04T07:01:06Z</time>
      </trkpt>
      <trkpt lat="45.74431" lon="4.73653">
        <ele>265.94</ele>
        <time>2016-09-04T07:01:09Z</time>
      </trkpt>
      <trkpt lat="45.74431" lon="4.73653">
        <ele>266.42</ele>
        <time>2016-09-04T07:01:14Z</time>
      </trkpt>
      <trkpt lat="45.7443" lon="4.73653">
        <ele>266.42</ele>
        <time>2016-09-04T07:01:19Z</time>
      </trkpt>
      <trkpt lat="45.74429" lon="4.73653">
        <ele>266.42</ele>
        <time>2016-09-04T07:01:24Z</time>
      </trkpt>
      <trkpt lat="45.74429" lon="4.73653">
        <ele>266.42</ele>
        <time>2016-09-04T07:01:29Z</time>
      </trkpt>
      <trkpt lat="45.74429" lon="4.73653">
        <ele>266.9</ele>
        <time>2016-09-04T07:01:34Z</time>
      </trkpt>
      <trkpt lat="45.7443" lon="4.73653">
        <ele>267.38</ele>
        <time>2016-09-04T07:01:39Z</time>
      </trkpt>
      <trkpt lat="45.7443" lon="4.73653">
        <ele>266.9</ele>
        <time>2016-09-04T07:01:44Z</time>
      </trkpt>
      <trkpt lat="45.7443" lon="4.73661">
        <ele>266.42</ele>
        <time>2016-09-04T07:01:49Z</time>
      </trkpt>
      <trkpt lat="45.74427" lon="4.73683">
        <ele>266.9</ele>
        <time>2016-09-04T07:01:54Z</time>
      </trkpt>
      <trkpt lat="45.74425" lon="4.73712">
        <ele>266.9</ele>
        <time>2016-09-04T07:01:59Z</time>
      </trkpt>
      <trkpt lat="45.74424" lon="4.73744">
        <ele>266.42</ele>
        <time>2016-09-04T07:02:04Z</time>
      </trkpt>
      <trkpt lat="45.74425" lon="4.73779">
        <ele>265.46</ele>
        <time>2016-09-04T07:02:09Z</time>
      </trkpt>
      <trkpt lat="45.74427" lon="4.73815">
        <ele>264.5</ele>
        <time>2016-09-04T07:02:14Z</time>
      </trkpt>
      <trkpt lat="45.74428" lon="4.73857">
        <ele>263.06</ele>
        <time>2016-09-04T07:02:19Z</time>
      </trkpt>
      <trkpt lat="45.74428" lon="4.739">
        <ele>262.1</ele>
        <time>2016-09-04T07:02:24Z</time>
      </trkpt>
      <trkpt lat="45.74429" lon="4.7394">
        <ele>262.1</ele>
        <time>2016-09-04T07:02:29Z</time>
      </trkpt>
      <trkpt lat="45.7443" lon="4.7398">
        <ele>261.14</ele>
        <time>2016-09-04T07:02:34Z</time>
      </trkpt>
      <trkpt lat="45.7443" lon="4.74022">
        <ele>260.17</ele>
        <time>2016-09-04T07:02:39Z</time>
      </trkpt>
      <trkpt lat="45.74434" lon="4.74066">
        <ele>259.69</ele>
        <time>2016-09-04T07:02:44Z</time>
      </trkpt>
      <trkpt lat="45.74441" lon="4.74113">
        <ele>259.69</ele>
        <time>2016-09-04T07:02:49Z</time>
      </trkpt>
      <trkpt lat="45.74453" lon="4.74159">
        <ele>260.17</ele>
        <time>2016-09-04T07:02:54Z</time>
      </trkpt>
      <trkpt lat="45.74471" lon="4.74205">
        <ele>259.69</ele>
        <time>2016-09-04T07:02:59Z</time>
      </trkpt>
      <trkpt lat="45.74496" lon="4.74251">
        <ele>258.73</ele>
        <time>2016-09-04T07:03:04Z</time>
      </trkpt>
      <trkpt lat="45.74521" lon="4.74295">
        <ele>257.77</ele>
        <time>2016-09-04T07:03:09Z</time>
      </trkpt>
      <trkpt lat="45.74536" lon="4.74324">
        <ele>256.81</ele>
        <time>2016-09-04T07:03:14Z</time>
      </trkpt>
      <trkpt lat="45.74554" lon="4.74358">
        <ele>256.33</ele>
        <time>2016-09-04T07:03:19Z</time>
      </trkpt>
      <trkpt lat="45.74567" lon="4.74398">
        <ele>257.29</ele>
        <time>2016-09-04T07:03:24Z</time>
      </trkpt>
      <trkpt lat="45.74576" lon="4.74435">
        <ele>258.25</ele>
        <time>2016-09-04T07:03:29Z</time>
      </trkpt>
      <trkpt lat="45.74582" lon="4.74469">
        <ele>258.73</ele>
        <time>2016-09-04T07:03:34Z</time>
      </trkpt>
      <trkpt lat="45.74589" lon="4.74504">
        <ele>258.73</ele>
        <time>2016-09-04T07:03:39Z</time>
      </trkpt>
      <trkpt lat="45.7459" lon="4.74521">
        <ele>257.77</ele>
        <time>2016-09-04T07:03:44Z</time>
      </trkpt>
      <trkpt lat="45.74589" lon="4.74525">
        <ele>257.77</ele>
        <time>2016-09-04T07:03:49Z</time>
      </trkpt>
      <trkpt lat="45.74589" lon="4.74525">
        <ele>257.77</ele>
        <time>2016-09-04T07:03:54Z</time>
      </trkpt>
      <trkpt lat="45.7459" lon="4.74525">
        <ele>258.25</ele>
        <time>2016-09-04T07:03:59Z</time>
      </trkpt>
      <trkpt lat="45.7459" lon="4.74527">
        <ele>258.25</ele>
        <time>2016-09-04T07:04:04Z</time>
      </trkpt>
      <trkpt lat="45.7459" lon="4.7453">
        <ele>258.25</ele>
        <time>2016-09-04T07:04:09Z</time>
      </trkpt>
      <trkpt lat="45.7459" lon="4.74531">
        <ele>258.73</ele>
        <time>2016-09-04T07:04:14Z</time>
      </trkpt>
      <trkpt lat="45.7459" lon="4.74532">
        <ele>259.69</ele>
        <time>2016-09-04T07:04:19Z</time>
      </trkpt>
      <trkpt lat="45.7459" lon="4.74533">
        <ele>259.21</ele>
        <time>2016-09-04T07:04:24Z</time>
      </trkpt>
      <trkpt lat="45.7459" lon="4.74552">
        <ele>259.21</ele>
        <time>2016-09-04T07:04:29Z</time>
      </trkpt>
      <trkpt lat="45.7459" lon="4.74583">
        <ele>259.69</ele>
        <time>2016-09-04T07:04:34Z</time>
      </trkpt>
      <trkpt lat="45.74592" lon="4.74607">
        <ele>260.65</ele>
        <time>2016-09-04T07:04:39Z</time>
      </trkpt>
      <trkpt lat="45.7458" lon="4.7461">
        <ele>260.17</ele>
        <time>2016-09-04T07:04:44Z</time>
      </trkpt>
      <trkpt lat="45.74557" lon="4.74614">
        <ele>256.81</ele>
        <time>2016-09-04T07:04:49Z</time>
      </trkpt>
      <trkpt lat="45.74523" lon="4.74621">
        <ele>252</ele>
        <time>2016-09-04T07:04:54Z</time>
      </trkpt>
      <trkpt lat="45.74502" lon="4.7462">
        <ele>247.2</ele>
        <time>2016-09-04T07:04:59Z</time>
      </trkpt>
      <trkpt lat="45.74498" lon="4.74618">
        <ele>245.75</ele>
        <time>2016-09-04T07:05:04Z</time>
      </trkpt>
      <trkpt lat="45.74497" lon="4.74618">
        <ele>245.27</ele>
        <time>2016-09-04T07:05:09Z</time>
      </trkpt>
      <trkpt lat="45.74497" lon="4.74617">
        <ele>245.75</ele>
        <time>2016-09-04T07:05:14Z</time>
      </trkpt>
      <trkpt lat="45.74497" lon="4.74618">
        <ele>245.75</ele>
        <time>2016-09-04T07:05:19Z</time>
      </trkpt>
      <trkpt lat="45.74496" lon="4.74618">
        <ele>245.75</ele>
        <time>2016-09-04T07:05:24Z</time>
      </trkpt>
      <trkpt lat="45.74491" lon="4.74612">
        <ele>246.23</ele>
        <time>2016-09-04T07:05:29Z</time>
      </trkpt>
      <trkpt lat="45.74479" lon="4.74593">
        <ele>245.27</ele>
        <time>2016-09-04T07:05:34Z</time>
      </trkpt>
      <trkpt lat="45.74472" lon="4.74562">
        <ele>242.87</ele>
        <time>2016-09-04T07:05:39Z</time>
      </trkpt>
      <trkpt lat="45.74465" lon="4.74518">
        <ele>239.51</ele>
        <time>2016-09-04T07:05:44Z</time>
      </trkpt>
      <trkpt lat="45.74456" lon="4.74471">
        <ele>234.22</ele>
        <time>2016-09-04T07:05:49Z</time>
      </trkpt>
      <trkpt lat="45.74452" lon="4.74434">
        <ele>228.45</ele>
        <time>2016-09-04T07:05:54Z</time>
      </trkpt>
      <trkpt lat="45.74444" lon="4.74405">
        <ele>223.64</ele>
        <time>2016-09-04T07:05:59Z</time>
      </trkpt>
      <trkpt lat="45.74428" lon="4.7439">
        <ele>220.76</ele>
        <time>2016-09-04T07:06:04Z</time>
      </trkpt>
      <trkpt lat="45.74406" lon="4.74375">
        <ele>218.36</ele>
        <time>2016-09-04T07:06:09Z</time>
      </trkpt>
      <trkpt lat="45.7438" lon="4.74349">
        <ele>216.91</ele>
        <time>2016-09-04T07:06:14Z</time>
      </trkpt>
      <trkpt lat="45.74356" lon="4.7431">
        <ele>216.91</ele>
        <time>2016-09-04T07:06:19Z</time>
      </trkpt>
      <trkpt lat="45.74331" lon="4.74274">
        <ele>217.88</ele>
        <time>2016-09-04T07:06:24Z</time>
      </trkpt>
      <trkpt lat="45.74319" lon="4.74239">
        <ele>216.43</ele>
        <time>2016-09-04T07:06:29Z</time>
      </trkpt>
      <trkpt lat="45.74317" lon="4.74204">
        <ele>214.99</ele>
        <time>2016-09-04T07:06:34Z</time>
      </trkpt>
      <trkpt lat="45.7432" lon="4.74169">
        <ele>214.51</ele>
        <time>2016-09-04T07:06:39Z</time>
      </trkpt>
      <trkpt lat="45.74321" lon="4.74139">
        <ele>214.03</ele>
        <time>2016-09-04T07:06:44Z</time>
      </trkpt>
      <trkpt lat="45.7432" lon="4.7411">
        <ele>213.55</ele>
        <time>2016-09-04T07:06:49Z</time>
      </trkpt>
      <trkpt lat="45.74313" lon="4.74075">
        <ele>213.07</ele>
        <time>2016-09-04T07:06:54Z</time>
      </trkpt>
      <trkpt lat="45.74296" lon="4.74043">
        <ele>214.99</ele>
        <time>2016-09-04T07:06:59Z</time>
      </trkpt>
      <trkpt lat="45.74282" lon="4.74014">
        <ele>217.4</ele>
        <time>2016-09-04T07:07:04Z</time>
      </trkpt>
      <trkpt lat="45.74268" lon="4.73992">
        <ele>218.84</ele>
        <time>2016-09-04T07:07:09Z</time>
      </trkpt>
      <trkpt lat="45.74255" lon="4.73975">
        <ele>221.24</ele>
        <time>2016-09-04T07:07:14Z</time>
      </trkpt>
      <trkpt lat="45.74245" lon="4.73963">
        <ele>224.12</ele>
        <time>2016-09-04T07:07:19Z</time>
      </trkpt>
      <trkpt lat="45.74233" lon="4.73951">
        <ele>227.01</ele>
        <time>2016-09-04T07:07:24Z</time>
      </trkpt>
      <trkpt lat="45.74225" lon="4.73927">
        <ele>228.45</ele>
        <time>2016-09-04T07:07:29Z</time>
      </trkpt>
      <trkpt lat="45.74218" lon="4.73906">
        <ele>228.93</ele>
        <time>2016-09-04T07:07:34Z</time>
      </trkpt>
      <trkpt lat="45.74208" lon="4.73883">
        <ele>228.45</ele>
        <time>2016-09-04T07:07:39Z</time>
      </trkpt>
      <trkpt lat="45.74195" lon="4.73858">
        <ele>228.45</ele>
        <time>2016-09-04T07:07:44Z</time>
      </trkpt>
      <trkpt lat="45.7418" lon="4.73829">
        <ele>228.45</ele>
        <time>2016-09-04T07:07:49Z</time>
      </trkpt>
      <trkpt lat="45.74167" lon="4.73798">
        <ele>228.93</ele>
        <time>2016-09-04T07:07:54Z</time>
      </trkpt>
      <trkpt lat="45.74159" lon="4.73766">
        <ele>228.45</ele>
        <time>2016-09-04T07:07:59Z</time>
      </trkpt>
      <trkpt lat="45.74152" lon="4.73737">
        <ele>227.49</ele>
        <time>2016-09-04T07:08:04Z</time>
      </trkpt>
      <trkpt lat="45.74149" lon="4.73723">
        <ele>227.49</ele>
        <time>2016-09-04T07:08:09Z</time>
      </trkpt>
      <trkpt lat="45.74152" lon="4.73714">
        <ele>227.49</ele>
        <time>2016-09-04T07:08:14Z</time>
      </trkpt>
      <trkpt lat="45.74162" lon="4.73705">
        <ele>228.93</ele>
        <time>2016-09-04T07:08:19Z</time>
      </trkpt>
      <trkpt lat="45.74174" lon="4.73689">
        <ele>231.33</ele>
        <time>2016-09-04T07:08:24Z</time>
      </trkpt>
      <trkpt lat="45.74178" lon="4.73676">
        <ele>231.81</ele>
        <time>2016-09-04T07:08:29Z</time>
      </trkpt>
      <trkpt lat="45.74177" lon="4.73655">
        <ele>230.85</ele>
        <time>2016-09-04T07:08:34Z</time>
      </trkpt>
      <trkpt lat="45.74177" lon="4.73633">
        <ele>228.45</ele>
        <time>2016-09-04T07:08:39Z</time>
      </trkpt>
      <trkpt lat="45.74176" lon="4.73601">
        <ele>226.05</ele>
        <time>2016-09-04T07:08:44Z</time>
      </trkpt>
      <trkpt lat="45.74177" lon="4.73566">
        <ele>224.61</ele>
        <time>2016-09-04T07:08:49Z</time>
      </trkpt>
      <trkpt lat="45.74187" lon="4.7353">
        <ele>223.64</ele>
        <time>2016-09-04T07:08:54Z</time>
      </trkpt>
      <trkpt lat="45.74204" lon="4.73494">
        <ele>222.2</ele>
        <time>2016-09-04T07:08:59Z</time>
      </trkpt>
      <trkpt lat="45.74214" lon="4.73457">
        <ele>220.28</ele>
        <time>2016-09-04T07:09:04Z</time>
      </trkpt>
      <trkpt lat="45.7422" lon="4.73423">
        <ele>219.32</ele>
        <time>2016-09-04T07:09:09Z</time>
      </trkpt>
      <trkpt lat="45.74214" lon="4.73393">
        <ele>219.32</ele>
        <time>2016-09-04T07:09:14Z</time>
      </trkpt>
      <trkpt lat="45.74207" lon="4.73361">
        <ele>220.76</ele>
        <time>2016-09-04T07:09:19Z</time>
      </trkpt>
      <trkpt lat="45.74199" lon="4.7333">
        <ele>222.68</ele>
        <time>2016-09-04T07:09:24Z</time>
      </trkpt>
      <trkpt lat="45.74189" lon="4.73301">
        <ele>225.57</ele>
        <time>2016-09-04T07:09:29Z</time>
      </trkpt>
      <trkpt lat="45.7418" lon="4.73284">
        <ele>228.45</ele>
        <time>2016-09-04T07:09:34Z</time>
      </trkpt>
      <trkpt lat="45.74174" lon="4.73274">
        <ele>230.85</ele>
        <time>2016-09-04T07:09:39Z</time>
      </trkpt>
      <trkpt lat="45.74173" lon="4.73271">
        <ele>232.3</ele>
        <time>2016-09-04T07:09:44Z</time>
      </trkpt>
      <trkpt lat="45.74171" lon="4.73269">
        <ele>233.26</ele>
        <time>2016-09-04T07:09:49Z</time>
      </trkpt>
      <trkpt lat="45.74168" lon="4.73266">
        <ele>233.26</ele>
        <time>2016-09-04T07:09:54Z</time>
      </trkpt>
      <trkpt lat="45.74167" lon="4.73262">
        <ele>233.26</ele>
        <time>2016-09-04T07:09:59Z</time>
      </trkpt>
      <trkpt lat="45.74164" lon="4.73256">
        <ele>234.22</ele>
        <time>2016-09-04T07:10:04Z</time>
      </trkpt>
      <trkpt lat="45.7416" lon="4.73255">
        <ele>233.74</ele>
        <time>2016-09-04T07:10:09Z</time>
      </trkpt>
      <trkpt lat="45.74157" lon="4.73253">
        <ele>233.26</ele>
        <time>2016-09-04T07:10:14Z</time>
      </trkpt>
      <trkpt lat="45.74152" lon="4.73256">
        <ele>232.3</ele>
        <time>2016-09-04T07:10:19Z</time>
      </trkpt>
      <trkpt lat="45.74146" lon="4.73252">
        <ele>233.26</ele>
        <time>2016-09-04T07:10:24Z</time>
      </trkpt>
      <trkpt lat="45.74143" lon="4.73249">
        <ele>233.74</ele>
        <time>2016-09-04T07:10:29Z</time>
      </trkpt>
      <trkpt lat="45.74139" lon="4.73243">
        <ele>233.74</ele>
        <time>2016-09-04T07:10:34Z</time>
      </trkpt>
      <trkpt lat="45.74136" lon="4.73238">
        <ele>234.22</ele>
        <time>2016-09-04T07:10:39Z</time>
      </trkpt>
      <trkpt lat="45.74133" lon="4.73233">
        <ele>234.22</ele>
        <time>2016-09-04T07:10:44Z</time>
      </trkpt>
      <trkpt lat="45.74131" lon="4.73224">
        <ele>233.74</ele>
        <time>2016-09-04T07:10:49Z</time>
      </trkpt>
      <trkpt lat="45.74128" lon="4.7321">
        <ele>233.74</ele>
        <time>2016-09-04T07:10:54Z</time>
      </trkpt>
      <trkpt lat="45.74125" lon="4.73197">
        <ele>234.22</ele>
        <time>2016-09-04T07:10:59Z</time>
      </trkpt>
      <trkpt lat="45.74121" lon="4.73184">
        <ele>234.7</ele>
        <time>2016-09-04T07:11:04Z</time>
      </trkpt>
      <trkpt lat="45.74112" lon="4.73174">
        <ele>237.58</ele>
        <time>2016-09-04T07:11:09Z</time>
      </trkpt>
      <trkpt lat="45.74104" lon="4.73166">
        <ele>240.95</ele>
        <time>2016-09-04T07:11:14Z</time>
      </trkpt>
      <trkpt lat="45.74094" lon="4.73164">
        <ele>242.39</ele>
        <time>2016-09-04T07:11:19Z</time>
      </trkpt>
      <trkpt lat="45.74072" lon="4.73158">
        <ele>242.39</ele>
        <time>2016-09-04T07:11:24Z</time>
      </trkpt>
      <trkpt lat="45.7405" lon="4.73153">
        <ele>243.35</ele>
        <time>2016-09-04T07:11:29Z</time>
      </trkpt>
      <trkpt lat="45.74027" lon="4.73153">
        <ele>244.79</ele>
        <time>2016-09-04T07:11:34Z</time>
      </trkpt>
      <trkpt lat="45.74002" lon="4.73149">
        <ele>246.23</ele>
        <time>2016-09-04T07:11:39Z</time>
      </trkpt>
      <trkpt lat="45.73981" lon="4.73152">
        <ele>247.2</ele>
        <time>2016-09-04T07:11:44Z</time>
      </trkpt>
      <trkpt lat="45.73957" lon="4.73158">
        <ele>246.23</ele>
        <time>2016-09-04T07:11:49Z</time>
      </trkpt>
      <trkpt lat="45.73934" lon="4.73171">
        <ele>247.2</ele>
        <time>2016-09-04T07:11:54Z</time>
      </trkpt>
      <trkpt lat="45.73916" lon="4.73188">
        <ele>247.2</ele>
        <time>2016-09-04T07:11:59Z</time>
      </trkpt>
      <trkpt lat="45.73907" lon="4.73201">
        <ele>247.2</ele>
        <time>2016-09-04T07:12:04Z</time>
      </trkpt>
      <trkpt lat="45.73901" lon="4.73212">
        <ele>247.2</ele>
        <time>2016-09-04T07:12:09Z</time>
      </trkpt>
      <trkpt lat="45.73891" lon="4.73231">
        <ele>247.2</ele>
        <time>2016-09-04T07:12:14Z</time>
      </trkpt>
      <trkpt lat="45.73877" lon="4.73244">
        <ele>248.64</ele>
        <time>2016-09-04T07:12:19Z</time>
      </trkpt>
      <trkpt lat="45.73855" lon="4.73239">
        <ele>249.6</ele>
        <time>2016-09-04T07:12:24Z</time>
      </trkpt>
      <trkpt lat="45.73838" lon="4.73226">
        <ele>249.12</ele>
        <time>2016-09-04T07:12:29Z</time>
      </trkpt>
      <trkpt lat="45.7382" lon="4.73207">
        <ele>247.68</ele>
        <time>2016-09-04T07:12:34Z</time>
      </trkpt>
      <trkpt lat="45.73808" lon="4.7318">
        <ele>245.75</ele>
        <time>2016-09-04T07:12:39Z</time>
      </trkpt>
      <trkpt lat="45.73801" lon="4.73152">
        <ele>242.39</ele>
        <time>2016-09-04T07:12:44Z</time>
      </trkpt>
      <trkpt lat="45.73799" lon="4.73123">
        <ele>239.99</ele>
        <time>2016-09-04T07:12:49Z</time>
      </trkpt>
      <trkpt lat="45.73799" lon="4.73099">
        <ele>239.02</ele>
        <time>2016-09-04T07:12:54Z</time>
      </trkpt>
      <trkpt lat="45.73798" lon="4.73074">
        <ele>238.54</ele>
        <time>2016-09-04T07:12:59Z</time>
      </trkpt>
      <trkpt lat="45.73796" lon="4.73049">
        <ele>237.58</ele>
        <time>2016-09-04T07:13:04Z</time>
      </trkpt>
      <trkpt lat="45.73795" lon="4.73024">
        <ele>237.1</ele>
        <time>2016-09-04T07:13:09Z</time>
      </trkpt>
      <trkpt lat="45.73796" lon="4.72999">
        <ele>236.14</ele>
        <time>2016-09-04T07:13:14Z</time>
      </trkpt>
      <trkpt lat="45.73797" lon="4.72973">
        <ele>236.14</ele>
        <time>2016-09-04T07:13:19Z</time>
      </trkpt>
      <trkpt lat="45.73798" lon="4.72946">
        <ele>235.18</ele>
        <time>2016-09-04T07:13:24Z</time>
      </trkpt>
      <trkpt lat="45.73801" lon="4.72921">
        <ele>234.7</ele>
        <time>2016-09-04T07:13:29Z</time>
      </trkpt>
      <trkpt lat="45.73805" lon="4.72898">
        <ele>234.7</ele>
        <time>2016-09-04T07:13:34Z</time>
      </trkpt>
      <trkpt lat="45.73804" lon="4.72874">
        <ele>233.74</ele>
        <time>2016-09-04T07:13:39Z</time>
      </trkpt>
      <trkpt lat="45.73805" lon="4.72849">
        <ele>231.81</ele>
        <time>2016-09-04T07:13:44Z</time>
      </trkpt>
      <trkpt lat="45.73805" lon="4.72821">
        <ele>229.89</ele>
        <time>2016-09-04T07:13:49Z</time>
      </trkpt>
      <trkpt lat="45.73798" lon="4.72785">
        <ele>226.05</ele>
        <time>2016-09-04T07:13:54Z</time>
      </trkpt>
      <trkpt lat="45.73795" lon="4.7276">
        <ele>224.12</ele>
        <time>2016-09-04T07:13:59Z</time>
      </trkpt>
      <trkpt lat="45.73791" lon="4.72755">
        <ele>225.09</ele>
        <time>2016-09-04T07:14:04Z</time>
      </trkpt>
      <trkpt lat="45.73779" lon="4.72755">
        <ele>227.01</ele>
        <time>2016-09-04T07:14:09Z</time>
      </trkpt>
      <trkpt lat="45.73772" lon="4.72746">
        <ele>227.97</ele>
        <time>2016-09-04T07:14:14Z</time>
      </trkpt>
      <trkpt lat="45.73775" lon="4.72735">
        <ele>228.45</ele>
        <time>2016-09-04T07:14:19Z</time>
      </trkpt>
      <trkpt lat="45.73772" lon="4.72727">
        <ele>229.89</ele>
        <time>2016-09-04T07:14:24Z</time>
      </trkpt>
      <trkpt lat="45.7377" lon="4.72718">
        <ele>230.37</ele>
        <time>2016-09-04T07:14:29Z</time>
      </trkpt>
      <trkpt lat="45.73767" lon="4.72698">
        <ele>230.85</ele>
        <time>2016-09-04T07:14:34Z</time>
      </trkpt>
      <trkpt lat="45.73763" lon="4.72674">
        <ele>228.93</ele>
        <time>2016-09-04T07:14:39Z</time>
      </trkpt>
      <trkpt lat="45.73757" lon="4.72657">
        <ele>226.53</ele>
        <time>2016-09-04T07:14:44Z</time>
      </trkpt>
      <trkpt lat="45.73755" lon="4.72643">
        <ele>224.12</ele>
        <time>2016-09-04T07:14:49Z</time>
      </trkpt>
      <trkpt lat="45.73752" lon="4.7262">
        <ele>221.24</ele>
        <time>2016-09-04T07:14:54Z</time>
      </trkpt>
      <trkpt lat="45.7375" lon="4.726">
        <ele>219.32</ele>
        <time>2016-09-04T07:14:59Z</time>
      </trkpt>
      <trkpt lat="45.73746" lon="4.72583">
        <ele>217.4</ele>
        <time>2016-09-04T07:15:04Z</time>
      </trkpt>
      <trkpt lat="45.73744" lon="4.72565">
        <ele>215.95</ele>
        <time>2016-09-04T07:15:09Z</time>
      </trkpt>
      <trkpt lat="45.73746" lon="4.72542">
        <ele>215.47</ele>
        <time>2016-09-04T07:15:14Z</time>
      </trkpt>
      <trkpt lat="45.73746" lon="4.7252">
        <ele>216.43</ele>
        <time>2016-09-04T07:15:19Z</time>
      </trkpt>
      <trkpt lat="45.73746" lon="4.72504">
        <ele>217.88</ele>
        <time>2016-09-04T07:15:24Z</time>
      </trkpt>
      <trkpt lat="45.73746" lon="4.72482">
        <ele>218.84</ele>
        <time>2016-09-04T07:15:29Z</time>
      </trkpt>
      <trkpt lat="45.73745" lon="4.72459">
        <ele>219.8</ele>
        <time>2016-09-04T07:15:34Z</time>
      </trkpt>
      <trkpt lat="45.73738" lon="4.72439">
        <ele>220.76</ele>
        <time>2016-09-04T07:15:39Z</time>
      </trkpt>
      <trkpt lat="45.73729" lon="4.72421">
        <ele>220.28</ele>
        <time>2016-09-04T07:15:44Z</time>
      </trkpt>
      <trkpt lat="45.73719" lon="4.72399">
        <ele>221.24</ele>
        <time>2016-09-04T07:15:49Z</time>
      </trkpt>
      <trkpt lat="45.73713" lon="4.72374">
        <ele>223.16</ele>
        <time>2016-09-04T07:15:54Z</time>
      </trkpt>
      <trkpt lat="45.73708" lon="4.72353">
        <ele>224.61</ele>
        <time>2016-09-04T07:15:59Z</time>
      </trkpt>
      <trkpt lat="45.73707" lon="4.72329">
        <ele>227.01</ele>
        <time>2016-09-04T07:16:04Z</time>
      </trkpt>
      <trkpt lat="45.7371" lon="4.72308">
        <ele>230.37</ele>
        <time>2016-09-04T07:16:09Z</time>
      </trkpt>
      <trkpt lat="45.73714" lon="4.72292">
        <ele>236.14</ele>
        <time>2016-09-04T07:16:14Z</time>
      </trkpt>
      <trkpt lat="45.7372" lon="4.72274">
        <ele>239.02</ele>
        <time>2016-09-04T07:16:19Z</time>
      </trkpt>
      <trkpt lat="45.73729" lon="4.72258">
        <ele>239.99</ele>
        <time>2016-09-04T07:16:24Z</time>
      </trkpt>
      <trkpt lat="45.73733" lon="4.72248">
        <ele>239.99</ele>
        <time>2016-09-04T07:16:29Z</time>
      </trkpt>
      <trkpt lat="45.73727" lon="4.72243">
        <ele>240.47</ele>
        <time>2016-09-04T07:16:34Z</time>
      </trkpt>
      <trkpt lat="45.73715" lon="4.7224">
        <ele>240.47</ele>
        <time>2016-09-04T07:16:39Z</time>
      </trkpt>
      <trkpt lat="45.73704" lon="4.72246">
        <ele>240.47</ele>
        <time>2016-09-04T07:16:44Z</time>
      </trkpt>
      <trkpt lat="45.73693" lon="4.72249">
        <ele>240.95</ele>
        <time>2016-09-04T07:16:49Z</time>
      </trkpt>
      <trkpt lat="45.73681" lon="4.72252">
        <ele>242.39</ele>
        <time>2016-09-04T07:16:54Z</time>
      </trkpt>
      <trkpt lat="45.73667" lon="4.72255">
        <ele>243.35</ele>
        <time>2016-09-04T07:16:59Z</time>
      </trkpt>
      <trkpt lat="45.73653" lon="4.72253">
        <ele>243.83</ele>
        <time>2016-09-04T07:17:04Z</time>
      </trkpt>
      <trkpt lat="45.73638" lon="4.7225">
        <ele>247.2</ele>
        <time>2016-09-04T07:17:09Z</time>
      </trkpt>
      <trkpt lat="45.73626" lon="4.72244">
        <ele>249.6</ele>
        <time>2016-09-04T07:17:14Z</time>
      </trkpt>
      <trkpt lat="45.73619" lon="4.72241">
        <ele>252</ele>
        <time>2016-09-04T07:17:19Z</time>
      </trkpt>
      <trkpt lat="45.73617" lon="4.7224">
        <ele>252.96</ele>
        <time>2016-09-04T07:17:24Z</time>
      </trkpt>
      <trkpt lat="45.73615" lon="4.72239">
        <ele>252.96</ele>
        <time>2016-09-04T07:17:29Z</time>
      </trkpt>
      <trkpt lat="45.73613" lon="4.72239">
        <ele>252</ele>
        <time>2016-09-04T07:17:34Z</time>
      </trkpt>
      <trkpt lat="45.73612" lon="4.72238">
        <ele>252.48</ele>
        <time>2016-09-04T07:17:39Z</time>
      </trkpt>
      <trkpt lat="45.7361" lon="4.72237">
        <ele>251.04</ele>
        <time>2016-09-04T07:17:44Z</time>
      </trkpt>
      <trkpt lat="45.73606" lon="4.7223">
        <ele>249.12</ele>
        <time>2016-09-04T07:17:49Z</time>
      </trkpt>
      <trkpt lat="45.73599" lon="4.72219">
        <ele>246.23</ele>
        <time>2016-09-04T07:17:54Z</time>
      </trkpt>
      <trkpt lat="45.73589" lon="4.72214">
        <ele>246.23</ele>
        <time>2016-09-04T07:17:59Z</time>
      </trkpt>
      <trkpt lat="45.73581" lon="4.7221">
        <ele>247.2</ele>
        <time>2016-09-04T07:18:04Z</time>
      </trkpt>
      <trkpt lat="45.73574" lon="4.72198">
        <ele>247.2</ele>
        <time>2016-09-04T07:18:09Z</time>
      </trkpt>
      <trkpt lat="45.73569" lon="4.72183">
        <ele>245.27</ele>
        <time>2016-09-04T07:18:14Z</time>
      </trkpt>
      <trkpt lat="45.73564" lon="4.72164">
        <ele>242.87</ele>
        <time>2016-09-04T07:18:19Z</time>
      </trkpt>
      <trkpt lat="45.73562" lon="4.72143">
        <ele>239.99</ele>
        <time>2016-09-04T07:18:24Z</time>
      </trkpt>
      <trkpt lat="45.7356" lon="4.72123">
        <ele>238.06</ele>
        <time>2016-09-04T07:18:29Z</time>
      </trkpt>
      <trkpt lat="45.73557" lon="4.72101">
        <ele>235.66</ele>
        <time>2016-09-04T07:18:34Z</time>
      </trkpt>
      <trkpt lat="45.73551" lon="4.7208">
        <ele>234.22</ele>
        <time>2016-09-04T07:18:39Z</time>
      </trkpt>
      <trkpt lat="45.73544" lon="4.72062">
        <ele>233.26</ele>
        <time>2016-09-04T07:18:44Z</time>
      </trkpt>
      <trkpt lat="45.73544" lon="4.72044">
        <ele>234.22</ele>
        <time>2016-09-04T07:18:49Z</time>
      </trkpt>
      <trkpt lat="45.73559" lon="4.72034">
        <ele>235.18</ele>
        <time>2016-09-04T07:18:54Z</time>
      </trkpt>
      <trkpt lat="45.73565" lon="4.72013">
        <ele>234.7</ele>
        <time>2016-09-04T07:18:59Z</time>
      </trkpt>
      <trkpt lat="45.73563" lon="4.71992">
        <ele>234.22</ele>
        <time>2016-09-04T07:19:04Z</time>
      </trkpt>
      <trkpt lat="45.73562" lon="4.71969">
        <ele>234.22</ele>
        <time>2016-09-04T07:19:09Z</time>
      </trkpt>
      <trkpt lat="45.73566" lon="4.71948">
        <ele>234.7</ele>
        <time>2016-09-04T07:19:14Z</time>
      </trkpt>
      <trkpt lat="45.73573" lon="4.71931">
        <ele>234.7</ele>
        <time>2016-09-04T07:19:19Z</time>
      </trkpt>
      <trkpt lat="45.73581" lon="4.71914">
        <ele>233.74</ele>
        <time>2016-09-04T07:19:24Z</time>
      </trkpt>
      <trkpt lat="45.73591" lon="4.71897">
        <ele>234.7</ele>
        <time>2016-09-04T07:19:29Z</time>
      </trkpt>
      <trkpt lat="45.73602" lon="4.71875">
        <ele>236.62</ele>
        <time>2016-09-04T07:19:34Z</time>
      </trkpt>
      <trkpt lat="45.7361" lon="4.71856">
        <ele>237.1</ele>
        <time>2016-09-04T07:19:39Z</time>
      </trkpt>
      <trkpt lat="45.73621" lon="4.71838">
        <ele>237.1</ele>
        <time>2016-09-04T07:19:44Z</time>
      </trkpt>
      <trkpt lat="45.73626" lon="4.71827">
        <ele>237.58</ele>
        <time>2016-09-04T07:19:49Z</time>
      </trkpt>
      <trkpt lat="45.73627" lon="4.7181">
        <ele>239.99</ele>
        <time>2016-09-04T07:19:54Z</time>
      </trkpt>
      <trkpt lat="45.73627" lon="4.71792">
        <ele>240.47</ele>
        <time>2016-09-04T07:19:59Z</time>
      </trkpt>
      <trkpt lat="45.73628" lon="4.71772">
        <ele>240.47</ele>
        <time>2016-09-04T07:20:04Z</time>
      </trkpt>
      <trkpt lat="45.73619" lon="4.71752">
        <ele>240.47</ele>
        <time>2016-09-04T07:20:09Z</time>
      </trkpt>
      <trkpt lat="45.73616" lon="4.71728">
        <ele>239.02</ele>
        <time>2016-09-04T07:20:14Z</time>
      </trkpt>
      <trkpt lat="45.73617" lon="4.71701">
        <ele>238.06</ele>
        <time>2016-09-04T07:20:19Z</time>
      </trkpt>
      <trkpt lat="45.7362" lon="4.71674">
        <ele>237.1</ele>
        <time>2016-09-04T07:20:24Z</time>
      </trkpt>
      <trkpt lat="45.73624" lon="4.7165">
        <ele>236.62</ele>
        <time>2016-09-04T07:20:29Z</time>
      </trkpt>
      <trkpt lat="45.73629" lon="4.71628">
        <ele>236.62</ele>
        <time>2016-09-04T07:20:34Z</time>
      </trkpt>
      <trkpt lat="45.73641" lon="4.71612">
        <ele>238.06</ele>
        <time>2016-09-04T07:20:39Z</time>
      </trkpt>
      <trkpt lat="45.73656" lon="4.71605">
        <ele>239.51</ele>
        <time>2016-09-04T07:20:44Z</time>
      </trkpt>
      <trkpt lat="45.73673" lon="4.71599">
        <ele>242.39</ele>
        <time>2016-09-04T07:20:49Z</time>
      </trkpt>
      <trkpt lat="45.73686" lon="4.71591">
        <ele>245.75</ele>
        <time>2016-09-04T07:20:54Z</time>
      </trkpt>
      <trkpt lat="45.737" lon="4.71575">
        <ele>248.16</ele>
        <time>2016-09-04T07:20:59Z</time>
      </trkpt>
      <trkpt lat="45.73712" lon="4.71574">
        <ele>250.56</ele>
        <time>2016-09-04T07:21:04Z</time>
      </trkpt>
      <trkpt lat="45.73722" lon="4.71574">
        <ele>251.52</ele>
        <time>2016-09-04T07:21:09Z</time>
      </trkpt>
      <trkpt lat="45.73731" lon="4.7158">
        <ele>252.96</ele>
        <time>2016-09-04T07:21:14Z</time>
      </trkpt>
      <trkpt lat="45.73739" lon="4.71584">
        <ele>253.44</ele>
        <time>2016-09-04T07:21:19Z</time>
      </trkpt>
      <trkpt lat="45.73747" lon="4.71587">
        <ele>254.41</ele>
        <time>2016-09-04T07:21:24Z</time>
      </trkpt>
      <trkpt lat="45.73755" lon="4.71593">
        <ele>255.37</ele>
        <time>2016-09-04T07:21:29Z</time>
      </trkpt>
      <trkpt lat="45.73761" lon="4.71598">
        <ele>257.29</ele>
        <time>2016-09-04T07:21:34Z</time>
      </trkpt>
      <trkpt lat="45.73762" lon="4.71599">
        <ele>257.77</ele>
        <time>2016-09-04T07:21:39Z</time>
      </trkpt>
      <trkpt lat="45.73766" lon="4.71603">
        <ele>257.77</ele>
        <time>2016-09-04T07:21:44Z</time>
      </trkpt>
      <trkpt lat="45.73771" lon="4.71611">
        <ele>257.77</ele>
        <time>2016-09-04T07:21:49Z</time>
      </trkpt>
      <trkpt lat="45.73775" lon="4.71622">
        <ele>257.29</ele>
        <time>2016-09-04T07:21:54Z</time>
      </trkpt>
      <trkpt lat="45.7378" lon="4.71632">
        <ele>256.81</ele>
        <time>2016-09-04T07:21:59Z</time>
      </trkpt>
      <trkpt lat="45.73786" lon="4.71633">
        <ele>257.77</ele>
        <time>2016-09-04T07:22:04Z</time>
      </trkpt>
      <trkpt lat="45.73788" lon="4.71633">
        <ele>257.77</ele>
        <time>2016-09-04T07:22:09Z</time>
      </trkpt>
      <trkpt lat="45.73794" lon="4.71635">
        <ele>258.25</ele>
        <time>2016-09-04T07:22:14Z</time>
      </trkpt>
      <trkpt lat="45.73799" lon="4.71634">
        <ele>259.21</ele>
        <time>2016-09-04T07:22:19Z</time>
      </trkpt>
      <trkpt lat="45.73799" lon="4.71616">
        <ele>259.69</ele>
        <time>2016-09-04T07:22:24Z</time>
      </trkpt>
      <trkpt lat="45.738" lon="4.71598">
        <ele>259.69</ele>
        <time>2016-09-04T07:22:29Z</time>
      </trkpt>
      <trkpt lat="45.73802" lon="4.7158">
        <ele>260.17</ele>
        <time>2016-09-04T07:22:34Z</time>
      </trkpt>
      <trkpt lat="45.73805" lon="4.71559">
        <ele>260.65</ele>
        <time>2016-09-04T07:22:39Z</time>
      </trkpt>
      <trkpt lat="45.73803" lon="4.71535">
        <ele>259.69</ele>
        <time>2016-09-04T07:22:44Z</time>
      </trkpt>
      <trkpt lat="45.73802" lon="4.71513">
        <ele>259.21</ele>
        <time>2016-09-04T07:22:49Z</time>
      </trkpt>
      <trkpt lat="45.73794" lon="4.7149">
        <ele>258.25</ele>
        <time>2016-09-04T07:22:54Z</time>
      </trkpt>
      <trkpt lat="45.73799" lon="4.71475">
        <ele>258.73</ele>
        <time>2016-09-04T07:22:59Z</time>
      </trkpt>
      <trkpt lat="45.73806" lon="4.71467">
        <ele>261.14</ele>
        <time>2016-09-04T07:23:04Z</time>
      </trkpt>
      <trkpt lat="45.73815" lon="4.71462">
        <ele>263.54</ele>
        <time>2016-09-04T07:23:09Z</time>
      </trkpt>
      <trkpt lat="45.73824" lon="4.71463">
        <ele>264.98</ele>
        <time>2016-09-04T07:23:14Z</time>
      </trkpt>
      <trkpt lat="45.73832" lon="4.71473">
        <ele>265.46</ele>
        <time>2016-09-04T07:23:19Z</time>
      </trkpt>
      <trkpt lat="45.73833" lon="4.71484">
        <ele>265.46</ele>
        <time>2016-09-04T07:23:24Z</time>
      </trkpt>
      <trkpt lat="45.73831" lon="4.71493">
        <ele>265.46</ele>
        <time>2016-09-04T07:23:29Z</time>
      </trkpt>
      <trkpt lat="45.73832" lon="4.71505">
        <ele>265.46</ele>
        <time>2016-09-04T07:23:34Z</time>
      </trkpt>
      <trkpt lat="45.73832" lon="4.71516">
        <ele>264.98</ele>
        <time>2016-09-04T07:23:39Z</time>
      </trkpt>
      <trkpt lat="45.73834" lon="4.71532">
        <ele>265.46</ele>
        <time>2016-09-04T07:23:44Z</time>
      </trkpt>
      <trkpt lat="45.73835" lon="4.71551">
        <ele>265.94</ele>
        <time>2016-09-04T07:23:49Z</time>
      </trkpt>
      <trkpt lat="45.73836" lon="4.71574">
        <ele>265.94</ele>
        <time>2016-09-04T07:23:54Z</time>
      </trkpt>
      <trkpt lat="45.7384" lon="4.71596">
        <ele>266.9</ele>
        <time>2016-09-04T07:23:59Z</time>
      </trkpt>
      <trkpt lat="45.73845" lon="4.71612">
        <ele>267.38</ele>
        <time>2016-09-04T07:24:04Z</time>
      </trkpt>
      <trkpt lat="45.73853" lon="4.71623">
        <ele>267.86</ele>
        <time>2016-09-04T07:24:09Z</time>
      </trkpt>
      <trkpt lat="45.73861" lon="4.71635">
        <ele>268.35</ele>
        <time>2016-09-04T07:24:14Z</time>
      </trkpt>
      <trkpt lat="45.73873" lon="4.7164">
        <ele>268.83</ele>
        <time>2016-09-04T07:24:19Z</time>
      </trkpt>
      <trkpt lat="45.73884" lon="4.7164">
        <ele>269.79</ele>
        <time>2016-09-04T07:24:24Z</time>
      </trkpt>
      <trkpt lat="45.73896" lon="4.71639">
        <ele>271.23</ele>
        <time>2016-09-04T07:24:29Z</time>
      </trkpt>
      <trkpt lat="45.73906" lon="4.71639">
        <ele>272.67</ele>
        <time>2016-09-04T07:24:34Z</time>
      </trkpt>
      <trkpt lat="45.73916" lon="4.71639">
        <ele>274.11</ele>
        <time>2016-09-04T07:24:39Z</time>
      </trkpt>
      <trkpt lat="45.73927" lon="4.7164">
        <ele>275.07</ele>
        <time>2016-09-04T07:24:44Z</time>
      </trkpt>
      <trkpt lat="45.73938" lon="4.7164">
        <ele>275.56</ele>
        <time>2016-09-04T07:24:49Z</time>
      </trkpt>
      <trkpt lat="45.7395" lon="4.71639">
        <ele>276.04</ele>
        <time>2016-09-04T07:24:54Z</time>
      </trkpt>
      <trkpt lat="45.73961" lon="4.71639">
        <ele>277</ele>
        <time>2016-09-04T07:24:59Z</time>
      </trkpt>
      <trkpt lat="45.73972" lon="4.71638">
        <ele>277.48</ele>
        <time>2016-09-04T07:25:04Z</time>
      </trkpt>
      <trkpt lat="45.73982" lon="4.71634">
        <ele>277.48</ele>
        <time>2016-09-04T07:25:09Z</time>
      </trkpt>
      <trkpt lat="45.73991" lon="4.71631">
        <ele>277.48</ele>
        <time>2016-09-04T07:25:14Z</time>
      </trkpt>
      <trkpt lat="45.74001" lon="4.7163">
        <ele>277.48</ele>
        <time>2016-09-04T07:25:19Z</time>
      </trkpt>
      <trkpt lat="45.74011" lon="4.71628">
        <ele>277.96</ele>
        <time>2016-09-04T07:25:24Z</time>
      </trkpt>
      <trkpt lat="45.7402" lon="4.71627">
        <ele>279.88</ele>
        <time>2016-09-04T07:25:29Z</time>
      </trkpt>
      <trkpt lat="45.7402" lon="4.71624">
        <ele>279.88</ele>
        <time>2016-09-04T07:25:34Z</time>
      </trkpt>
      <trkpt lat="45.74004" lon="4.71628">
        <ele>277.96</ele>
        <time>2016-09-04T07:25:39Z</time>
      </trkpt>
      <trkpt lat="45.73987" lon="4.71621">
        <ele>277</ele>
        <time>2016-09-04T07:25:44Z</time>
      </trkpt>
      <trkpt lat="45.73975" lon="4.71603">
        <ele>277.48</ele>
        <time>2016-09-04T07:25:49Z</time>
      </trkpt>
      <trkpt lat="45.73967" lon="4.71586">
        <ele>278.92</ele>
        <time>2016-09-04T07:25:54Z</time>
      </trkpt>
      <trkpt lat="45.73959" lon="4.71568">
        <ele>279.88</ele>
        <time>2016-09-04T07:25:59Z</time>
      </trkpt>
      <trkpt lat="45.73951" lon="4.71547">
        <ele>279.4</ele>
        <time>2016-09-04T07:26:04Z</time>
      </trkpt>
      <trkpt lat="45.7394" lon="4.71523">
        <ele>279.88</ele>
        <time>2016-09-04T07:26:09Z</time>
      </trkpt>
      <trkpt lat="45.73934" lon="4.71496">
        <ele>279.4</ele>
        <time>2016-09-04T07:26:14Z</time>
      </trkpt>
      <trkpt lat="45.73942" lon="4.71477">
        <ele>279.4</ele>
        <time>2016-09-04T07:26:19Z</time>
      </trkpt>
      <trkpt lat="45.73953" lon="4.71471">
        <ele>280.84</ele>
        <time>2016-09-04T07:26:24Z</time>
      </trkpt>
      <trkpt lat="45.73962" lon="4.71466">
        <ele>283.73</ele>
        <time>2016-09-04T07:26:29Z</time>
      </trkpt>
      <trkpt lat="45.7397" lon="4.71457">
        <ele>284.69</ele>
        <time>2016-09-04T07:26:34Z</time>
      </trkpt>
      <trkpt lat="45.7398" lon="4.71449">
        <ele>285.17</ele>
        <time>2016-09-04T07:26:39Z</time>
      </trkpt>
      <trkpt lat="45.7399" lon="4.71447">
        <ele>286.13</ele>
        <time>2016-09-04T07:26:44Z</time>
      </trkpt>
      <trkpt lat="45.73999" lon="4.71445">
        <ele>286.61</ele>
        <time>2016-09-04T07:26:49Z</time>
      </trkpt>
      <trkpt lat="45.74006" lon="4.71435">
        <ele>287.57</ele>
        <time>2016-09-04T07:26:54Z</time>
      </trkpt>
      <trkpt lat="45.74014" lon="4.71424">
        <ele>288.05</ele>
        <time>2016-09-04T07:26:59Z</time>
      </trkpt>
      <trkpt lat="45.74024" lon="4.71416">
        <ele>288.53</ele>
        <time>2016-09-04T07:27:04Z</time>
      </trkpt>
      <trkpt lat="45.74033" lon="4.71407">
        <ele>289.01</ele>
        <time>2016-09-04T07:27:09Z</time>
      </trkpt>
      <trkpt lat="45.74043" lon="4.71403">
        <ele>289.97</ele>
        <time>2016-09-04T07:27:14Z</time>
      </trkpt>
      <trkpt lat="45.74051" lon="4.71398">
        <ele>290.94</ele>
        <time>2016-09-04T07:27:19Z</time>
      </trkpt>
      <trkpt lat="45.74056" lon="4.71393">
        <ele>292.38</ele>
        <time>2016-09-04T07:27:24Z</time>
      </trkpt>
      <trkpt lat="45.7406" lon="4.71391">
        <ele>294.3</ele>
        <time>2016-09-04T07:27:29Z</time>
      </trkpt>
      <trkpt lat="45.74064" lon="4.71389">
        <ele>294.78</ele>
        <time>2016-09-04T07:27:34Z</time>
      </trkpt>
      <trkpt lat="45.74069" lon="4.71384">
        <ele>294.78</ele>
        <time>2016-09-04T07:27:39Z</time>
      </trkpt>
      <trkpt lat="45.74071" lon="4.71378">
        <ele>295.26</ele>
        <time>2016-09-04T07:27:44Z</time>
      </trkpt>
      <trkpt lat="45.74072" lon="4.71374">
        <ele>294.78</ele>
        <time>2016-09-04T07:27:49Z</time>
      </trkpt>
      <trkpt lat="45.74073" lon="4.7137">
        <ele>294.3</ele>
        <time>2016-09-04T07:27:54Z</time>
      </trkpt>
      <trkpt lat="45.74072" lon="4.71363">
        <ele>293.82</ele>
        <time>2016-09-04T07:27:59Z</time>
      </trkpt>
      <trkpt lat="45.74066" lon="4.71345">
        <ele>292.86</ele>
        <time>2016-09-04T07:28:04Z</time>
      </trkpt>
      <trkpt lat="45.74059" lon="4.71325">
        <ele>291.9</ele>
        <time>2016-09-04T07:28:09Z</time>
      </trkpt>
      <trkpt lat="45.74058" lon="4.71304">
        <ele>291.42</ele>
        <time>2016-09-04T07:28:14Z</time>
      </trkpt>
      <trkpt lat="45.74059" lon="4.71277">
        <ele>290.46</ele>
        <time>2016-09-04T07:28:19Z</time>
      </trkpt>
      <trkpt lat="45.74055" lon="4.71251">
        <ele>290.46</ele>
        <time>2016-09-04T07:28:24Z</time>
      </trkpt>
      <trkpt lat="45.74045" lon="4.7123">
        <ele>290.46</ele>
        <time>2016-09-04T07:28:29Z</time>
      </trkpt>
      <trkpt lat="45.74057" lon="4.71217">
        <ele>291.42</ele>
        <time>2016-09-04T07:28:34Z</time>
      </trkpt>
      <trkpt lat="45.74072" lon="4.71206">
        <ele>292.86</ele>
        <time>2016-09-04T07:28:39Z</time>
      </trkpt>
      <trkpt lat="45.74087" lon="4.71196">
        <ele>294.78</ele>
        <time>2016-09-04T07:28:44Z</time>
      </trkpt>
      <trkpt lat="45.74102" lon="4.71184">
        <ele>296.7</ele>
        <time>2016-09-04T07:28:49Z</time>
      </trkpt>
      <trkpt lat="45.74117" lon="4.71172">
        <ele>298.15</ele>
        <time>2016-09-04T07:28:54Z</time>
      </trkpt>
      <trkpt lat="45.74131" lon="4.7116">
        <ele>300.07</ele>
        <time>2016-09-04T07:28:59Z</time>
      </trkpt>
      <trkpt lat="45.74144" lon="4.71147">
        <ele>301.03</ele>
        <time>2016-09-04T07:29:04Z</time>
      </trkpt>
      <trkpt lat="45.74158" lon="4.71134">
        <ele>301.03</ele>
        <time>2016-09-04T07:29:09Z</time>
      </trkpt>
      <trkpt lat="45.74171" lon="4.7112">
        <ele>301.51</ele>
        <time>2016-09-04T07:29:14Z</time>
      </trkpt>
      <trkpt lat="45.74183" lon="4.71107">
        <ele>301.51</ele>
        <time>2016-09-04T07:29:19Z</time>
      </trkpt>
      <trkpt lat="45.74196" lon="4.71092">
        <ele>301.99</ele>
        <time>2016-09-04T07:29:24Z</time>
      </trkpt>
      <trkpt lat="45.74209" lon="4.71077">
        <ele>301.99</ele>
        <time>2016-09-04T07:29:29Z</time>
      </trkpt>
      <trkpt lat="45.74221" lon="4.71064">
        <ele>301.99</ele>
        <time>2016-09-04T07:29:34Z</time>
      </trkpt>
      <trkpt lat="45.74236" lon="4.71048">
        <ele>301.99</ele>
        <time>2016-09-04T07:29:39Z</time>
      </trkpt>
      <trkpt lat="45.74251" lon="4.7103">
        <ele>301.51</ele>
        <time>2016-09-04T07:29:44Z</time>
      </trkpt>
      <trkpt lat="45.74253" lon="4.71004">
        <ele>301.03</ele>
        <time>2016-09-04T07:29:49Z</time>
      </trkpt>
      <trkpt lat="45.74254" lon="4.70977">
        <ele>300.55</ele>
        <time>2016-09-04T07:29:54Z</time>
      </trkpt>
      <trkpt lat="45.74254" lon="4.7095">
        <ele>301.03</ele>
        <time>2016-09-04T07:29:59Z</time>
      </trkpt>
      <trkpt lat="45.74255" lon="4.70926">
        <ele>301.03</ele>
        <time>2016-09-04T07:30:04Z</time>
      </trkpt>
      <trkpt lat="45.74256" lon="4.709">
        <ele>301.03</ele>
        <time>2016-09-04T07:30:09Z</time>
      </trkpt>
      <trkpt lat="45.74256" lon="4.70872">
        <ele>301.03</ele>
        <time>2016-09-04T07:30:14Z</time>
      </trkpt>
      <trkpt lat="45.74257" lon="4.70846">
        <ele>300.55</ele>
        <time>2016-09-04T07:30:19Z</time>
      </trkpt>
      <trkpt lat="45.74256" lon="4.70816">
        <ele>300.55</ele>
        <time>2016-09-04T07:30:24Z</time>
      </trkpt>
      <trkpt lat="45.74257" lon="4.70786">
        <ele>299.59</ele>
        <time>2016-09-04T07:30:29Z</time>
      </trkpt>
      <trkpt lat="45.74258" lon="4.70755">
        <ele>298.63</ele>
        <time>2016-09-04T07:30:34Z</time>
      </trkpt>
      <trkpt lat="45.74261" lon="4.70724">
        <ele>298.15</ele>
        <time>2016-09-04T07:30:39Z</time>
      </trkpt>
      <trkpt lat="45.74266" lon="4.7069">
        <ele>299.11</ele>
        <time>2016-09-04T07:30:44Z</time>
      </trkpt>
      <trkpt lat="45.74271" lon="4.70654">
        <ele>298.63</ele>
        <time>2016-09-04T07:30:49Z</time>
      </trkpt>
      <trkpt lat="45.74271" lon="4.70637">
        <ele>299.11</ele>
        <time>2016-09-04T07:30:54Z</time>
      </trkpt>
      <trkpt lat="45.74271" lon="4.70637">
        <ele>299.59</ele>
        <time>2016-09-04T07:30:59Z</time>
      </trkpt>
      <trkpt lat="45.74271" lon="4.70636">
        <ele>300.07</ele>
        <time>2016-09-04T07:31:04Z</time>
      </trkpt>
      <trkpt lat="45.74269" lon="4.70645">
        <ele>300.07</ele>
        <time>2016-09-04T07:31:09Z</time>
      </trkpt>
      <trkpt lat="45.74267" lon="4.70663">
        <ele>300.55</ele>
        <time>2016-09-04T07:31:14Z</time>
      </trkpt>
      <trkpt lat="45.7427" lon="4.70671">
        <ele>300.55</ele>
        <time>2016-09-04T07:31:19Z</time>
      </trkpt>
      <trkpt lat="45.74282" lon="4.70671">
        <ele>302.47</ele>
        <time>2016-09-04T07:31:24Z</time>
      </trkpt>
      <trkpt lat="45.74299" lon="4.70674">
        <ele>303.43</ele>
        <time>2016-09-04T07:31:29Z</time>
      </trkpt>
      <trkpt lat="45.74317" lon="4.70679">
        <ele>304.39</ele>
        <time>2016-09-04T07:31:34Z</time>
      </trkpt>
      <trkpt lat="45.74334" lon="4.70685">
        <ele>304.88</ele>
        <time>2016-09-04T07:31:39Z</time>
      </trkpt>
      <trkpt lat="45.74353" lon="4.70695">
        <ele>304.88</ele>
        <time>2016-09-04T07:31:44Z</time>
      </trkpt>
      <trkpt lat="45.74372" lon="4.70707">
        <ele>305.36</ele>
        <time>2016-09-04T07:31:49Z</time>
      </trkpt>
      <trkpt lat="45.74389" lon="4.70722">
        <ele>305.36</ele>
        <time>2016-09-04T07:31:54Z</time>
      </trkpt>
      <trkpt lat="45.74407" lon="4.7074">
        <ele>305.84</ele>
        <time>2016-09-04T07:31:59Z</time>
      </trkpt>
      <trkpt lat="45.74427" lon="4.70761">
        <ele>305.84</ele>
        <time>2016-09-04T07:32:04Z</time>
      </trkpt>
      <trkpt lat="45.74443" lon="4.70774">
        <ele>306.32</ele>
        <time>2016-09-04T07:32:09Z</time>
      </trkpt>
      <trkpt lat="45.74463" lon="4.70769">
        <ele>307.28</ele>
        <time>2016-09-04T07:32:14Z</time>
      </trkpt>
      <trkpt lat="45.74483" lon="4.70766">
        <ele>306.32</ele>
        <time>2016-09-04T07:32:19Z</time>
      </trkpt>
      <trkpt lat="45.74503" lon="4.70768">
        <ele>306.8</ele>
        <time>2016-09-04T07:32:24Z</time>
      </trkpt>
      <trkpt lat="45.74521" lon="4.70768">
        <ele>308.24</ele>
        <time>2016-09-04T07:32:29Z</time>
      </trkpt>
      <trkpt lat="45.74538" lon="4.70766">
        <ele>308.72</ele>
        <time>2016-09-04T07:32:34Z</time>
      </trkpt>
      <trkpt lat="45.74555" lon="4.70765">
        <ele>310.16</ele>
        <time>2016-09-04T07:32:39Z</time>
      </trkpt>
      <trkpt lat="45.74573" lon="4.70763">
        <ele>311.6</ele>
        <time>2016-09-04T07:32:44Z</time>
      </trkpt>
      <trkpt lat="45.7459" lon="4.70763">
        <ele>313.53</ele>
        <time>2016-09-04T07:32:49Z</time>
      </trkpt>
      <trkpt lat="45.74607" lon="4.70765">
        <ele>315.45</ele>
        <time>2016-09-04T07:32:54Z</time>
      </trkpt>
      <trkpt lat="45.74622" lon="4.70763">
        <ele>315.93</ele>
        <time>2016-09-04T07:32:59Z</time>
      </trkpt>
      <trkpt lat="45.74636" lon="4.70762">
        <ele>316.89</ele>
        <time>2016-09-04T07:33:04Z</time>
      </trkpt>
      <trkpt lat="45.7465" lon="4.7076">
        <ele>316.89</ele>
        <time>2016-09-04T07:33:09Z</time>
      </trkpt>
      <trkpt lat="45.74661" lon="4.7076">
        <ele>318.81</ele>
        <time>2016-09-04T07:33:14Z</time>
      </trkpt>
      <trkpt lat="45.74673" lon="4.70758">
        <ele>318.81</ele>
        <time>2016-09-04T07:33:19Z</time>
      </trkpt>
      <trkpt lat="45.74684" lon="4.70752">
        <ele>319.3</ele>
        <time>2016-09-04T07:33:24Z</time>
      </trkpt>
      <trkpt lat="45.74695" lon="4.70749">
        <ele>320.26</ele>
        <time>2016-09-04T07:33:29Z</time>
      </trkpt>
      <trkpt lat="45.74709" lon="4.70748">
        <ele>320.74</ele>
        <time>2016-09-04T07:33:34Z</time>
      </trkpt>
      <trkpt lat="45.74723" lon="4.70745">
        <ele>320.74</ele>
        <time>2016-09-04T07:33:39Z</time>
      </trkpt>
      <trkpt lat="45.74727" lon="4.7073">
        <ele>320.26</ele>
        <time>2016-09-04T07:33:44Z</time>
      </trkpt>
      <trkpt lat="45.74728" lon="4.70711">
        <ele>319.3</ele>
        <time>2016-09-04T07:33:49Z</time>
      </trkpt>
      <trkpt lat="45.74727" lon="4.70691">
        <ele>318.33</ele>
        <time>2016-09-04T07:33:54Z</time>
      </trkpt>
      <trkpt lat="45.74726" lon="4.7067">
        <ele>316.89</ele>
        <time>2016-09-04T07:33:59Z</time>
      </trkpt>
      <trkpt lat="45.74726" lon="4.70646">
        <ele>316.41</ele>
        <time>2016-09-04T07:34:04Z</time>
      </trkpt>
      <trkpt lat="45.74722" lon="4.70628">
        <ele>314.97</ele>
        <time>2016-09-04T07:34:09Z</time>
      </trkpt>
      <trkpt lat="45.74714" lon="4.70611">
        <ele>314.01</ele>
        <time>2016-09-04T07:34:14Z</time>
      </trkpt>
      <trkpt lat="45.74705" lon="4.70589">
        <ele>312.57</ele>
        <time>2016-09-04T07:34:19Z</time>
      </trkpt>
      <trkpt lat="45.74695" lon="4.70566">
        <ele>310.64</ele>
        <time>2016-09-04T07:34:24Z</time>
      </trkpt>
      <trkpt lat="45.74684" lon="4.70542">
        <ele>308.72</ele>
        <time>2016-09-04T07:34:29Z</time>
      </trkpt>
      <trkpt lat="45.74677" lon="4.70512">
        <ele>307.76</ele>
        <time>2016-09-04T07:34:34Z</time>
      </trkpt>
      <trkpt lat="45.74675" lon="4.70485">
        <ele>307.76</ele>
        <time>2016-09-04T07:34:39Z</time>
      </trkpt>
      <trkpt lat="45.74677" lon="4.70459">
        <ele>307.28</ele>
        <time>2016-09-04T07:34:44Z</time>
      </trkpt>
      <trkpt lat="45.74679" lon="4.70434">
        <ele>306.8</ele>
        <time>2016-09-04T07:34:49Z</time>
      </trkpt>
      <trkpt lat="45.7468" lon="4.70407">
        <ele>306.32</ele>
        <time>2016-09-04T07:34:54Z</time>
      </trkpt>
      <trkpt lat="45.74677" lon="4.7038">
        <ele>306.32</ele>
        <time>2016-09-04T07:34:59Z</time>
      </trkpt>
      <trkpt lat="45.7467" lon="4.70359">
        <ele>305.84</ele>
        <time>2016-09-04T07:35:04Z</time>
      </trkpt>
      <trkpt lat="45.74665" lon="4.70352">
        <ele>306.32</ele>
        <time>2016-09-04T07:35:09Z</time>
      </trkpt>
      <trkpt lat="45.74655" lon="4.70346">
        <ele>306.8</ele>
        <time>2016-09-04T07:35:14Z</time>
      </trkpt>
      <trkpt lat="45.74645" lon="4.70338">
        <ele>307.76</ele>
        <time>2016-09-04T07:35:19Z</time>
      </trkpt>
      <trkpt lat="45.74638" lon="4.7033">
        <ele>307.76</ele>
        <time>2016-09-04T07:35:24Z</time>
      </trkpt>
      <trkpt lat="45.74632" lon="4.70311">
        <ele>307.76</ele>
        <time>2016-09-04T07:35:29Z</time>
      </trkpt>
      <trkpt lat="45.74622" lon="4.70293">
        <ele>307.28</ele>
        <time>2016-09-04T07:35:34Z</time>
      </trkpt>
      <trkpt lat="45.74614" lon="4.70271">
        <ele>307.28</ele>
        <time>2016-09-04T07:35:39Z</time>
      </trkpt>
      <trkpt lat="45.74613" lon="4.70245">
        <ele>306.32</ele>
        <time>2016-09-04T07:35:44Z</time>
      </trkpt>
      <trkpt lat="45.7461" lon="4.70218">
        <ele>305.36</ele>
        <time>2016-09-04T07:35:49Z</time>
      </trkpt>
      <trkpt lat="45.74605" lon="4.70189">
        <ele>304.88</ele>
        <time>2016-09-04T07:35:54Z</time>
      </trkpt>
      <trkpt lat="45.74598" lon="4.7016">
        <ele>303.43</ele>
        <time>2016-09-04T07:35:59Z</time>
      </trkpt>
      <trkpt lat="45.74592" lon="4.7013">
        <ele>301.99</ele>
        <time>2016-09-04T07:36:04Z</time>
      </trkpt>
      <trkpt lat="45.74585" lon="4.70099">
        <ele>302.47</ele>
        <time>2016-09-04T07:36:09Z</time>
      </trkpt>
      <trkpt lat="45.74578" lon="4.70069">
        <ele>302.95</ele>
        <time>2016-09-04T07:36:14Z</time>
      </trkpt>
      <trkpt lat="45.74572" lon="4.70038">
        <ele>303.43</ele>
        <time>2016-09-04T07:36:19Z</time>
      </trkpt>
      <trkpt lat="45.74568" lon="4.70009">
        <ele>302.95</ele>
        <time>2016-09-04T07:36:24Z</time>
      </trkpt>
      <trkpt lat="45.74563" lon="4.69979">
        <ele>302.95</ele>
        <time>2016-09-04T07:36:29Z</time>
      </trkpt>
      <trkpt lat="45.74559" lon="4.69945">
        <ele>303.43</ele>
        <time>2016-09-04T07:36:34Z</time>
      </trkpt>
      <trkpt lat="45.74555" lon="4.69911">
        <ele>305.84</ele>
        <time>2016-09-04T07:36:39Z</time>
      </trkpt>
      <trkpt lat="45.74554" lon="4.69879">
        <ele>306.8</ele>
        <time>2016-09-04T07:36:44Z</time>
      </trkpt>
      <trkpt lat="45.74552" lon="4.69847">
        <ele>309.2</ele>
        <time>2016-09-04T07:36:49Z</time>
      </trkpt>
      <trkpt lat="45.74551" lon="4.69818">
        <ele>310.64</ele>
        <time>2016-09-04T07:36:54Z</time>
      </trkpt>
      <trkpt lat="45.74549" lon="4.69797">
        <ele>311.12</ele>
        <time>2016-09-04T07:36:59Z</time>
      </trkpt>
      <trkpt lat="45.74548" lon="4.69776">
        <ele>311.6</ele>
        <time>2016-09-04T07:37:04Z</time>
      </trkpt>
      <trkpt lat="45.74547" lon="4.69755">
        <ele>312.57</ele>
        <time>2016-09-04T07:37:09Z</time>
      </trkpt>
      <trkpt lat="45.74546" lon="4.69736">
        <ele>314.01</ele>
        <time>2016-09-04T07:37:14Z</time>
      </trkpt>
      <trkpt lat="45.74545" lon="4.69716">
        <ele>314.01</ele>
        <time>2016-09-04T07:37:19Z</time>
      </trkpt>
      <trkpt lat="45.74544" lon="4.69695">
        <ele>314.97</ele>
        <time>2016-09-04T07:37:24Z</time>
      </trkpt>
      <trkpt lat="45.74544" lon="4.69673">
        <ele>315.45</ele>
        <time>2016-09-04T07:37:29Z</time>
      </trkpt>
      <trkpt lat="45.74543" lon="4.6965">
        <ele>315.45</ele>
        <time>2016-09-04T07:37:34Z</time>
      </trkpt>
      <trkpt lat="45.74542" lon="4.69626">
        <ele>314.97</ele>
        <time>2016-09-04T07:37:39Z</time>
      </trkpt>
      <trkpt lat="45.74541" lon="4.69602">
        <ele>314.49</ele>
        <time>2016-09-04T07:37:44Z</time>
      </trkpt>
      <trkpt lat="45.7454" lon="4.69578">
        <ele>314.49</ele>
        <time>2016-09-04T07:37:49Z</time>
      </trkpt>
      <trkpt lat="45.74539" lon="4.69554">
        <ele>314.97</ele>
        <time>2016-09-04T07:37:54Z</time>
      </trkpt>
      <trkpt lat="45.74538" lon="4.6953">
        <ele>314.97</ele>
        <time>2016-09-04T07:37:59Z</time>
      </trkpt>
      <trkpt lat="45.74536" lon="4.69507">
        <ele>316.41</ele>
        <time>2016-09-04T07:38:04Z</time>
      </trkpt>
      <trkpt lat="45.74535" lon="4.69483">
        <ele>316.41</ele>
        <time>2016-09-04T07:38:09Z</time>
      </trkpt>
      <trkpt lat="45.74534" lon="4.69458">
        <ele>316.89</ele>
        <time>2016-09-04T07:38:14Z</time>
      </trkpt>
      <trkpt lat="45.74532" lon="4.69434">
        <ele>318.33</ele>
        <time>2016-09-04T07:38:19Z</time>
      </trkpt>
      <trkpt lat="45.74531" lon="4.6941">
        <ele>318.81</ele>
        <time>2016-09-04T07:38:24Z</time>
      </trkpt>
      <trkpt lat="45.7453" lon="4.69386">
        <ele>318.81</ele>
        <time>2016-09-04T07:38:29Z</time>
      </trkpt>
      <trkpt lat="45.74529" lon="4.69361">
        <ele>318.33</ele>
        <time>2016-09-04T07:38:34Z</time>
      </trkpt>
      <trkpt lat="45.74529" lon="4.69338">
        <ele>318.33</ele>
        <time>2016-09-04T07:38:39Z</time>
      </trkpt>
      <trkpt lat="45.74526" lon="4.69323">
        <ele>317.85</ele>
        <time>2016-09-04T07:38:44Z</time>
      </trkpt>
      <trkpt lat="45.7452" lon="4.69307">
        <ele>316.89</ele>
        <time>2016-09-04T07:38:49Z</time>
      </trkpt>
      <trkpt lat="45.74521" lon="4.69285">
        <ele>316.89</ele>
        <time>2016-09-04T07:38:54Z</time>
      </trkpt>
      <trkpt lat="45.74523" lon="4.69262">
        <ele>317.85</ele>
        <time>2016-09-04T07:38:59Z</time>
      </trkpt>
      <trkpt lat="45.74524" lon="4.69236">
        <ele>318.81</ele>
        <time>2016-09-04T07:39:04Z</time>
      </trkpt>
      <trkpt lat="45.74524" lon="4.69208">
        <ele>318.81</ele>
        <time>2016-09-04T07:39:09Z</time>
      </trkpt>
      <trkpt lat="45.74519" lon="4.69181">
        <ele>319.78</ele>
        <time>2016-09-04T07:39:14Z</time>
      </trkpt>
      <trkpt lat="45.74514" lon="4.69153">
        <ele>320.74</ele>
        <time>2016-09-04T07:39:19Z</time>
      </trkpt>
      <trkpt lat="45.74514" lon="4.69123">
        <ele>321.7</ele>
        <time>2016-09-04T07:39:24Z</time>
      </trkpt>
      <trkpt lat="45.74516" lon="4.69095">
        <ele>321.7</ele>
        <time>2016-09-04T07:39:29Z</time>
      </trkpt>
      <trkpt lat="45.74519" lon="4.69067">
        <ele>322.18</ele>
        <time>2016-09-04T07:39:34Z</time>
      </trkpt>
      <trkpt lat="45.74524" lon="4.69045">
        <ele>322.66</ele>
        <time>2016-09-04T07:39:39Z</time>
      </trkpt>
      <trkpt lat="45.74532" lon="4.69039">
        <ele>324.1</ele>
        <time>2016-09-04T07:39:44Z</time>
      </trkpt>
      <trkpt lat="45.74543" lon="4.6904">
        <ele>325.54</ele>
        <time>2016-09-04T07:39:49Z</time>
      </trkpt>
      <trkpt lat="45.74547" lon="4.69028">
        <ele>325.54</ele>
        <time>2016-09-04T07:39:54Z</time>
      </trkpt>
      <trkpt lat="45.74545" lon="4.69009">
        <ele>325.06</ele>
        <time>2016-09-04T07:39:59Z</time>
      </trkpt>
      <trkpt lat="45.74544" lon="4.68992">
        <ele>324.58</ele>
        <time>2016-09-04T07:40:04Z</time>
      </trkpt>
      <trkpt lat="45.74541" lon="4.68977">
        <ele>324.58</ele>
        <time>2016-09-04T07:40:09Z</time>
      </trkpt>
      <trkpt lat="45.74537" lon="4.68955">
        <ele>324.58</ele>
        <time>2016-09-04T07:40:14Z</time>
      </trkpt>
      <trkpt lat="45.74531" lon="4.68933">
        <ele>324.58</ele>
        <time>2016-09-04T07:40:19Z</time>
      </trkpt>
      <trkpt lat="45.74525" lon="4.68913">
        <ele>325.06</ele>
        <time>2016-09-04T07:40:24Z</time>
      </trkpt>
      <trkpt lat="45.74518" lon="4.68892">
        <ele>325.06</ele>
        <time>2016-09-04T07:40:29Z</time>
      </trkpt>
      <trkpt lat="45.7451" lon="4.68872">
        <ele>325.06</ele>
        <time>2016-09-04T07:40:34Z</time>
      </trkpt>
      <trkpt lat="45.74502" lon="4.68851">
        <ele>325.06</ele>
        <time>2016-09-04T07:40:39Z</time>
      </trkpt>
      <trkpt lat="45.74493" lon="4.68829">
        <ele>326.02</ele>
        <time>2016-09-04T07:40:44Z</time>
      </trkpt>
      <trkpt lat="45.74485" lon="4.68807">
        <ele>326.5</ele>
        <time>2016-09-04T07:40:49Z</time>
      </trkpt>
      <trkpt lat="45.74477" lon="4.68785">
        <ele>326.99</ele>
        <time>2016-09-04T07:40:54Z</time>
      </trkpt>
      <trkpt lat="45.74471" lon="4.68763">
        <ele>326.99</ele>
        <time>2016-09-04T07:40:59Z</time>
      </trkpt>
      <trkpt lat="45.74463" lon="4.68743">
        <ele>327.95</ele>
        <time>2016-09-04T07:41:04Z</time>
      </trkpt>
      <trkpt lat="45.74455" lon="4.68723">
        <ele>328.43</ele>
        <time>2016-09-04T07:41:09Z</time>
      </trkpt>
      <trkpt lat="45.74447" lon="4.68703">
        <ele>329.39</ele>
        <time>2016-09-04T07:41:14Z</time>
      </trkpt>
      <trkpt lat="45.74438" lon="4.68682">
        <ele>329.87</ele>
        <time>2016-09-04T07:41:19Z</time>
      </trkpt>
      <trkpt lat="45.74428" lon="4.68662">
        <ele>330.35</ele>
        <time>2016-09-04T07:41:24Z</time>
      </trkpt>
      <trkpt lat="45.74418" lon="4.68643">
        <ele>330.83</ele>
        <time>2016-09-04T07:41:29Z</time>
      </trkpt>
      <trkpt lat="45.74404" lon="4.68626">
        <ele>331.31</ele>
        <time>2016-09-04T07:41:34Z</time>
      </trkpt>
      <trkpt lat="45.74391" lon="4.6861">
        <ele>331.31</ele>
        <time>2016-09-04T07:41:39Z</time>
      </trkpt>
      <trkpt lat="45.74376" lon="4.68597">
        <ele>331.79</ele>
        <time>2016-09-04T07:41:44Z</time>
      </trkpt>
      <trkpt lat="45.74362" lon="4.68588">
        <ele>331.79</ele>
        <time>2016-09-04T07:41:49Z</time>
      </trkpt>
      <trkpt lat="45.74348" lon="4.68579">
        <ele>332.27</ele>
        <time>2016-09-04T07:41:54Z</time>
      </trkpt>
      <trkpt lat="45.74331" lon="4.68572">
        <ele>333.23</ele>
        <time>2016-09-04T07:41:59Z</time>
      </trkpt>
      <trkpt lat="45.74314" lon="4.68566">
        <ele>333.71</ele>
        <time>2016-09-04T07:42:04Z</time>
      </trkpt>
      <trkpt lat="45.74296" lon="4.68564">
        <ele>333.71</ele>
        <time>2016-09-04T07:42:09Z</time>
      </trkpt>
      <trkpt lat="45.74279" lon="4.68565">
        <ele>334.2</ele>
        <time>2016-09-04T07:42:14Z</time>
      </trkpt>
      <trkpt lat="45.74262" lon="4.68567">
        <ele>334.2</ele>
        <time>2016-09-04T07:42:19Z</time>
      </trkpt>
      <trkpt lat="45.74246" lon="4.6857">
        <ele>335.16</ele>
        <time>2016-09-04T07:42:24Z</time>
      </trkpt>
      <trkpt lat="45.7423" lon="4.68575">
        <ele>335.64</ele>
        <time>2016-09-04T07:42:29Z</time>
      </trkpt>
      <trkpt lat="45.74215" lon="4.68581">
        <ele>336.6</ele>
        <time>2016-09-04T07:42:34Z</time>
      </trkpt>
      <trkpt lat="45.74199" lon="4.68586">
        <ele>337.08</ele>
        <time>2016-09-04T07:42:39Z</time>
      </trkpt>
      <trkpt lat="45.74183" lon="4.68589">
        <ele>338.04</ele>
        <time>2016-09-04T07:42:44Z</time>
      </trkpt>
      <trkpt lat="45.74166" lon="4.68589">
        <ele>338.52</ele>
        <time>2016-09-04T07:42:49Z</time>
      </trkpt>
      <trkpt lat="45.74148" lon="4.68587">
        <ele>339.48</ele>
        <time>2016-09-04T07:42:54Z</time>
      </trkpt>
      <trkpt lat="45.7413" lon="4.68583">
        <ele>339.96</ele>
        <time>2016-09-04T07:42:59Z</time>
      </trkpt>
      <trkpt lat="45.74113" lon="4.68578">
        <ele>340.44</ele>
        <time>2016-09-04T07:43:04Z</time>
      </trkpt>
      <trkpt lat="45.74096" lon="4.6857">
        <ele>340.92</ele>
        <time>2016-09-04T07:43:09Z</time>
      </trkpt>
      <trkpt lat="45.74081" lon="4.68561">
        <ele>341.41</ele>
        <time>2016-09-04T07:43:14Z</time>
      </trkpt>
      <trkpt lat="45.74066" lon="4.68548">
        <ele>341.41</ele>
        <time>2016-09-04T07:43:19Z</time>
      </trkpt>
      <trkpt lat="45.74052" lon="4.68533">
        <ele>341.41</ele>
        <time>2016-09-04T07:43:24Z</time>
      </trkpt>
      <trkpt lat="45.74038" lon="4.68515">
        <ele>341.41</ele>
        <time>2016-09-04T07:43:29Z</time>
      </trkpt>
      <trkpt lat="45.74027" lon="4.68496">
        <ele>341.89</ele>
        <time>2016-09-04T07:43:34Z</time>
      </trkpt>
      <trkpt lat="45.74015" lon="4.68476">
        <ele>342.37</ele>
        <time>2016-09-04T07:43:39Z</time>
      </trkpt>
      <trkpt lat="45.74003" lon="4.68455">
        <ele>342.37</ele>
        <time>2016-09-04T07:43:44Z</time>
      </trkpt>
      <trkpt lat="45.73992" lon="4.68435">
        <ele>342.85</ele>
        <time>2016-09-04T07:43:49Z</time>
      </trkpt>
      <trkpt lat="45.73981" lon="4.68416">
        <ele>343.33</ele>
        <time>2016-09-04T07:43:54Z</time>
      </trkpt>
      <trkpt lat="45.73968" lon="4.68401">
        <ele>343.33</ele>
        <time>2016-09-04T07:43:59Z</time>
      </trkpt>
      <trkpt lat="45.7396" lon="4.68388">
        <ele>343.81</ele>
        <time>2016-09-04T07:44:04Z</time>
      </trkpt>
      <trkpt lat="45.73958" lon="4.68378">
        <ele>344.77</ele>
        <time>2016-09-04T07:44:09Z</time>
      </trkpt>
      <trkpt lat="45.73951" lon="4.68368">
        <ele>345.25</ele>
        <time>2016-09-04T07:44:14Z</time>
      </trkpt>
      <trkpt lat="45.73945" lon="4.68353">
        <ele>345.73</ele>
        <time>2016-09-04T07:44:19Z</time>
      </trkpt>
      <trkpt lat="45.7394" lon="4.6834">
        <ele>346.21</ele>
        <time>2016-09-04T07:44:24Z</time>
      </trkpt>
      <trkpt lat="45.73938" lon="4.68324">
        <ele>347.17</ele>
        <time>2016-09-04T07:44:29Z</time>
      </trkpt>
      <trkpt lat="45.73936" lon="4.68308">
        <ele>347.65</ele>
        <time>2016-09-04T07:44:34Z</time>
      </trkpt>
      <trkpt lat="45.73934" lon="4.68292">
        <ele>347.65</ele>
        <time>2016-09-04T07:44:39Z</time>
      </trkpt>
      <trkpt lat="45.73933" lon="4.68276">
        <ele>348.13</ele>
        <time>2016-09-04T07:44:44Z</time>
      </trkpt>
      <trkpt lat="45.73933" lon="4.68262">
        <ele>348.62</ele>
        <time>2016-09-04T07:44:49Z</time>
      </trkpt>
      <trkpt lat="45.73933" lon="4.68251">
        <ele>349.58</ele>
        <time>2016-09-04T07:44:54Z</time>
      </trkpt>
      <trkpt lat="45.73933" lon="4.68247">
        <ele>350.54</ele>
        <time>2016-09-04T07:44:59Z</time>
      </trkpt>
      <trkpt lat="45.73935" lon="4.68245">
        <ele>350.54</ele>
        <time>2016-09-04T07:45:04Z</time>
      </trkpt>
      <trkpt lat="45.73936" lon="4.68238">
        <ele>351.02</ele>
        <time>2016-09-04T07:45:09Z</time>
      </trkpt>
      <trkpt lat="45.73936" lon="4.68235">
        <ele>350.54</ele>
        <time>2016-09-04T07:45:14Z</time>
      </trkpt>
      <trkpt lat="45.73936" lon="4.68235">
        <ele>350.54</ele>
        <time>2016-09-04T07:45:19Z</time>
      </trkpt>
      <trkpt lat="45.73936" lon="4.68235">
        <ele>351.02</ele>
        <time>2016-09-04T07:45:24Z</time>
      </trkpt>
      <trkpt lat="45.73936" lon="4.68235">
        <ele>350.54</ele>
        <time>2016-09-04T07:45:29Z</time>
      </trkpt>
      <trkpt lat="45.73937" lon="4.68235">
        <ele>350.06</ele>
        <time>2016-09-04T07:45:34Z</time>
      </trkpt>
      <trkpt lat="45.73939" lon="4.68235">
        <ele>349.58</ele>
        <time>2016-09-04T07:45:39Z</time>
      </trkpt>
      <trkpt lat="45.73938" lon="4.68234">
        <ele>349.1</ele>
        <time>2016-09-04T07:45:44Z</time>
      </trkpt>
      <trkpt lat="45.73938" lon="4.68233">
        <ele>348.62</ele>
        <time>2016-09-04T07:45:49Z</time>
      </trkpt>
      <trkpt lat="45.73938" lon="4.68234">
        <ele>348.13</ele>
        <time>2016-09-04T07:45:54Z</time>
      </trkpt>
      <trkpt lat="45.73938" lon="4.68234">
        <ele>347.65</ele>
        <time>2016-09-04T07:45:59Z</time>
      </trkpt>
      <trkpt lat="45.73939" lon="4.68234">
        <ele>348.13</ele>
        <time>2016-09-04T07:46:04Z</time>
      </trkpt>
      <trkpt lat="45.7394" lon="4.68234">
        <ele>349.58</ele>
        <time>2016-09-04T07:46:09Z</time>
      </trkpt>
      <trkpt lat="45.73941" lon="4.68235">
        <ele>350.54</ele>
        <time>2016-09-04T07:46:14Z</time>
      </trkpt>
      <trkpt lat="45.73942" lon="4.68235">
        <ele>351.02</ele>
        <time>2016-09-04T07:46:19Z</time>
      </trkpt>
      <trkpt lat="45.73942" lon="4.68235">
        <ele>351.02</ele>
        <time>2016-09-04T07:46:24Z</time>
      </trkpt>
      <trkpt lat="45.73942" lon="4.68235">
        <ele>351.5</ele>
        <time>2016-09-04T07:46:29Z</time>
      </trkpt>
      <trkpt lat="45.73941" lon="4.68234">
        <ele>351.98</ele>
        <time>2016-09-04T07:46:34Z</time>
      </trkpt>
      <trkpt lat="45.7394" lon="4.68234">
        <ele>351.5</ele>
        <time>2016-09-04T07:46:39Z</time>
      </trkpt>
      <trkpt lat="45.73941" lon="4.68234">
        <ele>351.02</ele>
        <time>2016-09-04T07:46:44Z</time>
      </trkpt>
      <trkpt lat="45.73941" lon="4.68232">
        <ele>351.02</ele>
        <time>2016-09-04T07:46:49Z</time>
      </trkpt>
      <trkpt lat="45.73939" lon="4.68227">
        <ele>351.5</ele>
        <time>2016-09-04T07:46:54Z</time>
      </trkpt>
      <trkpt lat="45.73942" lon="4.68235">
        <ele>351.5</ele>
        <time>2016-09-04T07:46:59Z</time>
      </trkpt>
      <trkpt lat="45.73939" lon="4.68248">
        <ele>351.02</ele>
        <time>2016-09-04T07:47:04Z</time>
      </trkpt>
      <trkpt lat="45.73937" lon="4.68257">
        <ele>351.02</ele>
        <time>2016-09-04T07:47:09Z</time>
      </trkpt>
      <trkpt lat="45.73937" lon="4.68273">
        <ele>350.54</ele>
        <time>2016-09-04T07:47:14Z</time>
      </trkpt>
      <trkpt lat="45.73938" lon="4.68301">
        <ele>349.58</ele>
        <time>2016-09-04T07:47:19Z</time>
      </trkpt>
      <trkpt lat="45.73943" lon="4.68334">
        <ele>348.13</ele>
        <time>2016-09-04T07:47:24Z</time>
      </trkpt>
      <trkpt lat="45.7395" lon="4.68356">
        <ele>347.65</ele>
        <time>2016-09-04T07:47:29Z</time>
      </trkpt>
      <trkpt lat="45.73957" lon="4.68369">
        <ele>347.17</ele>
        <time>2016-09-04T07:47:34Z</time>
      </trkpt>
      <trkpt lat="45.73967" lon="4.68377">
        <ele>347.65</ele>
        <time>2016-09-04T07:47:39Z</time>
      </trkpt>
      <trkpt lat="45.73981" lon="4.6838">
        <ele>348.62</ele>
        <time>2016-09-04T07:47:44Z</time>
      </trkpt>
      <trkpt lat="45.73991" lon="4.6838">
        <ele>350.06</ele>
        <time>2016-09-04T07:47:49Z</time>
      </trkpt>
      <trkpt lat="45.74" lon="4.6838">
        <ele>351.5</ele>
        <time>2016-09-04T07:47:54Z</time>
      </trkpt>
      <trkpt lat="45.74012" lon="4.68379">
        <ele>353.42</ele>
        <time>2016-09-04T07:47:59Z</time>
      </trkpt>
      <trkpt lat="45.74025" lon="4.68379">
        <ele>354.38</ele>
        <time>2016-09-04T07:48:04Z</time>
      </trkpt>
      <trkpt lat="45.7404" lon="4.68378">
        <ele>355.34</ele>
        <time>2016-09-04T07:48:09Z</time>
      </trkpt>
      <trkpt lat="45.74056" lon="4.68378">
        <ele>354.86</ele>
        <time>2016-09-04T07:48:14Z</time>
      </trkpt>
      <trkpt lat="45.74072" lon="4.68377">
        <ele>354.38</ele>
        <time>2016-09-04T07:48:19Z</time>
      </trkpt>
      <trkpt lat="45.74088" lon="4.68376">
        <ele>354.38</ele>
        <time>2016-09-04T07:48:24Z</time>
      </trkpt>
      <trkpt lat="45.74107" lon="4.68374">
        <ele>353.9</ele>
        <time>2016-09-04T07:48:29Z</time>
      </trkpt>
      <trkpt lat="45.74125" lon="4.68374">
        <ele>352.94</ele>
        <time>2016-09-04T07:48:34Z</time>
      </trkpt>
      <trkpt lat="45.74146" lon="4.68373">
        <ele>351.98</ele>
        <time>2016-09-04T07:48:39Z</time>
      </trkpt>
      <trkpt lat="45.74169" lon="4.6837">
        <ele>350.54</ele>
        <time>2016-09-04T07:48:44Z</time>
      </trkpt>
      <trkpt lat="45.74197" lon="4.68368">
        <ele>349.1</ele>
        <time>2016-09-04T07:48:49Z</time>
      </trkpt>
      <trkpt lat="45.7423" lon="4.68367">
        <ele>347.65</ele>
        <time>2016-09-04T07:48:54Z</time>
      </trkpt>
      <trkpt lat="45.74268" lon="4.68366">
        <ele>344.77</ele>
        <time>2016-09-04T07:48:59Z</time>
      </trkpt>
      <trkpt lat="45.74289" lon="4.68331">
        <ele>343.33</ele>
        <time>2016-09-04T07:49:04Z</time>
      </trkpt>
      <trkpt lat="45.74296" lon="4.68292">
        <ele>343.33</ele>
        <time>2016-09-04T07:49:09Z</time>
      </trkpt>
      <trkpt lat="45.74302" lon="4.6826">
        <ele>343.81</ele>
        <time>2016-09-04T07:49:14Z</time>
      </trkpt>
      <trkpt lat="45.74309" lon="4.68225">
        <ele>344.29</ele>
        <time>2016-09-04T07:49:19Z</time>
      </trkpt>
      <trkpt lat="45.74319" lon="4.68187">
        <ele>344.29</ele>
        <time>2016-09-04T07:49:24Z</time>
      </trkpt>
      <trkpt lat="45.7434" lon="4.68163">
        <ele>343.33</ele>
        <time>2016-09-04T07:49:29Z</time>
      </trkpt>
      <trkpt lat="45.7435" lon="4.68158">
        <ele>344.29</ele>
        <time>2016-09-04T07:49:34Z</time>
      </trkpt>
      <trkpt lat="45.74358" lon="4.68165">
        <ele>343.33</ele>
        <time>2016-09-04T07:49:39Z</time>
      </trkpt>
      <trkpt lat="45.74366" lon="4.68179">
        <ele>342.37</ele>
        <time>2016-09-04T07:49:44Z</time>
      </trkpt>
      <trkpt lat="45.74376" lon="4.68193">
        <ele>341.41</ele>
        <time>2016-09-04T07:49:49Z</time>
      </trkpt>
      <trkpt lat="45.74386" lon="4.68207">
        <ele>341.41</ele>
        <time>2016-09-04T07:49:54Z</time>
      </trkpt>
      <trkpt lat="45.74399" lon="4.68202">
        <ele>341.89</ele>
        <time>2016-09-04T07:49:59Z</time>
      </trkpt>
      <trkpt lat="45.7441" lon="4.682">
        <ele>343.33</ele>
        <time>2016-09-04T07:50:04Z</time>
      </trkpt>
      <trkpt lat="45.74422" lon="4.68197">
        <ele>345.73</ele>
        <time>2016-09-04T07:50:09Z</time>
      </trkpt>
      <trkpt lat="45.74433" lon="4.68195">
        <ele>348.13</ele>
        <time>2016-09-04T07:50:14Z</time>
      </trkpt>
      <trkpt lat="45.74445" lon="4.68191">
        <ele>350.06</ele>
        <time>2016-09-04T07:50:19Z</time>
      </trkpt>
      <trkpt lat="45.74457" lon="4.68189">
        <ele>351.5</ele>
        <time>2016-09-04T07:50:24Z</time>
      </trkpt>
      <trkpt lat="45.74466" lon="4.68185">
        <ele>353.42</ele>
        <time>2016-09-04T07:50:29Z</time>
      </trkpt>
      <trkpt lat="45.74476" lon="4.68184">
        <ele>353.9</ele>
        <time>2016-09-04T07:50:34Z</time>
      </trkpt>
      <trkpt lat="45.74485" lon="4.68181">
        <ele>354.86</ele>
        <time>2016-09-04T07:50:39Z</time>
      </trkpt>
      <trkpt lat="45.74494" lon="4.68179">
        <ele>356.31</ele>
        <time>2016-09-04T07:50:44Z</time>
      </trkpt>
      <trkpt lat="45.74504" lon="4.68177">
        <ele>356.31</ele>
        <time>2016-09-04T07:50:49Z</time>
      </trkpt>
      <trkpt lat="45.74514" lon="4.68174">
        <ele>357.27</ele>
        <time>2016-09-04T07:50:54Z</time>
      </trkpt>
      <trkpt lat="45.74524" lon="4.68172">
        <ele>357.75</ele>
        <time>2016-09-04T07:50:59Z</time>
      </trkpt>
      <trkpt lat="45.74534" lon="4.6817">
        <ele>358.23</ele>
        <time>2016-09-04T07:51:04Z</time>
      </trkpt>
      <trkpt lat="45.74545" lon="4.68169">
        <ele>358.71</ele>
        <time>2016-09-04T07:51:09Z</time>
      </trkpt>
      <trkpt lat="45.74556" lon="4.6817">
        <ele>358.71</ele>
        <time>2016-09-04T07:51:14Z</time>
      </trkpt>
      <trkpt lat="45.74567" lon="4.68171">
        <ele>357.75</ele>
        <time>2016-09-04T07:51:19Z</time>
      </trkpt>
      <trkpt lat="45.74576" lon="4.68166">
        <ele>357.27</ele>
        <time>2016-09-04T07:51:24Z</time>
      </trkpt>
      <trkpt lat="45.74583" lon="4.68159">
        <ele>357.75</ele>
        <time>2016-09-04T07:51:29Z</time>
      </trkpt>
      <trkpt lat="45.7459" lon="4.68152">
        <ele>357.75</ele>
        <time>2016-09-04T07:51:34Z</time>
      </trkpt>
      <trkpt lat="45.74599" lon="4.68146">
        <ele>357.75</ele>
        <time>2016-09-04T07:51:39Z</time>
      </trkpt>
      <trkpt lat="45.74603" lon="4.6814">
        <ele>357.27</ele>
        <time>2016-09-04T07:51:44Z</time>
      </trkpt>
      <trkpt lat="45.74597" lon="4.68143">
        <ele>356.79</ele>
        <time>2016-09-04T07:51:49Z</time>
      </trkpt>
      <trkpt lat="45.7459" lon="4.68141">
        <ele>355.83</ele>
        <time>2016-09-04T07:51:54Z</time>
      </trkpt>
      <trkpt lat="45.74588" lon="4.68133">
        <ele>355.34</ele>
        <time>2016-09-04T07:51:59Z</time>
      </trkpt>
      <trkpt lat="45.74584" lon="4.68122">
        <ele>354.86</ele>
        <time>2016-09-04T07:52:04Z</time>
      </trkpt>
      <trkpt lat="45.74581" lon="4.68109">
        <ele>354.86</ele>
        <time>2016-09-04T07:52:09Z</time>
      </trkpt>
      <trkpt lat="45.74578" lon="4.68096">
        <ele>354.86</ele>
        <time>2016-09-04T07:52:14Z</time>
      </trkpt>
      <trkpt lat="45.74574" lon="4.68085">
        <ele>355.34</ele>
        <time>2016-09-04T07:52:19Z</time>
      </trkpt>
      <trkpt lat="45.74571" lon="4.68073">
        <ele>355.34</ele>
        <time>2016-09-04T07:52:24Z</time>
      </trkpt>
      <trkpt lat="45.74568" lon="4.68059">
        <ele>355.83</ele>
        <time>2016-09-04T07:52:29Z</time>
      </trkpt>
      <trkpt lat="45.74565" lon="4.68045">
        <ele>355.83</ele>
        <time>2016-09-04T07:52:34Z</time>
      </trkpt>
      <trkpt lat="45.74562" lon="4.68031">
        <ele>356.31</ele>
        <time>2016-09-04T07:52:39Z</time>
      </trkpt>
      <trkpt lat="45.74558" lon="4.68018">
        <ele>356.31</ele>
        <time>2016-09-04T07:52:44Z</time>
      </trkpt>
      <trkpt lat="45.74555" lon="4.68004">
        <ele>356.79</ele>
        <time>2016-09-04T07:52:49Z</time>
      </trkpt>
      <trkpt lat="45.74552" lon="4.67989">
        <ele>356.79</ele>
        <time>2016-09-04T07:52:54Z</time>
      </trkpt>
      <trkpt lat="45.74546" lon="4.6797">
        <ele>355.83</ele>
        <time>2016-09-04T07:52:59Z</time>
      </trkpt>
      <trkpt lat="45.74542" lon="4.67956">
        <ele>355.83</ele>
        <time>2016-09-04T07:53:04Z</time>
      </trkpt>
      <trkpt lat="45.74536" lon="4.67937">
        <ele>353.9</ele>
        <time>2016-09-04T07:53:09Z</time>
      </trkpt>
      <trkpt lat="45.74528" lon="4.679">
        <ele>351.98</ele>
        <time>2016-09-04T07:53:14Z</time>
      </trkpt>
      <trkpt lat="45.74521" lon="4.67858">
        <ele>351.02</ele>
        <time>2016-09-04T07:53:19Z</time>
      </trkpt>
      <trkpt lat="45.74522" lon="4.67828">
        <ele>352.46</ele>
        <time>2016-09-04T07:53:24Z</time>
      </trkpt>
      <trkpt lat="45.74523" lon="4.67811">
        <ele>353.42</ele>
        <time>2016-09-04T07:53:29Z</time>
      </trkpt>
      <trkpt lat="45.74525" lon="4.67795">
        <ele>353.42</ele>
        <time>2016-09-04T07:53:34Z</time>
      </trkpt>
      <trkpt lat="45.74527" lon="4.67779">
        <ele>354.38</ele>
        <time>2016-09-04T07:53:39Z</time>
      </trkpt>
      <trkpt lat="45.74528" lon="4.67763">
        <ele>355.34</ele>
        <time>2016-09-04T07:53:44Z</time>
      </trkpt>
      <trkpt lat="45.74531" lon="4.67748">
        <ele>355.83</ele>
        <time>2016-09-04T07:53:49Z</time>
      </trkpt>
      <trkpt lat="45.74531" lon="4.67735">
        <ele>356.31</ele>
        <time>2016-09-04T07:53:54Z</time>
      </trkpt>
      <trkpt lat="45.74533" lon="4.67719">
        <ele>356.31</ele>
        <time>2016-09-04T07:53:59Z</time>
      </trkpt>
      <trkpt lat="45.74533" lon="4.67704">
        <ele>356.31</ele>
        <time>2016-09-04T07:54:04Z</time>
      </trkpt>
      <trkpt lat="45.74534" lon="4.6769">
        <ele>356.79</ele>
        <time>2016-09-04T07:54:09Z</time>
      </trkpt>
      <trkpt lat="45.74535" lon="4.67673">
        <ele>356.31</ele>
        <time>2016-09-04T07:54:14Z</time>
      </trkpt>
      <trkpt lat="45.74535" lon="4.67655">
        <ele>356.31</ele>
        <time>2016-09-04T07:54:19Z</time>
      </trkpt>
      <trkpt lat="45.74533" lon="4.67638">
        <ele>356.79</ele>
        <time>2016-09-04T07:54:24Z</time>
      </trkpt>
      <trkpt lat="45.7453" lon="4.67617">
        <ele>356.31</ele>
        <time>2016-09-04T07:54:29Z</time>
      </trkpt>
      <trkpt lat="45.74527" lon="4.67595">
        <ele>355.83</ele>
        <time>2016-09-04T07:54:34Z</time>
      </trkpt>
      <trkpt lat="45.74525" lon="4.6757">
        <ele>354.86</ele>
        <time>2016-09-04T07:54:39Z</time>
      </trkpt>
      <trkpt lat="45.74522" lon="4.6754">
        <ele>354.38</ele>
        <time>2016-09-04T07:54:44Z</time>
      </trkpt>
      <trkpt lat="45.7452" lon="4.67509">
        <ele>353.42</ele>
        <time>2016-09-04T07:54:49Z</time>
      </trkpt>
      <trkpt lat="45.74514" lon="4.67481">
        <ele>352.46</ele>
        <time>2016-09-04T07:54:54Z</time>
      </trkpt>
      <trkpt lat="45.74483" lon="4.67483">
        <ele>348.62</ele>
        <time>2016-09-04T07:54:59Z</time>
      </trkpt>
      <trkpt lat="45.74455" lon="4.67466">
        <ele>349.58</ele>
        <time>2016-09-04T07:55:04Z</time>
      </trkpt>
      <trkpt lat="45.74449" lon="4.67444">
        <ele>352.46</ele>
        <time>2016-09-04T07:55:09Z</time>
      </trkpt>
      <trkpt lat="45.74446" lon="4.6743">
        <ele>353.9</ele>
        <time>2016-09-04T07:55:14Z</time>
      </trkpt>
      <trkpt lat="45.74443" lon="4.67415">
        <ele>355.83</ele>
        <time>2016-09-04T07:55:19Z</time>
      </trkpt>
      <trkpt lat="45.74439" lon="4.67403">
        <ele>357.75</ele>
        <time>2016-09-04T07:55:24Z</time>
      </trkpt>
      <trkpt lat="45.74436" lon="4.67391">
        <ele>359.19</ele>
        <time>2016-09-04T07:55:29Z</time>
      </trkpt>
      <trkpt lat="45.74434" lon="4.6738">
        <ele>359.67</ele>
        <time>2016-09-04T07:55:34Z</time>
      </trkpt>
      <trkpt lat="45.74431" lon="4.6737">
        <ele>360.63</ele>
        <time>2016-09-04T07:55:39Z</time>
      </trkpt>
      <trkpt lat="45.74429" lon="4.67361">
        <ele>361.11</ele>
        <time>2016-09-04T07:55:44Z</time>
      </trkpt>
      <trkpt lat="45.74428" lon="4.67352">
        <ele>362.07</ele>
        <time>2016-09-04T07:55:49Z</time>
      </trkpt>
      <trkpt lat="45.74426" lon="4.67342">
        <ele>363.04</ele>
        <time>2016-09-04T07:55:54Z</time>
      </trkpt>
      <trkpt lat="45.74424" lon="4.67334">
        <ele>363.52</ele>
        <time>2016-09-04T07:55:59Z</time>
      </trkpt>
      <trkpt lat="45.74421" lon="4.67326">
        <ele>364.48</ele>
        <time>2016-09-04T07:56:04Z</time>
      </trkpt>
      <trkpt lat="45.74418" lon="4.67318">
        <ele>364.96</ele>
        <time>2016-09-04T07:56:09Z</time>
      </trkpt>
      <trkpt lat="45.74415" lon="4.6731">
        <ele>364.96</ele>
        <time>2016-09-04T07:56:14Z</time>
      </trkpt>
      <trkpt lat="45.74411" lon="4.67302">
        <ele>365.44</ele>
        <time>2016-09-04T07:56:19Z</time>
      </trkpt>
      <trkpt lat="45.74406" lon="4.67291">
        <ele>366.4</ele>
        <time>2016-09-04T07:56:24Z</time>
      </trkpt>
      <trkpt lat="45.744" lon="4.6728">
        <ele>367.36</ele>
        <time>2016-09-04T07:56:29Z</time>
      </trkpt>
      <trkpt lat="45.74395" lon="4.67269">
        <ele>368.32</ele>
        <time>2016-09-04T07:56:34Z</time>
      </trkpt>
      <trkpt lat="45.7439" lon="4.67259">
        <ele>369.28</ele>
        <time>2016-09-04T07:56:39Z</time>
      </trkpt>
      <trkpt lat="45.74384" lon="4.67249">
        <ele>370.73</ele>
        <time>2016-09-04T07:56:44Z</time>
      </trkpt>
      <trkpt lat="45.74378" lon="4.67241">
        <ele>371.69</ele>
        <time>2016-09-04T07:56:49Z</time>
      </trkpt>
      <trkpt lat="45.74373" lon="4.67232">
        <ele>373.13</ele>
        <time>2016-09-04T07:56:54Z</time>
      </trkpt>
      <trkpt lat="45.74368" lon="4.67223">
        <ele>374.09</ele>
        <time>2016-09-04T07:56:59Z</time>
      </trkpt>
      <trkpt lat="45.74365" lon="4.67214">
        <ele>375.05</ele>
        <time>2016-09-04T07:57:04Z</time>
      </trkpt>
      <trkpt lat="45.7436" lon="4.67207">
        <ele>375.05</ele>
        <time>2016-09-04T07:57:09Z</time>
      </trkpt>
      <trkpt lat="45.74356" lon="4.67198">
        <ele>376.01</ele>
        <time>2016-09-04T07:57:14Z</time>
      </trkpt>
      <trkpt lat="45.74352" lon="4.67189">
        <ele>375.53</ele>
        <time>2016-09-04T07:57:19Z</time>
      </trkpt>
      <trkpt lat="45.74349" lon="4.6718">
        <ele>376.01</ele>
        <time>2016-09-04T07:57:24Z</time>
      </trkpt>
      <trkpt lat="45.74344" lon="4.67172">
        <ele>376.49</ele>
        <time>2016-09-04T07:57:29Z</time>
      </trkpt>
      <trkpt lat="45.74343" lon="4.67162">
        <ele>376.97</ele>
        <time>2016-09-04T07:57:34Z</time>
      </trkpt>
      <trkpt lat="45.7434" lon="4.67152">
        <ele>376.97</ele>
        <time>2016-09-04T07:57:39Z</time>
      </trkpt>
      <trkpt lat="45.74337" lon="4.67141">
        <ele>377.94</ele>
        <time>2016-09-04T07:57:44Z</time>
      </trkpt>
      <trkpt lat="45.74335" lon="4.67131">
        <ele>379.38</ele>
        <time>2016-09-04T07:57:49Z</time>
      </trkpt>
      <trkpt lat="45.74333" lon="4.67121">
        <ele>380.34</ele>
        <time>2016-09-04T07:57:54Z</time>
      </trkpt>
      <trkpt lat="45.74332" lon="4.67112">
        <ele>381.3</ele>
        <time>2016-09-04T07:57:59Z</time>
      </trkpt>
      <trkpt lat="45.74331" lon="4.67104">
        <ele>381.78</ele>
        <time>2016-09-04T07:58:04Z</time>
      </trkpt>
      <trkpt lat="45.74329" lon="4.67096">
        <ele>382.26</ele>
        <time>2016-09-04T07:58:09Z</time>
      </trkpt>
      <trkpt lat="45.74327" lon="4.67087">
        <ele>383.22</ele>
        <time>2016-09-04T07:58:14Z</time>
      </trkpt>
      <trkpt lat="45.74324" lon="4.67078">
        <ele>383.22</ele>
        <time>2016-09-04T07:58:19Z</time>
      </trkpt>
      <trkpt lat="45.74322" lon="4.67069">
        <ele>383.7</ele>
        <time>2016-09-04T07:58:24Z</time>
      </trkpt>
      <trkpt lat="45.7432" lon="4.6706">
        <ele>383.7</ele>
        <time>2016-09-04T07:58:29Z</time>
      </trkpt>
      <trkpt lat="45.74317" lon="4.67051">
        <ele>384.18</ele>
        <time>2016-09-04T07:58:34Z</time>
      </trkpt>
      <trkpt lat="45.74314" lon="4.67043">
        <ele>384.18</ele>
        <time>2016-09-04T07:58:39Z</time>
      </trkpt>
      <trkpt lat="45.74312" lon="4.67035">
        <ele>385.15</ele>
        <time>2016-09-04T07:58:44Z</time>
      </trkpt>
      <trkpt lat="45.7431" lon="4.67026">
        <ele>385.63</ele>
        <time>2016-09-04T07:58:49Z</time>
      </trkpt>
      <trkpt lat="45.74307" lon="4.67017">
        <ele>386.59</ele>
        <time>2016-09-04T07:58:54Z</time>
      </trkpt>
      <trkpt lat="45.74303" lon="4.67007">
        <ele>387.55</ele>
        <time>2016-09-04T07:58:59Z</time>
      </trkpt>
      <trkpt lat="45.74299" lon="4.66998">
        <ele>388.51</ele>
        <time>2016-09-04T07:59:04Z</time>
      </trkpt>
      <trkpt lat="45.74296" lon="4.6699">
        <ele>389.95</ele>
        <time>2016-09-04T07:59:09Z</time>
      </trkpt>
      <trkpt lat="45.74291" lon="4.66981">
        <ele>390.91</ele>
        <time>2016-09-04T07:59:14Z</time>
      </trkpt>
      <trkpt lat="45.74288" lon="4.66973">
        <ele>391.87</ele>
        <time>2016-09-04T07:59:19Z</time>
      </trkpt>
      <trkpt lat="45.74284" lon="4.66965">
        <ele>392.36</ele>
        <time>2016-09-04T07:59:24Z</time>
      </trkpt>
      <trkpt lat="45.74281" lon="4.66957">
        <ele>392.84</ele>
        <time>2016-09-04T07:59:29Z</time>
      </trkpt>
      <trkpt lat="45.74277" lon="4.66949">
        <ele>393.32</ele>
        <time>2016-09-04T07:59:34Z</time>
      </trkpt>
      <trkpt lat="45.74275" lon="4.6694">
        <ele>393.8</ele>
        <time>2016-09-04T07:59:39Z</time>
      </trkpt>
      <trkpt lat="45.7427" lon="4.66932">
        <ele>394.76</ele>
        <time>2016-09-04T07:59:44Z</time>
      </trkpt>
      <trkpt lat="45.74267" lon="4.66924">
        <ele>395.24</ele>
        <time>2016-09-04T07:59:49Z</time>
      </trkpt>
      <trkpt lat="45.74263" lon="4.66915">
        <ele>395.72</ele>
        <time>2016-09-04T07:59:54Z</time>
      </trkpt>
      <trkpt lat="45.74259" lon="4.66907">
        <ele>396.2</ele>
        <time>2016-09-04T07:59:59Z</time>
      </trkpt>
      <trkpt lat="45.74255" lon="4.66899">
        <ele>396.2</ele>
        <time>2016-09-04T08:00:04Z</time>
      </trkpt>
      <trkpt lat="45.74252" lon="4.66892">
        <ele>397.16</ele>
        <time>2016-09-04T08:00:09Z</time>
      </trkpt>
      <trkpt lat="45.74248" lon="4.66885">
        <ele>397.64</ele>
        <time>2016-09-04T08:00:14Z</time>
      </trkpt>
      <trkpt lat="45.74243" lon="4.66878">
        <ele>398.12</ele>
        <time>2016-09-04T08:00:19Z</time>
      </trkpt>
      <trkpt lat="45.74239" lon="4.66871">
        <ele>399.08</ele>
        <time>2016-09-04T08:00:24Z</time>
      </trkpt>
      <trkpt lat="45.74233" lon="4.66864">
        <ele>400.05</ele>
        <time>2016-09-04T08:00:29Z</time>
      </trkpt>
      <trkpt lat="45.74228" lon="4.66858">
        <ele>400.05</ele>
        <time>2016-09-04T08:00:34Z</time>
      </trkpt>
      <trkpt lat="45.74223" lon="4.66851">
        <ele>400.53</ele>
        <time>2016-09-04T08:00:39Z</time>
      </trkpt>
      <trkpt lat="45.74217" lon="4.66845">
        <ele>401.01</ele>
        <time>2016-09-04T08:00:44Z</time>
      </trkpt>
      <trkpt lat="45.74212" lon="4.6684">
        <ele>401.49</ele>
        <time>2016-09-04T08:00:49Z</time>
      </trkpt>
      <trkpt lat="45.74207" lon="4.66835">
        <ele>401.97</ele>
        <time>2016-09-04T08:00:54Z</time>
      </trkpt>
      <trkpt lat="45.74201" lon="4.6683">
        <ele>402.93</ele>
        <time>2016-09-04T08:00:59Z</time>
      </trkpt>
      <trkpt lat="45.74195" lon="4.66825">
        <ele>403.89</ele>
        <time>2016-09-04T08:01:04Z</time>
      </trkpt>
      <trkpt lat="45.7419" lon="4.66821">
        <ele>404.37</ele>
        <time>2016-09-04T08:01:09Z</time>
      </trkpt>
      <trkpt lat="45.74184" lon="4.66815">
        <ele>405.33</ele>
        <time>2016-09-04T08:01:14Z</time>
      </trkpt>
      <trkpt lat="45.74179" lon="4.66811">
        <ele>406.29</ele>
        <time>2016-09-04T08:01:19Z</time>
      </trkpt>
      <trkpt lat="45.74174" lon="4.66804">
        <ele>406.77</ele>
        <time>2016-09-04T08:01:24Z</time>
      </trkpt>
      <trkpt lat="45.74169" lon="4.668">
        <ele>406.77</ele>
        <time>2016-09-04T08:01:29Z</time>
      </trkpt>
      <trkpt lat="45.74162" lon="4.66794">
        <ele>408.22</ele>
        <time>2016-09-04T08:01:34Z</time>
      </trkpt>
      <trkpt lat="45.74155" lon="4.6679">
        <ele>409.18</ele>
        <time>2016-09-04T08:01:39Z</time>
      </trkpt>
      <trkpt lat="45.74148" lon="4.66788">
        <ele>409.66</ele>
        <time>2016-09-04T08:01:44Z</time>
      </trkpt>
      <trkpt lat="45.74142" lon="4.66787">
        <ele>410.14</ele>
        <time>2016-09-04T08:01:49Z</time>
      </trkpt>
      <trkpt lat="45.74135" lon="4.66784">
        <ele>410.62</ele>
        <time>2016-09-04T08:01:54Z</time>
      </trkpt>
      <trkpt lat="45.74128" lon="4.66781">
        <ele>411.1</ele>
        <time>2016-09-04T08:01:59Z</time>
      </trkpt>
      <trkpt lat="45.74122" lon="4.66777">
        <ele>411.1</ele>
        <time>2016-09-04T08:02:04Z</time>
      </trkpt>
      <trkpt lat="45.74116" lon="4.66773">
        <ele>411.58</ele>
        <time>2016-09-04T08:02:09Z</time>
      </trkpt>
      <trkpt lat="45.74111" lon="4.66768">
        <ele>412.06</ele>
        <time>2016-09-04T08:02:14Z</time>
      </trkpt>
      <trkpt lat="45.74106" lon="4.66761">
        <ele>413.5</ele>
        <time>2016-09-04T08:02:19Z</time>
      </trkpt>
      <trkpt lat="45.74103" lon="4.66751">
        <ele>413.5</ele>
        <time>2016-09-04T08:02:24Z</time>
      </trkpt>
      <trkpt lat="45.74097" lon="4.66745">
        <ele>412.54</ele>
        <time>2016-09-04T08:02:29Z</time>
      </trkpt>
      <trkpt lat="45.74091" lon="4.66742">
        <ele>412.06</ele>
        <time>2016-09-04T08:02:34Z</time>
      </trkpt>
      <trkpt lat="45.74084" lon="4.66743">
        <ele>412.54</ele>
        <time>2016-09-04T08:02:39Z</time>
      </trkpt>
      <trkpt lat="45.74078" lon="4.66743">
        <ele>413.5</ele>
        <time>2016-09-04T08:02:44Z</time>
      </trkpt>
      <trkpt lat="45.74071" lon="4.66744">
        <ele>415.43</ele>
        <time>2016-09-04T08:02:49Z</time>
      </trkpt>
      <trkpt lat="45.74063" lon="4.66744">
        <ele>417.35</ele>
        <time>2016-09-04T08:02:54Z</time>
      </trkpt>
      <trkpt lat="45.74056" lon="4.66745">
        <ele>417.83</ele>
        <time>2016-09-04T08:02:59Z</time>
      </trkpt>
      <trkpt lat="45.74048" lon="4.66745">
        <ele>419.27</ele>
        <time>2016-09-04T08:03:04Z</time>
      </trkpt>
      <trkpt lat="45.74042" lon="4.66745">
        <ele>420.71</ele>
        <time>2016-09-04T08:03:09Z</time>
      </trkpt>
      <trkpt lat="45.74034" lon="4.66747">
        <ele>421.19</ele>
        <time>2016-09-04T08:03:14Z</time>
      </trkpt>
      <trkpt lat="45.74027" lon="4.66747">
        <ele>421.68</ele>
        <time>2016-09-04T08:03:19Z</time>
      </trkpt>
      <trkpt lat="45.7402" lon="4.66748">
        <ele>421.68</ele>
        <time>2016-09-04T08:03:24Z</time>
      </trkpt>
      <trkpt lat="45.74012" lon="4.66748">
        <ele>422.64</ele>
        <time>2016-09-04T08:03:29Z</time>
      </trkpt>
      <trkpt lat="45.74004" lon="4.66749">
        <ele>422.64</ele>
        <time>2016-09-04T08:03:34Z</time>
      </trkpt>
      <trkpt lat="45.73997" lon="4.6675">
        <ele>423.6</ele>
        <time>2016-09-04T08:03:39Z</time>
      </trkpt>
      <trkpt lat="45.73988" lon="4.66752">
        <ele>424.08</ele>
        <time>2016-09-04T08:03:44Z</time>
      </trkpt>
      <trkpt lat="45.73981" lon="4.66755">
        <ele>425.04</ele>
        <time>2016-09-04T08:03:49Z</time>
      </trkpt>
      <trkpt lat="45.73972" lon="4.66757">
        <ele>426</ele>
        <time>2016-09-04T08:03:54Z</time>
      </trkpt>
      <trkpt lat="45.73964" lon="4.6676">
        <ele>426.48</ele>
        <time>2016-09-04T08:03:59Z</time>
      </trkpt>
      <trkpt lat="45.73961" lon="4.66754">
        <ele>426.96</ele>
        <time>2016-09-04T08:04:04Z</time>
      </trkpt>
      <trkpt lat="45.73968" lon="4.66748">
        <ele>427.44</ele>
        <time>2016-09-04T08:04:09Z</time>
      </trkpt>
      <trkpt lat="45.73976" lon="4.66742">
        <ele>427.92</ele>
        <time>2016-09-04T08:04:14Z</time>
      </trkpt>
      <trkpt lat="45.73983" lon="4.66734">
        <ele>428.89</ele>
        <time>2016-09-04T08:04:19Z</time>
      </trkpt>
      <trkpt lat="45.73989" lon="4.66727">
        <ele>429.37</ele>
        <time>2016-09-04T08:04:24Z</time>
      </trkpt>
      <trkpt lat="45.73997" lon="4.66718">
        <ele>429.37</ele>
        <time>2016-09-04T08:04:29Z</time>
      </trkpt>
      <trkpt lat="45.74004" lon="4.6671">
        <ele>430.33</ele>
        <time>2016-09-04T08:04:34Z</time>
      </trkpt>
      <trkpt lat="45.7401" lon="4.66701">
        <ele>430.33</ele>
        <time>2016-09-04T08:04:39Z</time>
      </trkpt>
      <trkpt lat="45.74018" lon="4.66692">
        <ele>430.81</ele>
        <time>2016-09-04T08:04:44Z</time>
      </trkpt>
      <trkpt lat="45.74026" lon="4.66683">
        <ele>431.29</ele>
        <time>2016-09-04T08:04:49Z</time>
      </trkpt>
      <trkpt lat="45.74034" lon="4.66673">
        <ele>431.77</ele>
        <time>2016-09-04T08:04:54Z</time>
      </trkpt>
      <trkpt lat="45.74041" lon="4.66662">
        <ele>432.25</ele>
        <time>2016-09-04T08:04:59Z</time>
      </trkpt>
      <trkpt lat="45.74049" lon="4.66652">
        <ele>432.73</ele>
        <time>2016-09-04T08:05:04Z</time>
      </trkpt>
      <trkpt lat="45.74058" lon="4.6664">
        <ele>433.69</ele>
        <time>2016-09-04T08:05:09Z</time>
      </trkpt>
      <trkpt lat="45.74068" lon="4.66628">
        <ele>433.69</ele>
        <time>2016-09-04T08:05:14Z</time>
      </trkpt>
      <trkpt lat="45.74078" lon="4.66616">
        <ele>433.69</ele>
        <time>2016-09-04T08:05:19Z</time>
      </trkpt>
      <trkpt lat="45.74087" lon="4.66604">
        <ele>433.69</ele>
        <time>2016-09-04T08:05:24Z</time>
      </trkpt>
      <trkpt lat="45.74095" lon="4.66594">
        <ele>434.17</ele>
        <time>2016-09-04T08:05:29Z</time>
      </trkpt>
      <trkpt lat="45.74105" lon="4.66583">
        <ele>434.17</ele>
        <time>2016-09-04T08:05:34Z</time>
      </trkpt>
      <trkpt lat="45.74114" lon="4.66572">
        <ele>434.65</ele>
        <time>2016-09-04T08:05:39Z</time>
      </trkpt>
      <trkpt lat="45.74125" lon="4.66557">
        <ele>434.17</ele>
        <time>2016-09-04T08:05:44Z</time>
      </trkpt>
      <trkpt lat="45.74135" lon="4.66538">
        <ele>433.69</ele>
        <time>2016-09-04T08:05:49Z</time>
      </trkpt>
      <trkpt lat="45.74142" lon="4.66511">
        <ele>432.25</ele>
        <time>2016-09-04T08:05:54Z</time>
      </trkpt>
      <trkpt lat="45.74148" lon="4.66473">
        <ele>430.33</ele>
        <time>2016-09-04T08:05:59Z</time>
      </trkpt>
      <trkpt lat="45.74166" lon="4.66435">
        <ele>429.37</ele>
        <time>2016-09-04T08:06:04Z</time>
      </trkpt>
      <trkpt lat="45.74196" lon="4.66417">
        <ele>428.4</ele>
        <time>2016-09-04T08:06:09Z</time>
      </trkpt>
      <trkpt lat="45.74225" lon="4.6642">
        <ele>428.89</ele>
        <time>2016-09-04T08:06:14Z</time>
      </trkpt>
      <trkpt lat="45.74242" lon="4.66408">
        <ele>428.89</ele>
        <time>2016-09-04T08:06:19Z</time>
      </trkpt>
      <trkpt lat="45.74241" lon="4.66397">
        <ele>430.81</ele>
        <time>2016-09-04T08:06:24Z</time>
      </trkpt>
      <trkpt lat="45.74239" lon="4.66391">
        <ele>431.77</ele>
        <time>2016-09-04T08:06:29Z</time>
      </trkpt>
      <trkpt lat="45.74236" lon="4.66387">
        <ele>432.25</ele>
        <time>2016-09-04T08:06:34Z</time>
      </trkpt>
      <trkpt lat="45.74235" lon="4.66386">
        <ele>432.73</ele>
        <time>2016-09-04T08:06:39Z</time>
      </trkpt>
      <trkpt lat="45.74231" lon="4.66383">
        <ele>433.69</ele>
        <time>2016-09-04T08:06:44Z</time>
      </trkpt>
      <trkpt lat="45.74227" lon="4.66382">
        <ele>434.65</ele>
        <time>2016-09-04T08:06:49Z</time>
      </trkpt>
      <trkpt lat="45.74222" lon="4.66381">
        <ele>434.65</ele>
        <time>2016-09-04T08:06:54Z</time>
      </trkpt>
      <trkpt lat="45.74216" lon="4.66379">
        <ele>435.13</ele>
        <time>2016-09-04T08:06:59Z</time>
      </trkpt>
      <trkpt lat="45.74211" lon="4.66378">
        <ele>435.61</ele>
        <time>2016-09-04T08:07:04Z</time>
      </trkpt>
      <trkpt lat="45.74207" lon="4.66375">
        <ele>435.61</ele>
        <time>2016-09-04T08:07:09Z</time>
      </trkpt>
      <trkpt lat="45.74206" lon="4.66375">
        <ele>436.1</ele>
        <time>2016-09-04T08:07:14Z</time>
      </trkpt>
      <trkpt lat="45.74204" lon="4.66374">
        <ele>436.1</ele>
        <time>2016-09-04T08:07:19Z</time>
      </trkpt>
      <trkpt lat="45.74199" lon="4.6637">
        <ele>436.58</ele>
        <time>2016-09-04T08:07:24Z</time>
      </trkpt>
      <trkpt lat="45.74193" lon="4.66366">
        <ele>437.54</ele>
        <time>2016-09-04T08:07:29Z</time>
      </trkpt>
      <trkpt lat="45.74186" lon="4.66362">
        <ele>437.54</ele>
        <time>2016-09-04T08:07:34Z</time>
      </trkpt>
      <trkpt lat="45.7418" lon="4.66357">
        <ele>437.54</ele>
        <time>2016-09-04T08:07:39Z</time>
      </trkpt>
      <trkpt lat="45.74173" lon="4.66354">
        <ele>438.02</ele>
        <time>2016-09-04T08:07:44Z</time>
      </trkpt>
      <trkpt lat="45.74167" lon="4.66349">
        <ele>438.5</ele>
        <time>2016-09-04T08:07:49Z</time>
      </trkpt>
      <trkpt lat="45.74162" lon="4.66345">
        <ele>439.46</ele>
        <time>2016-09-04T08:07:54Z</time>
      </trkpt>
      <trkpt lat="45.74156" lon="4.66342">
        <ele>440.42</ele>
        <time>2016-09-04T08:07:59Z</time>
      </trkpt>
      <trkpt lat="45.74149" lon="4.66342">
        <ele>440.9</ele>
        <time>2016-09-04T08:08:04Z</time>
      </trkpt>
      <trkpt lat="45.74144" lon="4.66348">
        <ele>441.86</ele>
        <time>2016-09-04T08:08:09Z</time>
      </trkpt>
      <trkpt lat="45.74139" lon="4.66357">
        <ele>442.82</ele>
        <time>2016-09-04T08:08:14Z</time>
      </trkpt>
      <trkpt lat="45.74134" lon="4.66364">
        <ele>443.31</ele>
        <time>2016-09-04T08:08:19Z</time>
      </trkpt>
      <trkpt lat="45.7413" lon="4.66371">
        <ele>444.75</ele>
        <time>2016-09-04T08:08:24Z</time>
      </trkpt>
      <trkpt lat="45.74126" lon="4.66376">
        <ele>445.71</ele>
        <time>2016-09-04T08:08:29Z</time>
      </trkpt>
      <trkpt lat="45.74122" lon="4.66381">
        <ele>446.67</ele>
        <time>2016-09-04T08:08:34Z</time>
      </trkpt>
      <trkpt lat="45.74118" lon="4.66387">
        <ele>448.11</ele>
        <time>2016-09-04T08:08:39Z</time>
      </trkpt>
      <trkpt lat="45.74113" lon="4.66393">
        <ele>449.07</ele>
        <time>2016-09-04T08:08:44Z</time>
      </trkpt>
      <trkpt lat="45.74108" lon="4.66399">
        <ele>449.55</ele>
        <time>2016-09-04T08:08:49Z</time>
      </trkpt>
      <trkpt lat="45.74103" lon="4.66402">
        <ele>450.52</ele>
        <time>2016-09-04T08:08:54Z</time>
      </trkpt>
      <trkpt lat="45.74097" lon="4.66405">
        <ele>451.96</ele>
        <time>2016-09-04T08:08:59Z</time>
      </trkpt>
      <trkpt lat="45.74092" lon="4.6641">
        <ele>451.48</ele>
        <time>2016-09-04T08:09:04Z</time>
      </trkpt>
      <trkpt lat="45.74086" lon="4.66417">
        <ele>451.96</ele>
        <time>2016-09-04T08:09:09Z</time>
      </trkpt>
      <trkpt lat="45.7408" lon="4.66423">
        <ele>451.96</ele>
        <time>2016-09-04T08:09:14Z</time>
      </trkpt>
      <trkpt lat="45.74074" lon="4.6643">
        <ele>452.92</ele>
        <time>2016-09-04T08:09:19Z</time>
      </trkpt>
      <trkpt lat="45.74066" lon="4.66437">
        <ele>453.4</ele>
        <time>2016-09-04T08:09:24Z</time>
      </trkpt>
      <trkpt lat="45.74059" lon="4.66443">
        <ele>453.88</ele>
        <time>2016-09-04T08:09:29Z</time>
      </trkpt>
      <trkpt lat="45.7405" lon="4.66449">
        <ele>453.4</ele>
        <time>2016-09-04T08:09:34Z</time>
      </trkpt>
      <trkpt lat="45.74042" lon="4.66453">
        <ele>453.4</ele>
        <time>2016-09-04T08:09:39Z</time>
      </trkpt>
      <trkpt lat="45.74032" lon="4.66459">
        <ele>453.88</ele>
        <time>2016-09-04T08:09:44Z</time>
      </trkpt>
      <trkpt lat="45.74022" lon="4.66465">
        <ele>454.36</ele>
        <time>2016-09-04T08:09:49Z</time>
      </trkpt>
      <trkpt lat="45.74011" lon="4.66472">
        <ele>453.88</ele>
        <time>2016-09-04T08:09:54Z</time>
      </trkpt>
      <trkpt lat="45.74001" lon="4.66476">
        <ele>454.36</ele>
        <time>2016-09-04T08:09:59Z</time>
      </trkpt>
      <trkpt lat="45.73991" lon="4.6648">
        <ele>454.84</ele>
        <time>2016-09-04T08:10:04Z</time>
      </trkpt>
      <trkpt lat="45.73981" lon="4.6648">
        <ele>454.84</ele>
        <time>2016-09-04T08:10:09Z</time>
      </trkpt>
      <trkpt lat="45.73969" lon="4.6648">
        <ele>455.32</ele>
        <time>2016-09-04T08:10:14Z</time>
      </trkpt>
      <trkpt lat="45.73954" lon="4.66479">
        <ele>456.76</ele>
        <time>2016-09-04T08:10:19Z</time>
      </trkpt>
      <trkpt lat="45.73938" lon="4.66477">
        <ele>457.72</ele>
        <time>2016-09-04T08:10:24Z</time>
      </trkpt>
      <trkpt lat="45.73923" lon="4.66472">
        <ele>459.65</ele>
        <time>2016-09-04T08:10:29Z</time>
      </trkpt>
      <trkpt lat="45.73909" lon="4.66462">
        <ele>460.61</ele>
        <time>2016-09-04T08:10:34Z</time>
      </trkpt>
      <trkpt lat="45.73897" lon="4.6645">
        <ele>460.13</ele>
        <time>2016-09-04T08:10:39Z</time>
      </trkpt>
      <trkpt lat="45.73887" lon="4.66437">
        <ele>460.61</ele>
        <time>2016-09-04T08:10:44Z</time>
      </trkpt>
      <trkpt lat="45.73879" lon="4.66427">
        <ele>459.17</ele>
        <time>2016-09-04T08:10:49Z</time>
      </trkpt>
      <trkpt lat="45.73871" lon="4.66417">
        <ele>457.72</ele>
        <time>2016-09-04T08:10:54Z</time>
      </trkpt>
      <trkpt lat="45.73862" lon="4.66404">
        <ele>457.24</ele>
        <time>2016-09-04T08:10:59Z</time>
      </trkpt>
      <trkpt lat="45.73853" lon="4.66392">
        <ele>457.24</ele>
        <time>2016-09-04T08:11:04Z</time>
      </trkpt>
      <trkpt lat="45.73844" lon="4.6638">
        <ele>457.24</ele>
        <time>2016-09-04T08:11:09Z</time>
      </trkpt>
      <trkpt lat="45.73835" lon="4.66367">
        <ele>457.24</ele>
        <time>2016-09-04T08:11:14Z</time>
      </trkpt>
      <trkpt lat="45.73825" lon="4.66354">
        <ele>456.76</ele>
        <time>2016-09-04T08:11:19Z</time>
      </trkpt>
      <trkpt lat="45.73812" lon="4.66338">
        <ele>455.8</ele>
        <time>2016-09-04T08:11:24Z</time>
      </trkpt>
      <trkpt lat="45.73801" lon="4.66323">
        <ele>454.84</ele>
        <time>2016-09-04T08:11:29Z</time>
      </trkpt>
      <trkpt lat="45.73804" lon="4.6631">
        <ele>454.36</ele>
        <time>2016-09-04T08:11:34Z</time>
      </trkpt>
      <trkpt lat="45.73809" lon="4.66311">
        <ele>455.32</ele>
        <time>2016-09-04T08:11:39Z</time>
      </trkpt>
      <trkpt lat="45.73816" lon="4.66311">
        <ele>456.28</ele>
        <time>2016-09-04T08:11:44Z</time>
      </trkpt>
      <trkpt lat="45.73821" lon="4.66311">
        <ele>456.76</ele>
        <time>2016-09-04T08:11:49Z</time>
      </trkpt>
      <trkpt lat="45.73829" lon="4.66311">
        <ele>457.72</ele>
        <time>2016-09-04T08:11:54Z</time>
      </trkpt>
      <trkpt lat="45.73835" lon="4.66308">
        <ele>459.17</ele>
        <time>2016-09-04T08:11:59Z</time>
      </trkpt>
      <trkpt lat="45.7384" lon="4.663">
        <ele>459.65</ele>
        <time>2016-09-04T08:12:04Z</time>
      </trkpt>
      <trkpt lat="45.73843" lon="4.66288">
        <ele>459.17</ele>
        <time>2016-09-04T08:12:09Z</time>
      </trkpt>
      <trkpt lat="45.73848" lon="4.66274">
        <ele>457.72</ele>
        <time>2016-09-04T08:12:14Z</time>
      </trkpt>
      <trkpt lat="45.73853" lon="4.66258">
        <ele>456.76</ele>
        <time>2016-09-04T08:12:19Z</time>
      </trkpt>
      <trkpt lat="45.73858" lon="4.66243">
        <ele>456.28</ele>
        <time>2016-09-04T08:12:24Z</time>
      </trkpt>
      <trkpt lat="45.73864" lon="4.66222">
        <ele>455.8</ele>
        <time>2016-09-04T08:12:29Z</time>
      </trkpt>
      <trkpt lat="45.73875" lon="4.6619">
        <ele>453.4</ele>
        <time>2016-09-04T08:12:34Z</time>
      </trkpt>
      <trkpt lat="45.73886" lon="4.66153">
        <ele>451.48</ele>
        <time>2016-09-04T08:12:39Z</time>
      </trkpt>
      <trkpt lat="45.73897" lon="4.66113">
        <ele>450.03</ele>
        <time>2016-09-04T08:12:44Z</time>
      </trkpt>
      <trkpt lat="45.73904" lon="4.66084">
        <ele>449.55</ele>
        <time>2016-09-04T08:12:49Z</time>
      </trkpt>
      <trkpt lat="45.73913" lon="4.66066">
        <ele>449.07</ele>
        <time>2016-09-04T08:12:54Z</time>
      </trkpt>
      <trkpt lat="45.73924" lon="4.66045">
        <ele>449.07</ele>
        <time>2016-09-04T08:12:59Z</time>
      </trkpt>
      <trkpt lat="45.73937" lon="4.6602">
        <ele>448.11</ele>
        <time>2016-09-04T08:13:04Z</time>
      </trkpt>
      <trkpt lat="45.73952" lon="4.65991">
        <ele>447.15</ele>
        <time>2016-09-04T08:13:09Z</time>
      </trkpt>
      <trkpt lat="45.73969" lon="4.65959">
        <ele>446.19</ele>
        <time>2016-09-04T08:13:14Z</time>
      </trkpt>
      <trkpt lat="45.73981" lon="4.6594">
        <ele>446.67</ele>
        <time>2016-09-04T08:13:19Z</time>
      </trkpt>
      <trkpt lat="45.73991" lon="4.65923">
        <ele>447.15</ele>
        <time>2016-09-04T08:13:24Z</time>
      </trkpt>
      <trkpt lat="45.73999" lon="4.65906">
        <ele>447.63</ele>
        <time>2016-09-04T08:13:29Z</time>
      </trkpt>
      <trkpt lat="45.74004" lon="4.65889">
        <ele>448.59</ele>
        <time>2016-09-04T08:13:34Z</time>
      </trkpt>
      <trkpt lat="45.74005" lon="4.6587">
        <ele>448.11</ele>
        <time>2016-09-04T08:13:39Z</time>
      </trkpt>
      <trkpt lat="45.74007" lon="4.65852">
        <ele>448.59</ele>
        <time>2016-09-04T08:13:44Z</time>
      </trkpt>
      <trkpt lat="45.74009" lon="4.65835">
        <ele>450.52</ele>
        <time>2016-09-04T08:13:49Z</time>
      </trkpt>
      <trkpt lat="45.74009" lon="4.65822">
        <ele>451.96</ele>
        <time>2016-09-04T08:13:54Z</time>
      </trkpt>
      <trkpt lat="45.7401" lon="4.65803">
        <ele>452.44</ele>
        <time>2016-09-04T08:13:59Z</time>
      </trkpt>
      <trkpt lat="45.74013" lon="4.65785">
        <ele>451.96</ele>
        <time>2016-09-04T08:14:04Z</time>
      </trkpt>
      <trkpt lat="45.7402" lon="4.65766">
        <ele>452.44</ele>
        <time>2016-09-04T08:14:09Z</time>
      </trkpt>
      <trkpt lat="45.74029" lon="4.65747">
        <ele>452.92</ele>
        <time>2016-09-04T08:14:14Z</time>
      </trkpt>
      <trkpt lat="45.74037" lon="4.65732">
        <ele>453.88</ele>
        <time>2016-09-04T08:14:19Z</time>
      </trkpt>
      <trkpt lat="45.74046" lon="4.65716">
        <ele>453.4</ele>
        <time>2016-09-04T08:14:24Z</time>
      </trkpt>
      <trkpt lat="45.74054" lon="4.657">
        <ele>453.4</ele>
        <time>2016-09-04T08:14:29Z</time>
      </trkpt>
      <trkpt lat="45.7406" lon="4.65686">
        <ele>452.92</ele>
        <time>2016-09-04T08:14:34Z</time>
      </trkpt>
      <trkpt lat="45.74061" lon="4.65677">
        <ele>451.48</ele>
        <time>2016-09-04T08:14:39Z</time>
      </trkpt>
      <trkpt lat="45.74059" lon="4.65672">
        <ele>450.03</ele>
        <time>2016-09-04T08:14:44Z</time>
      </trkpt>
      <trkpt lat="45.74059" lon="4.65668">
        <ele>448.59</ele>
        <time>2016-09-04T08:14:49Z</time>
      </trkpt>
      <trkpt lat="45.74059" lon="4.65652">
        <ele>447.63</ele>
        <time>2016-09-04T08:14:54Z</time>
      </trkpt>
      <trkpt lat="45.74059" lon="4.6563">
        <ele>447.15</ele>
        <time>2016-09-04T08:14:59Z</time>
      </trkpt>
      <trkpt lat="45.7406" lon="4.65616">
        <ele>447.15</ele>
        <time>2016-09-04T08:15:04Z</time>
      </trkpt>
      <trkpt lat="45.74062" lon="4.65603">
        <ele>446.67</ele>
        <time>2016-09-04T08:15:09Z</time>
      </trkpt>
      <trkpt lat="45.7407" lon="4.65597">
        <ele>447.63</ele>
        <time>2016-09-04T08:15:14Z</time>
      </trkpt>
      <trkpt lat="45.74076" lon="4.65589">
        <ele>449.07</ele>
        <time>2016-09-04T08:15:19Z</time>
      </trkpt>
      <trkpt lat="45.7408" lon="4.65581">
        <ele>450.03</ele>
        <time>2016-09-04T08:15:24Z</time>
      </trkpt>
      <trkpt lat="45.74083" lon="4.65571">
        <ele>451</ele>
        <time>2016-09-04T08:15:29Z</time>
      </trkpt>
      <trkpt lat="45.74087" lon="4.65561">
        <ele>451</ele>
        <time>2016-09-04T08:15:34Z</time>
      </trkpt>
      <trkpt lat="45.74094" lon="4.65551">
        <ele>450.03</ele>
        <time>2016-09-04T08:15:39Z</time>
      </trkpt>
      <trkpt lat="45.74103" lon="4.65538">
        <ele>449.55</ele>
        <time>2016-09-04T08:15:44Z</time>
      </trkpt>
      <trkpt lat="45.74113" lon="4.65523">
        <ele>449.07</ele>
        <time>2016-09-04T08:15:49Z</time>
      </trkpt>
      <trkpt lat="45.74124" lon="4.65511">
        <ele>449.55</ele>
        <time>2016-09-04T08:15:54Z</time>
      </trkpt>
      <trkpt lat="45.74138" lon="4.65495">
        <ele>449.55</ele>
        <time>2016-09-04T08:15:59Z</time>
      </trkpt>
      <trkpt lat="45.74154" lon="4.6548">
        <ele>449.55</ele>
        <time>2016-09-04T08:16:04Z</time>
      </trkpt>
      <trkpt lat="45.74168" lon="4.65465">
        <ele>449.55</ele>
        <time>2016-09-04T08:16:09Z</time>
      </trkpt>
      <trkpt lat="45.74182" lon="4.65451">
        <ele>448.59</ele>
        <time>2016-09-04T08:16:14Z</time>
      </trkpt>
      <trkpt lat="45.74195" lon="4.65438">
        <ele>450.03</ele>
        <time>2016-09-04T08:16:19Z</time>
      </trkpt>
      <trkpt lat="45.74207" lon="4.65424">
        <ele>450.52</ele>
        <time>2016-09-04T08:16:24Z</time>
      </trkpt>
      <trkpt lat="45.74219" lon="4.65411">
        <ele>451.48</ele>
        <time>2016-09-04T08:16:29Z</time>
      </trkpt>
      <trkpt lat="45.74229" lon="4.65395">
        <ele>452.44</ele>
        <time>2016-09-04T08:16:34Z</time>
      </trkpt>
      <trkpt lat="45.74237" lon="4.65379">
        <ele>453.88</ele>
        <time>2016-09-04T08:16:39Z</time>
      </trkpt>
      <trkpt lat="45.74245" lon="4.65362">
        <ele>454.84</ele>
        <time>2016-09-04T08:16:44Z</time>
      </trkpt>
      <trkpt lat="45.74256" lon="4.6534">
        <ele>454.36</ele>
        <time>2016-09-04T08:16:49Z</time>
      </trkpt>
      <trkpt lat="45.74272" lon="4.65317">
        <ele>453.88</ele>
        <time>2016-09-04T08:16:54Z</time>
      </trkpt>
      <trkpt lat="45.74291" lon="4.653">
        <ele>453.88</ele>
        <time>2016-09-04T08:16:59Z</time>
      </trkpt>
      <trkpt lat="45.74311" lon="4.65297">
        <ele>454.36</ele>
        <time>2016-09-04T08:17:04Z</time>
      </trkpt>
      <trkpt lat="45.74325" lon="4.65299">
        <ele>455.32</ele>
        <time>2016-09-04T08:17:09Z</time>
      </trkpt>
      <trkpt lat="45.74337" lon="4.65301">
        <ele>457.24</ele>
        <time>2016-09-04T08:17:14Z</time>
      </trkpt>
      <trkpt lat="45.74345" lon="4.65302">
        <ele>459.17</ele>
        <time>2016-09-04T08:17:19Z</time>
      </trkpt>
      <trkpt lat="45.74352" lon="4.65303">
        <ele>461.57</ele>
        <time>2016-09-04T08:17:24Z</time>
      </trkpt>
      <trkpt lat="45.7436" lon="4.65304">
        <ele>462.53</ele>
        <time>2016-09-04T08:17:29Z</time>
      </trkpt>
      <trkpt lat="45.74369" lon="4.65302">
        <ele>463.97</ele>
        <time>2016-09-04T08:17:34Z</time>
      </trkpt>
      <trkpt lat="45.74376" lon="4.65296">
        <ele>465.42</ele>
        <time>2016-09-04T08:17:39Z</time>
      </trkpt>
      <trkpt lat="45.74382" lon="4.65289">
        <ele>466.38</ele>
        <time>2016-09-04T08:17:44Z</time>
      </trkpt>
      <trkpt lat="45.74387" lon="4.65283">
        <ele>466.86</ele>
        <time>2016-09-04T08:17:49Z</time>
      </trkpt>
      <trkpt lat="45.74388" lon="4.65282">
        <ele>467.34</ele>
        <time>2016-09-04T08:17:54Z</time>
      </trkpt>
      <trkpt lat="45.74393" lon="4.65278">
        <ele>467.82</ele>
        <time>2016-09-04T08:17:59Z</time>
      </trkpt>
      <trkpt lat="45.74396" lon="4.65274">
        <ele>468.3</ele>
        <time>2016-09-04T08:18:04Z</time>
      </trkpt>
      <trkpt lat="45.74398" lon="4.65269">
        <ele>468.78</ele>
        <time>2016-09-04T08:18:09Z</time>
      </trkpt>
      <trkpt lat="45.744" lon="4.65263">
        <ele>469.26</ele>
        <time>2016-09-04T08:18:14Z</time>
      </trkpt>
      <trkpt lat="45.74401" lon="4.65257">
        <ele>470.22</ele>
        <time>2016-09-04T08:18:19Z</time>
      </trkpt>
      <trkpt lat="45.744" lon="4.65251">
        <ele>470.7</ele>
        <time>2016-09-04T08:18:24Z</time>
      </trkpt>
      <trkpt lat="45.74401" lon="4.65245">
        <ele>471.18</ele>
        <time>2016-09-04T08:18:29Z</time>
      </trkpt>
      <trkpt lat="45.74401" lon="4.65239">
        <ele>471.66</ele>
        <time>2016-09-04T08:18:34Z</time>
      </trkpt>
      <trkpt lat="45.74399" lon="4.65236">
        <ele>471.18</ele>
        <time>2016-09-04T08:18:39Z</time>
      </trkpt>
      <trkpt lat="45.74396" lon="4.65229">
        <ele>471.18</ele>
        <time>2016-09-04T08:18:44Z</time>
      </trkpt>
      <trkpt lat="45.74393" lon="4.65222">
        <ele>471.18</ele>
        <time>2016-09-04T08:18:49Z</time>
      </trkpt>
      <trkpt lat="45.7439" lon="4.65216">
        <ele>471.18</ele>
        <time>2016-09-04T08:18:54Z</time>
      </trkpt>
      <trkpt lat="45.74387" lon="4.6521">
        <ele>472.14</ele>
        <time>2016-09-04T08:18:59Z</time>
      </trkpt>
      <trkpt lat="45.74383" lon="4.65202">
        <ele>471.66</ele>
        <time>2016-09-04T08:19:04Z</time>
      </trkpt>
      <trkpt lat="45.7438" lon="4.65195">
        <ele>472.14</ele>
        <time>2016-09-04T08:19:09Z</time>
      </trkpt>
      <trkpt lat="45.74377" lon="4.65187">
        <ele>472.63</ele>
        <time>2016-09-04T08:19:14Z</time>
      </trkpt>
      <trkpt lat="45.74375" lon="4.6518">
        <ele>473.11</ele>
        <time>2016-09-04T08:19:19Z</time>
      </trkpt>
      <trkpt lat="45.74373" lon="4.65172">
        <ele>473.11</ele>
        <time>2016-09-04T08:19:24Z</time>
      </trkpt>
      <trkpt lat="45.74373" lon="4.65165">
        <ele>474.07</ele>
        <time>2016-09-04T08:19:29Z</time>
      </trkpt>
      <trkpt lat="45.74373" lon="4.65157">
        <ele>474.55</ele>
        <time>2016-09-04T08:19:34Z</time>
      </trkpt>
      <trkpt lat="45.74373" lon="4.6515">
        <ele>475.51</ele>
        <time>2016-09-04T08:19:39Z</time>
      </trkpt>
      <trkpt lat="45.74372" lon="4.65141">
        <ele>476.47</ele>
        <time>2016-09-04T08:19:44Z</time>
      </trkpt>
      <trkpt lat="45.7437" lon="4.65133">
        <ele>477.43</ele>
        <time>2016-09-04T08:19:49Z</time>
      </trkpt>
      <trkpt lat="45.74371" lon="4.65124">
        <ele>477.91</ele>
        <time>2016-09-04T08:19:54Z</time>
      </trkpt>
      <trkpt lat="45.74371" lon="4.65115">
        <ele>478.87</ele>
        <time>2016-09-04T08:19:59Z</time>
      </trkpt>
      <trkpt lat="45.74373" lon="4.65107">
        <ele>480.32</ele>
        <time>2016-09-04T08:20:04Z</time>
      </trkpt>
      <trkpt lat="45.74374" lon="4.651">
        <ele>479.84</ele>
        <time>2016-09-04T08:20:09Z</time>
      </trkpt>
      <trkpt lat="45.74373" lon="4.65092">
        <ele>480.32</ele>
        <time>2016-09-04T08:20:14Z</time>
      </trkpt>
      <trkpt lat="45.74368" lon="4.65078">
        <ele>479.35</ele>
        <time>2016-09-04T08:20:19Z</time>
      </trkpt>
      <trkpt lat="45.74363" lon="4.65064">
        <ele>478.87</ele>
        <time>2016-09-04T08:20:24Z</time>
      </trkpt>
      <trkpt lat="45.74358" lon="4.65054">
        <ele>478.87</ele>
        <time>2016-09-04T08:20:29Z</time>
      </trkpt>
      <trkpt lat="45.74356" lon="4.65046">
        <ele>479.84</ele>
        <time>2016-09-04T08:20:34Z</time>
      </trkpt>
      <trkpt lat="45.74355" lon="4.65039">
        <ele>480.8</ele>
        <time>2016-09-04T08:20:39Z</time>
      </trkpt>
      <trkpt lat="45.74355" lon="4.65032">
        <ele>480.32</ele>
        <time>2016-09-04T08:20:44Z</time>
      </trkpt>
      <trkpt lat="45.74356" lon="4.65025">
        <ele>481.28</ele>
        <time>2016-09-04T08:20:49Z</time>
      </trkpt>
      <trkpt lat="45.74356" lon="4.65023">
        <ele>481.28</ele>
        <time>2016-09-04T08:20:54Z</time>
      </trkpt>
      <trkpt lat="45.74356" lon="4.65022">
        <ele>481.28</ele>
        <time>2016-09-04T08:20:59Z</time>
      </trkpt>
      <trkpt lat="45.74356" lon="4.65022">
        <ele>480.32</ele>
        <time>2016-09-04T08:21:04Z</time>
      </trkpt>
      <trkpt lat="45.74356" lon="4.65022">
        <ele>480.32</ele>
        <time>2016-09-04T08:21:09Z</time>
      </trkpt>
      <trkpt lat="45.74357" lon="4.65021">
        <ele>479.84</ele>
        <time>2016-09-04T08:21:14Z</time>
      </trkpt>
      <trkpt lat="45.74357" lon="4.65022">
        <ele>480.32</ele>
        <time>2016-09-04T08:21:19Z</time>
      </trkpt>
      <trkpt lat="45.74358" lon="4.65022">
        <ele>481.76</ele>
        <time>2016-09-04T08:21:24Z</time>
      </trkpt>
      <trkpt lat="45.74358" lon="4.65021">
        <ele>482.24</ele>
        <time>2016-09-04T08:21:29Z</time>
      </trkpt>
      <trkpt lat="45.74358" lon="4.65021">
        <ele>482.72</ele>
        <time>2016-09-04T08:21:34Z</time>
      </trkpt>
      <trkpt lat="45.74358" lon="4.65021">
        <ele>483.68</ele>
        <time>2016-09-04T08:21:39Z</time>
      </trkpt>
      <trkpt lat="45.74357" lon="4.6502">
        <ele>484.16</ele>
        <time>2016-09-04T08:21:44Z</time>
      </trkpt>
      <trkpt lat="45.74358" lon="4.65021">
        <ele>484.16</ele>
        <time>2016-09-04T08:21:49Z</time>
      </trkpt>
      <trkpt lat="45.74358" lon="4.65022">
        <ele>484.16</ele>
        <time>2016-09-04T08:21:54Z</time>
      </trkpt>
      <trkpt lat="45.74359" lon="4.65019">
        <ele>484.64</ele>
        <time>2016-09-04T08:21:59Z</time>
      </trkpt>
      <trkpt lat="45.74358" lon="4.65014">
        <ele>485.12</ele>
        <time>2016-09-04T08:22:04Z</time>
      </trkpt>
      <trkpt lat="45.74359" lon="4.65009">
        <ele>484.64</ele>
        <time>2016-09-04T08:22:09Z</time>
      </trkpt>
      <trkpt lat="45.7436" lon="4.65004">
        <ele>485.12</ele>
        <time>2016-09-04T08:22:14Z</time>
      </trkpt>
      <trkpt lat="45.7436" lon="4.64999">
        <ele>485.6</ele>
        <time>2016-09-04T08:22:19Z</time>
      </trkpt>
      <trkpt lat="45.74361" lon="4.64994">
        <ele>486.56</ele>
        <time>2016-09-04T08:22:24Z</time>
      </trkpt>
      <trkpt lat="45.74362" lon="4.64991">
        <ele>487.53</ele>
        <time>2016-09-04T08:22:29Z</time>
      </trkpt>
      <trkpt lat="45.74362" lon="4.64987">
        <ele>488.49</ele>
        <time>2016-09-04T08:22:34Z</time>
      </trkpt>
      <trkpt lat="45.74363" lon="4.64984">
        <ele>489.45</ele>
        <time>2016-09-04T08:22:39Z</time>
      </trkpt>
      <trkpt lat="45.74363" lon="4.6498">
        <ele>490.41</ele>
        <time>2016-09-04T08:22:44Z</time>
      </trkpt>
      <trkpt lat="45.74364" lon="4.64976">
        <ele>491.37</ele>
        <time>2016-09-04T08:22:49Z</time>
      </trkpt>
      <trkpt lat="45.74364" lon="4.64972">
        <ele>491.37</ele>
        <time>2016-09-04T08:22:54Z</time>
      </trkpt>
      <trkpt lat="45.74365" lon="4.64969">
        <ele>491.37</ele>
        <time>2016-09-04T08:22:59Z</time>
      </trkpt>
      <trkpt lat="45.74365" lon="4.64969">
        <ele>491.37</ele>
        <time>2016-09-04T08:23:04Z</time>
      </trkpt>
      <trkpt lat="45.74366" lon="4.64965">
        <ele>492.33</ele>
        <time>2016-09-04T08:23:09Z</time>
      </trkpt>
      <trkpt lat="45.74366" lon="4.6496">
        <ele>493.77</ele>
        <time>2016-09-04T08:23:14Z</time>
      </trkpt>
      <trkpt lat="45.74366" lon="4.64957">
        <ele>494.74</ele>
        <time>2016-09-04T08:23:19Z</time>
      </trkpt>
      <trkpt lat="45.74367" lon="4.64952">
        <ele>495.7</ele>
        <time>2016-09-04T08:23:24Z</time>
      </trkpt>
      <trkpt lat="45.74367" lon="4.64949">
        <ele>496.18</ele>
        <time>2016-09-04T08:23:29Z</time>
      </trkpt>
      <trkpt lat="45.74368" lon="4.64945">
        <ele>497.14</ele>
        <time>2016-09-04T08:23:34Z</time>
      </trkpt>
      <trkpt lat="45.74368" lon="4.64941">
        <ele>498.1</ele>
        <time>2016-09-04T08:23:39Z</time>
      </trkpt>
      <trkpt lat="45.74369" lon="4.64936">
        <ele>499.06</ele>
        <time>2016-09-04T08:23:44Z</time>
      </trkpt>
      <trkpt lat="45.74368" lon="4.64932">
        <ele>499.54</ele>
        <time>2016-09-04T08:23:49Z</time>
      </trkpt>
      <trkpt lat="45.74368" lon="4.64928">
        <ele>500.5</ele>
        <time>2016-09-04T08:23:54Z</time>
      </trkpt>
      <trkpt lat="45.74368" lon="4.64922">
        <ele>501.46</ele>
        <time>2016-09-04T08:23:59Z</time>
      </trkpt>
      <trkpt lat="45.74367" lon="4.64916">
        <ele>502.43</ele>
        <time>2016-09-04T08:24:04Z</time>
      </trkpt>
      <trkpt lat="45.74367" lon="4.6491">
        <ele>502.91</ele>
        <time>2016-09-04T08:24:09Z</time>
      </trkpt>
      <trkpt lat="45.74367" lon="4.64904">
        <ele>503.39</ele>
        <time>2016-09-04T08:24:14Z</time>
      </trkpt>
      <trkpt lat="45.74367" lon="4.64898">
        <ele>503.87</ele>
        <time>2016-09-04T08:24:19Z</time>
      </trkpt>
      <trkpt lat="45.74366" lon="4.64892">
        <ele>503.87</ele>
        <time>2016-09-04T08:24:24Z</time>
      </trkpt>
      <trkpt lat="45.74365" lon="4.64886">
        <ele>504.35</ele>
        <time>2016-09-04T08:24:29Z</time>
      </trkpt>
      <trkpt lat="45.74365" lon="4.64881">
        <ele>504.83</ele>
        <time>2016-09-04T08:24:34Z</time>
      </trkpt>
      <trkpt lat="45.74364" lon="4.64876">
        <ele>506.27</ele>
        <time>2016-09-04T08:24:39Z</time>
      </trkpt>
      <trkpt lat="45.74364" lon="4.64872">
        <ele>506.27</ele>
        <time>2016-09-04T08:24:44Z</time>
      </trkpt>
      <trkpt lat="45.74364" lon="4.6487">
        <ele>506.27</ele>
        <time>2016-09-04T08:24:49Z</time>
      </trkpt>
      <trkpt lat="45.74363" lon="4.64865">
        <ele>507.23</ele>
        <time>2016-09-04T08:24:54Z</time>
      </trkpt>
      <trkpt lat="45.74362" lon="4.6486">
        <ele>507.71</ele>
        <time>2016-09-04T08:24:59Z</time>
      </trkpt>
      <trkpt lat="45.74361" lon="4.64855">
        <ele>508.19</ele>
        <time>2016-09-04T08:25:04Z</time>
      </trkpt>
      <trkpt lat="45.74361" lon="4.64849">
        <ele>508.67</ele>
        <time>2016-09-04T08:25:09Z</time>
      </trkpt>
      <trkpt lat="45.7436" lon="4.64844">
        <ele>509.16</ele>
        <time>2016-09-04T08:25:14Z</time>
      </trkpt>
      <trkpt lat="45.7436" lon="4.64839">
        <ele>510.12</ele>
        <time>2016-09-04T08:25:19Z</time>
      </trkpt>
      <trkpt lat="45.7436" lon="4.64833">
        <ele>511.08</ele>
        <time>2016-09-04T08:25:24Z</time>
      </trkpt>
      <trkpt lat="45.74359" lon="4.64828">
        <ele>512.52</ele>
        <time>2016-09-04T08:25:29Z</time>
      </trkpt>
      <trkpt lat="45.74359" lon="4.64822">
        <ele>513</ele>
        <time>2016-09-04T08:25:34Z</time>
      </trkpt>
      <trkpt lat="45.74358" lon="4.64816">
        <ele>513.48</ele>
        <time>2016-09-04T08:25:39Z</time>
      </trkpt>
      <trkpt lat="45.74359" lon="4.64811">
        <ele>514.44</ele>
        <time>2016-09-04T08:25:44Z</time>
      </trkpt>
      <trkpt lat="45.74359" lon="4.64805">
        <ele>514.92</ele>
        <time>2016-09-04T08:25:49Z</time>
      </trkpt>
      <trkpt lat="45.74358" lon="4.64801">
        <ele>514.44</ele>
        <time>2016-09-04T08:25:54Z</time>
      </trkpt>
      <trkpt lat="45.74358" lon="4.648">
        <ele>514.92</ele>
        <time>2016-09-04T08:25:59Z</time>
      </trkpt>
      <trkpt lat="45.74361" lon="4.64801">
        <ele>516.37</ele>
        <time>2016-09-04T08:26:04Z</time>
      </trkpt>
      <trkpt lat="45.74362" lon="4.64802">
        <ele>515.88</ele>
        <time>2016-09-04T08:26:09Z</time>
      </trkpt>
      <trkpt lat="45.74363" lon="4.64802">
        <ele>515.4</ele>
        <time>2016-09-04T08:26:14Z</time>
      </trkpt>
      <trkpt lat="45.74363" lon="4.64802">
        <ele>515.4</ele>
        <time>2016-09-04T08:26:19Z</time>
      </trkpt>
      <trkpt lat="45.74363" lon="4.64803">
        <ele>515.4</ele>
        <time>2016-09-04T08:26:24Z</time>
      </trkpt>
      <trkpt lat="45.74363" lon="4.64803">
        <ele>514.44</ele>
        <time>2016-09-04T08:26:29Z</time>
      </trkpt>
      <trkpt lat="45.74363" lon="4.64803">
        <ele>514.44</ele>
        <time>2016-09-04T08:26:34Z</time>
      </trkpt>
      <trkpt lat="45.74364" lon="4.64803">
        <ele>514.44</ele>
        <time>2016-09-04T08:26:39Z</time>
      </trkpt>
      <trkpt lat="45.74364" lon="4.64804">
        <ele>514.44</ele>
        <time>2016-09-04T08:26:44Z</time>
      </trkpt>
      <trkpt lat="45.74364" lon="4.64804">
        <ele>514.92</ele>
        <time>2016-09-04T08:26:49Z</time>
      </trkpt>
      <trkpt lat="45.74364" lon="4.64804">
        <ele>515.4</ele>
        <time>2016-09-04T08:26:54Z</time>
      </trkpt>
      <trkpt lat="45.74364" lon="4.64804">
        <ele>515.88</ele>
        <time>2016-09-04T08:26:59Z</time>
      </trkpt>
      <trkpt lat="45.74365" lon="4.64804">
        <ele>515.88</ele>
        <time>2016-09-04T08:27:04Z</time>
      </trkpt>
      <trkpt lat="45.74365" lon="4.64804">
        <ele>515.4</ele>
        <time>2016-09-04T08:27:09Z</time>
      </trkpt>
      <trkpt lat="45.74365" lon="4.64803">
        <ele>515.4</ele>
        <time>2016-09-04T08:27:14Z</time>
      </trkpt>
      <trkpt lat="45.74365" lon="4.64803">
        <ele>514.92</ele>
        <time>2016-09-04T08:27:19Z</time>
      </trkpt>
      <trkpt lat="45.74365" lon="4.64803">
        <ele>514.92</ele>
        <time>2016-09-04T08:27:24Z</time>
      </trkpt>
      <trkpt lat="45.74365" lon="4.64803">
        <ele>514.44</ele>
        <time>2016-09-04T08:27:29Z</time>
      </trkpt>
      <trkpt lat="45.74365" lon="4.64803">
        <ele>513.96</ele>
        <time>2016-09-04T08:27:34Z</time>
      </trkpt>
      <trkpt lat="45.74365" lon="4.64803">
        <ele>513.96</ele>
        <time>2016-09-04T08:27:39Z</time>
      </trkpt>
      <trkpt lat="45.74366" lon="4.64803">
        <ele>513.96</ele>
        <time>2016-09-04T08:27:44Z</time>
      </trkpt>
      <trkpt lat="45.74366" lon="4.64803">
        <ele>513.96</ele>
        <time>2016-09-04T08:27:49Z</time>
      </trkpt>
      <trkpt lat="45.74367" lon="4.64803">
        <ele>513.96</ele>
        <time>2016-09-04T08:27:54Z</time>
      </trkpt>
      <trkpt lat="45.74367" lon="4.64803">
        <ele>514.44</ele>
        <time>2016-09-04T08:27:59Z</time>
      </trkpt>
      <trkpt lat="45.74367" lon="4.64802">
        <ele>514.92</ele>
        <time>2016-09-04T08:28:04Z</time>
      </trkpt>
      <trkpt lat="45.74367" lon="4.64802">
        <ele>515.4</ele>
        <time>2016-09-04T08:28:09Z</time>
      </trkpt>
      <trkpt lat="45.74367" lon="4.64802">
        <ele>514.92</ele>
        <time>2016-09-04T08:28:14Z</time>
      </trkpt>
      <trkpt lat="45.74367" lon="4.64803">
        <ele>514.92</ele>
        <time>2016-09-04T08:28:19Z</time>
      </trkpt>
      <trkpt lat="45.74366" lon="4.64803">
        <ele>514.92</ele>
        <time>2016-09-04T08:28:24Z</time>
      </trkpt>
      <trkpt lat="45.74366" lon="4.64803">
        <ele>514.92</ele>
        <time>2016-09-04T08:28:29Z</time>
      </trkpt>
      <trkpt lat="45.74365" lon="4.64803">
        <ele>514.92</ele>
        <time>2016-09-04T08:28:34Z</time>
      </trkpt>
      <trkpt lat="45.74364" lon="4.64804">
        <ele>514.92</ele>
        <time>2016-09-04T08:28:39Z</time>
      </trkpt>
      <trkpt lat="45.74363" lon="4.64804">
        <ele>514.92</ele>
        <time>2016-09-04T08:28:44Z</time>
      </trkpt>
      <trkpt lat="45.74362" lon="4.64804">
        <ele>515.4</ele>
        <time>2016-09-04T08:28:49Z</time>
      </trkpt>
      <trkpt lat="45.74361" lon="4.64804">
        <ele>515.4</ele>
        <time>2016-09-04T08:28:54Z</time>
      </trkpt>
      <trkpt lat="45.74361" lon="4.64805">
        <ele>515.88</ele>
        <time>2016-09-04T08:28:59Z</time>
      </trkpt>
      <trkpt lat="45.7436" lon="4.64805">
        <ele>516.37</ele>
        <time>2016-09-04T08:29:04Z</time>
      </trkpt>
      <trkpt lat="45.7436" lon="4.64805">
        <ele>516.37</ele>
        <time>2016-09-04T08:29:09Z</time>
      </trkpt>
      <trkpt lat="45.7436" lon="4.64804">
        <ele>516.85</ele>
        <time>2016-09-04T08:29:14Z</time>
      </trkpt>
      <trkpt lat="45.74361" lon="4.64804">
        <ele>516.85</ele>
        <time>2016-09-04T08:29:19Z</time>
      </trkpt>
      <trkpt lat="45.74361" lon="4.64805">
        <ele>517.33</ele>
        <time>2016-09-04T08:29:24Z</time>
      </trkpt>
      <trkpt lat="45.74362" lon="4.64805">
        <ele>517.81</ele>
        <time>2016-09-04T08:29:29Z</time>
      </trkpt>
      <trkpt lat="45.74362" lon="4.64805">
        <ele>517.81</ele>
        <time>2016-09-04T08:29:34Z</time>
      </trkpt>
      <trkpt lat="45.74362" lon="4.64805">
        <ele>517.81</ele>
        <time>2016-09-04T08:29:39Z</time>
      </trkpt>
      <trkpt lat="45.74363" lon="4.64805">
        <ele>517.81</ele>
        <time>2016-09-04T08:29:44Z</time>
      </trkpt>
      <trkpt lat="45.74363" lon="4.64805">
        <ele>518.29</ele>
        <time>2016-09-04T08:29:49Z</time>
      </trkpt>
      <trkpt lat="45.74362" lon="4.64805">
        <ele>518.29</ele>
        <time>2016-09-04T08:29:54Z</time>
      </trkpt>
      <trkpt lat="45.74362" lon="4.64805">
        <ele>518.29</ele>
        <time>2016-09-04T08:29:59Z</time>
      </trkpt>
      <trkpt lat="45.74362" lon="4.64804">
        <ele>518.29</ele>
        <time>2016-09-04T08:30:04Z</time>
      </trkpt>
      <trkpt lat="45.74362" lon="4.64804">
        <ele>517.81</ele>
        <time>2016-09-04T08:30:09Z</time>
      </trkpt>
      <trkpt lat="45.74361" lon="4.64801">
        <ele>518.29</ele>
        <time>2016-09-04T08:30:14Z</time>
      </trkpt>
      <trkpt lat="45.74362" lon="4.64799">
        <ele>518.77</ele>
        <time>2016-09-04T08:30:19Z</time>
      </trkpt>
      <trkpt lat="45.74363" lon="4.64796">
        <ele>518.29</ele>
        <time>2016-09-04T08:30:24Z</time>
      </trkpt>
      <trkpt lat="45.74365" lon="4.64792">
        <ele>517.81</ele>
        <time>2016-09-04T08:30:29Z</time>
      </trkpt>
      <trkpt lat="45.74368" lon="4.64788">
        <ele>517.81</ele>
        <time>2016-09-04T08:30:34Z</time>
      </trkpt>
      <trkpt lat="45.7437" lon="4.64781">
        <ele>518.77</ele>
        <time>2016-09-04T08:30:39Z</time>
      </trkpt>
      <trkpt lat="45.74371" lon="4.64774">
        <ele>519.25</ele>
        <time>2016-09-04T08:30:44Z</time>
      </trkpt>
      <trkpt lat="45.74371" lon="4.64768">
        <ele>519.25</ele>
        <time>2016-09-04T08:30:49Z</time>
      </trkpt>
      <trkpt lat="45.74371" lon="4.64761">
        <ele>520.21</ele>
        <time>2016-09-04T08:30:54Z</time>
      </trkpt>
      <trkpt lat="45.74372" lon="4.64754">
        <ele>520.21</ele>
        <time>2016-09-04T08:30:59Z</time>
      </trkpt>
      <trkpt lat="45.74373" lon="4.64745">
        <ele>520.69</ele>
        <time>2016-09-04T08:31:04Z</time>
      </trkpt>
      <trkpt lat="45.74375" lon="4.64738">
        <ele>522.13</ele>
        <time>2016-09-04T08:31:09Z</time>
      </trkpt>
      <trkpt lat="45.74379" lon="4.64736">
        <ele>523.58</ele>
        <time>2016-09-04T08:31:14Z</time>
      </trkpt>
      <trkpt lat="45.74383" lon="4.64735">
        <ele>525.02</ele>
        <time>2016-09-04T08:31:19Z</time>
      </trkpt>
      <trkpt lat="45.74388" lon="4.64736">
        <ele>525.98</ele>
        <time>2016-09-04T08:31:24Z</time>
      </trkpt>
      <trkpt lat="45.74392" lon="4.64738">
        <ele>526.46</ele>
        <time>2016-09-04T08:31:29Z</time>
      </trkpt>
      <trkpt lat="45.74397" lon="4.64743">
        <ele>526.94</ele>
        <time>2016-09-04T08:31:34Z</time>
      </trkpt>
      <trkpt lat="45.74402" lon="4.64748">
        <ele>527.9</ele>
        <time>2016-09-04T08:31:39Z</time>
      </trkpt>
      <trkpt lat="45.74408" lon="4.64753">
        <ele>528.38</ele>
        <time>2016-09-04T08:31:44Z</time>
      </trkpt>
      <trkpt lat="45.74414" lon="4.64758">
        <ele>528.86</ele>
        <time>2016-09-04T08:31:49Z</time>
      </trkpt>
      <trkpt lat="45.74421" lon="4.64763">
        <ele>529.34</ele>
        <time>2016-09-04T08:31:54Z</time>
      </trkpt>
      <trkpt lat="45.74427" lon="4.64767">
        <ele>529.82</ele>
        <time>2016-09-04T08:31:59Z</time>
      </trkpt>
      <trkpt lat="45.74434" lon="4.64772">
        <ele>530.3</ele>
        <time>2016-09-04T08:32:04Z</time>
      </trkpt>
      <trkpt lat="45.7444" lon="4.64777">
        <ele>530.79</ele>
        <time>2016-09-04T08:32:09Z</time>
      </trkpt>
      <trkpt lat="45.74447" lon="4.64781">
        <ele>531.75</ele>
        <time>2016-09-04T08:32:14Z</time>
      </trkpt>
      <trkpt lat="45.74454" lon="4.64784">
        <ele>532.23</ele>
        <time>2016-09-04T08:32:19Z</time>
      </trkpt>
      <trkpt lat="45.74461" lon="4.64788">
        <ele>532.23</ele>
        <time>2016-09-04T08:32:24Z</time>
      </trkpt>
      <trkpt lat="45.74468" lon="4.64793">
        <ele>531.27</ele>
        <time>2016-09-04T08:32:29Z</time>
      </trkpt>
      <trkpt lat="45.74478" lon="4.648">
        <ele>530.79</ele>
        <time>2016-09-04T08:32:34Z</time>
      </trkpt>
      <trkpt lat="45.74491" lon="4.64809">
        <ele>529.82</ele>
        <time>2016-09-04T08:32:39Z</time>
      </trkpt>
      <trkpt lat="45.74506" lon="4.64817">
        <ele>529.82</ele>
        <time>2016-09-04T08:32:44Z</time>
      </trkpt>
      <trkpt lat="45.74519" lon="4.64824">
        <ele>529.34</ele>
        <time>2016-09-04T08:32:49Z</time>
      </trkpt>
      <trkpt lat="45.74532" lon="4.64829">
        <ele>529.82</ele>
        <time>2016-09-04T08:32:54Z</time>
      </trkpt>
      <trkpt lat="45.74547" lon="4.64834">
        <ele>530.3</ele>
        <time>2016-09-04T08:32:59Z</time>
      </trkpt>
      <trkpt lat="45.74563" lon="4.64845">
        <ele>530.3</ele>
        <time>2016-09-04T08:33:04Z</time>
      </trkpt>
      <trkpt lat="45.74581" lon="4.64856">
        <ele>529.82</ele>
        <time>2016-09-04T08:33:09Z</time>
      </trkpt>
      <trkpt lat="45.74595" lon="4.64863">
        <ele>529.34</ele>
        <time>2016-09-04T08:33:14Z</time>
      </trkpt>
      <trkpt lat="45.74612" lon="4.64869">
        <ele>528.86</ele>
        <time>2016-09-04T08:33:19Z</time>
      </trkpt>
      <trkpt lat="45.74634" lon="4.64884">
        <ele>527.42</ele>
        <time>2016-09-04T08:33:24Z</time>
      </trkpt>
      <trkpt lat="45.74654" lon="4.649">
        <ele>527.42</ele>
        <time>2016-09-04T08:33:29Z</time>
      </trkpt>
      <trkpt lat="45.74663" lon="4.6489">
        <ele>527.42</ele>
        <time>2016-09-04T08:33:34Z</time>
      </trkpt>
      <trkpt lat="45.74668" lon="4.64876">
        <ele>525.98</ele>
        <time>2016-09-04T08:33:39Z</time>
      </trkpt>
      <trkpt lat="45.74671" lon="4.64862">
        <ele>526.46</ele>
        <time>2016-09-04T08:33:44Z</time>
      </trkpt>
      <trkpt lat="45.74674" lon="4.64849">
        <ele>526.94</ele>
        <time>2016-09-04T08:33:49Z</time>
      </trkpt>
      <trkpt lat="45.74676" lon="4.64835">
        <ele>527.9</ele>
        <time>2016-09-04T08:33:54Z</time>
      </trkpt>
      <trkpt lat="45.74673" lon="4.64825">
        <ele>529.34</ele>
        <time>2016-09-04T08:33:59Z</time>
      </trkpt>
      <trkpt lat="45.74667" lon="4.64817">
        <ele>530.3</ele>
        <time>2016-09-04T08:34:04Z</time>
      </trkpt>
      <trkpt lat="45.7466" lon="4.6481">
        <ele>531.27</ele>
        <time>2016-09-04T08:34:09Z</time>
      </trkpt>
      <trkpt lat="45.74653" lon="4.64805">
        <ele>531.27</ele>
        <time>2016-09-04T08:34:14Z</time>
      </trkpt>
      <trkpt lat="45.74648" lon="4.64799">
        <ele>532.23</ele>
        <time>2016-09-04T08:34:19Z</time>
      </trkpt>
      <trkpt lat="45.74646" lon="4.64796">
        <ele>531.27</ele>
        <time>2016-09-04T08:34:24Z</time>
      </trkpt>
      <trkpt lat="45.74642" lon="4.64791">
        <ele>531.27</ele>
        <time>2016-09-04T08:34:29Z</time>
      </trkpt>
      <trkpt lat="45.74639" lon="4.64786">
        <ele>531.75</ele>
        <time>2016-09-04T08:34:34Z</time>
      </trkpt>
      <trkpt lat="45.74635" lon="4.64781">
        <ele>531.75</ele>
        <time>2016-09-04T08:34:39Z</time>
      </trkpt>
      <trkpt lat="45.74632" lon="4.64776">
        <ele>532.23</ele>
        <time>2016-09-04T08:34:44Z</time>
      </trkpt>
      <trkpt lat="45.74627" lon="4.64773">
        <ele>532.71</ele>
        <time>2016-09-04T08:34:49Z</time>
      </trkpt>
      <trkpt lat="45.74624" lon="4.64771">
        <ele>533.67</ele>
        <time>2016-09-04T08:34:54Z</time>
      </trkpt>
      <trkpt lat="45.74623" lon="4.6477">
        <ele>533.67</ele>
        <time>2016-09-04T08:34:59Z</time>
      </trkpt>
      <trkpt lat="45.74621" lon="4.64767">
        <ele>534.15</ele>
        <time>2016-09-04T08:35:04Z</time>
      </trkpt>
      <trkpt lat="45.74617" lon="4.64763">
        <ele>534.15</ele>
        <time>2016-09-04T08:35:09Z</time>
      </trkpt>
      <trkpt lat="45.74613" lon="4.64759">
        <ele>534.15</ele>
        <time>2016-09-04T08:35:14Z</time>
      </trkpt>
      <trkpt lat="45.74609" lon="4.64754">
        <ele>535.11</ele>
        <time>2016-09-04T08:35:19Z</time>
      </trkpt>
      <trkpt lat="45.74604" lon="4.6475">
        <ele>537.03</ele>
        <time>2016-09-04T08:35:24Z</time>
      </trkpt>
      <trkpt lat="45.74599" lon="4.64745">
        <ele>537.99</ele>
        <time>2016-09-04T08:35:29Z</time>
      </trkpt>
      <trkpt lat="45.74595" lon="4.64741">
        <ele>539.92</ele>
        <time>2016-09-04T08:35:34Z</time>
      </trkpt>
      <trkpt lat="45.7459" lon="4.64737">
        <ele>541.84</ele>
        <time>2016-09-04T08:35:39Z</time>
      </trkpt>
      <trkpt lat="45.74586" lon="4.64734">
        <ele>543.28</ele>
        <time>2016-09-04T08:35:44Z</time>
      </trkpt>
      <trkpt lat="45.74584" lon="4.64732">
        <ele>543.76</ele>
        <time>2016-09-04T08:35:49Z</time>
      </trkpt>
      <trkpt lat="45.7458" lon="4.6473">
        <ele>543.76</ele>
        <time>2016-09-04T08:35:54Z</time>
      </trkpt>
      <trkpt lat="45.74576" lon="4.64727">
        <ele>544.24</ele>
        <time>2016-09-04T08:35:59Z</time>
      </trkpt>
      <trkpt lat="45.74572" lon="4.64723">
        <ele>545.2</ele>
        <time>2016-09-04T08:36:04Z</time>
      </trkpt>
      <trkpt lat="45.74568" lon="4.64719">
        <ele>545.69</ele>
        <time>2016-09-04T08:36:09Z</time>
      </trkpt>
      <trkpt lat="45.74564" lon="4.64714">
        <ele>545.69</ele>
        <time>2016-09-04T08:36:14Z</time>
      </trkpt>
      <trkpt lat="45.7456" lon="4.6471">
        <ele>546.17</ele>
        <time>2016-09-04T08:36:19Z</time>
      </trkpt>
      <trkpt lat="45.74557" lon="4.64705">
        <ele>546.17</ele>
        <time>2016-09-04T08:36:24Z</time>
      </trkpt>
      <trkpt lat="45.74554" lon="4.647">
        <ele>546.65</ele>
        <time>2016-09-04T08:36:29Z</time>
      </trkpt>
      <trkpt lat="45.74553" lon="4.64694">
        <ele>547.61</ele>
        <time>2016-09-04T08:36:34Z</time>
      </trkpt>
      <trkpt lat="45.74552" lon="4.64691">
        <ele>547.61</ele>
        <time>2016-09-04T08:36:39Z</time>
      </trkpt>
      <trkpt lat="45.74552" lon="4.64691">
        <ele>548.57</ele>
        <time>2016-09-04T08:36:44Z</time>
      </trkpt>
      <trkpt lat="45.74553" lon="4.64691">
        <ele>549.05</ele>
        <time>2016-09-04T08:36:49Z</time>
      </trkpt>
      <trkpt lat="45.74553" lon="4.64691">
        <ele>549.53</ele>
        <time>2016-09-04T08:36:54Z</time>
      </trkpt>
      <trkpt lat="45.74551" lon="4.64686">
        <ele>549.53</ele>
        <time>2016-09-04T08:36:59Z</time>
      </trkpt>
      <trkpt lat="45.7455" lon="4.64681">
        <ele>549.53</ele>
        <time>2016-09-04T08:37:04Z</time>
      </trkpt>
      <trkpt lat="45.74549" lon="4.64676">
        <ele>550.01</ele>
        <time>2016-09-04T08:37:09Z</time>
      </trkpt>
      <trkpt lat="45.74547" lon="4.64671">
        <ele>550.49</ele>
        <time>2016-09-04T08:37:14Z</time>
      </trkpt>
      <trkpt lat="45.74545" lon="4.64665">
        <ele>550.49</ele>
        <time>2016-09-04T08:37:19Z</time>
      </trkpt>
      <trkpt lat="45.74544" lon="4.6466">
        <ele>550.97</ele>
        <time>2016-09-04T08:37:24Z</time>
      </trkpt>
      <trkpt lat="45.74541" lon="4.64654">
        <ele>550.97</ele>
        <time>2016-09-04T08:37:29Z</time>
      </trkpt>
      <trkpt lat="45.74539" lon="4.64648">
        <ele>550.97</ele>
        <time>2016-09-04T08:37:34Z</time>
      </trkpt>
      <trkpt lat="45.74537" lon="4.64643">
        <ele>550.97</ele>
        <time>2016-09-04T08:37:39Z</time>
      </trkpt>
      <trkpt lat="45.74534" lon="4.64636">
        <ele>550.49</ele>
        <time>2016-09-04T08:37:44Z</time>
      </trkpt>
      <trkpt lat="45.74532" lon="4.64629">
        <ele>550.49</ele>
        <time>2016-09-04T08:37:49Z</time>
      </trkpt>
      <trkpt lat="45.7453" lon="4.64623">
        <ele>550.49</ele>
        <time>2016-09-04T08:37:54Z</time>
      </trkpt>
      <trkpt lat="45.74529" lon="4.64618">
        <ele>550.97</ele>
        <time>2016-09-04T08:37:59Z</time>
      </trkpt>
      <trkpt lat="45.74528" lon="4.64611">
        <ele>551.45</ele>
        <time>2016-09-04T08:38:04Z</time>
      </trkpt>
      <trkpt lat="45.74527" lon="4.64605">
        <ele>552.41</ele>
        <time>2016-09-04T08:38:09Z</time>
      </trkpt>
      <trkpt lat="45.74526" lon="4.64599">
        <ele>553.38</ele>
        <time>2016-09-04T08:38:14Z</time>
      </trkpt>
      <trkpt lat="45.74524" lon="4.64594">
        <ele>554.34</ele>
        <time>2016-09-04T08:38:19Z</time>
      </trkpt>
      <trkpt lat="45.74522" lon="4.64589">
        <ele>555.78</ele>
        <time>2016-09-04T08:38:24Z</time>
      </trkpt>
      <trkpt lat="45.74519" lon="4.64587">
        <ele>556.26</ele>
        <time>2016-09-04T08:38:29Z</time>
      </trkpt>
      <trkpt lat="45.74517" lon="4.6458">
        <ele>556.74</ele>
        <time>2016-09-04T08:38:34Z</time>
      </trkpt>
      <trkpt lat="45.74515" lon="4.64575">
        <ele>557.7</ele>
        <time>2016-09-04T08:38:39Z</time>
      </trkpt>
      <trkpt lat="45.74513" lon="4.64569">
        <ele>558.18</ele>
        <time>2016-09-04T08:38:44Z</time>
      </trkpt>
      <trkpt lat="45.74513" lon="4.64566">
        <ele>558.66</ele>
        <time>2016-09-04T08:38:49Z</time>
      </trkpt>
      <trkpt lat="45.74512" lon="4.64563">
        <ele>559.14</ele>
        <time>2016-09-04T08:38:54Z</time>
      </trkpt>
      <trkpt lat="45.7451" lon="4.64559">
        <ele>560.11</ele>
        <time>2016-09-04T08:38:59Z</time>
      </trkpt>
      <trkpt lat="45.74509" lon="4.64555">
        <ele>561.07</ele>
        <time>2016-09-04T08:39:04Z</time>
      </trkpt>
      <trkpt lat="45.74508" lon="4.6455">
        <ele>561.55</ele>
        <time>2016-09-04T08:39:09Z</time>
      </trkpt>
      <trkpt lat="45.74506" lon="4.64546">
        <ele>562.99</ele>
        <time>2016-09-04T08:39:14Z</time>
      </trkpt>
      <trkpt lat="45.74506" lon="4.64545">
        <ele>563.95</ele>
        <time>2016-09-04T08:39:19Z</time>
      </trkpt>
      <trkpt lat="45.74505" lon="4.64537">
        <ele>564.43</ele>
        <time>2016-09-04T08:39:24Z</time>
      </trkpt>
      <trkpt lat="45.74503" lon="4.64528">
        <ele>565.39</ele>
        <time>2016-09-04T08:39:29Z</time>
      </trkpt>
      <trkpt lat="45.74502" lon="4.64518">
        <ele>565.87</ele>
        <time>2016-09-04T08:39:34Z</time>
      </trkpt>
      <trkpt lat="45.74501" lon="4.64509">
        <ele>565.87</ele>
        <time>2016-09-04T08:39:39Z</time>
      </trkpt>
      <trkpt lat="45.74501" lon="4.645">
        <ele>566.35</ele>
        <time>2016-09-04T08:39:44Z</time>
      </trkpt>
      <trkpt lat="45.745" lon="4.6449">
        <ele>565.87</ele>
        <time>2016-09-04T08:39:49Z</time>
      </trkpt>
      <trkpt lat="45.74498" lon="4.6448">
        <ele>565.87</ele>
        <time>2016-09-04T08:39:54Z</time>
      </trkpt>
      <trkpt lat="45.74496" lon="4.64471">
        <ele>566.83</ele>
        <time>2016-09-04T08:39:59Z</time>
      </trkpt>
      <trkpt lat="45.74494" lon="4.64462">
        <ele>567.32</ele>
        <time>2016-09-04T08:40:04Z</time>
      </trkpt>
      <trkpt lat="45.74493" lon="4.64453">
        <ele>567.8</ele>
        <time>2016-09-04T08:40:09Z</time>
      </trkpt>
      <trkpt lat="45.74494" lon="4.64443">
        <ele>568.76</ele>
        <time>2016-09-04T08:40:14Z</time>
      </trkpt>
      <trkpt lat="45.74494" lon="4.64433">
        <ele>569.24</ele>
        <time>2016-09-04T08:40:19Z</time>
      </trkpt>
      <trkpt lat="45.74494" lon="4.64424">
        <ele>569.72</ele>
        <time>2016-09-04T08:40:24Z</time>
      </trkpt>
      <trkpt lat="45.74493" lon="4.64414">
        <ele>569.72</ele>
        <time>2016-09-04T08:40:29Z</time>
      </trkpt>
      <trkpt lat="45.74492" lon="4.64405">
        <ele>569.72</ele>
        <time>2016-09-04T08:40:34Z</time>
      </trkpt>
      <trkpt lat="45.74492" lon="4.64397">
        <ele>570.68</ele>
        <time>2016-09-04T08:40:39Z</time>
      </trkpt>
      <trkpt lat="45.74494" lon="4.64389">
        <ele>570.68</ele>
        <time>2016-09-04T08:40:44Z</time>
      </trkpt>
      <trkpt lat="45.74498" lon="4.64387">
        <ele>571.16</ele>
        <time>2016-09-04T08:40:49Z</time>
      </trkpt>
      <trkpt lat="45.74503" lon="4.64391">
        <ele>571.64</ele>
        <time>2016-09-04T08:40:54Z</time>
      </trkpt>
      <trkpt lat="45.74507" lon="4.64397">
        <ele>572.6</ele>
        <time>2016-09-04T08:40:59Z</time>
      </trkpt>
      <trkpt lat="45.74512" lon="4.64402">
        <ele>573.08</ele>
        <time>2016-09-04T08:41:04Z</time>
      </trkpt>
      <trkpt lat="45.74517" lon="4.64408">
        <ele>574.53</ele>
        <time>2016-09-04T08:41:09Z</time>
      </trkpt>
      <trkpt lat="45.74521" lon="4.64415">
        <ele>575.49</ele>
        <time>2016-09-04T08:41:14Z</time>
      </trkpt>
      <trkpt lat="45.74526" lon="4.64421">
        <ele>576.45</ele>
        <time>2016-09-04T08:41:19Z</time>
      </trkpt>
      <trkpt lat="45.74529" lon="4.64428">
        <ele>577.89</ele>
        <time>2016-09-04T08:41:24Z</time>
      </trkpt>
      <trkpt lat="45.74531" lon="4.64435">
        <ele>577.89</ele>
        <time>2016-09-04T08:41:29Z</time>
      </trkpt>
      <trkpt lat="45.74534" lon="4.64441">
        <ele>577.89</ele>
        <time>2016-09-04T08:41:34Z</time>
      </trkpt>
      <trkpt lat="45.74537" lon="4.64447">
        <ele>578.85</ele>
        <time>2016-09-04T08:41:39Z</time>
      </trkpt>
      <trkpt lat="45.74541" lon="4.64455">
        <ele>579.81</ele>
        <time>2016-09-04T08:41:44Z</time>
      </trkpt>
      <trkpt lat="45.74546" lon="4.64461">
        <ele>580.29</ele>
        <time>2016-09-04T08:41:49Z</time>
      </trkpt>
      <trkpt lat="45.74551" lon="4.64465">
        <ele>580.77</ele>
        <time>2016-09-04T08:41:54Z</time>
      </trkpt>
      <trkpt lat="45.74556" lon="4.6447">
        <ele>580.29</ele>
        <time>2016-09-04T08:41:59Z</time>
      </trkpt>
      <trkpt lat="45.74561" lon="4.64475">
        <ele>581.25</ele>
        <time>2016-09-04T08:42:04Z</time>
      </trkpt>
      <trkpt lat="45.74566" lon="4.64478">
        <ele>581.73</ele>
        <time>2016-09-04T08:42:09Z</time>
      </trkpt>
      <trkpt lat="45.74571" lon="4.64479">
        <ele>582.22</ele>
        <time>2016-09-04T08:42:14Z</time>
      </trkpt>
      <trkpt lat="45.74576" lon="4.64483">
        <ele>583.66</ele>
        <time>2016-09-04T08:42:19Z</time>
      </trkpt>
      <trkpt lat="45.74582" lon="4.64486">
        <ele>585.1</ele>
        <time>2016-09-04T08:42:24Z</time>
      </trkpt>
      <trkpt lat="45.74587" lon="4.64489">
        <ele>586.06</ele>
        <time>2016-09-04T08:42:29Z</time>
      </trkpt>
      <trkpt lat="45.74593" lon="4.64493">
        <ele>586.54</ele>
        <time>2016-09-04T08:42:34Z</time>
      </trkpt>
      <trkpt lat="45.74598" lon="4.64494">
        <ele>587.5</ele>
        <time>2016-09-04T08:42:39Z</time>
      </trkpt>
      <trkpt lat="45.74604" lon="4.64494">
        <ele>587.98</ele>
        <time>2016-09-04T08:42:44Z</time>
      </trkpt>
      <trkpt lat="45.7461" lon="4.64492">
        <ele>588.46</ele>
        <time>2016-09-04T08:42:49Z</time>
      </trkpt>
      <trkpt lat="45.74616" lon="4.6449">
        <ele>589.91</ele>
        <time>2016-09-04T08:42:54Z</time>
      </trkpt>
      <trkpt lat="45.74622" lon="4.64489">
        <ele>590.39</ele>
        <time>2016-09-04T08:42:59Z</time>
      </trkpt>
      <trkpt lat="45.74627" lon="4.64487">
        <ele>591.35</ele>
        <time>2016-09-04T08:43:04Z</time>
      </trkpt>
      <trkpt lat="45.74633" lon="4.64487">
        <ele>592.31</ele>
        <time>2016-09-04T08:43:09Z</time>
      </trkpt>
      <trkpt lat="45.74638" lon="4.64487">
        <ele>593.75</ele>
        <time>2016-09-04T08:43:14Z</time>
      </trkpt>
      <trkpt lat="45.74642" lon="4.64487">
        <ele>594.71</ele>
        <time>2016-09-04T08:43:19Z</time>
      </trkpt>
      <trkpt lat="45.74647" lon="4.64486">
        <ele>594.71</ele>
        <time>2016-09-04T08:43:24Z</time>
      </trkpt>
      <trkpt lat="45.74652" lon="4.64485">
        <ele>594.71</ele>
        <time>2016-09-04T08:43:29Z</time>
      </trkpt>
      <trkpt lat="45.74658" lon="4.64484">
        <ele>595.67</ele>
        <time>2016-09-04T08:43:34Z</time>
      </trkpt>
      <trkpt lat="45.74662" lon="4.64481">
        <ele>596.15</ele>
        <time>2016-09-04T08:43:39Z</time>
      </trkpt>
      <trkpt lat="45.74663" lon="4.6448">
        <ele>595.19</ele>
        <time>2016-09-04T08:43:44Z</time>
      </trkpt>
      <trkpt lat="45.74662" lon="4.6448">
        <ele>594.71</ele>
        <time>2016-09-04T08:43:49Z</time>
      </trkpt>
      <trkpt lat="45.74661" lon="4.64481">
        <ele>594.23</ele>
        <time>2016-09-04T08:43:54Z</time>
      </trkpt>
      <trkpt lat="45.74662" lon="4.64478">
        <ele>593.75</ele>
        <time>2016-09-04T08:43:59Z</time>
      </trkpt>
      <trkpt lat="45.74664" lon="4.64476">
        <ele>592.31</ele>
        <time>2016-09-04T08:44:04Z</time>
      </trkpt>
      <trkpt lat="45.74664" lon="4.64475">
        <ele>592.31</ele>
        <time>2016-09-04T08:44:09Z</time>
      </trkpt>
      <trkpt lat="45.74664" lon="4.64475">
        <ele>592.31</ele>
        <time>2016-09-04T08:44:14Z</time>
      </trkpt>
      <trkpt lat="45.74663" lon="4.64476">
        <ele>592.31</ele>
        <time>2016-09-04T08:44:19Z</time>
      </trkpt>
      <trkpt lat="45.74663" lon="4.64476">
        <ele>591.83</ele>
        <time>2016-09-04T08:44:24Z</time>
      </trkpt>
      <trkpt lat="45.74663" lon="4.64477">
        <ele>591.83</ele>
        <time>2016-09-04T08:44:29Z</time>
      </trkpt>
      <trkpt lat="45.74663" lon="4.64477">
        <ele>591.83</ele>
        <time>2016-09-04T08:44:34Z</time>
      </trkpt>
      <trkpt lat="45.74663" lon="4.64477">
        <ele>592.31</ele>
        <time>2016-09-04T08:44:39Z</time>
      </trkpt>
      <trkpt lat="45.74663" lon="4.64476">
        <ele>591.83</ele>
        <time>2016-09-04T08:44:44Z</time>
      </trkpt>
      <trkpt lat="45.74663" lon="4.64476">
        <ele>591.35</ele>
        <time>2016-09-04T08:44:49Z</time>
      </trkpt>
      <trkpt lat="45.74663" lon="4.64476">
        <ele>590.39</ele>
        <time>2016-09-04T08:44:54Z</time>
      </trkpt>
      <trkpt lat="45.74663" lon="4.64476">
        <ele>589.91</ele>
        <time>2016-09-04T08:44:59Z</time>
      </trkpt>
      <trkpt lat="45.74663" lon="4.64475">
        <ele>589.43</ele>
        <time>2016-09-04T08:45:04Z</time>
      </trkpt>
      <trkpt lat="45.74663" lon="4.64475">
        <ele>588.95</ele>
        <time>2016-09-04T08:45:09Z</time>
      </trkpt>
      <trkpt lat="45.74662" lon="4.64475">
        <ele>587.5</ele>
        <time>2016-09-04T08:45:14Z</time>
      </trkpt>
      <trkpt lat="45.74662" lon="4.64476">
        <ele>586.54</ele>
        <time>2016-09-04T08:45:19Z</time>
      </trkpt>
      <trkpt lat="45.74662" lon="4.64476">
        <ele>587.02</ele>
        <time>2016-09-04T08:45:24Z</time>
      </trkpt>
      <trkpt lat="45.74662" lon="4.64476">
        <ele>587.5</ele>
        <time>2016-09-04T08:45:29Z</time>
      </trkpt>
      <trkpt lat="45.74662" lon="4.64477">
        <ele>587.98</ele>
        <time>2016-09-04T08:45:34Z</time>
      </trkpt>
      <trkpt lat="45.74662" lon="4.64477">
        <ele>587.98</ele>
        <time>2016-09-04T08:45:39Z</time>
      </trkpt>
      <trkpt lat="45.74662" lon="4.64476">
        <ele>588.46</ele>
        <time>2016-09-04T08:45:44Z</time>
      </trkpt>
      <trkpt lat="45.74662" lon="4.64476">
        <ele>588.95</ele>
        <time>2016-09-04T08:45:49Z</time>
      </trkpt>
      <trkpt lat="45.74662" lon="4.64475">
        <ele>588.95</ele>
        <time>2016-09-04T08:45:54Z</time>
      </trkpt>
      <trkpt lat="45.74662" lon="4.64475">
        <ele>588.46</ele>
        <time>2016-09-04T08:45:59Z</time>
      </trkpt>
      <trkpt lat="45.74662" lon="4.64474">
        <ele>588.95</ele>
        <time>2016-09-04T08:46:04Z</time>
      </trkpt>
      <trkpt lat="45.74662" lon="4.64474">
        <ele>588.95</ele>
        <time>2016-09-04T08:46:09Z</time>
      </trkpt>
      <trkpt lat="45.74662" lon="4.64474">
        <ele>588.95</ele>
        <time>2016-09-04T08:46:14Z</time>
      </trkpt>
      <trkpt lat="45.74662" lon="4.64474">
        <ele>588.95</ele>
        <time>2016-09-04T08:46:19Z</time>
      </trkpt>
      <trkpt lat="45.74662" lon="4.64474">
        <ele>588.46</ele>
        <time>2016-09-04T08:46:24Z</time>
      </trkpt>
      <trkpt lat="45.74662" lon="4.64473">
        <ele>587.98</ele>
        <time>2016-09-04T08:46:29Z</time>
      </trkpt>
      <trkpt lat="45.74662" lon="4.64473">
        <ele>587.98</ele>
        <time>2016-09-04T08:46:34Z</time>
      </trkpt>
      <trkpt lat="45.74662" lon="4.64473">
        <ele>587.5</ele>
        <time>2016-09-04T08:46:39Z</time>
      </trkpt>
      <trkpt lat="45.74662" lon="4.64473">
        <ele>587.02</ele>
        <time>2016-09-04T08:46:44Z</time>
      </trkpt>
      <trkpt lat="45.74663" lon="4.64473">
        <ele>586.54</ele>
        <time>2016-09-04T08:46:49Z</time>
      </trkpt>
      <trkpt lat="45.74663" lon="4.64473">
        <ele>586.06</ele>
        <time>2016-09-04T08:46:54Z</time>
      </trkpt>
      <trkpt lat="45.74663" lon="4.64472">
        <ele>586.06</ele>
        <time>2016-09-04T08:46:59Z</time>
      </trkpt>
      <trkpt lat="45.74663" lon="4.64472">
        <ele>586.06</ele>
        <time>2016-09-04T08:47:04Z</time>
      </trkpt>
      <trkpt lat="45.74663" lon="4.64472">
        <ele>585.58</ele>
        <time>2016-09-04T08:47:09Z</time>
      </trkpt>
      <trkpt lat="45.74663" lon="4.64472">
        <ele>585.58</ele>
        <time>2016-09-04T08:47:14Z</time>
      </trkpt>
      <trkpt lat="45.74663" lon="4.64471">
        <ele>585.58</ele>
        <time>2016-09-04T08:47:19Z</time>
      </trkpt>
      <trkpt lat="45.74663" lon="4.64471">
        <ele>585.1</ele>
        <time>2016-09-04T08:47:24Z</time>
      </trkpt>
      <trkpt lat="45.74663" lon="4.64471">
        <ele>584.62</ele>
        <time>2016-09-04T08:47:29Z</time>
      </trkpt>
      <trkpt lat="45.74663" lon="4.64471">
        <ele>584.62</ele>
        <time>2016-09-04T08:47:34Z</time>
      </trkpt>
      <trkpt lat="45.74663" lon="4.64471">
        <ele>584.62</ele>
        <time>2016-09-04T08:47:39Z</time>
      </trkpt>
      <trkpt lat="45.74663" lon="4.64471">
        <ele>585.1</ele>
        <time>2016-09-04T08:47:44Z</time>
      </trkpt>
      <trkpt lat="45.74663" lon="4.64472">
        <ele>585.1</ele>
        <time>2016-09-04T08:47:49Z</time>
      </trkpt>
      <trkpt lat="45.74663" lon="4.64472">
        <ele>585.1</ele>
        <time>2016-09-04T08:47:54Z</time>
      </trkpt>
      <trkpt lat="45.74663" lon="4.64472">
        <ele>584.62</ele>
        <time>2016-09-04T08:47:59Z</time>
      </trkpt>
      <trkpt lat="45.74663" lon="4.64472">
        <ele>584.14</ele>
        <time>2016-09-04T08:48:04Z</time>
      </trkpt>
      <trkpt lat="45.74663" lon="4.64472">
        <ele>584.14</ele>
        <time>2016-09-04T08:48:09Z</time>
      </trkpt>
      <trkpt lat="45.74663" lon="4.64472">
        <ele>584.14</ele>
        <time>2016-09-04T08:48:14Z</time>
      </trkpt>
      <trkpt lat="45.74663" lon="4.64472">
        <ele>584.14</ele>
        <time>2016-09-04T08:48:19Z</time>
      </trkpt>
      <trkpt lat="45.74663" lon="4.64472">
        <ele>584.14</ele>
        <time>2016-09-04T08:48:24Z</time>
      </trkpt>
      <trkpt lat="45.74663" lon="4.64472">
        <ele>583.66</ele>
        <time>2016-09-04T08:48:29Z</time>
      </trkpt>
      <trkpt lat="45.74663" lon="4.64472">
        <ele>583.18</ele>
        <time>2016-09-04T08:48:34Z</time>
      </trkpt>
      <trkpt lat="45.74663" lon="4.64472">
        <ele>582.22</ele>
        <time>2016-09-04T08:48:39Z</time>
      </trkpt>
      <trkpt lat="45.74662" lon="4.64471">
        <ele>581.73</ele>
        <time>2016-09-04T08:48:44Z</time>
      </trkpt>
      <trkpt lat="45.74662" lon="4.64471">
        <ele>581.25</ele>
        <time>2016-09-04T08:48:49Z</time>
      </trkpt>
      <trkpt lat="45.74662" lon="4.64471">
        <ele>581.25</ele>
        <time>2016-09-04T08:48:54Z</time>
      </trkpt>
      <trkpt lat="45.74662" lon="4.64471">
        <ele>581.25</ele>
        <time>2016-09-04T08:48:59Z</time>
      </trkpt>
      <trkpt lat="45.74662" lon="4.64471">
        <ele>581.25</ele>
        <time>2016-09-04T08:49:04Z</time>
      </trkpt>
      <trkpt lat="45.74662" lon="4.64471">
        <ele>581.25</ele>
        <time>2016-09-04T08:49:09Z</time>
      </trkpt>
      <trkpt lat="45.74662" lon="4.64471">
        <ele>581.25</ele>
        <time>2016-09-04T08:49:14Z</time>
      </trkpt>
      <trkpt lat="45.74662" lon="4.64471">
        <ele>581.73</ele>
        <time>2016-09-04T08:49:19Z</time>
      </trkpt>
      <trkpt lat="45.74662" lon="4.6447">
        <ele>581.73</ele>
        <time>2016-09-04T08:49:24Z</time>
      </trkpt>
      <trkpt lat="45.74662" lon="4.6447">
        <ele>581.25</ele>
        <time>2016-09-04T08:49:29Z</time>
      </trkpt>
      <trkpt lat="45.74662" lon="4.6447">
        <ele>580.77</ele>
        <time>2016-09-04T08:49:34Z</time>
      </trkpt>
      <trkpt lat="45.74662" lon="4.64469">
        <ele>580.77</ele>
        <time>2016-09-04T08:49:39Z</time>
      </trkpt>
      <trkpt lat="45.74662" lon="4.64469">
        <ele>580.77</ele>
        <time>2016-09-04T08:49:44Z</time>
      </trkpt>
      <trkpt lat="45.74662" lon="4.64469">
        <ele>580.29</ele>
        <time>2016-09-04T08:49:49Z</time>
      </trkpt>
      <trkpt lat="45.74662" lon="4.64469">
        <ele>580.29</ele>
        <time>2016-09-04T08:49:54Z</time>
      </trkpt>
      <trkpt lat="45.74662" lon="4.64469">
        <ele>580.29</ele>
        <time>2016-09-04T08:49:59Z</time>
      </trkpt>
      <trkpt lat="45.74662" lon="4.64469">
        <ele>579.81</ele>
        <time>2016-09-04T08:50:04Z</time>
      </trkpt>
      <trkpt lat="45.74662" lon="4.64469">
        <ele>579.81</ele>
        <time>2016-09-04T08:50:09Z</time>
      </trkpt>
      <trkpt lat="45.74663" lon="4.6447">
        <ele>580.29</ele>
        <time>2016-09-04T08:50:14Z</time>
      </trkpt>
      <trkpt lat="45.74663" lon="4.6447">
        <ele>580.77</ele>
        <time>2016-09-04T08:50:19Z</time>
      </trkpt>
      <trkpt lat="45.74663" lon="4.6447">
        <ele>581.25</ele>
        <time>2016-09-04T08:50:24Z</time>
      </trkpt>
      <trkpt lat="45.74663" lon="4.6447">
        <ele>581.25</ele>
        <time>2016-09-04T08:50:29Z</time>
      </trkpt>
      <trkpt lat="45.74663" lon="4.6447">
        <ele>581.25</ele>
        <time>2016-09-04T08:50:34Z</time>
      </trkpt>
      <trkpt lat="45.74663" lon="4.6447">
        <ele>581.25</ele>
        <time>2016-09-04T08:50:39Z</time>
      </trkpt>
      <trkpt lat="45.74663" lon="4.6447">
        <ele>581.73</ele>
        <time>2016-09-04T08:50:44Z</time>
      </trkpt>
      <trkpt lat="45.74663" lon="4.6447">
        <ele>581.73</ele>
        <time>2016-09-04T08:50:49Z</time>
      </trkpt>
      <trkpt lat="45.74663" lon="4.64471">
        <ele>581.73</ele>
        <time>2016-09-04T08:50:54Z</time>
      </trkpt>
      <trkpt lat="45.74663" lon="4.64471">
        <ele>581.73</ele>
        <time>2016-09-04T08:50:59Z</time>
      </trkpt>
      <trkpt lat="45.74663" lon="4.64471">
        <ele>582.22</ele>
        <time>2016-09-04T08:51:04Z</time>
      </trkpt>
      <trkpt lat="45.74663" lon="4.64471">
        <ele>582.22</ele>
        <time>2016-09-04T08:51:09Z</time>
      </trkpt>
      <trkpt lat="45.74663" lon="4.64471">
        <ele>582.22</ele>
        <time>2016-09-04T08:51:14Z</time>
      </trkpt>
      <trkpt lat="45.74663" lon="4.64471">
        <ele>582.7</ele>
        <time>2016-09-04T08:51:19Z</time>
      </trkpt>
      <trkpt lat="45.74663" lon="4.64471">
        <ele>582.7</ele>
        <time>2016-09-04T08:51:24Z</time>
      </trkpt>
      <trkpt lat="45.74663" lon="4.64472">
        <ele>583.18</ele>
        <time>2016-09-04T08:51:29Z</time>
      </trkpt>
      <trkpt lat="45.74663" lon="4.64472">
        <ele>583.66</ele>
        <time>2016-09-04T08:51:34Z</time>
      </trkpt>
      <trkpt lat="45.74663" lon="4.64472">
        <ele>584.14</ele>
        <time>2016-09-04T08:51:39Z</time>
      </trkpt>
      <trkpt lat="45.74663" lon="4.64472">
        <ele>584.62</ele>
        <time>2016-09-04T08:51:44Z</time>
      </trkpt>
      <trkpt lat="45.74663" lon="4.64472">
        <ele>584.62</ele>
        <time>2016-09-04T08:51:49Z</time>
      </trkpt>
      <trkpt lat="45.74663" lon="4.64472">
        <ele>585.1</ele>
        <time>2016-09-04T08:51:54Z</time>
      </trkpt>
      <trkpt lat="45.74663" lon="4.64472">
        <ele>585.1</ele>
        <time>2016-09-04T08:51:59Z</time>
      </trkpt>
      <trkpt lat="45.74663" lon="4.64472">
        <ele>585.58</ele>
        <time>2016-09-04T08:52:04Z</time>
      </trkpt>
      <trkpt lat="45.74662" lon="4.64472">
        <ele>585.58</ele>
        <time>2016-09-04T08:52:09Z</time>
      </trkpt>
      <trkpt lat="45.74662" lon="4.64472">
        <ele>586.06</ele>
        <time>2016-09-04T08:52:14Z</time>
      </trkpt>
      <trkpt lat="45.74662" lon="4.64472">
        <ele>586.06</ele>
        <time>2016-09-04T08:52:19Z</time>
      </trkpt>
      <trkpt lat="45.74661" lon="4.64471">
        <ele>587.02</ele>
        <time>2016-09-04T08:52:24Z</time>
      </trkpt>
      <trkpt lat="45.74661" lon="4.64471">
        <ele>587.5</ele>
        <time>2016-09-04T08:52:29Z</time>
      </trkpt>
      <trkpt lat="45.74661" lon="4.64472">
        <ele>587.98</ele>
        <time>2016-09-04T08:52:34Z</time>
      </trkpt>
      <trkpt lat="45.74662" lon="4.64472">
        <ele>588.95</ele>
        <time>2016-09-04T08:52:39Z</time>
      </trkpt>
      <trkpt lat="45.74662" lon="4.64472">
        <ele>589.91</ele>
        <time>2016-09-04T08:52:44Z</time>
      </trkpt>
      <trkpt lat="45.74662" lon="4.64473">
        <ele>590.39</ele>
        <time>2016-09-04T08:52:49Z</time>
      </trkpt>
      <trkpt lat="45.74662" lon="4.64472">
        <ele>591.35</ele>
        <time>2016-09-04T08:52:54Z</time>
      </trkpt>
      <trkpt lat="45.74662" lon="4.64472">
        <ele>591.83</ele>
        <time>2016-09-04T08:52:59Z</time>
      </trkpt>
      <trkpt lat="45.74662" lon="4.64472">
        <ele>592.31</ele>
        <time>2016-09-04T08:53:04Z</time>
      </trkpt>
      <trkpt lat="45.74662" lon="4.64472">
        <ele>592.31</ele>
        <time>2016-09-04T08:53:09Z</time>
      </trkpt>
      <trkpt lat="45.74663" lon="4.64472">
        <ele>591.83</ele>
        <time>2016-09-04T08:53:14Z</time>
      </trkpt>
      <trkpt lat="45.74663" lon="4.64473">
        <ele>591.35</ele>
        <time>2016-09-04T08:53:19Z</time>
      </trkpt>
      <trkpt lat="45.74663" lon="4.64473">
        <ele>590.87</ele>
        <time>2016-09-04T08:53:24Z</time>
      </trkpt>
      <trkpt lat="45.74663" lon="4.64473">
        <ele>590.39</ele>
        <time>2016-09-04T08:53:29Z</time>
      </trkpt>
      <trkpt lat="45.74663" lon="4.64473">
        <ele>590.39</ele>
        <time>2016-09-04T08:53:34Z</time>
      </trkpt>
      <trkpt lat="45.74663" lon="4.64473">
        <ele>589.91</ele>
        <time>2016-09-04T08:53:39Z</time>
      </trkpt>
      <trkpt lat="45.74662" lon="4.64473">
        <ele>589.91</ele>
        <time>2016-09-04T08:53:44Z</time>
      </trkpt>
      <trkpt lat="45.74662" lon="4.64472">
        <ele>589.43</ele>
        <time>2016-09-04T08:53:49Z</time>
      </trkpt>
      <trkpt lat="45.74662" lon="4.64472">
        <ele>588.95</ele>
        <time>2016-09-04T08:53:54Z</time>
      </trkpt>
      <trkpt lat="45.74661" lon="4.64472">
        <ele>588.46</ele>
        <time>2016-09-04T08:53:59Z</time>
      </trkpt>
      <trkpt lat="45.74662" lon="4.64472">
        <ele>587.98</ele>
        <time>2016-09-04T08:54:04Z</time>
      </trkpt>
      <trkpt lat="45.74661" lon="4.64472">
        <ele>587.98</ele>
        <time>2016-09-04T08:54:09Z</time>
      </trkpt>
      <trkpt lat="45.74661" lon="4.64472">
        <ele>587.5</ele>
        <time>2016-09-04T08:54:14Z</time>
      </trkpt>
      <trkpt lat="45.74661" lon="4.64472">
        <ele>587.5</ele>
        <time>2016-09-04T08:54:19Z</time>
      </trkpt>
      <trkpt lat="45.74661" lon="4.64472">
        <ele>587.02</ele>
        <time>2016-09-04T08:54:24Z</time>
      </trkpt>
      <trkpt lat="45.74661" lon="4.64472">
        <ele>587.02</ele>
        <time>2016-09-04T08:54:29Z</time>
      </trkpt>
      <trkpt lat="45.74661" lon="4.64473">
        <ele>587.5</ele>
        <time>2016-09-04T08:54:34Z</time>
      </trkpt>
      <trkpt lat="45.74661" lon="4.64473">
        <ele>587.5</ele>
        <time>2016-09-04T08:54:39Z</time>
      </trkpt>
      <trkpt lat="45.74661" lon="4.64473">
        <ele>587.5</ele>
        <time>2016-09-04T08:54:44Z</time>
      </trkpt>
      <trkpt lat="45.74662" lon="4.64473">
        <ele>587.98</ele>
        <time>2016-09-04T08:54:49Z</time>
      </trkpt>
      <trkpt lat="45.74665" lon="4.64473">
        <ele>588.46</ele>
        <time>2016-09-04T08:54:54Z</time>
      </trkpt>
      <trkpt lat="45.74668" lon="4.64474">
        <ele>590.39</ele>
        <time>2016-09-04T08:54:59Z</time>
      </trkpt>
      <trkpt lat="45.74671" lon="4.64471">
        <ele>592.31</ele>
        <time>2016-09-04T08:55:04Z</time>
      </trkpt>
      <trkpt lat="45.74676" lon="4.64467">
        <ele>592.79</ele>
        <time>2016-09-04T08:55:09Z</time>
      </trkpt>
      <trkpt lat="45.74679" lon="4.64463">
        <ele>593.75</ele>
        <time>2016-09-04T08:55:14Z</time>
      </trkpt>
      <trkpt lat="45.74683" lon="4.64459">
        <ele>594.23</ele>
        <time>2016-09-04T08:55:19Z</time>
      </trkpt>
      <trkpt lat="45.74688" lon="4.64454">
        <ele>594.71</ele>
        <time>2016-09-04T08:55:24Z</time>
      </trkpt>
      <trkpt lat="45.74692" lon="4.6445">
        <ele>594.71</ele>
        <time>2016-09-04T08:55:29Z</time>
      </trkpt>
      <trkpt lat="45.74695" lon="4.64445">
        <ele>595.19</ele>
        <time>2016-09-04T08:55:34Z</time>
      </trkpt>
      <trkpt lat="45.74698" lon="4.64439">
        <ele>596.15</ele>
        <time>2016-09-04T08:55:39Z</time>
      </trkpt>
      <trkpt lat="45.74702" lon="4.64434">
        <ele>597.12</ele>
        <time>2016-09-04T08:55:44Z</time>
      </trkpt>
      <trkpt lat="45.74705" lon="4.6443">
        <ele>597.6</ele>
        <time>2016-09-04T08:55:49Z</time>
      </trkpt>
      <trkpt lat="45.74706" lon="4.64424">
        <ele>598.08</ele>
        <time>2016-09-04T08:55:54Z</time>
      </trkpt>
      <trkpt lat="45.74709" lon="4.64418">
        <ele>598.56</ele>
        <time>2016-09-04T08:55:59Z</time>
      </trkpt>
      <trkpt lat="45.74713" lon="4.64415">
        <ele>599.04</ele>
        <time>2016-09-04T08:56:04Z</time>
      </trkpt>
      <trkpt lat="45.74716" lon="4.64409">
        <ele>599.04</ele>
        <time>2016-09-04T08:56:09Z</time>
      </trkpt>
      <trkpt lat="45.74719" lon="4.64404">
        <ele>599.52</ele>
        <time>2016-09-04T08:56:14Z</time>
      </trkpt>
      <trkpt lat="45.74723" lon="4.64399">
        <ele>600</ele>
        <time>2016-09-04T08:56:19Z</time>
      </trkpt>
      <trkpt lat="45.74726" lon="4.64393">
        <ele>600.48</ele>
        <time>2016-09-04T08:56:24Z</time>
      </trkpt>
      <trkpt lat="45.7473" lon="4.64388">
        <ele>600.96</ele>
        <time>2016-09-04T08:56:29Z</time>
      </trkpt>
      <trkpt lat="45.74734" lon="4.64383">
        <ele>601.44</ele>
        <time>2016-09-04T08:56:34Z</time>
      </trkpt>
      <trkpt lat="45.74739" lon="4.64377">
        <ele>601.92</ele>
        <time>2016-09-04T08:56:39Z</time>
      </trkpt>
      <trkpt lat="45.74742" lon="4.64373">
        <ele>600.96</ele>
        <time>2016-09-04T08:56:44Z</time>
      </trkpt>
      <trkpt lat="45.74746" lon="4.64368">
        <ele>601.44</ele>
        <time>2016-09-04T08:56:49Z</time>
      </trkpt>
      <trkpt lat="45.7475" lon="4.64362">
        <ele>601.44</ele>
        <time>2016-09-04T08:56:54Z</time>
      </trkpt>
      <trkpt lat="45.74754" lon="4.64357">
        <ele>601.92</ele>
        <time>2016-09-04T08:56:59Z</time>
      </trkpt>
      <trkpt lat="45.74758" lon="4.64352">
        <ele>602.4</ele>
        <time>2016-09-04T08:57:04Z</time>
      </trkpt>
      <trkpt lat="45.74762" lon="4.64348">
        <ele>603.36</ele>
        <time>2016-09-04T08:57:09Z</time>
      </trkpt>
      <trkpt lat="45.74767" lon="4.64343">
        <ele>603.36</ele>
        <time>2016-09-04T08:57:14Z</time>
      </trkpt>
      <trkpt lat="45.7477" lon="4.64337">
        <ele>604.33</ele>
        <time>2016-09-04T08:57:19Z</time>
      </trkpt>
      <trkpt lat="45.74774" lon="4.64332">
        <ele>605.29</ele>
        <time>2016-09-04T08:57:24Z</time>
      </trkpt>
      <trkpt lat="45.74778" lon="4.64328">
        <ele>605.77</ele>
        <time>2016-09-04T08:57:29Z</time>
      </trkpt>
      <trkpt lat="45.74782" lon="4.64324">
        <ele>606.73</ele>
        <time>2016-09-04T08:57:34Z</time>
      </trkpt>
      <trkpt lat="45.74784" lon="4.64323">
        <ele>607.69</ele>
        <time>2016-09-04T08:57:39Z</time>
      </trkpt>
      <trkpt lat="45.74786" lon="4.64321">
        <ele>607.69</ele>
        <time>2016-09-04T08:57:44Z</time>
      </trkpt>
      <trkpt lat="45.74786" lon="4.64319">
        <ele>607.69</ele>
        <time>2016-09-04T08:57:49Z</time>
      </trkpt>
      <trkpt lat="45.74789" lon="4.64313">
        <ele>608.17</ele>
        <time>2016-09-04T08:57:54Z</time>
      </trkpt>
      <trkpt lat="45.74792" lon="4.64309">
        <ele>608.65</ele>
        <time>2016-09-04T08:57:59Z</time>
      </trkpt>
      <trkpt lat="45.74795" lon="4.64302">
        <ele>609.13</ele>
        <time>2016-09-04T08:58:04Z</time>
      </trkpt>
      <trkpt lat="45.748" lon="4.64297">
        <ele>610.09</ele>
        <time>2016-09-04T08:58:09Z</time>
      </trkpt>
      <trkpt lat="45.74804" lon="4.64291">
        <ele>610.57</ele>
        <time>2016-09-04T08:58:14Z</time>
      </trkpt>
      <trkpt lat="45.74808" lon="4.64286">
        <ele>611.54</ele>
        <time>2016-09-04T08:58:19Z</time>
      </trkpt>
      <trkpt lat="45.74812" lon="4.6428">
        <ele>612.5</ele>
        <time>2016-09-04T08:58:24Z</time>
      </trkpt>
      <trkpt lat="45.74814" lon="4.64278">
        <ele>613.46</ele>
        <time>2016-09-04T08:58:29Z</time>
      </trkpt>
      <trkpt lat="45.74815" lon="4.64279">
        <ele>613.94</ele>
        <time>2016-09-04T08:58:34Z</time>
      </trkpt>
      <trkpt lat="45.74816" lon="4.64278">
        <ele>614.42</ele>
        <time>2016-09-04T08:58:39Z</time>
      </trkpt>
      <trkpt lat="45.74819" lon="4.64272">
        <ele>614.42</ele>
        <time>2016-09-04T08:58:44Z</time>
      </trkpt>
      <trkpt lat="45.74823" lon="4.64266">
        <ele>614.42</ele>
        <time>2016-09-04T08:58:49Z</time>
      </trkpt>
      <trkpt lat="45.74828" lon="4.64262">
        <ele>614.9</ele>
        <time>2016-09-04T08:58:54Z</time>
      </trkpt>
      <trkpt lat="45.74833" lon="4.64256">
        <ele>614.9</ele>
        <time>2016-09-04T08:58:59Z</time>
      </trkpt>
      <trkpt lat="45.74838" lon="4.6425">
        <ele>615.86</ele>
        <time>2016-09-04T08:59:04Z</time>
      </trkpt>
      <trkpt lat="45.74843" lon="4.64244">
        <ele>616.82</ele>
        <time>2016-09-04T08:59:09Z</time>
      </trkpt>
      <trkpt lat="45.74846" lon="4.64237">
        <ele>617.3</ele>
        <time>2016-09-04T08:59:14Z</time>
      </trkpt>
      <trkpt lat="45.74849" lon="4.64231">
        <ele>617.3</ele>
        <time>2016-09-04T08:59:19Z</time>
      </trkpt>
      <trkpt lat="45.74853" lon="4.64225">
        <ele>617.78</ele>
        <time>2016-09-04T08:59:24Z</time>
      </trkpt>
      <trkpt lat="45.74857" lon="4.6422">
        <ele>619.23</ele>
        <time>2016-09-04T08:59:29Z</time>
      </trkpt>
      <trkpt lat="45.7486" lon="4.64214">
        <ele>619.71</ele>
        <time>2016-09-04T08:59:34Z</time>
      </trkpt>
      <trkpt lat="45.74862" lon="4.64211">
        <ele>620.19</ele>
        <time>2016-09-04T08:59:39Z</time>
      </trkpt>
      <trkpt lat="45.74863" lon="4.6421">
        <ele>619.71</ele>
        <time>2016-09-04T08:59:44Z</time>
      </trkpt>
      <trkpt lat="45.74864" lon="4.64209">
        <ele>619.71</ele>
        <time>2016-09-04T08:59:49Z</time>
      </trkpt>
      <trkpt lat="45.74865" lon="4.64208">
        <ele>619.71</ele>
        <time>2016-09-04T08:59:54Z</time>
      </trkpt>
      <trkpt lat="45.74866" lon="4.64208">
        <ele>619.23</ele>
        <time>2016-09-04T08:59:59Z</time>
      </trkpt>
      <trkpt lat="45.74866" lon="4.64207">
        <ele>618.75</ele>
        <time>2016-09-04T09:00:04Z</time>
      </trkpt>
      <trkpt lat="45.74866" lon="4.64207">
        <ele>618.75</ele>
        <time>2016-09-04T09:00:09Z</time>
      </trkpt>
      <trkpt lat="45.74867" lon="4.64208">
        <ele>618.75</ele>
        <time>2016-09-04T09:00:14Z</time>
      </trkpt>
      <trkpt lat="45.74867" lon="4.64209">
        <ele>617.78</ele>
        <time>2016-09-04T09:00:19Z</time>
      </trkpt>
      <trkpt lat="45.74867" lon="4.64207">
        <ele>617.78</ele>
        <time>2016-09-04T09:00:24Z</time>
      </trkpt>
      <trkpt lat="45.74867" lon="4.64206">
        <ele>617.78</ele>
        <time>2016-09-04T09:00:29Z</time>
      </trkpt>
      <trkpt lat="45.74867" lon="4.64206">
        <ele>618.26</ele>
        <time>2016-09-04T09:00:34Z</time>
      </trkpt>
      <trkpt lat="45.74867" lon="4.64207">
        <ele>618.26</ele>
        <time>2016-09-04T09:00:39Z</time>
      </trkpt>
      <trkpt lat="45.74866" lon="4.64207">
        <ele>617.78</ele>
        <time>2016-09-04T09:00:44Z</time>
      </trkpt>
      <trkpt lat="45.74865" lon="4.64207">
        <ele>616.82</ele>
        <time>2016-09-04T09:00:49Z</time>
      </trkpt>
      <trkpt lat="45.74865" lon="4.64206">
        <ele>616.82</ele>
        <time>2016-09-04T09:00:54Z</time>
      </trkpt>
      <trkpt lat="45.74867" lon="4.64202">
        <ele>617.3</ele>
        <time>2016-09-04T09:00:59Z</time>
      </trkpt>
      <trkpt lat="45.7487" lon="4.64197">
        <ele>619.71</ele>
        <time>2016-09-04T09:01:04Z</time>
      </trkpt>
      <trkpt lat="45.74874" lon="4.64191">
        <ele>620.67</ele>
        <time>2016-09-04T09:01:09Z</time>
      </trkpt>
      <trkpt lat="45.74877" lon="4.64185">
        <ele>621.63</ele>
        <time>2016-09-04T09:01:14Z</time>
      </trkpt>
      <trkpt lat="45.74881" lon="4.64179">
        <ele>621.63</ele>
        <time>2016-09-04T09:01:19Z</time>
      </trkpt>
      <trkpt lat="45.74885" lon="4.64173">
        <ele>622.11</ele>
        <time>2016-09-04T09:01:24Z</time>
      </trkpt>
      <trkpt lat="45.74889" lon="4.64166">
        <ele>623.07</ele>
        <time>2016-09-04T09:01:29Z</time>
      </trkpt>
      <trkpt lat="45.74892" lon="4.64159">
        <ele>623.55</ele>
        <time>2016-09-04T09:01:34Z</time>
      </trkpt>
      <trkpt lat="45.74895" lon="4.64152">
        <ele>624.03</ele>
        <time>2016-09-04T09:01:39Z</time>
      </trkpt>
      <trkpt lat="45.74899" lon="4.64146">
        <ele>624.51</ele>
        <time>2016-09-04T09:01:44Z</time>
      </trkpt>
      <trkpt lat="45.74902" lon="4.6414">
        <ele>625.47</ele>
        <time>2016-09-04T09:01:49Z</time>
      </trkpt>
      <trkpt lat="45.74906" lon="4.64133">
        <ele>625.96</ele>
        <time>2016-09-04T09:01:54Z</time>
      </trkpt>
      <trkpt lat="45.74911" lon="4.64126">
        <ele>626.44</ele>
        <time>2016-09-04T09:01:59Z</time>
      </trkpt>
      <trkpt lat="45.74915" lon="4.64119">
        <ele>625.96</ele>
        <time>2016-09-04T09:02:04Z</time>
      </trkpt>
      <trkpt lat="45.74919" lon="4.64113">
        <ele>625.96</ele>
        <time>2016-09-04T09:02:09Z</time>
      </trkpt>
      <trkpt lat="45.74922" lon="4.64107">
        <ele>626.44</ele>
        <time>2016-09-04T09:02:14Z</time>
      </trkpt>
      <trkpt lat="45.74926" lon="4.64101">
        <ele>626.44</ele>
        <time>2016-09-04T09:02:19Z</time>
      </trkpt>
      <trkpt lat="45.7493" lon="4.64095">
        <ele>626.92</ele>
        <time>2016-09-04T09:02:24Z</time>
      </trkpt>
      <trkpt lat="45.74934" lon="4.64088">
        <ele>626.92</ele>
        <time>2016-09-04T09:02:29Z</time>
      </trkpt>
      <trkpt lat="45.74938" lon="4.64081">
        <ele>627.88</ele>
        <time>2016-09-04T09:02:34Z</time>
      </trkpt>
      <trkpt lat="45.74941" lon="4.64074">
        <ele>627.88</ele>
        <time>2016-09-04T09:02:39Z</time>
      </trkpt>
      <trkpt lat="45.74944" lon="4.64068">
        <ele>628.84</ele>
        <time>2016-09-04T09:02:44Z</time>
      </trkpt>
      <trkpt lat="45.74948" lon="4.64062">
        <ele>629.32</ele>
        <time>2016-09-04T09:02:49Z</time>
      </trkpt>
      <trkpt lat="45.74953" lon="4.64056">
        <ele>630.28</ele>
        <time>2016-09-04T09:02:54Z</time>
      </trkpt>
      <trkpt lat="45.74956" lon="4.64049">
        <ele>631.24</ele>
        <time>2016-09-04T09:02:59Z</time>
      </trkpt>
      <trkpt lat="45.74959" lon="4.64043">
        <ele>631.72</ele>
        <time>2016-09-04T09:03:04Z</time>
      </trkpt>
      <trkpt lat="45.74962" lon="4.64038">
        <ele>632.2</ele>
        <time>2016-09-04T09:03:09Z</time>
      </trkpt>
      <trkpt lat="45.74965" lon="4.64032">
        <ele>632.2</ele>
        <time>2016-09-04T09:03:14Z</time>
      </trkpt>
      <trkpt lat="45.74969" lon="4.64027">
        <ele>633.17</ele>
        <time>2016-09-04T09:03:19Z</time>
      </trkpt>
      <trkpt lat="45.74972" lon="4.64021">
        <ele>633.65</ele>
        <time>2016-09-04T09:03:24Z</time>
      </trkpt>
      <trkpt lat="45.74975" lon="4.64016">
        <ele>634.61</ele>
        <time>2016-09-04T09:03:29Z</time>
      </trkpt>
      <trkpt lat="45.74978" lon="4.64011">
        <ele>635.57</ele>
        <time>2016-09-04T09:03:34Z</time>
      </trkpt>
      <trkpt lat="45.74981" lon="4.64005">
        <ele>637.01</ele>
        <time>2016-09-04T09:03:39Z</time>
      </trkpt>
      <trkpt lat="45.74984" lon="4.64">
        <ele>637.97</ele>
        <time>2016-09-04T09:03:44Z</time>
      </trkpt>
      <trkpt lat="45.74988" lon="4.63995">
        <ele>637.97</ele>
        <time>2016-09-04T09:03:49Z</time>
      </trkpt>
      <trkpt lat="45.74992" lon="4.63989">
        <ele>638.93</ele>
        <time>2016-09-04T09:03:54Z</time>
      </trkpt>
      <trkpt lat="45.74996" lon="4.63984">
        <ele>638.93</ele>
        <time>2016-09-04T09:03:59Z</time>
      </trkpt>
      <trkpt lat="45.74999" lon="4.63979">
        <ele>639.89</ele>
        <time>2016-09-04T09:04:04Z</time>
      </trkpt>
      <trkpt lat="45.75" lon="4.63979">
        <ele>640.86</ele>
        <time>2016-09-04T09:04:09Z</time>
      </trkpt>
      <trkpt lat="45.75002" lon="4.63977">
        <ele>641.34</ele>
        <time>2016-09-04T09:04:14Z</time>
      </trkpt>
      <trkpt lat="45.75004" lon="4.63972">
        <ele>641.34</ele>
        <time>2016-09-04T09:04:19Z</time>
      </trkpt>
      <trkpt lat="45.75007" lon="4.6397">
        <ele>642.3</ele>
        <time>2016-09-04T09:04:24Z</time>
      </trkpt>
      <trkpt lat="45.75008" lon="4.63965">
        <ele>643.26</ele>
        <time>2016-09-04T09:04:29Z</time>
      </trkpt>
      <trkpt lat="45.75009" lon="4.63961">
        <ele>644.22</ele>
        <time>2016-09-04T09:04:34Z</time>
      </trkpt>
      <trkpt lat="45.75012" lon="4.63957">
        <ele>644.22</ele>
        <time>2016-09-04T09:04:39Z</time>
      </trkpt>
      <trkpt lat="45.75015" lon="4.63953">
        <ele>644.7</ele>
        <time>2016-09-04T09:04:44Z</time>
      </trkpt>
      <trkpt lat="45.75016" lon="4.63951">
        <ele>644.7</ele>
        <time>2016-09-04T09:04:49Z</time>
      </trkpt>
      <trkpt lat="45.75017" lon="4.6395">
        <ele>644.22</ele>
        <time>2016-09-04T09:04:54Z</time>
      </trkpt>
      <trkpt lat="45.7502" lon="4.63947">
        <ele>644.7</ele>
        <time>2016-09-04T09:04:59Z</time>
      </trkpt>
      <trkpt lat="45.75023" lon="4.63943">
        <ele>644.7</ele>
        <time>2016-09-04T09:05:04Z</time>
      </trkpt>
      <trkpt lat="45.75028" lon="4.63937">
        <ele>645.18</ele>
        <time>2016-09-04T09:05:09Z</time>
      </trkpt>
      <trkpt lat="45.75031" lon="4.63933">
        <ele>646.14</ele>
        <time>2016-09-04T09:05:14Z</time>
      </trkpt>
      <trkpt lat="45.75035" lon="4.63929">
        <ele>646.14</ele>
        <time>2016-09-04T09:05:19Z</time>
      </trkpt>
      <trkpt lat="45.75039" lon="4.63925">
        <ele>646.62</ele>
        <time>2016-09-04T09:05:24Z</time>
      </trkpt>
      <trkpt lat="45.75042" lon="4.63921">
        <ele>647.1</ele>
        <time>2016-09-04T09:05:29Z</time>
      </trkpt>
      <trkpt lat="45.75042" lon="4.63921">
        <ele>647.59</ele>
        <time>2016-09-04T09:05:34Z</time>
      </trkpt>
      <trkpt lat="45.75044" lon="4.6392">
        <ele>648.07</ele>
        <time>2016-09-04T09:05:39Z</time>
      </trkpt>
      <trkpt lat="45.75046" lon="4.63918">
        <ele>648.55</ele>
        <time>2016-09-04T09:05:44Z</time>
      </trkpt>
      <trkpt lat="45.75049" lon="4.63915">
        <ele>648.07</ele>
        <time>2016-09-04T09:05:49Z</time>
      </trkpt>
      <trkpt lat="45.75053" lon="4.63913">
        <ele>647.1</ele>
        <time>2016-09-04T09:05:54Z</time>
      </trkpt>
      <trkpt lat="45.75057" lon="4.6391">
        <ele>647.1</ele>
        <time>2016-09-04T09:05:59Z</time>
      </trkpt>
      <trkpt lat="45.75061" lon="4.63908">
        <ele>647.59</ele>
        <time>2016-09-04T09:06:04Z</time>
      </trkpt>
      <trkpt lat="45.75064" lon="4.63904">
        <ele>648.55</ele>
        <time>2016-09-04T09:06:09Z</time>
      </trkpt>
      <trkpt lat="45.75068" lon="4.639">
        <ele>649.51</ele>
        <time>2016-09-04T09:06:14Z</time>
      </trkpt>
      <trkpt lat="45.75072" lon="4.63897">
        <ele>649.99</ele>
        <time>2016-09-04T09:06:19Z</time>
      </trkpt>
      <trkpt lat="45.75076" lon="4.63894">
        <ele>650.47</ele>
        <time>2016-09-04T09:06:24Z</time>
      </trkpt>
      <trkpt lat="45.7508" lon="4.63892">
        <ele>650.95</ele>
        <time>2016-09-04T09:06:29Z</time>
      </trkpt>
      <trkpt lat="45.75086" lon="4.63887">
        <ele>651.43</ele>
        <time>2016-09-04T09:06:34Z</time>
      </trkpt>
      <trkpt lat="45.75091" lon="4.63884">
        <ele>651.91</ele>
        <time>2016-09-04T09:06:39Z</time>
      </trkpt>
      <trkpt lat="45.75095" lon="4.63881">
        <ele>652.87</ele>
        <time>2016-09-04T09:06:44Z</time>
      </trkpt>
      <trkpt lat="45.75098" lon="4.63879">
        <ele>653.35</ele>
        <time>2016-09-04T09:06:49Z</time>
      </trkpt>
      <trkpt lat="45.75102" lon="4.63876">
        <ele>653.83</ele>
        <time>2016-09-04T09:06:54Z</time>
      </trkpt>
      <trkpt lat="45.75105" lon="4.63872">
        <ele>654.8</ele>
        <time>2016-09-04T09:06:59Z</time>
      </trkpt>
      <trkpt lat="45.7511" lon="4.63869">
        <ele>654.8</ele>
        <time>2016-09-04T09:07:04Z</time>
      </trkpt>
      <trkpt lat="45.75114" lon="4.63866">
        <ele>654.8</ele>
        <time>2016-09-04T09:07:09Z</time>
      </trkpt>
      <trkpt lat="45.75118" lon="4.63863">
        <ele>655.28</ele>
        <time>2016-09-04T09:07:14Z</time>
      </trkpt>
      <trkpt lat="45.75121" lon="4.6386">
        <ele>655.76</ele>
        <time>2016-09-04T09:07:19Z</time>
      </trkpt>
      <trkpt lat="45.75122" lon="4.63859">
        <ele>656.24</ele>
        <time>2016-09-04T09:07:24Z</time>
      </trkpt>
      <trkpt lat="45.75126" lon="4.63857">
        <ele>656.24</ele>
        <time>2016-09-04T09:07:29Z</time>
      </trkpt>
      <trkpt lat="45.75133" lon="4.63854">
        <ele>656.72</ele>
        <time>2016-09-04T09:07:34Z</time>
      </trkpt>
      <trkpt lat="45.75141" lon="4.63849">
        <ele>657.68</ele>
        <time>2016-09-04T09:07:39Z</time>
      </trkpt>
      <trkpt lat="45.75154" lon="4.63847">
        <ele>658.16</ele>
        <time>2016-09-04T09:07:44Z</time>
      </trkpt>
      <trkpt lat="45.75167" lon="4.63846">
        <ele>657.2</ele>
        <time>2016-09-04T09:07:49Z</time>
      </trkpt>
      <trkpt lat="45.75176" lon="4.63842">
        <ele>654.8</ele>
        <time>2016-09-04T09:07:54Z</time>
      </trkpt>
      <trkpt lat="45.75186" lon="4.63837">
        <ele>653.83</ele>
        <time>2016-09-04T09:07:59Z</time>
      </trkpt>
      <trkpt lat="45.75197" lon="4.6383">
        <ele>653.83</ele>
        <time>2016-09-04T09:08:04Z</time>
      </trkpt>
      <trkpt lat="45.75206" lon="4.63822">
        <ele>654.31</ele>
        <time>2016-09-04T09:08:09Z</time>
      </trkpt>
      <trkpt lat="45.75214" lon="4.63814">
        <ele>654.8</ele>
        <time>2016-09-04T09:08:14Z</time>
      </trkpt>
      <trkpt lat="45.75218" lon="4.63808">
        <ele>654.8</ele>
        <time>2016-09-04T09:08:19Z</time>
      </trkpt>
      <trkpt lat="45.75222" lon="4.63801">
        <ele>654.8</ele>
        <time>2016-09-04T09:08:24Z</time>
      </trkpt>
      <trkpt lat="45.75226" lon="4.63794">
        <ele>654.31</ele>
        <time>2016-09-04T09:08:29Z</time>
      </trkpt>
      <trkpt lat="45.75231" lon="4.63785">
        <ele>654.8</ele>
        <time>2016-09-04T09:08:34Z</time>
      </trkpt>
      <trkpt lat="45.75237" lon="4.63775">
        <ele>654.8</ele>
        <time>2016-09-04T09:08:39Z</time>
      </trkpt>
      <trkpt lat="45.75242" lon="4.63763">
        <ele>653.83</ele>
        <time>2016-09-04T09:08:44Z</time>
      </trkpt>
      <trkpt lat="45.75248" lon="4.63752">
        <ele>653.35</ele>
        <time>2016-09-04T09:08:49Z</time>
      </trkpt>
      <trkpt lat="45.75254" lon="4.63739">
        <ele>652.87</ele>
        <time>2016-09-04T09:08:54Z</time>
      </trkpt>
      <trkpt lat="45.7526" lon="4.63727">
        <ele>653.35</ele>
        <time>2016-09-04T09:08:59Z</time>
      </trkpt>
      <trkpt lat="45.75266" lon="4.63716">
        <ele>655.28</ele>
        <time>2016-09-04T09:09:04Z</time>
      </trkpt>
      <trkpt lat="45.75268" lon="4.63704">
        <ele>657.68</ele>
        <time>2016-09-04T09:09:09Z</time>
      </trkpt>
      <trkpt lat="45.75268" lon="4.63695">
        <ele>659.6</ele>
        <time>2016-09-04T09:09:14Z</time>
      </trkpt>
      <trkpt lat="45.75269" lon="4.63685">
        <ele>660.08</ele>
        <time>2016-09-04T09:09:19Z</time>
      </trkpt>
      <trkpt lat="45.75269" lon="4.63677">
        <ele>661.04</ele>
        <time>2016-09-04T09:09:24Z</time>
      </trkpt>
      <trkpt lat="45.75269" lon="4.63671">
        <ele>661.52</ele>
        <time>2016-09-04T09:09:29Z</time>
      </trkpt>
      <trkpt lat="45.75268" lon="4.63667">
        <ele>662.01</ele>
        <time>2016-09-04T09:09:34Z</time>
      </trkpt>
      <trkpt lat="45.75269" lon="4.6366">
        <ele>663.93</ele>
        <time>2016-09-04T09:09:39Z</time>
      </trkpt>
      <trkpt lat="45.75269" lon="4.63655">
        <ele>665.37</ele>
        <time>2016-09-04T09:09:44Z</time>
      </trkpt>
      <trkpt lat="45.75268" lon="4.63648">
        <ele>666.81</ele>
        <time>2016-09-04T09:09:49Z</time>
      </trkpt>
      <trkpt lat="45.75266" lon="4.63642">
        <ele>667.77</ele>
        <time>2016-09-04T09:09:54Z</time>
      </trkpt>
      <trkpt lat="45.75265" lon="4.63635">
        <ele>668.73</ele>
        <time>2016-09-04T09:09:59Z</time>
      </trkpt>
      <trkpt lat="45.75263" lon="4.63629">
        <ele>669.22</ele>
        <time>2016-09-04T09:10:04Z</time>
      </trkpt>
      <trkpt lat="45.75262" lon="4.63622">
        <ele>669.22</ele>
        <time>2016-09-04T09:10:09Z</time>
      </trkpt>
      <trkpt lat="45.75261" lon="4.63615">
        <ele>669.7</ele>
        <time>2016-09-04T09:10:14Z</time>
      </trkpt>
      <trkpt lat="45.7526" lon="4.63608">
        <ele>669.22</ele>
        <time>2016-09-04T09:10:19Z</time>
      </trkpt>
      <trkpt lat="45.75259" lon="4.63602">
        <ele>667.77</ele>
        <time>2016-09-04T09:10:24Z</time>
      </trkpt>
      <trkpt lat="45.75259" lon="4.63595">
        <ele>666.81</ele>
        <time>2016-09-04T09:10:29Z</time>
      </trkpt>
      <trkpt lat="45.75257" lon="4.63586">
        <ele>666.81</ele>
        <time>2016-09-04T09:10:34Z</time>
      </trkpt>
      <trkpt lat="45.75256" lon="4.6358">
        <ele>666.81</ele>
        <time>2016-09-04T09:10:39Z</time>
      </trkpt>
      <trkpt lat="45.75255" lon="4.63576">
        <ele>666.33</ele>
        <time>2016-09-04T09:10:44Z</time>
      </trkpt>
      <trkpt lat="45.75255" lon="4.63576">
        <ele>666.81</ele>
        <time>2016-09-04T09:10:49Z</time>
      </trkpt>
      <trkpt lat="45.75255" lon="4.6357">
        <ele>667.29</ele>
        <time>2016-09-04T09:10:54Z</time>
      </trkpt>
      <trkpt lat="45.75254" lon="4.63564">
        <ele>667.77</ele>
        <time>2016-09-04T09:10:59Z</time>
      </trkpt>
      <trkpt lat="45.75254" lon="4.63559">
        <ele>668.25</ele>
        <time>2016-09-04T09:11:04Z</time>
      </trkpt>
      <trkpt lat="45.75254" lon="4.63554">
        <ele>669.22</ele>
        <time>2016-09-04T09:11:09Z</time>
      </trkpt>
      <trkpt lat="45.75253" lon="4.63547">
        <ele>670.18</ele>
        <time>2016-09-04T09:11:14Z</time>
      </trkpt>
      <trkpt lat="45.75251" lon="4.63541">
        <ele>671.62</ele>
        <time>2016-09-04T09:11:19Z</time>
      </trkpt>
      <trkpt lat="45.75251" lon="4.63536">
        <ele>672.58</ele>
        <time>2016-09-04T09:11:24Z</time>
      </trkpt>
      <trkpt lat="45.7525" lon="4.6353">
        <ele>674.02</ele>
        <time>2016-09-04T09:11:29Z</time>
      </trkpt>
      <trkpt lat="45.75248" lon="4.63523">
        <ele>674.02</ele>
        <time>2016-09-04T09:11:34Z</time>
      </trkpt>
      <trkpt lat="45.75248" lon="4.63515">
        <ele>674.98</ele>
        <time>2016-09-04T09:11:39Z</time>
      </trkpt>
      <trkpt lat="45.75247" lon="4.63508">
        <ele>675.46</ele>
        <time>2016-09-04T09:11:44Z</time>
      </trkpt>
      <trkpt lat="45.75247" lon="4.63502">
        <ele>676.42</ele>
        <time>2016-09-04T09:11:49Z</time>
      </trkpt>
      <trkpt lat="45.75246" lon="4.63498">
        <ele>676.91</ele>
        <time>2016-09-04T09:11:54Z</time>
      </trkpt>
      <trkpt lat="45.75246" lon="4.63495">
        <ele>676.91</ele>
        <time>2016-09-04T09:11:59Z</time>
      </trkpt>
      <trkpt lat="45.75245" lon="4.63489">
        <ele>677.39</ele>
        <time>2016-09-04T09:12:04Z</time>
      </trkpt>
      <trkpt lat="45.75244" lon="4.63484">
        <ele>677.39</ele>
        <time>2016-09-04T09:12:09Z</time>
      </trkpt>
      <trkpt lat="45.75243" lon="4.63477">
        <ele>678.35</ele>
        <time>2016-09-04T09:12:14Z</time>
      </trkpt>
      <trkpt lat="45.75242" lon="4.63472">
        <ele>679.31</ele>
        <time>2016-09-04T09:12:19Z</time>
      </trkpt>
      <trkpt lat="45.75242" lon="4.63465">
        <ele>679.79</ele>
        <time>2016-09-04T09:12:24Z</time>
      </trkpt>
      <trkpt lat="45.75242" lon="4.63459">
        <ele>680.75</ele>
        <time>2016-09-04T09:12:29Z</time>
      </trkpt>
      <trkpt lat="45.75242" lon="4.63453">
        <ele>681.23</ele>
        <time>2016-09-04T09:12:34Z</time>
      </trkpt>
      <trkpt lat="45.75242" lon="4.63446">
        <ele>681.71</ele>
        <time>2016-09-04T09:12:39Z</time>
      </trkpt>
      <trkpt lat="45.75243" lon="4.6344">
        <ele>682.67</ele>
        <time>2016-09-04T09:12:44Z</time>
      </trkpt>
      <trkpt lat="45.75243" lon="4.63434">
        <ele>683.63</ele>
        <time>2016-09-04T09:12:49Z</time>
      </trkpt>
      <trkpt lat="45.75244" lon="4.63428">
        <ele>684.6</ele>
        <time>2016-09-04T09:12:54Z</time>
      </trkpt>
      <trkpt lat="45.75244" lon="4.63423">
        <ele>686.04</ele>
        <time>2016-09-04T09:12:59Z</time>
      </trkpt>
      <trkpt lat="45.75244" lon="4.63422">
        <ele>686.52</ele>
        <time>2016-09-04T09:13:04Z</time>
      </trkpt>
      <trkpt lat="45.75244" lon="4.63421">
        <ele>686.52</ele>
        <time>2016-09-04T09:13:09Z</time>
      </trkpt>
      <trkpt lat="45.75244" lon="4.6342">
        <ele>686.52</ele>
        <time>2016-09-04T09:13:14Z</time>
      </trkpt>
      <trkpt lat="45.75243" lon="4.63419">
        <ele>686.52</ele>
        <time>2016-09-04T09:13:19Z</time>
      </trkpt>
      <trkpt lat="45.75245" lon="4.63416">
        <ele>686.52</ele>
        <time>2016-09-04T09:13:24Z</time>
      </trkpt>
      <trkpt lat="45.75247" lon="4.63411">
        <ele>687.48</ele>
        <time>2016-09-04T09:13:29Z</time>
      </trkpt>
      <trkpt lat="45.75249" lon="4.63405">
        <ele>687.48</ele>
        <time>2016-09-04T09:13:34Z</time>
      </trkpt>
      <trkpt lat="45.75253" lon="4.63399">
        <ele>687.48</ele>
        <time>2016-09-04T09:13:39Z</time>
      </trkpt>
      <trkpt lat="45.75256" lon="4.63394">
        <ele>687.48</ele>
        <time>2016-09-04T09:13:44Z</time>
      </trkpt>
      <trkpt lat="45.7526" lon="4.63388">
        <ele>687.96</ele>
        <time>2016-09-04T09:13:49Z</time>
      </trkpt>
      <trkpt lat="45.75263" lon="4.63381">
        <ele>688.44</ele>
        <time>2016-09-04T09:13:54Z</time>
      </trkpt>
      <trkpt lat="45.75267" lon="4.63375">
        <ele>688.92</ele>
        <time>2016-09-04T09:13:59Z</time>
      </trkpt>
      <trkpt lat="45.7527" lon="4.63367">
        <ele>688.92</ele>
        <time>2016-09-04T09:14:04Z</time>
      </trkpt>
      <trkpt lat="45.75273" lon="4.6336">
        <ele>688.92</ele>
        <time>2016-09-04T09:14:09Z</time>
      </trkpt>
      <trkpt lat="45.75277" lon="4.63353">
        <ele>689.4</ele>
        <time>2016-09-04T09:14:14Z</time>
      </trkpt>
      <trkpt lat="45.7528" lon="4.63347">
        <ele>689.88</ele>
        <time>2016-09-04T09:14:19Z</time>
      </trkpt>
      <trkpt lat="45.75281" lon="4.63344">
        <ele>690.84</ele>
        <time>2016-09-04T09:14:24Z</time>
      </trkpt>
      <trkpt lat="45.75284" lon="4.63336">
        <ele>690.84</ele>
        <time>2016-09-04T09:14:29Z</time>
      </trkpt>
      <trkpt lat="45.75287" lon="4.63327">
        <ele>690.84</ele>
        <time>2016-09-04T09:14:34Z</time>
      </trkpt>
      <trkpt lat="45.75291" lon="4.63318">
        <ele>691.81</ele>
        <time>2016-09-04T09:14:39Z</time>
      </trkpt>
      <trkpt lat="45.75294" lon="4.6331">
        <ele>692.29</ele>
        <time>2016-09-04T09:14:44Z</time>
      </trkpt>
      <trkpt lat="45.75299" lon="4.63302">
        <ele>693.25</ele>
        <time>2016-09-04T09:14:49Z</time>
      </trkpt>
      <trkpt lat="45.75303" lon="4.63294">
        <ele>693.25</ele>
        <time>2016-09-04T09:14:54Z</time>
      </trkpt>
      <trkpt lat="45.75307" lon="4.63287">
        <ele>693.25</ele>
        <time>2016-09-04T09:14:59Z</time>
      </trkpt>
      <trkpt lat="45.75312" lon="4.6328">
        <ele>693.25</ele>
        <time>2016-09-04T09:15:04Z</time>
      </trkpt>
      <trkpt lat="45.75315" lon="4.63273">
        <ele>693.73</ele>
        <time>2016-09-04T09:15:09Z</time>
      </trkpt>
      <trkpt lat="45.75319" lon="4.63267">
        <ele>694.69</ele>
        <time>2016-09-04T09:15:14Z</time>
      </trkpt>
      <trkpt lat="45.75323" lon="4.6326">
        <ele>695.17</ele>
        <time>2016-09-04T09:15:19Z</time>
      </trkpt>
      <trkpt lat="45.75327" lon="4.63252">
        <ele>695.65</ele>
        <time>2016-09-04T09:15:24Z</time>
      </trkpt>
      <trkpt lat="45.7533" lon="4.63245">
        <ele>696.61</ele>
        <time>2016-09-04T09:15:29Z</time>
      </trkpt>
      <trkpt lat="45.75332" lon="4.63238">
        <ele>697.09</ele>
        <time>2016-09-04T09:15:34Z</time>
      </trkpt>
      <trkpt lat="45.75336" lon="4.63231">
        <ele>698.53</ele>
        <time>2016-09-04T09:15:39Z</time>
      </trkpt>
      <trkpt lat="45.7534" lon="4.63225">
        <ele>699.02</ele>
        <time>2016-09-04T09:15:44Z</time>
      </trkpt>
      <trkpt lat="45.75343" lon="4.63218">
        <ele>699.98</ele>
        <time>2016-09-04T09:15:49Z</time>
      </trkpt>
      <trkpt lat="45.75347" lon="4.63212">
        <ele>700.46</ele>
        <time>2016-09-04T09:15:54Z</time>
      </trkpt>
      <trkpt lat="45.75351" lon="4.63206">
        <ele>700.94</ele>
        <time>2016-09-04T09:15:59Z</time>
      </trkpt>
      <trkpt lat="45.75355" lon="4.63199">
        <ele>700.46</ele>
        <time>2016-09-04T09:16:04Z</time>
      </trkpt>
      <trkpt lat="45.75359" lon="4.63192">
        <ele>699.98</ele>
        <time>2016-09-04T09:16:09Z</time>
      </trkpt>
      <trkpt lat="45.75362" lon="4.63185">
        <ele>700.46</ele>
        <time>2016-09-04T09:16:14Z</time>
      </trkpt>
      <trkpt lat="45.75369" lon="4.63174">
        <ele>699.98</ele>
        <time>2016-09-04T09:16:19Z</time>
      </trkpt>
      <trkpt lat="45.75378" lon="4.6316">
        <ele>700.46</ele>
        <time>2016-09-04T09:16:24Z</time>
      </trkpt>
      <trkpt lat="45.75387" lon="4.63146">
        <ele>700.46</ele>
        <time>2016-09-04T09:16:29Z</time>
      </trkpt>
      <trkpt lat="45.75396" lon="4.63131">
        <ele>700.94</ele>
        <time>2016-09-04T09:16:34Z</time>
      </trkpt>
      <trkpt lat="45.75403" lon="4.63116">
        <ele>700.94</ele>
        <time>2016-09-04T09:16:39Z</time>
      </trkpt>
      <trkpt lat="45.75409" lon="4.63101">
        <ele>700.46</ele>
        <time>2016-09-04T09:16:44Z</time>
      </trkpt>
      <trkpt lat="45.75416" lon="4.63085">
        <ele>700.46</ele>
        <time>2016-09-04T09:16:49Z</time>
      </trkpt>
      <trkpt lat="45.75422" lon="4.63068">
        <ele>700.94</ele>
        <time>2016-09-04T09:16:54Z</time>
      </trkpt>
      <trkpt lat="45.75429" lon="4.63047">
        <ele>700.46</ele>
        <time>2016-09-04T09:16:59Z</time>
      </trkpt>
      <trkpt lat="45.75436" lon="4.63026">
        <ele>700.46</ele>
        <time>2016-09-04T09:17:04Z</time>
      </trkpt>
      <trkpt lat="45.75441" lon="4.63006">
        <ele>700.46</ele>
        <time>2016-09-04T09:17:09Z</time>
      </trkpt>
      <trkpt lat="45.75448" lon="4.62985">
        <ele>699.98</ele>
        <time>2016-09-04T09:17:14Z</time>
      </trkpt>
      <trkpt lat="45.75454" lon="4.62965">
        <ele>699.98</ele>
        <time>2016-09-04T09:17:19Z</time>
      </trkpt>
      <trkpt lat="45.75461" lon="4.62947">
        <ele>699.98</ele>
        <time>2016-09-04T09:17:24Z</time>
      </trkpt>
      <trkpt lat="45.75466" lon="4.62932">
        <ele>700.46</ele>
        <time>2016-09-04T09:17:29Z</time>
      </trkpt>
      <trkpt lat="45.75472" lon="4.62914">
        <ele>699.98</ele>
        <time>2016-09-04T09:17:34Z</time>
      </trkpt>
      <trkpt lat="45.75478" lon="4.62897">
        <ele>699.98</ele>
        <time>2016-09-04T09:17:39Z</time>
      </trkpt>
      <trkpt lat="45.75483" lon="4.62881">
        <ele>699.98</ele>
        <time>2016-09-04T09:17:44Z</time>
      </trkpt>
      <trkpt lat="45.7549" lon="4.62865">
        <ele>699.98</ele>
        <time>2016-09-04T09:17:49Z</time>
      </trkpt>
      <trkpt lat="45.75495" lon="4.6285">
        <ele>699.98</ele>
        <time>2016-09-04T09:17:54Z</time>
      </trkpt>
      <trkpt lat="45.755" lon="4.62836">
        <ele>699.5</ele>
        <time>2016-09-04T09:17:59Z</time>
      </trkpt>
      <trkpt lat="45.75504" lon="4.6282">
        <ele>699.5</ele>
        <time>2016-09-04T09:18:04Z</time>
      </trkpt>
      <trkpt lat="45.75509" lon="4.62805">
        <ele>700.94</ele>
        <time>2016-09-04T09:18:09Z</time>
      </trkpt>
      <trkpt lat="45.75513" lon="4.6279">
        <ele>700.94</ele>
        <time>2016-09-04T09:18:14Z</time>
      </trkpt>
      <trkpt lat="45.75518" lon="4.62774">
        <ele>700.94</ele>
        <time>2016-09-04T09:18:19Z</time>
      </trkpt>
      <trkpt lat="45.75523" lon="4.62758">
        <ele>701.42</ele>
        <time>2016-09-04T09:18:24Z</time>
      </trkpt>
      <trkpt lat="45.75528" lon="4.62743">
        <ele>702.86</ele>
        <time>2016-09-04T09:18:29Z</time>
      </trkpt>
      <trkpt lat="45.75533" lon="4.62729">
        <ele>703.34</ele>
        <time>2016-09-04T09:18:34Z</time>
      </trkpt>
      <trkpt lat="45.75537" lon="4.62716">
        <ele>703.82</ele>
        <time>2016-09-04T09:18:39Z</time>
      </trkpt>
      <trkpt lat="45.75541" lon="4.62706">
        <ele>704.78</ele>
        <time>2016-09-04T09:18:44Z</time>
      </trkpt>
      <trkpt lat="45.75544" lon="4.62697">
        <ele>704.78</ele>
        <time>2016-09-04T09:18:49Z</time>
      </trkpt>
      <trkpt lat="45.75547" lon="4.62688">
        <ele>704.78</ele>
        <time>2016-09-04T09:18:54Z</time>
      </trkpt>
      <trkpt lat="45.75551" lon="4.6268">
        <ele>704.3</ele>
        <time>2016-09-04T09:18:59Z</time>
      </trkpt>
      <trkpt lat="45.75554" lon="4.62671">
        <ele>704.3</ele>
        <time>2016-09-04T09:19:04Z</time>
      </trkpt>
      <trkpt lat="45.75557" lon="4.62663">
        <ele>704.78</ele>
        <time>2016-09-04T09:19:09Z</time>
      </trkpt>
      <trkpt lat="45.75561" lon="4.62655">
        <ele>705.26</ele>
        <time>2016-09-04T09:19:14Z</time>
      </trkpt>
      <trkpt lat="45.75564" lon="4.62647">
        <ele>704.78</ele>
        <time>2016-09-04T09:19:19Z</time>
      </trkpt>
      <trkpt lat="45.75566" lon="4.6264">
        <ele>704.3</ele>
        <time>2016-09-04T09:19:24Z</time>
      </trkpt>
      <trkpt lat="45.75569" lon="4.62634">
        <ele>704.78</ele>
        <time>2016-09-04T09:19:29Z</time>
      </trkpt>
      <trkpt lat="45.75572" lon="4.62629">
        <ele>704.78</ele>
        <time>2016-09-04T09:19:34Z</time>
      </trkpt>
      <trkpt lat="45.75575" lon="4.62623">
        <ele>705.75</ele>
        <time>2016-09-04T09:19:39Z</time>
      </trkpt>
      <trkpt lat="45.75577" lon="4.62621">
        <ele>706.71</ele>
        <time>2016-09-04T09:19:44Z</time>
      </trkpt>
      <trkpt lat="45.75579" lon="4.62617">
        <ele>706.71</ele>
        <time>2016-09-04T09:19:49Z</time>
      </trkpt>
      <trkpt lat="45.75581" lon="4.62611">
        <ele>707.19</ele>
        <time>2016-09-04T09:19:54Z</time>
      </trkpt>
      <trkpt lat="45.75583" lon="4.62606">
        <ele>707.67</ele>
        <time>2016-09-04T09:19:59Z</time>
      </trkpt>
      <trkpt lat="45.75584" lon="4.62602">
        <ele>709.11</ele>
        <time>2016-09-04T09:20:04Z</time>
      </trkpt>
      <trkpt lat="45.75587" lon="4.62597">
        <ele>710.55</ele>
        <time>2016-09-04T09:20:09Z</time>
      </trkpt>
      <trkpt lat="45.75588" lon="4.62591">
        <ele>710.55</ele>
        <time>2016-09-04T09:20:14Z</time>
      </trkpt>
      <trkpt lat="45.75589" lon="4.62586">
        <ele>711.03</ele>
        <time>2016-09-04T09:20:19Z</time>
      </trkpt>
      <trkpt lat="45.7559" lon="4.62582">
        <ele>711.03</ele>
        <time>2016-09-04T09:20:24Z</time>
      </trkpt>
      <trkpt lat="45.7559" lon="4.62582">
        <ele>711.03</ele>
        <time>2016-09-04T09:20:29Z</time>
      </trkpt>
      <trkpt lat="45.75592" lon="4.62578">
        <ele>711.03</ele>
        <time>2016-09-04T09:20:34Z</time>
      </trkpt>
      <trkpt lat="45.75592" lon="4.62576">
        <ele>711.03</ele>
        <time>2016-09-04T09:20:39Z</time>
      </trkpt>
      <trkpt lat="45.75592" lon="4.62575">
        <ele>711.51</ele>
        <time>2016-09-04T09:20:44Z</time>
      </trkpt>
      <trkpt lat="45.75592" lon="4.62575">
        <ele>711.51</ele>
        <time>2016-09-04T09:20:49Z</time>
      </trkpt>
      <trkpt lat="45.75592" lon="4.62575">
        <ele>711.99</ele>
        <time>2016-09-04T09:20:54Z</time>
      </trkpt>
      <trkpt lat="45.75592" lon="4.62574">
        <ele>711.99</ele>
        <time>2016-09-04T09:20:59Z</time>
      </trkpt>
      <trkpt lat="45.75594" lon="4.62571">
        <ele>711.03</ele>
        <time>2016-09-04T09:21:04Z</time>
      </trkpt>
      <trkpt lat="45.75596" lon="4.62566">
        <ele>711.03</ele>
        <time>2016-09-04T09:21:09Z</time>
      </trkpt>
      <trkpt lat="45.75599" lon="4.62561">
        <ele>711.99</ele>
        <time>2016-09-04T09:21:14Z</time>
      </trkpt>
      <trkpt lat="45.756" lon="4.62556">
        <ele>711.99</ele>
        <time>2016-09-04T09:21:19Z</time>
      </trkpt>
      <trkpt lat="45.756" lon="4.62552">
        <ele>712.47</ele>
        <time>2016-09-04T09:21:24Z</time>
      </trkpt>
      <trkpt lat="45.75598" lon="4.62547">
        <ele>713.92</ele>
        <time>2016-09-04T09:21:29Z</time>
      </trkpt>
      <trkpt lat="45.75596" lon="4.62543">
        <ele>715.36</ele>
        <time>2016-09-04T09:21:34Z</time>
      </trkpt>
      <trkpt lat="45.75596" lon="4.62544">
        <ele>716.32</ele>
        <time>2016-09-04T09:21:39Z</time>
      </trkpt>
      <trkpt lat="45.75597" lon="4.62545">
        <ele>716.32</ele>
        <time>2016-09-04T09:21:44Z</time>
      </trkpt>
      <trkpt lat="45.75597" lon="4.62546">
        <ele>717.28</ele>
        <time>2016-09-04T09:21:49Z</time>
      </trkpt>
      <trkpt lat="45.75597" lon="4.62545">
        <ele>717.76</ele>
        <time>2016-09-04T09:21:54Z</time>
      </trkpt>
      <trkpt lat="45.75596" lon="4.62544">
        <ele>717.76</ele>
        <time>2016-09-04T09:21:59Z</time>
      </trkpt>
      <trkpt lat="45.75596" lon="4.62542">
        <ele>717.76</ele>
        <time>2016-09-04T09:22:04Z</time>
      </trkpt>
      <trkpt lat="45.75596" lon="4.62541">
        <ele>717.76</ele>
        <time>2016-09-04T09:22:09Z</time>
      </trkpt>
      <trkpt lat="45.75596" lon="4.62542">
        <ele>717.28</ele>
        <time>2016-09-04T09:22:14Z</time>
      </trkpt>
      <trkpt lat="45.75595" lon="4.62542">
        <ele>717.76</ele>
        <time>2016-09-04T09:22:19Z</time>
      </trkpt>
      <trkpt lat="45.75596" lon="4.62542">
        <ele>717.28</ele>
        <time>2016-09-04T09:22:24Z</time>
      </trkpt>
      <trkpt lat="45.75598" lon="4.62543">
        <ele>717.28</ele>
        <time>2016-09-04T09:22:29Z</time>
      </trkpt>
      <trkpt lat="45.75598" lon="4.62544">
        <ele>717.76</ele>
        <time>2016-09-04T09:22:34Z</time>
      </trkpt>
      <trkpt lat="45.75598" lon="4.62546">
        <ele>718.72</ele>
        <time>2016-09-04T09:22:39Z</time>
      </trkpt>
      <trkpt lat="45.75599" lon="4.62547">
        <ele>719.2</ele>
        <time>2016-09-04T09:22:44Z</time>
      </trkpt>
      <trkpt lat="45.75599" lon="4.62547">
        <ele>720.16</ele>
        <time>2016-09-04T09:22:49Z</time>
      </trkpt>
      <trkpt lat="45.75599" lon="4.62547">
        <ele>721.13</ele>
        <time>2016-09-04T09:22:54Z</time>
      </trkpt>
      <trkpt lat="45.75598" lon="4.62545">
        <ele>721.13</ele>
        <time>2016-09-04T09:22:59Z</time>
      </trkpt>
      <trkpt lat="45.75597" lon="4.62545">
        <ele>721.13</ele>
        <time>2016-09-04T09:23:04Z</time>
      </trkpt>
      <trkpt lat="45.75597" lon="4.62545">
        <ele>720.65</ele>
        <time>2016-09-04T09:23:09Z</time>
      </trkpt>
      <trkpt lat="45.75598" lon="4.62545">
        <ele>720.16</ele>
        <time>2016-09-04T09:23:14Z</time>
      </trkpt>
      <trkpt lat="45.75598" lon="4.62545">
        <ele>719.2</ele>
        <time>2016-09-04T09:23:19Z</time>
      </trkpt>
      <trkpt lat="45.75599" lon="4.62545">
        <ele>719.2</ele>
        <time>2016-09-04T09:23:24Z</time>
      </trkpt>
      <trkpt lat="45.756" lon="4.62544">
        <ele>718.72</ele>
        <time>2016-09-04T09:23:29Z</time>
      </trkpt>
      <trkpt lat="45.75601" lon="4.62543">
        <ele>718.24</ele>
        <time>2016-09-04T09:23:34Z</time>
      </trkpt>
      <trkpt lat="45.75601" lon="4.62542">
        <ele>718.72</ele>
        <time>2016-09-04T09:23:39Z</time>
      </trkpt>
      <trkpt lat="45.756" lon="4.62542">
        <ele>718.72</ele>
        <time>2016-09-04T09:23:44Z</time>
      </trkpt>
      <trkpt lat="45.75599" lon="4.62542">
        <ele>719.2</ele>
        <time>2016-09-04T09:23:49Z</time>
      </trkpt>
      <trkpt lat="45.75599" lon="4.62541">
        <ele>720.16</ele>
        <time>2016-09-04T09:23:54Z</time>
      </trkpt>
      <trkpt lat="45.756" lon="4.62541">
        <ele>721.61</ele>
        <time>2016-09-04T09:23:59Z</time>
      </trkpt>
      <trkpt lat="45.756" lon="4.62542">
        <ele>722.09</ele>
        <time>2016-09-04T09:24:04Z</time>
      </trkpt>
      <trkpt lat="45.75599" lon="4.62542">
        <ele>722.09</ele>
        <time>2016-09-04T09:24:09Z</time>
      </trkpt>
      <trkpt lat="45.75598" lon="4.6254">
        <ele>722.09</ele>
        <time>2016-09-04T09:24:14Z</time>
      </trkpt>
      <trkpt lat="45.756" lon="4.62535">
        <ele>722.09</ele>
        <time>2016-09-04T09:24:19Z</time>
      </trkpt>
      <trkpt lat="45.75601" lon="4.6253">
        <ele>722.09</ele>
        <time>2016-09-04T09:24:24Z</time>
      </trkpt>
      <trkpt lat="45.75601" lon="4.62524">
        <ele>723.53</ele>
        <time>2016-09-04T09:24:29Z</time>
      </trkpt>
      <trkpt lat="45.75602" lon="4.6252">
        <ele>724.49</ele>
        <time>2016-09-04T09:24:34Z</time>
      </trkpt>
      <trkpt lat="45.75603" lon="4.62511">
        <ele>725.45</ele>
        <time>2016-09-04T09:24:39Z</time>
      </trkpt>
      <trkpt lat="45.75604" lon="4.62502">
        <ele>724.97</ele>
        <time>2016-09-04T09:24:44Z</time>
      </trkpt>
      <trkpt lat="45.75605" lon="4.62494">
        <ele>724.49</ele>
        <time>2016-09-04T09:24:49Z</time>
      </trkpt>
      <trkpt lat="45.75607" lon="4.62487">
        <ele>724.01</ele>
        <time>2016-09-04T09:24:54Z</time>
      </trkpt>
      <trkpt lat="45.75607" lon="4.62479">
        <ele>723.53</ele>
        <time>2016-09-04T09:24:59Z</time>
      </trkpt>
      <trkpt lat="45.75607" lon="4.62471">
        <ele>724.01</ele>
        <time>2016-09-04T09:25:04Z</time>
      </trkpt>
      <trkpt lat="45.75608" lon="4.62463">
        <ele>724.49</ele>
        <time>2016-09-04T09:25:09Z</time>
      </trkpt>
      <trkpt lat="45.75609" lon="4.62456">
        <ele>724.97</ele>
        <time>2016-09-04T09:25:14Z</time>
      </trkpt>
      <trkpt lat="45.75611" lon="4.6245">
        <ele>724.49</ele>
        <time>2016-09-04T09:25:19Z</time>
      </trkpt>
      <trkpt lat="45.75612" lon="4.62441">
        <ele>724.49</ele>
        <time>2016-09-04T09:25:24Z</time>
      </trkpt>
      <trkpt lat="45.75611" lon="4.62432">
        <ele>724.49</ele>
        <time>2016-09-04T09:25:29Z</time>
      </trkpt>
      <trkpt lat="45.75612" lon="4.62424">
        <ele>725.93</ele>
        <time>2016-09-04T09:25:34Z</time>
      </trkpt>
      <trkpt lat="45.75612" lon="4.62415">
        <ele>726.89</ele>
        <time>2016-09-04T09:25:39Z</time>
      </trkpt>
      <trkpt lat="45.75613" lon="4.62406">
        <ele>727.86</ele>
        <time>2016-09-04T09:25:44Z</time>
      </trkpt>
      <trkpt lat="45.75613" lon="4.62397">
        <ele>728.82</ele>
        <time>2016-09-04T09:25:49Z</time>
      </trkpt>
      <trkpt lat="45.75613" lon="4.62388">
        <ele>728.82</ele>
        <time>2016-09-04T09:25:54Z</time>
      </trkpt>
      <trkpt lat="45.75613" lon="4.62378">
        <ele>729.78</ele>
        <time>2016-09-04T09:25:59Z</time>
      </trkpt>
      <trkpt lat="45.75614" lon="4.6237">
        <ele>729.78</ele>
        <time>2016-09-04T09:26:04Z</time>
      </trkpt>
      <trkpt lat="45.75614" lon="4.6236">
        <ele>730.26</ele>
        <time>2016-09-04T09:26:09Z</time>
      </trkpt>
      <trkpt lat="45.75611" lon="4.62349">
        <ele>731.22</ele>
        <time>2016-09-04T09:26:14Z</time>
      </trkpt>
      <trkpt lat="45.75608" lon="4.62338">
        <ele>732.18</ele>
        <time>2016-09-04T09:26:19Z</time>
      </trkpt>
      <trkpt lat="45.75606" lon="4.62327">
        <ele>732.18</ele>
        <time>2016-09-04T09:26:24Z</time>
      </trkpt>
      <trkpt lat="45.75605" lon="4.62317">
        <ele>732.18</ele>
        <time>2016-09-04T09:26:29Z</time>
      </trkpt>
      <trkpt lat="45.75603" lon="4.62306">
        <ele>732.66</ele>
        <time>2016-09-04T09:26:34Z</time>
      </trkpt>
      <trkpt lat="45.75599" lon="4.62295">
        <ele>733.62</ele>
        <time>2016-09-04T09:26:39Z</time>
      </trkpt>
      <trkpt lat="45.75598" lon="4.62285">
        <ele>734.58</ele>
        <time>2016-09-04T09:26:44Z</time>
      </trkpt>
      <trkpt lat="45.75596" lon="4.62276">
        <ele>735.55</ele>
        <time>2016-09-04T09:26:49Z</time>
      </trkpt>
      <trkpt lat="45.75595" lon="4.62267">
        <ele>736.03</ele>
        <time>2016-09-04T09:26:54Z</time>
      </trkpt>
      <trkpt lat="45.75595" lon="4.62258">
        <ele>736.03</ele>
        <time>2016-09-04T09:26:59Z</time>
      </trkpt>
      <trkpt lat="45.75595" lon="4.62249">
        <ele>736.51</ele>
        <time>2016-09-04T09:27:04Z</time>
      </trkpt>
      <trkpt lat="45.75593" lon="4.62239">
        <ele>736.99</ele>
        <time>2016-09-04T09:27:09Z</time>
      </trkpt>
      <trkpt lat="45.75593" lon="4.62231">
        <ele>737.47</ele>
        <time>2016-09-04T09:27:14Z</time>
      </trkpt>
      <trkpt lat="45.75593" lon="4.62223">
        <ele>738.43</ele>
        <time>2016-09-04T09:27:19Z</time>
      </trkpt>
      <trkpt lat="45.75593" lon="4.62214">
        <ele>738.91</ele>
        <time>2016-09-04T09:27:24Z</time>
      </trkpt>
      <trkpt lat="45.75592" lon="4.62206">
        <ele>739.39</ele>
        <time>2016-09-04T09:27:29Z</time>
      </trkpt>
      <trkpt lat="45.75592" lon="4.62198">
        <ele>740.35</ele>
        <time>2016-09-04T09:27:34Z</time>
      </trkpt>
      <trkpt lat="45.75593" lon="4.62189">
        <ele>740.83</ele>
        <time>2016-09-04T09:27:39Z</time>
      </trkpt>
      <trkpt lat="45.75594" lon="4.62183">
        <ele>740.83</ele>
        <time>2016-09-04T09:27:44Z</time>
      </trkpt>
      <trkpt lat="45.75595" lon="4.62175">
        <ele>740.83</ele>
        <time>2016-09-04T09:27:49Z</time>
      </trkpt>
      <trkpt lat="45.75595" lon="4.62168">
        <ele>740.83</ele>
        <time>2016-09-04T09:27:54Z</time>
      </trkpt>
      <trkpt lat="45.75596" lon="4.62159">
        <ele>741.79</ele>
        <time>2016-09-04T09:27:59Z</time>
      </trkpt>
      <trkpt lat="45.75597" lon="4.62151">
        <ele>740.83</ele>
        <time>2016-09-04T09:28:04Z</time>
      </trkpt>
      <trkpt lat="45.75597" lon="4.62144">
        <ele>740.83</ele>
        <time>2016-09-04T09:28:09Z</time>
      </trkpt>
      <trkpt lat="45.75598" lon="4.62137">
        <ele>741.31</ele>
        <time>2016-09-04T09:28:14Z</time>
      </trkpt>
      <trkpt lat="45.75598" lon="4.6213">
        <ele>741.79</ele>
        <time>2016-09-04T09:28:19Z</time>
      </trkpt>
      <trkpt lat="45.75598" lon="4.62122">
        <ele>742.76</ele>
        <time>2016-09-04T09:28:24Z</time>
      </trkpt>
      <trkpt lat="45.75597" lon="4.62113">
        <ele>743.24</ele>
        <time>2016-09-04T09:28:29Z</time>
      </trkpt>
      <trkpt lat="45.75598" lon="4.62105">
        <ele>742.76</ele>
        <time>2016-09-04T09:28:34Z</time>
      </trkpt>
      <trkpt lat="45.75598" lon="4.62098">
        <ele>743.72</ele>
        <time>2016-09-04T09:28:39Z</time>
      </trkpt>
      <trkpt lat="45.75599" lon="4.62091">
        <ele>745.16</ele>
        <time>2016-09-04T09:28:44Z</time>
      </trkpt>
      <trkpt lat="45.756" lon="4.62082">
        <ele>745.16</ele>
        <time>2016-09-04T09:28:49Z</time>
      </trkpt>
      <trkpt lat="45.756" lon="4.62073">
        <ele>745.64</ele>
        <time>2016-09-04T09:28:54Z</time>
      </trkpt>
      <trkpt lat="45.756" lon="4.62065">
        <ele>745.64</ele>
        <time>2016-09-04T09:28:59Z</time>
      </trkpt>
      <trkpt lat="45.75601" lon="4.62056">
        <ele>745.16</ele>
        <time>2016-09-04T09:29:04Z</time>
      </trkpt>
      <trkpt lat="45.75602" lon="4.62048">
        <ele>745.64</ele>
        <time>2016-09-04T09:29:09Z</time>
      </trkpt>
      <trkpt lat="45.75602" lon="4.62038">
        <ele>746.12</ele>
        <time>2016-09-04T09:29:14Z</time>
      </trkpt>
      <trkpt lat="45.75602" lon="4.62028">
        <ele>746.12</ele>
        <time>2016-09-04T09:29:19Z</time>
      </trkpt>
      <trkpt lat="45.75602" lon="4.6202">
        <ele>745.64</ele>
        <time>2016-09-04T09:29:24Z</time>
      </trkpt>
      <trkpt lat="45.75602" lon="4.62011">
        <ele>745.16</ele>
        <time>2016-09-04T09:29:29Z</time>
      </trkpt>
      <trkpt lat="45.75601" lon="4.62003">
        <ele>746.12</ele>
        <time>2016-09-04T09:29:34Z</time>
      </trkpt>
      <trkpt lat="45.75602" lon="4.61995">
        <ele>747.08</ele>
        <time>2016-09-04T09:29:39Z</time>
      </trkpt>
      <trkpt lat="45.75602" lon="4.61986">
        <ele>747.08</ele>
        <time>2016-09-04T09:29:44Z</time>
      </trkpt>
      <trkpt lat="45.75602" lon="4.61977">
        <ele>746.6</ele>
        <time>2016-09-04T09:29:49Z</time>
      </trkpt>
      <trkpt lat="45.75602" lon="4.61967">
        <ele>747.08</ele>
        <time>2016-09-04T09:29:54Z</time>
      </trkpt>
      <trkpt lat="45.756" lon="4.61956">
        <ele>747.56</ele>
        <time>2016-09-04T09:29:59Z</time>
      </trkpt>
      <trkpt lat="45.75598" lon="4.61946">
        <ele>748.52</ele>
        <time>2016-09-04T09:30:04Z</time>
      </trkpt>
      <trkpt lat="45.75598" lon="4.61936">
        <ele>748.52</ele>
        <time>2016-09-04T09:30:09Z</time>
      </trkpt>
      <trkpt lat="45.75598" lon="4.61926">
        <ele>749</ele>
        <time>2016-09-04T09:30:14Z</time>
      </trkpt>
      <trkpt lat="45.75597" lon="4.61916">
        <ele>749</ele>
        <time>2016-09-04T09:30:19Z</time>
      </trkpt>
      <trkpt lat="45.75597" lon="4.61906">
        <ele>749</ele>
        <time>2016-09-04T09:30:24Z</time>
      </trkpt>
      <trkpt lat="45.75596" lon="4.61897">
        <ele>749.49</ele>
        <time>2016-09-04T09:30:29Z</time>
      </trkpt>
      <trkpt lat="45.75597" lon="4.61887">
        <ele>749.97</ele>
        <time>2016-09-04T09:30:34Z</time>
      </trkpt>
      <trkpt lat="45.75598" lon="4.61879">
        <ele>750.93</ele>
        <time>2016-09-04T09:30:39Z</time>
      </trkpt>
      <trkpt lat="45.75596" lon="4.61869">
        <ele>752.37</ele>
        <time>2016-09-04T09:30:44Z</time>
      </trkpt>
      <trkpt lat="45.75594" lon="4.6186">
        <ele>753.33</ele>
        <time>2016-09-04T09:30:49Z</time>
      </trkpt>
      <trkpt lat="45.75593" lon="4.61847">
        <ele>755.25</ele>
        <time>2016-09-04T09:30:54Z</time>
      </trkpt>
      <trkpt lat="45.75596" lon="4.61836">
        <ele>756.21</ele>
        <time>2016-09-04T09:30:59Z</time>
      </trkpt>
      <trkpt lat="45.75598" lon="4.61823">
        <ele>756.21</ele>
        <time>2016-09-04T09:31:04Z</time>
      </trkpt>
      <trkpt lat="45.756" lon="4.61815">
        <ele>756.21</ele>
        <time>2016-09-04T09:31:09Z</time>
      </trkpt>
      <trkpt lat="45.756" lon="4.61812">
        <ele>756.69</ele>
        <time>2016-09-04T09:31:14Z</time>
      </trkpt>
      <trkpt lat="45.756" lon="4.6181">
        <ele>756.69</ele>
        <time>2016-09-04T09:31:19Z</time>
      </trkpt>
      <trkpt lat="45.75601" lon="4.61809">
        <ele>757.18</ele>
        <time>2016-09-04T09:31:24Z</time>
      </trkpt>
      <trkpt lat="45.75603" lon="4.61808">
        <ele>758.14</ele>
        <time>2016-09-04T09:31:29Z</time>
      </trkpt>
      <trkpt lat="45.75603" lon="4.61808">
        <ele>758.14</ele>
        <time>2016-09-04T09:31:34Z</time>
      </trkpt>
      <trkpt lat="45.75603" lon="4.61809">
        <ele>758.62</ele>
        <time>2016-09-04T09:31:39Z</time>
      </trkpt>
      <trkpt lat="45.75603" lon="4.6181">
        <ele>758.62</ele>
        <time>2016-09-04T09:31:44Z</time>
      </trkpt>
      <trkpt lat="45.75603" lon="4.61811">
        <ele>758.62</ele>
        <time>2016-09-04T09:31:49Z</time>
      </trkpt>
      <trkpt lat="45.75603" lon="4.61811">
        <ele>758.14</ele>
        <time>2016-09-04T09:31:54Z</time>
      </trkpt>
      <trkpt lat="45.75603" lon="4.61812">
        <ele>757.18</ele>
        <time>2016-09-04T09:31:59Z</time>
      </trkpt>
      <trkpt lat="45.75604" lon="4.61811">
        <ele>757.18</ele>
        <time>2016-09-04T09:32:04Z</time>
      </trkpt>
      <trkpt lat="45.75604" lon="4.61811">
        <ele>757.18</ele>
        <time>2016-09-04T09:32:09Z</time>
      </trkpt>
      <trkpt lat="45.75603" lon="4.6181">
        <ele>757.18</ele>
        <time>2016-09-04T09:32:14Z</time>
      </trkpt>
      <trkpt lat="45.75604" lon="4.6181">
        <ele>756.21</ele>
        <time>2016-09-04T09:32:19Z</time>
      </trkpt>
      <trkpt lat="45.75604" lon="4.6181">
        <ele>755.25</ele>
        <time>2016-09-04T09:32:24Z</time>
      </trkpt>
      <trkpt lat="45.75604" lon="4.6181">
        <ele>754.29</ele>
        <time>2016-09-04T09:32:29Z</time>
      </trkpt>
      <trkpt lat="45.75605" lon="4.6181">
        <ele>753.33</ele>
        <time>2016-09-04T09:32:34Z</time>
      </trkpt>
      <trkpt lat="45.75605" lon="4.6181">
        <ele>753.33</ele>
        <time>2016-09-04T09:32:39Z</time>
      </trkpt>
      <trkpt lat="45.75604" lon="4.6181">
        <ele>753.33</ele>
        <time>2016-09-04T09:32:44Z</time>
      </trkpt>
      <trkpt lat="45.75604" lon="4.6181">
        <ele>753.33</ele>
        <time>2016-09-04T09:32:49Z</time>
      </trkpt>
      <trkpt lat="45.75604" lon="4.61809">
        <ele>753.81</ele>
        <time>2016-09-04T09:32:54Z</time>
      </trkpt>
      <trkpt lat="45.75604" lon="4.61809">
        <ele>754.77</ele>
        <time>2016-09-04T09:32:59Z</time>
      </trkpt>
      <trkpt lat="45.75604" lon="4.6181">
        <ele>755.25</ele>
        <time>2016-09-04T09:33:04Z</time>
      </trkpt>
      <trkpt lat="45.75604" lon="4.61809">
        <ele>754.77</ele>
        <time>2016-09-04T09:33:09Z</time>
      </trkpt>
      <trkpt lat="45.75604" lon="4.6181">
        <ele>755.25</ele>
        <time>2016-09-04T09:33:14Z</time>
      </trkpt>
      <trkpt lat="45.75604" lon="4.61809">
        <ele>755.73</ele>
        <time>2016-09-04T09:33:19Z</time>
      </trkpt>
      <trkpt lat="45.75604" lon="4.61809">
        <ele>755.73</ele>
        <time>2016-09-04T09:33:24Z</time>
      </trkpt>
      <trkpt lat="45.75605" lon="4.61808">
        <ele>755.73</ele>
        <time>2016-09-04T09:33:29Z</time>
      </trkpt>
      <trkpt lat="45.75605" lon="4.61808">
        <ele>754.77</ele>
        <time>2016-09-04T09:33:34Z</time>
      </trkpt>
      <trkpt lat="45.75605" lon="4.61807">
        <ele>753.81</ele>
        <time>2016-09-04T09:33:39Z</time>
      </trkpt>
      <trkpt lat="45.75604" lon="4.61806">
        <ele>753.33</ele>
        <time>2016-09-04T09:33:44Z</time>
      </trkpt>
      <trkpt lat="45.75604" lon="4.61806">
        <ele>752.85</ele>
        <time>2016-09-04T09:33:49Z</time>
      </trkpt>
      <trkpt lat="45.75604" lon="4.61806">
        <ele>752.85</ele>
        <time>2016-09-04T09:33:54Z</time>
      </trkpt>
      <trkpt lat="45.75603" lon="4.61806">
        <ele>752.85</ele>
        <time>2016-09-04T09:33:59Z</time>
      </trkpt>
      <trkpt lat="45.75603" lon="4.61806">
        <ele>752.37</ele>
        <time>2016-09-04T09:34:04Z</time>
      </trkpt>
      <trkpt lat="45.75602" lon="4.61806">
        <ele>751.41</ele>
        <time>2016-09-04T09:34:09Z</time>
      </trkpt>
      <trkpt lat="45.75602" lon="4.61806">
        <ele>751.41</ele>
        <time>2016-09-04T09:34:14Z</time>
      </trkpt>
      <trkpt lat="45.75602" lon="4.61807">
        <ele>751.41</ele>
        <time>2016-09-04T09:34:19Z</time>
      </trkpt>
      <trkpt lat="45.75602" lon="4.61808">
        <ele>751.41</ele>
        <time>2016-09-04T09:34:24Z</time>
      </trkpt>
      <trkpt lat="45.75602" lon="4.61809">
        <ele>751.41</ele>
        <time>2016-09-04T09:34:29Z</time>
      </trkpt>
      <trkpt lat="45.75601" lon="4.61811">
        <ele>751.41</ele>
        <time>2016-09-04T09:34:34Z</time>
      </trkpt>
      <trkpt lat="45.75601" lon="4.61812">
        <ele>751.89</ele>
        <time>2016-09-04T09:34:39Z</time>
      </trkpt>
      <trkpt lat="45.75602" lon="4.61812">
        <ele>753.33</ele>
        <time>2016-09-04T09:34:44Z</time>
      </trkpt>
      <trkpt lat="45.75602" lon="4.61813">
        <ele>754.77</ele>
        <time>2016-09-04T09:34:49Z</time>
      </trkpt>
      <trkpt lat="45.75602" lon="4.61813">
        <ele>755.73</ele>
        <time>2016-09-04T09:34:54Z</time>
      </trkpt>
      <trkpt lat="45.75602" lon="4.61812">
        <ele>756.69</ele>
        <time>2016-09-04T09:34:59Z</time>
      </trkpt>
      <trkpt lat="45.75603" lon="4.61812">
        <ele>757.18</ele>
        <time>2016-09-04T09:35:04Z</time>
      </trkpt>
      <trkpt lat="45.75602" lon="4.61811">
        <ele>756.69</ele>
        <time>2016-09-04T09:35:09Z</time>
      </trkpt>
      <trkpt lat="45.75602" lon="4.6181">
        <ele>756.69</ele>
        <time>2016-09-04T09:35:14Z</time>
      </trkpt>
      <trkpt lat="45.75603" lon="4.6181">
        <ele>755.73</ele>
        <time>2016-09-04T09:35:19Z</time>
      </trkpt>
      <trkpt lat="45.75604" lon="4.6181">
        <ele>754.77</ele>
        <time>2016-09-04T09:35:24Z</time>
      </trkpt>
      <trkpt lat="45.75604" lon="4.6181">
        <ele>754.29</ele>
        <time>2016-09-04T09:35:29Z</time>
      </trkpt>
      <trkpt lat="45.75605" lon="4.61811">
        <ele>753.33</ele>
        <time>2016-09-04T09:35:34Z</time>
      </trkpt>
      <trkpt lat="45.75605" lon="4.61811">
        <ele>752.85</ele>
        <time>2016-09-04T09:35:39Z</time>
      </trkpt>
      <trkpt lat="45.75605" lon="4.6181">
        <ele>752.37</ele>
        <time>2016-09-04T09:35:44Z</time>
      </trkpt>
      <trkpt lat="45.75605" lon="4.6181">
        <ele>752.37</ele>
        <time>2016-09-04T09:35:49Z</time>
      </trkpt>
      <trkpt lat="45.75606" lon="4.61811">
        <ele>752.37</ele>
        <time>2016-09-04T09:35:54Z</time>
      </trkpt>
      <trkpt lat="45.75606" lon="4.61812">
        <ele>752.85</ele>
        <time>2016-09-04T09:35:59Z</time>
      </trkpt>
      <trkpt lat="45.75606" lon="4.61811">
        <ele>752.85</ele>
        <time>2016-09-04T09:36:04Z</time>
      </trkpt>
      <trkpt lat="45.75606" lon="4.61811">
        <ele>752.85</ele>
        <time>2016-09-04T09:36:09Z</time>
      </trkpt>
      <trkpt lat="45.75606" lon="4.6181">
        <ele>753.33</ele>
        <time>2016-09-04T09:36:14Z</time>
      </trkpt>
      <trkpt lat="45.75605" lon="4.61809">
        <ele>753.81</ele>
        <time>2016-09-04T09:36:19Z</time>
      </trkpt>
      <trkpt lat="45.75605" lon="4.61808">
        <ele>753.81</ele>
        <time>2016-09-04T09:36:24Z</time>
      </trkpt>
      <trkpt lat="45.75604" lon="4.61807">
        <ele>753.33</ele>
        <time>2016-09-04T09:36:29Z</time>
      </trkpt>
      <trkpt lat="45.75604" lon="4.61806">
        <ele>752.37</ele>
        <time>2016-09-04T09:36:34Z</time>
      </trkpt>
      <trkpt lat="45.75604" lon="4.61806">
        <ele>751.89</ele>
        <time>2016-09-04T09:36:39Z</time>
      </trkpt>
      <trkpt lat="45.75604" lon="4.61805">
        <ele>752.37</ele>
        <time>2016-09-04T09:36:44Z</time>
      </trkpt>
      <trkpt lat="45.75603" lon="4.61806">
        <ele>752.85</ele>
        <time>2016-09-04T09:36:49Z</time>
      </trkpt>
      <trkpt lat="45.75603" lon="4.61807">
        <ele>753.33</ele>
        <time>2016-09-04T09:36:54Z</time>
      </trkpt>
      <trkpt lat="45.75603" lon="4.61808">
        <ele>753.81</ele>
        <time>2016-09-04T09:36:59Z</time>
      </trkpt>
      <trkpt lat="45.75603" lon="4.61809">
        <ele>754.77</ele>
        <time>2016-09-04T09:37:04Z</time>
      </trkpt>
      <trkpt lat="45.75603" lon="4.61809">
        <ele>755.25</ele>
        <time>2016-09-04T09:37:09Z</time>
      </trkpt>
      <trkpt lat="45.75603" lon="4.61808">
        <ele>755.73</ele>
        <time>2016-09-04T09:37:14Z</time>
      </trkpt>
      <trkpt lat="45.75603" lon="4.61807">
        <ele>756.21</ele>
        <time>2016-09-04T09:37:19Z</time>
      </trkpt>
      <trkpt lat="45.75602" lon="4.61807">
        <ele>755.73</ele>
        <time>2016-09-04T09:37:24Z</time>
      </trkpt>
      <trkpt lat="45.75602" lon="4.61807">
        <ele>755.73</ele>
        <time>2016-09-04T09:37:29Z</time>
      </trkpt>
      <trkpt lat="45.75602" lon="4.61807">
        <ele>755.73</ele>
        <time>2016-09-04T09:37:34Z</time>
      </trkpt>
      <trkpt lat="45.75602" lon="4.61807">
        <ele>755.73</ele>
        <time>2016-09-04T09:37:39Z</time>
      </trkpt>
      <trkpt lat="45.75602" lon="4.61807">
        <ele>755.73</ele>
        <time>2016-09-04T09:37:44Z</time>
      </trkpt>
      <trkpt lat="45.75602" lon="4.61807">
        <ele>755.73</ele>
        <time>2016-09-04T09:37:49Z</time>
      </trkpt>
      <trkpt lat="45.75602" lon="4.61808">
        <ele>756.21</ele>
        <time>2016-09-04T09:37:54Z</time>
      </trkpt>
      <trkpt lat="45.75602" lon="4.61808">
        <ele>755.73</ele>
        <time>2016-09-04T09:37:59Z</time>
      </trkpt>
      <trkpt lat="45.75602" lon="4.61809">
        <ele>755.25</ele>
        <time>2016-09-04T09:38:04Z</time>
      </trkpt>
      <trkpt lat="45.75602" lon="4.61809">
        <ele>753.81</ele>
        <time>2016-09-04T09:38:09Z</time>
      </trkpt>
      <trkpt lat="45.75602" lon="4.61809">
        <ele>753.33</ele>
        <time>2016-09-04T09:38:14Z</time>
      </trkpt>
      <trkpt lat="45.75602" lon="4.61809">
        <ele>752.85</ele>
        <time>2016-09-04T09:38:19Z</time>
      </trkpt>
      <trkpt lat="45.75603" lon="4.61808">
        <ele>752.85</ele>
        <time>2016-09-04T09:38:24Z</time>
      </trkpt>
      <trkpt lat="45.75604" lon="4.61809">
        <ele>751.89</ele>
        <time>2016-09-04T09:38:29Z</time>
      </trkpt>
      <trkpt lat="45.75604" lon="4.61809">
        <ele>751.89</ele>
        <time>2016-09-04T09:38:34Z</time>
      </trkpt>
      <trkpt lat="45.75603" lon="4.61809">
        <ele>751.89</ele>
        <time>2016-09-04T09:38:39Z</time>
      </trkpt>
      <trkpt lat="45.75603" lon="4.61809">
        <ele>752.85</ele>
        <time>2016-09-04T09:38:44Z</time>
      </trkpt>
      <trkpt lat="45.75603" lon="4.6181">
        <ele>753.33</ele>
        <time>2016-09-04T09:38:49Z</time>
      </trkpt>
      <trkpt lat="45.75603" lon="4.6181">
        <ele>754.29</ele>
        <time>2016-09-04T09:38:54Z</time>
      </trkpt>
      <trkpt lat="45.75603" lon="4.6181">
        <ele>754.77</ele>
        <time>2016-09-04T09:38:59Z</time>
      </trkpt>
      <trkpt lat="45.75602" lon="4.6181">
        <ele>754.77</ele>
        <time>2016-09-04T09:39:04Z</time>
      </trkpt>
      <trkpt lat="45.75601" lon="4.61809">
        <ele>755.25</ele>
        <time>2016-09-04T09:39:09Z</time>
      </trkpt>
      <trkpt lat="45.75602" lon="4.61805">
        <ele>755.25</ele>
        <time>2016-09-04T09:39:14Z</time>
      </trkpt>
      <trkpt lat="45.75602" lon="4.61797">
        <ele>757.18</ele>
        <time>2016-09-04T09:39:19Z</time>
      </trkpt>
      <trkpt lat="45.756" lon="4.61796">
        <ele>758.62</ele>
        <time>2016-09-04T09:39:24Z</time>
      </trkpt>
      <trkpt lat="45.75596" lon="4.61796">
        <ele>759.58</ele>
        <time>2016-09-04T09:39:29Z</time>
      </trkpt>
      <trkpt lat="45.75593" lon="4.61793">
        <ele>761.02</ele>
        <time>2016-09-04T09:39:34Z</time>
      </trkpt>
      <trkpt lat="45.75592" lon="4.61792">
        <ele>762.46</ele>
        <time>2016-09-04T09:39:39Z</time>
      </trkpt>
      <trkpt lat="45.75592" lon="4.6179">
        <ele>763.42</ele>
        <time>2016-09-04T09:39:44Z</time>
      </trkpt>
      <trkpt lat="45.7559" lon="4.61789">
        <ele>763.42</ele>
        <time>2016-09-04T09:39:49Z</time>
      </trkpt>
      <trkpt lat="45.75588" lon="4.61788">
        <ele>763.9</ele>
        <time>2016-09-04T09:39:54Z</time>
      </trkpt>
      <trkpt lat="45.75585" lon="4.61785">
        <ele>764.39</ele>
        <time>2016-09-04T09:39:59Z</time>
      </trkpt>
      <trkpt lat="45.75582" lon="4.6178">
        <ele>764.87</ele>
        <time>2016-09-04T09:40:04Z</time>
      </trkpt>
      <trkpt lat="45.75578" lon="4.61773">
        <ele>765.35</ele>
        <time>2016-09-04T09:40:09Z</time>
      </trkpt>
      <trkpt lat="45.75573" lon="4.61765">
        <ele>764.87</ele>
        <time>2016-09-04T09:40:14Z</time>
      </trkpt>
      <trkpt lat="45.75568" lon="4.61757">
        <ele>764.39</ele>
        <time>2016-09-04T09:40:19Z</time>
      </trkpt>
      <trkpt lat="45.75564" lon="4.61752">
        <ele>764.39</ele>
        <time>2016-09-04T09:40:24Z</time>
      </trkpt>
      <trkpt lat="45.7556" lon="4.61747">
        <ele>765.35</ele>
        <time>2016-09-04T09:40:29Z</time>
      </trkpt>
      <trkpt lat="45.75554" lon="4.6174">
        <ele>765.83</ele>
        <time>2016-09-04T09:40:34Z</time>
      </trkpt>
      <trkpt lat="45.7555" lon="4.61733">
        <ele>766.79</ele>
        <time>2016-09-04T09:40:39Z</time>
      </trkpt>
      <trkpt lat="45.75545" lon="4.61725">
        <ele>768.71</ele>
        <time>2016-09-04T09:40:44Z</time>
      </trkpt>
      <trkpt lat="45.7554" lon="4.61717">
        <ele>769.19</ele>
        <time>2016-09-04T09:40:49Z</time>
      </trkpt>
      <trkpt lat="45.75536" lon="4.61711">
        <ele>770.15</ele>
        <time>2016-09-04T09:40:54Z</time>
      </trkpt>
      <trkpt lat="45.75531" lon="4.61705">
        <ele>771.11</ele>
        <time>2016-09-04T09:40:59Z</time>
      </trkpt>
      <trkpt lat="45.75524" lon="4.61697">
        <ele>772.08</ele>
        <time>2016-09-04T09:41:04Z</time>
      </trkpt>
      <trkpt lat="45.75519" lon="4.61691">
        <ele>773.04</ele>
        <time>2016-09-04T09:41:09Z</time>
      </trkpt>
      <trkpt lat="45.75513" lon="4.61684">
        <ele>774</ele>
        <time>2016-09-04T09:41:14Z</time>
      </trkpt>
      <trkpt lat="45.75508" lon="4.61679">
        <ele>775.44</ele>
        <time>2016-09-04T09:41:19Z</time>
      </trkpt>
      <trkpt lat="45.75503" lon="4.61675">
        <ele>776.88</ele>
        <time>2016-09-04T09:41:24Z</time>
      </trkpt>
      <trkpt lat="45.75497" lon="4.6167">
        <ele>779.29</ele>
        <time>2016-09-04T09:41:29Z</time>
      </trkpt>
      <trkpt lat="45.75492" lon="4.61666">
        <ele>780.73</ele>
        <time>2016-09-04T09:41:34Z</time>
      </trkpt>
      <trkpt lat="45.75487" lon="4.61662">
        <ele>782.65</ele>
        <time>2016-09-04T09:41:39Z</time>
      </trkpt>
      <trkpt lat="45.75484" lon="4.61661">
        <ele>783.61</ele>
        <time>2016-09-04T09:41:44Z</time>
      </trkpt>
      <trkpt lat="45.75479" lon="4.61659">
        <ele>784.57</ele>
        <time>2016-09-04T09:41:49Z</time>
      </trkpt>
      <trkpt lat="45.75475" lon="4.61656">
        <ele>784.57</ele>
        <time>2016-09-04T09:41:54Z</time>
      </trkpt>
      <trkpt lat="45.7547" lon="4.61654">
        <ele>784.57</ele>
        <time>2016-09-04T09:41:59Z</time>
      </trkpt>
      <trkpt lat="45.75464" lon="4.61651">
        <ele>784.57</ele>
        <time>2016-09-04T09:42:04Z</time>
      </trkpt>
      <trkpt lat="45.75459" lon="4.61649">
        <ele>784.57</ele>
        <time>2016-09-04T09:42:09Z</time>
      </trkpt>
      <trkpt lat="45.75455" lon="4.61646">
        <ele>784.57</ele>
        <time>2016-09-04T09:42:14Z</time>
      </trkpt>
      <trkpt lat="45.7545" lon="4.61643">
        <ele>785.05</ele>
        <time>2016-09-04T09:42:19Z</time>
      </trkpt>
      <trkpt lat="45.75444" lon="4.61641">
        <ele>785.53</ele>
        <time>2016-09-04T09:42:24Z</time>
      </trkpt>
      <trkpt lat="45.75438" lon="4.61639">
        <ele>786.02</ele>
        <time>2016-09-04T09:42:29Z</time>
      </trkpt>
      <trkpt lat="45.75431" lon="4.61638">
        <ele>786.98</ele>
        <time>2016-09-04T09:42:34Z</time>
      </trkpt>
      <trkpt lat="45.75427" lon="4.61635">
        <ele>787.46</ele>
        <time>2016-09-04T09:42:39Z</time>
      </trkpt>
      <trkpt lat="45.75421" lon="4.61632">
        <ele>787.46</ele>
        <time>2016-09-04T09:42:44Z</time>
      </trkpt>
      <trkpt lat="45.75414" lon="4.61628">
        <ele>787.46</ele>
        <time>2016-09-04T09:42:49Z</time>
      </trkpt>
      <trkpt lat="45.75408" lon="4.61624">
        <ele>787.94</ele>
        <time>2016-09-04T09:42:54Z</time>
      </trkpt>
      <trkpt lat="45.75402" lon="4.61621">
        <ele>787.94</ele>
        <time>2016-09-04T09:42:59Z</time>
      </trkpt>
      <trkpt lat="45.75396" lon="4.61617">
        <ele>788.9</ele>
        <time>2016-09-04T09:43:04Z</time>
      </trkpt>
      <trkpt lat="45.75391" lon="4.61613">
        <ele>788.9</ele>
        <time>2016-09-04T09:43:09Z</time>
      </trkpt>
      <trkpt lat="45.75385" lon="4.6161">
        <ele>789.86</ele>
        <time>2016-09-04T09:43:14Z</time>
      </trkpt>
      <trkpt lat="45.7538" lon="4.61607">
        <ele>790.34</ele>
        <time>2016-09-04T09:43:19Z</time>
      </trkpt>
      <trkpt lat="45.75374" lon="4.61603">
        <ele>791.3</ele>
        <time>2016-09-04T09:43:24Z</time>
      </trkpt>
      <trkpt lat="45.75368" lon="4.616">
        <ele>792.26</ele>
        <time>2016-09-04T09:43:29Z</time>
      </trkpt>
      <trkpt lat="45.7536" lon="4.61595">
        <ele>792.74</ele>
        <time>2016-09-04T09:43:34Z</time>
      </trkpt>
      <trkpt lat="45.75347" lon="4.61592">
        <ele>793.71</ele>
        <time>2016-09-04T09:43:39Z</time>
      </trkpt>
      <trkpt lat="45.75332" lon="4.61587">
        <ele>793.22</ele>
        <time>2016-09-04T09:43:44Z</time>
      </trkpt>
      <trkpt lat="45.75317" lon="4.61583">
        <ele>793.22</ele>
        <time>2016-09-04T09:43:49Z</time>
      </trkpt>
      <trkpt lat="45.75307" lon="4.61567">
        <ele>793.22</ele>
        <time>2016-09-04T09:43:54Z</time>
      </trkpt>
      <trkpt lat="45.75299" lon="4.61537">
        <ele>791.3</ele>
        <time>2016-09-04T09:43:59Z</time>
      </trkpt>
      <trkpt lat="45.75287" lon="4.6149">
        <ele>787.46</ele>
        <time>2016-09-04T09:44:04Z</time>
      </trkpt>
      <trkpt lat="45.75281" lon="4.61441">
        <ele>784.09</ele>
        <time>2016-09-04T09:44:09Z</time>
      </trkpt>
      <trkpt lat="45.7528" lon="4.61389">
        <ele>781.21</ele>
        <time>2016-09-04T09:44:14Z</time>
      </trkpt>
      <trkpt lat="45.75273" lon="4.6134">
        <ele>779.77</ele>
        <time>2016-09-04T09:44:19Z</time>
      </trkpt>
      <trkpt lat="45.75263" lon="4.61299">
        <ele>776.88</ele>
        <time>2016-09-04T09:44:24Z</time>
      </trkpt>
      <trkpt lat="45.75256" lon="4.6127">
        <ele>774.96</ele>
        <time>2016-09-04T09:44:29Z</time>
      </trkpt>
      <trkpt lat="45.7525" lon="4.61237">
        <ele>773.04</ele>
        <time>2016-09-04T09:44:34Z</time>
      </trkpt>
      <trkpt lat="45.75241" lon="4.61209">
        <ele>771.11</ele>
        <time>2016-09-04T09:44:39Z</time>
      </trkpt>
      <trkpt lat="45.75228" lon="4.61185">
        <ele>770.15</ele>
        <time>2016-09-04T09:44:44Z</time>
      </trkpt>
      <trkpt lat="45.75209" lon="4.61161">
        <ele>770.15</ele>
        <time>2016-09-04T09:44:49Z</time>
      </trkpt>
      <trkpt lat="45.7519" lon="4.61138">
        <ele>769.19</ele>
        <time>2016-09-04T09:44:54Z</time>
      </trkpt>
      <trkpt lat="45.75176" lon="4.61118">
        <ele>769.67</ele>
        <time>2016-09-04T09:44:59Z</time>
      </trkpt>
      <trkpt lat="45.75163" lon="4.61099">
        <ele>769.67</ele>
        <time>2016-09-04T09:45:04Z</time>
      </trkpt>
      <trkpt lat="45.75153" lon="4.61074">
        <ele>768.71</ele>
        <time>2016-09-04T09:45:09Z</time>
      </trkpt>
      <trkpt lat="45.75143" lon="4.61048">
        <ele>767.27</ele>
        <time>2016-09-04T09:45:14Z</time>
      </trkpt>
      <trkpt lat="45.75118" lon="4.61036">
        <ele>766.31</ele>
        <time>2016-09-04T09:45:19Z</time>
      </trkpt>
      <trkpt lat="45.75097" lon="4.61033">
        <ele>766.79</ele>
        <time>2016-09-04T09:45:24Z</time>
      </trkpt>
      <trkpt lat="45.75079" lon="4.61033">
        <ele>767.75</ele>
        <time>2016-09-04T09:45:29Z</time>
      </trkpt>
      <trkpt lat="45.75058" lon="4.6104">
        <ele>769.19</ele>
        <time>2016-09-04T09:45:34Z</time>
      </trkpt>
      <trkpt lat="45.75042" lon="4.6104">
        <ele>770.63</ele>
        <time>2016-09-04T09:45:39Z</time>
      </trkpt>
      <trkpt lat="45.75029" lon="4.61043">
        <ele>771.6</ele>
        <time>2016-09-04T09:45:44Z</time>
      </trkpt>
      <trkpt lat="45.75015" lon="4.61048">
        <ele>772.56</ele>
        <time>2016-09-04T09:45:49Z</time>
      </trkpt>
      <trkpt lat="45.74998" lon="4.61057">
        <ele>772.08</ele>
        <time>2016-09-04T09:45:54Z</time>
      </trkpt>
      <trkpt lat="45.74978" lon="4.61069">
        <ele>772.56</ele>
        <time>2016-09-04T09:45:59Z</time>
      </trkpt>
      <trkpt lat="45.74956" lon="4.61082">
        <ele>773.52</ele>
        <time>2016-09-04T09:46:04Z</time>
      </trkpt>
      <trkpt lat="45.74927" lon="4.611">
        <ele>772.08</ele>
        <time>2016-09-04T09:46:09Z</time>
      </trkpt>
      <trkpt lat="45.74909" lon="4.61106">
        <ele>769.19</ele>
        <time>2016-09-04T09:46:14Z</time>
      </trkpt>
      <trkpt lat="45.74894" lon="4.61111">
        <ele>766.79</ele>
        <time>2016-09-04T09:46:19Z</time>
      </trkpt>
      <trkpt lat="45.7488" lon="4.61121">
        <ele>762.94</ele>
        <time>2016-09-04T09:46:24Z</time>
      </trkpt>
      <trkpt lat="45.74874" lon="4.61131">
        <ele>761.02</ele>
        <time>2016-09-04T09:46:29Z</time>
      </trkpt>
      <trkpt lat="45.74862" lon="4.61136">
        <ele>757.18</ele>
        <time>2016-09-04T09:46:34Z</time>
      </trkpt>
      <trkpt lat="45.7485" lon="4.61144">
        <ele>755.73</ele>
        <time>2016-09-04T09:46:39Z</time>
      </trkpt>
      <trkpt lat="45.74843" lon="4.61154">
        <ele>752.85</ele>
        <time>2016-09-04T09:46:44Z</time>
      </trkpt>
      <trkpt lat="45.74837" lon="4.61161">
        <ele>749.97</ele>
        <time>2016-09-04T09:46:49Z</time>
      </trkpt>
      <trkpt lat="45.7483" lon="4.6116">
        <ele>747.56</ele>
        <time>2016-09-04T09:46:54Z</time>
      </trkpt>
      <trkpt lat="45.74824" lon="4.61165">
        <ele>746.6</ele>
        <time>2016-09-04T09:46:59Z</time>
      </trkpt>
      <trkpt lat="45.74813" lon="4.61171">
        <ele>744.68</ele>
        <time>2016-09-04T09:47:04Z</time>
      </trkpt>
      <trkpt lat="45.74803" lon="4.61172">
        <ele>742.76</ele>
        <time>2016-09-04T09:47:09Z</time>
      </trkpt>
      <trkpt lat="45.74797" lon="4.6117">
        <ele>740.83</ele>
        <time>2016-09-04T09:47:14Z</time>
      </trkpt>
      <trkpt lat="45.74796" lon="4.61171">
        <ele>738.43</ele>
        <time>2016-09-04T09:47:19Z</time>
      </trkpt>
      <trkpt lat="45.74794" lon="4.61171">
        <ele>737.47</ele>
        <time>2016-09-04T09:47:24Z</time>
      </trkpt>
      <trkpt lat="45.74792" lon="4.61175">
        <ele>736.51</ele>
        <time>2016-09-04T09:47:29Z</time>
      </trkpt>
      <trkpt lat="45.74788" lon="4.61189">
        <ele>735.55</ele>
        <time>2016-09-04T09:47:34Z</time>
      </trkpt>
      <trkpt lat="45.74781" lon="4.61206">
        <ele>734.1</ele>
        <time>2016-09-04T09:47:39Z</time>
      </trkpt>
      <trkpt lat="45.74769" lon="4.61231">
        <ele>732.18</ele>
        <time>2016-09-04T09:47:44Z</time>
      </trkpt>
      <trkpt lat="45.74749" lon="4.61264">
        <ele>729.3</ele>
        <time>2016-09-04T09:47:49Z</time>
      </trkpt>
      <trkpt lat="45.74736" lon="4.61294">
        <ele>727.37</ele>
        <time>2016-09-04T09:47:54Z</time>
      </trkpt>
      <trkpt lat="45.74721" lon="4.61326">
        <ele>726.41</ele>
        <time>2016-09-04T09:47:59Z</time>
      </trkpt>
      <trkpt lat="45.74705" lon="4.6135">
        <ele>725.93</ele>
        <time>2016-09-04T09:48:04Z</time>
      </trkpt>
      <trkpt lat="45.74687" lon="4.61367">
        <ele>727.37</ele>
        <time>2016-09-04T09:48:09Z</time>
      </trkpt>
      <trkpt lat="45.74669" lon="4.61378">
        <ele>729.3</ele>
        <time>2016-09-04T09:48:14Z</time>
      </trkpt>
      <trkpt lat="45.7465" lon="4.61383">
        <ele>731.7</ele>
        <time>2016-09-04T09:48:19Z</time>
      </trkpt>
      <trkpt lat="45.74632" lon="4.61383">
        <ele>734.1</ele>
        <time>2016-09-04T09:48:24Z</time>
      </trkpt>
      <trkpt lat="45.74621" lon="4.61382">
        <ele>736.03</ele>
        <time>2016-09-04T09:48:29Z</time>
      </trkpt>
      <trkpt lat="45.74612" lon="4.61381">
        <ele>737.95</ele>
        <time>2016-09-04T09:48:34Z</time>
      </trkpt>
      <trkpt lat="45.74603" lon="4.6138">
        <ele>739.87</ele>
        <time>2016-09-04T09:48:39Z</time>
      </trkpt>
      <trkpt lat="45.74595" lon="4.61381">
        <ele>741.79</ele>
        <time>2016-09-04T09:48:44Z</time>
      </trkpt>
      <trkpt lat="45.7459" lon="4.6138">
        <ele>742.28</ele>
        <time>2016-09-04T09:48:49Z</time>
      </trkpt>
      <trkpt lat="45.74585" lon="4.61379">
        <ele>742.76</ele>
        <time>2016-09-04T09:48:54Z</time>
      </trkpt>
      <trkpt lat="45.74578" lon="4.61379">
        <ele>743.24</ele>
        <time>2016-09-04T09:48:59Z</time>
      </trkpt>
      <trkpt lat="45.74571" lon="4.61379">
        <ele>743.72</ele>
        <time>2016-09-04T09:49:04Z</time>
      </trkpt>
      <trkpt lat="45.74565" lon="4.61378">
        <ele>744.2</ele>
        <time>2016-09-04T09:49:09Z</time>
      </trkpt>
      <trkpt lat="45.7456" lon="4.61378">
        <ele>744.68</ele>
        <time>2016-09-04T09:49:14Z</time>
      </trkpt>
      <trkpt lat="45.74556" lon="4.61377">
        <ele>746.6</ele>
        <time>2016-09-04T09:49:19Z</time>
      </trkpt>
      <trkpt lat="45.74552" lon="4.61377">
        <ele>748.04</ele>
        <time>2016-09-04T09:49:24Z</time>
      </trkpt>
      <trkpt lat="45.74548" lon="4.61377">
        <ele>749.49</ele>
        <time>2016-09-04T09:49:29Z</time>
      </trkpt>
      <trkpt lat="45.74544" lon="4.61377">
        <ele>751.41</ele>
        <time>2016-09-04T09:49:34Z</time>
      </trkpt>
      <trkpt lat="45.7454" lon="4.61377">
        <ele>753.33</ele>
        <time>2016-09-04T09:49:39Z</time>
      </trkpt>
      <trkpt lat="45.74537" lon="4.61377">
        <ele>755.25</ele>
        <time>2016-09-04T09:49:44Z</time>
      </trkpt>
      <trkpt lat="45.74532" lon="4.61378">
        <ele>757.18</ele>
        <time>2016-09-04T09:49:49Z</time>
      </trkpt>
      <trkpt lat="45.74528" lon="4.61378">
        <ele>758.62</ele>
        <time>2016-09-04T09:49:54Z</time>
      </trkpt>
      <trkpt lat="45.74525" lon="4.61378">
        <ele>759.58</ele>
        <time>2016-09-04T09:49:59Z</time>
      </trkpt>
      <trkpt lat="45.74522" lon="4.61377">
        <ele>760.54</ele>
        <time>2016-09-04T09:50:04Z</time>
      </trkpt>
      <trkpt lat="45.74518" lon="4.61377">
        <ele>761.98</ele>
        <time>2016-09-04T09:50:09Z</time>
      </trkpt>
      <trkpt lat="45.74513" lon="4.61379">
        <ele>763.42</ele>
        <time>2016-09-04T09:50:14Z</time>
      </trkpt>
      <trkpt lat="45.74509" lon="4.61381">
        <ele>765.83</ele>
        <time>2016-09-04T09:50:19Z</time>
      </trkpt>
      <trkpt lat="45.74505" lon="4.61383">
        <ele>767.27</ele>
        <time>2016-09-04T09:50:24Z</time>
      </trkpt>
      <trkpt lat="45.745" lon="4.61388">
        <ele>768.23</ele>
        <time>2016-09-04T09:50:29Z</time>
      </trkpt>
      <trkpt lat="45.74494" lon="4.61392">
        <ele>768.71</ele>
        <time>2016-09-04T09:50:34Z</time>
      </trkpt>
      <trkpt lat="45.74486" lon="4.61398">
        <ele>769.19</ele>
        <time>2016-09-04T09:50:39Z</time>
      </trkpt>
      <trkpt lat="45.74476" lon="4.61405">
        <ele>769.19</ele>
        <time>2016-09-04T09:50:44Z</time>
      </trkpt>
      <trkpt lat="45.74461" lon="4.61411">
        <ele>769.19</ele>
        <time>2016-09-04T09:50:49Z</time>
      </trkpt>
      <trkpt lat="45.74448" lon="4.61413">
        <ele>768.71</ele>
        <time>2016-09-04T09:50:54Z</time>
      </trkpt>
      <trkpt lat="45.74434" lon="4.61413">
        <ele>768.71</ele>
        <time>2016-09-04T09:50:59Z</time>
      </trkpt>
      <trkpt lat="45.74418" lon="4.61409">
        <ele>767.27</ele>
        <time>2016-09-04T09:51:04Z</time>
      </trkpt>
      <trkpt lat="45.74404" lon="4.61402">
        <ele>766.31</ele>
        <time>2016-09-04T09:51:09Z</time>
      </trkpt>
      <trkpt lat="45.74388" lon="4.61394">
        <ele>764.39</ele>
        <time>2016-09-04T09:51:14Z</time>
      </trkpt>
      <trkpt lat="45.74375" lon="4.61387">
        <ele>763.42</ele>
        <time>2016-09-04T09:51:19Z</time>
      </trkpt>
      <trkpt lat="45.74363" lon="4.6138">
        <ele>761.5</ele>
        <time>2016-09-04T09:51:24Z</time>
      </trkpt>
      <trkpt lat="45.7435" lon="4.61375">
        <ele>758.14</ele>
        <time>2016-09-04T09:51:29Z</time>
      </trkpt>
      <trkpt lat="45.74341" lon="4.6137">
        <ele>756.69</ele>
        <time>2016-09-04T09:51:34Z</time>
      </trkpt>
      <trkpt lat="45.74332" lon="4.61365">
        <ele>755.25</ele>
        <time>2016-09-04T09:51:39Z</time>
      </trkpt>
      <trkpt lat="45.74323" lon="4.6136">
        <ele>755.73</ele>
        <time>2016-09-04T09:51:44Z</time>
      </trkpt>
      <trkpt lat="45.74316" lon="4.61356">
        <ele>756.21</ele>
        <time>2016-09-04T09:51:49Z</time>
      </trkpt>
      <trkpt lat="45.7431" lon="4.61354">
        <ele>755.25</ele>
        <time>2016-09-04T09:51:54Z</time>
      </trkpt>
      <trkpt lat="45.74304" lon="4.61353">
        <ele>754.77</ele>
        <time>2016-09-04T09:51:59Z</time>
      </trkpt>
      <trkpt lat="45.74299" lon="4.61351">
        <ele>756.21</ele>
        <time>2016-09-04T09:52:04Z</time>
      </trkpt>
      <trkpt lat="45.74296" lon="4.6135">
        <ele>756.69</ele>
        <time>2016-09-04T09:52:09Z</time>
      </trkpt>
      <trkpt lat="45.74292" lon="4.61347">
        <ele>757.18</ele>
        <time>2016-09-04T09:52:14Z</time>
      </trkpt>
      <trkpt lat="45.7429" lon="4.61343">
        <ele>757.18</ele>
        <time>2016-09-04T09:52:19Z</time>
      </trkpt>
      <trkpt lat="45.7429" lon="4.6134">
        <ele>758.14</ele>
        <time>2016-09-04T09:52:24Z</time>
      </trkpt>
      <trkpt lat="45.74291" lon="4.61337">
        <ele>758.14</ele>
        <time>2016-09-04T09:52:29Z</time>
      </trkpt>
      <trkpt lat="45.74293" lon="4.61333">
        <ele>758.62</ele>
        <time>2016-09-04T09:52:34Z</time>
      </trkpt>
      <trkpt lat="45.74295" lon="4.61329">
        <ele>758.62</ele>
        <time>2016-09-04T09:52:39Z</time>
      </trkpt>
      <trkpt lat="45.74297" lon="4.61325">
        <ele>758.14</ele>
        <time>2016-09-04T09:52:44Z</time>
      </trkpt>
      <trkpt lat="45.74299" lon="4.61322">
        <ele>757.66</ele>
        <time>2016-09-04T09:52:49Z</time>
      </trkpt>
      <trkpt lat="45.74299" lon="4.61321">
        <ele>758.14</ele>
        <time>2016-09-04T09:52:54Z</time>
      </trkpt>
      <trkpt lat="45.743" lon="4.61319">
        <ele>758.14</ele>
        <time>2016-09-04T09:52:59Z</time>
      </trkpt>
      <trkpt lat="45.74304" lon="4.61316">
        <ele>758.62</ele>
        <time>2016-09-04T09:53:04Z</time>
      </trkpt>
      <trkpt lat="45.74307" lon="4.61312">
        <ele>758.62</ele>
        <time>2016-09-04T09:53:09Z</time>
      </trkpt>
      <trkpt lat="45.7431" lon="4.61309">
        <ele>759.58</ele>
        <time>2016-09-04T09:53:14Z</time>
      </trkpt>
      <trkpt lat="45.74313" lon="4.61305">
        <ele>760.06</ele>
        <time>2016-09-04T09:53:19Z</time>
      </trkpt>
      <trkpt lat="45.74316" lon="4.61302">
        <ele>760.54</ele>
        <time>2016-09-04T09:53:24Z</time>
      </trkpt>
      <trkpt lat="45.74318" lon="4.61299">
        <ele>761.98</ele>
        <time>2016-09-04T09:53:29Z</time>
      </trkpt>
      <trkpt lat="45.74321" lon="4.61295">
        <ele>762.94</ele>
        <time>2016-09-04T09:53:34Z</time>
      </trkpt>
      <trkpt lat="45.74324" lon="4.61292">
        <ele>763.9</ele>
        <time>2016-09-04T09:53:39Z</time>
      </trkpt>
      <trkpt lat="45.74327" lon="4.61288">
        <ele>764.39</ele>
        <time>2016-09-04T09:53:44Z</time>
      </trkpt>
      <trkpt lat="45.7433" lon="4.61284">
        <ele>765.83</ele>
        <time>2016-09-04T09:53:49Z</time>
      </trkpt>
      <trkpt lat="45.74334" lon="4.61281">
        <ele>766.79</ele>
        <time>2016-09-04T09:53:54Z</time>
      </trkpt>
      <trkpt lat="45.74337" lon="4.61279">
        <ele>767.75</ele>
        <time>2016-09-04T09:53:59Z</time>
      </trkpt>
      <trkpt lat="45.74341" lon="4.61277">
        <ele>768.71</ele>
        <time>2016-09-04T09:54:04Z</time>
      </trkpt>
      <trkpt lat="45.74345" lon="4.61276">
        <ele>769.19</ele>
        <time>2016-09-04T09:54:09Z</time>
      </trkpt>
      <trkpt lat="45.74349" lon="4.61275">
        <ele>770.15</ele>
        <time>2016-09-04T09:54:14Z</time>
      </trkpt>
      <trkpt lat="45.74353" lon="4.61273">
        <ele>770.63</ele>
        <time>2016-09-04T09:54:19Z</time>
      </trkpt>
      <trkpt lat="45.74355" lon="4.61267">
        <ele>770.15</ele>
        <time>2016-09-04T09:54:24Z</time>
      </trkpt>
      <trkpt lat="45.74355" lon="4.61264">
        <ele>769.67</ele>
        <time>2016-09-04T09:54:29Z</time>
      </trkpt>
      <trkpt lat="45.74355" lon="4.61263">
        <ele>768.71</ele>
        <time>2016-09-04T09:54:34Z</time>
      </trkpt>
      <trkpt lat="45.74354" lon="4.61261">
        <ele>767.75</ele>
        <time>2016-09-04T09:54:39Z</time>
      </trkpt>
      <trkpt lat="45.74355" lon="4.61262">
        <ele>766.79</ele>
        <time>2016-09-04T09:54:44Z</time>
      </trkpt>
      <trkpt lat="45.74355" lon="4.61262">
        <ele>766.79</ele>
        <time>2016-09-04T09:54:49Z</time>
      </trkpt>
      <trkpt lat="45.74355" lon="4.61263">
        <ele>765.83</ele>
        <time>2016-09-04T09:54:54Z</time>
      </trkpt>
      <trkpt lat="45.74355" lon="4.61262">
        <ele>765.83</ele>
        <time>2016-09-04T09:54:59Z</time>
      </trkpt>
      <trkpt lat="45.74355" lon="4.61262">
        <ele>766.79</ele>
        <time>2016-09-04T09:55:04Z</time>
      </trkpt>
      <trkpt lat="45.74354" lon="4.61261">
        <ele>766.31</ele>
        <time>2016-09-04T09:55:09Z</time>
      </trkpt>
      <trkpt lat="45.74349" lon="4.61258">
        <ele>766.31</ele>
        <time>2016-09-04T09:55:14Z</time>
      </trkpt>
      <trkpt lat="45.74343" lon="4.61254">
        <ele>766.31</ele>
        <time>2016-09-04T09:55:19Z</time>
      </trkpt>
      <trkpt lat="45.74337" lon="4.61251">
        <ele>767.27</ele>
        <time>2016-09-04T09:55:24Z</time>
      </trkpt>
      <trkpt lat="45.7433" lon="4.61249">
        <ele>767.75</ele>
        <time>2016-09-04T09:55:29Z</time>
      </trkpt>
      <trkpt lat="45.74322" lon="4.61248">
        <ele>768.71</ele>
        <time>2016-09-04T09:55:34Z</time>
      </trkpt>
      <trkpt lat="45.74314" lon="4.61246">
        <ele>769.19</ele>
        <time>2016-09-04T09:55:39Z</time>
      </trkpt>
      <trkpt lat="45.74306" lon="4.61245">
        <ele>769.67</ele>
        <time>2016-09-04T09:55:44Z</time>
      </trkpt>
      <trkpt lat="45.743" lon="4.61243">
        <ele>770.15</ele>
        <time>2016-09-04T09:55:49Z</time>
      </trkpt>
      <trkpt lat="45.74293" lon="4.61241">
        <ele>770.63</ele>
        <time>2016-09-04T09:55:54Z</time>
      </trkpt>
      <trkpt lat="45.74286" lon="4.6124">
        <ele>772.56</ele>
        <time>2016-09-04T09:55:59Z</time>
      </trkpt>
      <trkpt lat="45.7428" lon="4.61238">
        <ele>774</ele>
        <time>2016-09-04T09:56:04Z</time>
      </trkpt>
      <trkpt lat="45.74272" lon="4.61237">
        <ele>774.96</ele>
        <time>2016-09-04T09:56:09Z</time>
      </trkpt>
      <trkpt lat="45.74265" lon="4.61235">
        <ele>775.44</ele>
        <time>2016-09-04T09:56:14Z</time>
      </trkpt>
      <trkpt lat="45.74258" lon="4.61235">
        <ele>777.36</ele>
        <time>2016-09-04T09:56:19Z</time>
      </trkpt>
      <trkpt lat="45.74251" lon="4.61235">
        <ele>778.81</ele>
        <time>2016-09-04T09:56:24Z</time>
      </trkpt>
      <trkpt lat="45.74244" lon="4.61236">
        <ele>780.25</ele>
        <time>2016-09-04T09:56:29Z</time>
      </trkpt>
      <trkpt lat="45.74236" lon="4.61237">
        <ele>781.69</ele>
        <time>2016-09-04T09:56:34Z</time>
      </trkpt>
      <trkpt lat="45.74227" lon="4.61238">
        <ele>782.65</ele>
        <time>2016-09-04T09:56:39Z</time>
      </trkpt>
      <trkpt lat="45.74218" lon="4.61241">
        <ele>784.09</ele>
        <time>2016-09-04T09:56:44Z</time>
      </trkpt>
      <trkpt lat="45.74211" lon="4.61243">
        <ele>786.5</ele>
        <time>2016-09-04T09:56:49Z</time>
      </trkpt>
      <trkpt lat="45.74203" lon="4.61248">
        <ele>789.38</ele>
        <time>2016-09-04T09:56:54Z</time>
      </trkpt>
      <trkpt lat="45.74196" lon="4.6125">
        <ele>791.3</ele>
        <time>2016-09-04T09:56:59Z</time>
      </trkpt>
      <trkpt lat="45.74187" lon="4.61254">
        <ele>792.74</ele>
        <time>2016-09-04T09:57:04Z</time>
      </trkpt>
      <trkpt lat="45.7418" lon="4.61256">
        <ele>794.19</ele>
        <time>2016-09-04T09:57:09Z</time>
      </trkpt>
      <trkpt lat="45.74172" lon="4.6126">
        <ele>795.63</ele>
        <time>2016-09-04T09:57:14Z</time>
      </trkpt>
      <trkpt lat="45.74164" lon="4.61264">
        <ele>798.03</ele>
        <time>2016-09-04T09:57:19Z</time>
      </trkpt>
      <trkpt lat="45.74157" lon="4.61268">
        <ele>799.95</ele>
        <time>2016-09-04T09:57:24Z</time>
      </trkpt>
      <trkpt lat="45.74149" lon="4.61272">
        <ele>801.88</ele>
        <time>2016-09-04T09:57:29Z</time>
      </trkpt>
      <trkpt lat="45.74142" lon="4.61279">
        <ele>804.28</ele>
        <time>2016-09-04T09:57:34Z</time>
      </trkpt>
      <trkpt lat="45.74134" lon="4.61286">
        <ele>805.24</ele>
        <time>2016-09-04T09:57:39Z</time>
      </trkpt>
      <trkpt lat="45.74118" lon="4.61308">
        <ele>805.24</ele>
        <time>2016-09-04T09:57:44Z</time>
      </trkpt>
      <trkpt lat="45.74092" lon="4.61351">
        <ele>801.4</ele>
        <time>2016-09-04T09:57:49Z</time>
      </trkpt>
      <trkpt lat="45.74051" lon="4.61403">
        <ele>792.26</ele>
        <time>2016-09-04T09:57:54Z</time>
      </trkpt>
      <trkpt lat="45.73999" lon="4.61429">
        <ele>783.13</ele>
        <time>2016-09-04T09:57:59Z</time>
      </trkpt>
      <trkpt lat="45.73936" lon="4.61442">
        <ele>775.92</ele>
        <time>2016-09-04T09:58:04Z</time>
      </trkpt>
      <trkpt lat="45.73889" lon="4.61496">
        <ele>771.11</ele>
        <time>2016-09-04T09:58:09Z</time>
      </trkpt>
      <trkpt lat="45.73847" lon="4.61549">
        <ele>766.79</ele>
        <time>2016-09-04T09:58:14Z</time>
      </trkpt>
      <trkpt lat="45.73796" lon="4.61561">
        <ele>761.98</ele>
        <time>2016-09-04T09:58:19Z</time>
      </trkpt>
      <trkpt lat="45.73744" lon="4.61559">
        <ele>755.73</ele>
        <time>2016-09-04T09:58:24Z</time>
      </trkpt>
      <trkpt lat="45.73704" lon="4.61598">
        <ele>745.16</ele>
        <time>2016-09-04T09:58:29Z</time>
      </trkpt>
      <trkpt lat="45.73678" lon="4.61638">
        <ele>735.55</ele>
        <time>2016-09-04T09:58:34Z</time>
      </trkpt>
      <trkpt lat="45.7367" lon="4.61671">
        <ele>732.18</ele>
        <time>2016-09-04T09:58:39Z</time>
      </trkpt>
      <trkpt lat="45.73656" lon="4.61705">
        <ele>730.26</ele>
        <time>2016-09-04T09:58:44Z</time>
      </trkpt>
      <trkpt lat="45.73638" lon="4.6173">
        <ele>728.82</ele>
        <time>2016-09-04T09:58:49Z</time>
      </trkpt>
      <trkpt lat="45.73624" lon="4.61746">
        <ele>728.34</ele>
        <time>2016-09-04T09:58:54Z</time>
      </trkpt>
      <trkpt lat="45.73614" lon="4.61756">
        <ele>728.82</ele>
        <time>2016-09-04T09:58:59Z</time>
      </trkpt>
      <trkpt lat="45.73601" lon="4.61771">
        <ele>729.3</ele>
        <time>2016-09-04T09:59:04Z</time>
      </trkpt>
      <trkpt lat="45.73592" lon="4.61787">
        <ele>729.3</ele>
        <time>2016-09-04T09:59:09Z</time>
      </trkpt>
      <trkpt lat="45.73584" lon="4.6181">
        <ele>729.3</ele>
        <time>2016-09-04T09:59:14Z</time>
      </trkpt>
      <trkpt lat="45.73577" lon="4.61836">
        <ele>729.3</ele>
        <time>2016-09-04T09:59:19Z</time>
      </trkpt>
      <trkpt lat="45.73572" lon="4.61864">
        <ele>729.3</ele>
        <time>2016-09-04T09:59:24Z</time>
      </trkpt>
      <trkpt lat="45.7357" lon="4.61892">
        <ele>728.82</ele>
        <time>2016-09-04T09:59:29Z</time>
      </trkpt>
      <trkpt lat="45.73568" lon="4.61918">
        <ele>727.86</ele>
        <time>2016-09-04T09:59:34Z</time>
      </trkpt>
      <trkpt lat="45.73565" lon="4.61953">
        <ele>726.41</ele>
        <time>2016-09-04T09:59:39Z</time>
      </trkpt>
      <trkpt lat="45.7356" lon="4.61991">
        <ele>725.93</ele>
        <time>2016-09-04T09:59:44Z</time>
      </trkpt>
      <trkpt lat="45.73555" lon="4.6203">
        <ele>724.97</ele>
        <time>2016-09-04T09:59:49Z</time>
      </trkpt>
      <trkpt lat="45.73551" lon="4.62067">
        <ele>724.01</ele>
        <time>2016-09-04T09:59:54Z</time>
      </trkpt>
      <trkpt lat="45.73547" lon="4.62098">
        <ele>724.01</ele>
        <time>2016-09-04T09:59:59Z</time>
      </trkpt>
      <trkpt lat="45.73543" lon="4.62121">
        <ele>724.49</ele>
        <time>2016-09-04T10:00:04Z</time>
      </trkpt>
      <trkpt lat="45.7354" lon="4.62152">
        <ele>724.01</ele>
        <time>2016-09-04T10:00:09Z</time>
      </trkpt>
      <trkpt lat="45.73534" lon="4.6219">
        <ele>721.61</ele>
        <time>2016-09-04T10:00:14Z</time>
      </trkpt>
      <trkpt lat="45.7353" lon="4.62225">
        <ele>719.2</ele>
        <time>2016-09-04T10:00:19Z</time>
      </trkpt>
      <trkpt lat="45.73532" lon="4.62254">
        <ele>718.24</ele>
        <time>2016-09-04T10:00:24Z</time>
      </trkpt>
      <trkpt lat="45.73536" lon="4.62287">
        <ele>714.4</ele>
        <time>2016-09-04T10:00:29Z</time>
      </trkpt>
      <trkpt lat="45.73542" lon="4.6232">
        <ele>710.55</ele>
        <time>2016-09-04T10:00:34Z</time>
      </trkpt>
      <trkpt lat="45.73543" lon="4.6233">
        <ele>707.67</ele>
        <time>2016-09-04T10:00:39Z</time>
      </trkpt>
      <trkpt lat="45.73542" lon="4.62336">
        <ele>707.67</ele>
        <time>2016-09-04T10:00:44Z</time>
      </trkpt>
      <trkpt lat="45.73543" lon="4.62339">
        <ele>709.59</ele>
        <time>2016-09-04T10:00:49Z</time>
      </trkpt>
      <trkpt lat="45.73542" lon="4.62341">
        <ele>710.55</ele>
        <time>2016-09-04T10:00:54Z</time>
      </trkpt>
      <trkpt lat="45.73541" lon="4.62343">
        <ele>711.51</ele>
        <time>2016-09-04T10:00:59Z</time>
      </trkpt>
      <trkpt lat="45.73541" lon="4.62345">
        <ele>711.99</ele>
        <time>2016-09-04T10:01:04Z</time>
      </trkpt>
      <trkpt lat="45.73542" lon="4.62346">
        <ele>712.95</ele>
        <time>2016-09-04T10:01:09Z</time>
      </trkpt>
      <trkpt lat="45.73543" lon="4.62347">
        <ele>714.4</ele>
        <time>2016-09-04T10:01:14Z</time>
      </trkpt>
      <trkpt lat="45.73544" lon="4.62347">
        <ele>715.36</ele>
        <time>2016-09-04T10:01:19Z</time>
      </trkpt>
      <trkpt lat="45.73544" lon="4.62346">
        <ele>716.8</ele>
        <time>2016-09-04T10:01:24Z</time>
      </trkpt>
      <trkpt lat="45.73543" lon="4.62345">
        <ele>717.76</ele>
        <time>2016-09-04T10:01:29Z</time>
      </trkpt>
      <trkpt lat="45.7354" lon="4.62343">
        <ele>718.24</ele>
        <time>2016-09-04T10:01:34Z</time>
      </trkpt>
      <trkpt lat="45.73537" lon="4.62343">
        <ele>718.24</ele>
        <time>2016-09-04T10:01:39Z</time>
      </trkpt>
      <trkpt lat="45.73538" lon="4.62342">
        <ele>717.76</ele>
        <time>2016-09-04T10:01:44Z</time>
      </trkpt>
      <trkpt lat="45.73538" lon="4.62342">
        <ele>717.28</ele>
        <time>2016-09-04T10:01:49Z</time>
      </trkpt>
      <trkpt lat="45.73541" lon="4.62347">
        <ele>716.32</ele>
        <time>2016-09-04T10:01:54Z</time>
      </trkpt>
      <trkpt lat="45.73544" lon="4.62362">
        <ele>713.92</ele>
        <time>2016-09-04T10:01:59Z</time>
      </trkpt>
      <trkpt lat="45.73546" lon="4.62377">
        <ele>711.99</ele>
        <time>2016-09-04T10:02:04Z</time>
      </trkpt>
      <trkpt lat="45.73547" lon="4.62391">
        <ele>709.11</ele>
        <time>2016-09-04T10:02:09Z</time>
      </trkpt>
      <trkpt lat="45.7355" lon="4.6241">
        <ele>707.19</ele>
        <time>2016-09-04T10:02:14Z</time>
      </trkpt>
      <trkpt lat="45.73555" lon="4.62425">
        <ele>704.78</ele>
        <time>2016-09-04T10:02:19Z</time>
      </trkpt>
      <trkpt lat="45.73556" lon="4.62439">
        <ele>702.86</ele>
        <time>2016-09-04T10:02:24Z</time>
      </trkpt>
      <trkpt lat="45.73559" lon="4.62453">
        <ele>700.94</ele>
        <time>2016-09-04T10:02:29Z</time>
      </trkpt>
      <trkpt lat="45.7356" lon="4.62458">
        <ele>699.98</ele>
        <time>2016-09-04T10:02:34Z</time>
      </trkpt>
      <trkpt lat="45.73562" lon="4.62465">
        <ele>699.02</ele>
        <time>2016-09-04T10:02:39Z</time>
      </trkpt>
      <trkpt lat="45.73562" lon="4.6247">
        <ele>699.02</ele>
        <time>2016-09-04T10:02:44Z</time>
      </trkpt>
      <trkpt lat="45.73564" lon="4.62479">
        <ele>697.57</ele>
        <time>2016-09-04T10:02:49Z</time>
      </trkpt>
      <trkpt lat="45.73568" lon="4.62492">
        <ele>695.65</ele>
        <time>2016-09-04T10:02:54Z</time>
      </trkpt>
      <trkpt lat="45.73572" lon="4.62515">
        <ele>695.65</ele>
        <time>2016-09-04T10:02:59Z</time>
      </trkpt>
      <trkpt lat="45.73576" lon="4.62543">
        <ele>693.73</ele>
        <time>2016-09-04T10:03:04Z</time>
      </trkpt>
      <trkpt lat="45.73579" lon="4.62568">
        <ele>692.77</ele>
        <time>2016-09-04T10:03:09Z</time>
      </trkpt>
      <trkpt lat="45.7358" lon="4.62592">
        <ele>692.29</ele>
        <time>2016-09-04T10:03:14Z</time>
      </trkpt>
      <trkpt lat="45.73579" lon="4.62609">
        <ele>691.81</ele>
        <time>2016-09-04T10:03:19Z</time>
      </trkpt>
      <trkpt lat="45.73574" lon="4.62621">
        <ele>690.36</ele>
        <time>2016-09-04T10:03:24Z</time>
      </trkpt>
      <trkpt lat="45.73568" lon="4.62631">
        <ele>688.44</ele>
        <time>2016-09-04T10:03:29Z</time>
      </trkpt>
      <trkpt lat="45.73562" lon="4.62641">
        <ele>687.48</ele>
        <time>2016-09-04T10:03:34Z</time>
      </trkpt>
      <trkpt lat="45.73557" lon="4.62659">
        <ele>686.52</ele>
        <time>2016-09-04T10:03:39Z</time>
      </trkpt>
      <trkpt lat="45.73548" lon="4.62669">
        <ele>685.56</ele>
        <time>2016-09-04T10:03:44Z</time>
      </trkpt>
      <trkpt lat="45.73543" lon="4.62674">
        <ele>684.6</ele>
        <time>2016-09-04T10:03:49Z</time>
      </trkpt>
      <trkpt lat="45.73538" lon="4.62679">
        <ele>683.63</ele>
        <time>2016-09-04T10:03:54Z</time>
      </trkpt>
      <trkpt lat="45.7353" lon="4.62686">
        <ele>683.15</ele>
        <time>2016-09-04T10:03:59Z</time>
      </trkpt>
      <trkpt lat="45.73522" lon="4.62693">
        <ele>682.19</ele>
        <time>2016-09-04T10:04:04Z</time>
      </trkpt>
      <trkpt lat="45.73514" lon="4.62696">
        <ele>681.23</ele>
        <time>2016-09-04T10:04:09Z</time>
      </trkpt>
      <trkpt lat="45.7351" lon="4.62697">
        <ele>681.23</ele>
        <time>2016-09-04T10:04:14Z</time>
      </trkpt>
      <trkpt lat="45.73509" lon="4.62698">
        <ele>680.27</ele>
        <time>2016-09-04T10:04:19Z</time>
      </trkpt>
      <trkpt lat="45.73507" lon="4.627">
        <ele>679.79</ele>
        <time>2016-09-04T10:04:24Z</time>
      </trkpt>
      <trkpt lat="45.73505" lon="4.62701">
        <ele>679.31</ele>
        <time>2016-09-04T10:04:29Z</time>
      </trkpt>
      <trkpt lat="45.73503" lon="4.62702">
        <ele>678.35</ele>
        <time>2016-09-04T10:04:34Z</time>
      </trkpt>
      <trkpt lat="45.73501" lon="4.62705">
        <ele>677.87</ele>
        <time>2016-09-04T10:04:39Z</time>
      </trkpt>
      <trkpt lat="45.73501" lon="4.62706">
        <ele>677.39</ele>
        <time>2016-09-04T10:04:44Z</time>
      </trkpt>
      <trkpt lat="45.735" lon="4.62706">
        <ele>676.91</ele>
        <time>2016-09-04T10:04:49Z</time>
      </trkpt>
      <trkpt lat="45.73491" lon="4.62701">
        <ele>674.98</ele>
        <time>2016-09-04T10:04:54Z</time>
      </trkpt>
      <trkpt lat="45.73484" lon="4.62693">
        <ele>673.06</ele>
        <time>2016-09-04T10:04:59Z</time>
      </trkpt>
      <trkpt lat="45.73477" lon="4.62695">
        <ele>671.62</ele>
        <time>2016-09-04T10:05:04Z</time>
      </trkpt>
      <trkpt lat="45.73472" lon="4.62697">
        <ele>670.66</ele>
        <time>2016-09-04T10:05:09Z</time>
      </trkpt>
      <trkpt lat="45.73467" lon="4.62695">
        <ele>670.66</ele>
        <time>2016-09-04T10:05:14Z</time>
      </trkpt>
      <trkpt lat="45.7346" lon="4.62699">
        <ele>669.22</ele>
        <time>2016-09-04T10:05:19Z</time>
      </trkpt>
      <trkpt lat="45.73451" lon="4.62705">
        <ele>665.85</ele>
        <time>2016-09-04T10:05:24Z</time>
      </trkpt>
      <trkpt lat="45.73439" lon="4.62714">
        <ele>662.97</ele>
        <time>2016-09-04T10:05:29Z</time>
      </trkpt>
      <trkpt lat="45.73431" lon="4.62721">
        <ele>662.01</ele>
        <time>2016-09-04T10:05:34Z</time>
      </trkpt>
      <trkpt lat="45.73416" lon="4.62732">
        <ele>661.04</ele>
        <time>2016-09-04T10:05:39Z</time>
      </trkpt>
      <trkpt lat="45.73397" lon="4.62743">
        <ele>659.6</ele>
        <time>2016-09-04T10:05:44Z</time>
      </trkpt>
      <trkpt lat="45.73377" lon="4.62752">
        <ele>658.64</ele>
        <time>2016-09-04T10:05:49Z</time>
      </trkpt>
      <trkpt lat="45.73355" lon="4.62763">
        <ele>657.68</ele>
        <time>2016-09-04T10:05:54Z</time>
      </trkpt>
      <trkpt lat="45.73339" lon="4.62769">
        <ele>657.68</ele>
        <time>2016-09-04T10:05:59Z</time>
      </trkpt>
      <trkpt lat="45.73333" lon="4.6277">
        <ele>658.16</ele>
        <time>2016-09-04T10:06:04Z</time>
      </trkpt>
      <trkpt lat="45.73332" lon="4.6277">
        <ele>658.16</ele>
        <time>2016-09-04T10:06:09Z</time>
      </trkpt>
      <trkpt lat="45.7333" lon="4.6277">
        <ele>658.16</ele>
        <time>2016-09-04T10:06:14Z</time>
      </trkpt>
      <trkpt lat="45.73327" lon="4.62771">
        <ele>657.68</ele>
        <time>2016-09-04T10:06:19Z</time>
      </trkpt>
      <trkpt lat="45.73318" lon="4.62775">
        <ele>656.72</ele>
        <time>2016-09-04T10:06:24Z</time>
      </trkpt>
      <trkpt lat="45.73301" lon="4.62782">
        <ele>655.28</ele>
        <time>2016-09-04T10:06:29Z</time>
      </trkpt>
      <trkpt lat="45.73279" lon="4.62791">
        <ele>652.39</ele>
        <time>2016-09-04T10:06:34Z</time>
      </trkpt>
      <trkpt lat="45.73263" lon="4.62809">
        <ele>648.55</ele>
        <time>2016-09-04T10:06:39Z</time>
      </trkpt>
      <trkpt lat="45.73249" lon="4.62824">
        <ele>644.7</ele>
        <time>2016-09-04T10:06:44Z</time>
      </trkpt>
      <trkpt lat="45.73238" lon="4.62834">
        <ele>640.38</ele>
        <time>2016-09-04T10:06:49Z</time>
      </trkpt>
      <trkpt lat="45.73226" lon="4.62835">
        <ele>636.53</ele>
        <time>2016-09-04T10:06:54Z</time>
      </trkpt>
      <trkpt lat="45.73221" lon="4.62823">
        <ele>634.61</ele>
        <time>2016-09-04T10:06:59Z</time>
      </trkpt>
      <trkpt lat="45.73218" lon="4.6281">
        <ele>632.68</ele>
        <time>2016-09-04T10:07:04Z</time>
      </trkpt>
      <trkpt lat="45.73215" lon="4.62789">
        <ele>630.76</ele>
        <time>2016-09-04T10:07:09Z</time>
      </trkpt>
      <trkpt lat="45.7321" lon="4.62763">
        <ele>626.92</ele>
        <time>2016-09-04T10:07:14Z</time>
      </trkpt>
      <trkpt lat="45.73205" lon="4.6274">
        <ele>623.07</ele>
        <time>2016-09-04T10:07:19Z</time>
      </trkpt>
      <trkpt lat="45.732" lon="4.62723">
        <ele>619.23</ele>
        <time>2016-09-04T10:07:24Z</time>
      </trkpt>
      <trkpt lat="45.73196" lon="4.62731">
        <ele>618.75</ele>
        <time>2016-09-04T10:07:29Z</time>
      </trkpt>
      <trkpt lat="45.73192" lon="4.62756">
        <ele>616.82</ele>
        <time>2016-09-04T10:07:34Z</time>
      </trkpt>
      <trkpt lat="45.73184" lon="4.62794">
        <ele>614.42</ele>
        <time>2016-09-04T10:07:39Z</time>
      </trkpt>
      <trkpt lat="45.73169" lon="4.62838">
        <ele>610.09</ele>
        <time>2016-09-04T10:07:44Z</time>
      </trkpt>
      <trkpt lat="45.73162" lon="4.62888">
        <ele>606.25</ele>
        <time>2016-09-04T10:07:49Z</time>
      </trkpt>
      <trkpt lat="45.7316" lon="4.62934">
        <ele>602.4</ele>
        <time>2016-09-04T10:07:54Z</time>
      </trkpt>
      <trkpt lat="45.73158" lon="4.62984">
        <ele>600</ele>
        <time>2016-09-04T10:07:59Z</time>
      </trkpt>
      <trkpt lat="45.73158" lon="4.63036">
        <ele>598.56</ele>
        <time>2016-09-04T10:08:04Z</time>
      </trkpt>
      <trkpt lat="45.73157" lon="4.63085">
        <ele>598.08</ele>
        <time>2016-09-04T10:08:09Z</time>
      </trkpt>
      <trkpt lat="45.73159" lon="4.63132">
        <ele>598.08</ele>
        <time>2016-09-04T10:08:14Z</time>
      </trkpt>
      <trkpt lat="45.73158" lon="4.63175">
        <ele>597.12</ele>
        <time>2016-09-04T10:08:19Z</time>
      </trkpt>
      <trkpt lat="45.73151" lon="4.63212">
        <ele>595.67</ele>
        <time>2016-09-04T10:08:24Z</time>
      </trkpt>
      <trkpt lat="45.73147" lon="4.63254">
        <ele>594.23</ele>
        <time>2016-09-04T10:08:29Z</time>
      </trkpt>
      <trkpt lat="45.73145" lon="4.63299">
        <ele>594.23</ele>
        <time>2016-09-04T10:08:34Z</time>
      </trkpt>
      <trkpt lat="45.7314" lon="4.63338">
        <ele>593.27</ele>
        <time>2016-09-04T10:08:39Z</time>
      </trkpt>
      <trkpt lat="45.73137" lon="4.6338">
        <ele>592.31</ele>
        <time>2016-09-04T10:08:44Z</time>
      </trkpt>
      <trkpt lat="45.73129" lon="4.6342">
        <ele>591.35</ele>
        <time>2016-09-04T10:08:49Z</time>
      </trkpt>
      <trkpt lat="45.73122" lon="4.63446">
        <ele>591.35</ele>
        <time>2016-09-04T10:08:54Z</time>
      </trkpt>
      <trkpt lat="45.73116" lon="4.63476">
        <ele>589.91</ele>
        <time>2016-09-04T10:08:59Z</time>
      </trkpt>
      <trkpt lat="45.73115" lon="4.63522">
        <ele>587.02</ele>
        <time>2016-09-04T10:09:04Z</time>
      </trkpt>
      <trkpt lat="45.73104" lon="4.63581">
        <ele>583.66</ele>
        <time>2016-09-04T10:09:09Z</time>
      </trkpt>
      <trkpt lat="45.73093" lon="4.63641">
        <ele>580.77</ele>
        <time>2016-09-04T10:09:14Z</time>
      </trkpt>
      <trkpt lat="45.73095" lon="4.637">
        <ele>579.81</ele>
        <time>2016-09-04T10:09:19Z</time>
      </trkpt>
      <trkpt lat="45.73099" lon="4.63757">
        <ele>577.89</ele>
        <time>2016-09-04T10:09:24Z</time>
      </trkpt>
      <trkpt lat="45.73102" lon="4.63814">
        <ele>575.01</ele>
        <time>2016-09-04T10:09:29Z</time>
      </trkpt>
      <trkpt lat="45.73097" lon="4.63864">
        <ele>572.12</ele>
        <time>2016-09-04T10:09:34Z</time>
      </trkpt>
      <trkpt lat="45.7308" lon="4.63919">
        <ele>569.24</ele>
        <time>2016-09-04T10:09:39Z</time>
      </trkpt>
      <trkpt lat="45.73062" lon="4.63975">
        <ele>566.35</ele>
        <time>2016-09-04T10:09:44Z</time>
      </trkpt>
      <trkpt lat="45.73052" lon="4.64018">
        <ele>562.99</ele>
        <time>2016-09-04T10:09:49Z</time>
      </trkpt>
      <trkpt lat="45.73044" lon="4.64052">
        <ele>559.62</ele>
        <time>2016-09-04T10:09:54Z</time>
      </trkpt>
      <trkpt lat="45.73039" lon="4.64081">
        <ele>557.22</ele>
        <time>2016-09-04T10:09:59Z</time>
      </trkpt>
      <trkpt lat="45.73025" lon="4.64116">
        <ele>553.38</ele>
        <time>2016-09-04T10:10:04Z</time>
      </trkpt>
      <trkpt lat="45.73014" lon="4.64157">
        <ele>548.57</ele>
        <time>2016-09-04T10:10:09Z</time>
      </trkpt>
      <trkpt lat="45.73007" lon="4.64188">
        <ele>545.2</ele>
        <time>2016-09-04T10:10:14Z</time>
      </trkpt>
      <trkpt lat="45.73003" lon="4.64211">
        <ele>542.8</ele>
        <time>2016-09-04T10:10:19Z</time>
      </trkpt>
      <trkpt lat="45.73002" lon="4.64238">
        <ele>539.92</ele>
        <time>2016-09-04T10:10:24Z</time>
      </trkpt>
      <trkpt lat="45.73008" lon="4.64266">
        <ele>536.07</ele>
        <time>2016-09-04T10:10:29Z</time>
      </trkpt>
      <trkpt lat="45.73018" lon="4.64301">
        <ele>532.23</ele>
        <time>2016-09-04T10:10:34Z</time>
      </trkpt>
      <trkpt lat="45.73036" lon="4.64336">
        <ele>530.3</ele>
        <time>2016-09-04T10:10:39Z</time>
      </trkpt>
      <trkpt lat="45.7305" lon="4.64376">
        <ele>526.46</ele>
        <time>2016-09-04T10:10:44Z</time>
      </trkpt>
      <trkpt lat="45.73059" lon="4.64411">
        <ele>521.17</ele>
        <time>2016-09-04T10:10:49Z</time>
      </trkpt>
      <trkpt lat="45.73066" lon="4.64427">
        <ele>517.81</ele>
        <time>2016-09-04T10:10:54Z</time>
      </trkpt>
      <trkpt lat="45.73067" lon="4.64427">
        <ele>517.33</ele>
        <time>2016-09-04T10:10:59Z</time>
      </trkpt>
      <trkpt lat="45.73067" lon="4.64427">
        <ele>517.81</ele>
        <time>2016-09-04T10:11:04Z</time>
      </trkpt>
      <trkpt lat="45.73067" lon="4.64428">
        <ele>517.81</ele>
        <time>2016-09-04T10:11:09Z</time>
      </trkpt>
      <trkpt lat="45.73067" lon="4.64428">
        <ele>518.29</ele>
        <time>2016-09-04T10:11:14Z</time>
      </trkpt>
      <trkpt lat="45.73067" lon="4.64428">
        <ele>518.29</ele>
        <time>2016-09-04T10:11:19Z</time>
      </trkpt>
      <trkpt lat="45.73067" lon="4.64439">
        <ele>517.81</ele>
        <time>2016-09-04T10:11:24Z</time>
      </trkpt>
      <trkpt lat="45.73067" lon="4.64463">
        <ele>514.92</ele>
        <time>2016-09-04T10:11:29Z</time>
      </trkpt>
      <trkpt lat="45.73067" lon="4.6448">
        <ele>512.52</ele>
        <time>2016-09-04T10:11:34Z</time>
      </trkpt>
      <trkpt lat="45.73065" lon="4.64489">
        <ele>511.08</ele>
        <time>2016-09-04T10:11:39Z</time>
      </trkpt>
      <trkpt lat="45.7307" lon="4.64512">
        <ele>508.67</ele>
        <time>2016-09-04T10:11:44Z</time>
      </trkpt>
      <trkpt lat="45.73072" lon="4.64534">
        <ele>503.87</ele>
        <time>2016-09-04T10:11:49Z</time>
      </trkpt>
      <trkpt lat="45.73081" lon="4.64555">
        <ele>500.02</ele>
        <time>2016-09-04T10:11:54Z</time>
      </trkpt>
      <trkpt lat="45.7309" lon="4.64567">
        <ele>496.18</ele>
        <time>2016-09-04T10:11:59Z</time>
      </trkpt>
      <trkpt lat="45.7308" lon="4.64579">
        <ele>492.33</ele>
        <time>2016-09-04T10:12:04Z</time>
      </trkpt>
      <trkpt lat="45.73082" lon="4.64606">
        <ele>485.6</ele>
        <time>2016-09-04T10:12:09Z</time>
      </trkpt>
      <trkpt lat="45.73092" lon="4.64627">
        <ele>480.32</ele>
        <time>2016-09-04T10:12:14Z</time>
      </trkpt>
      <trkpt lat="45.73081" lon="4.64646">
        <ele>475.51</ele>
        <time>2016-09-04T10:12:19Z</time>
      </trkpt>
      <trkpt lat="45.73052" lon="4.64659">
        <ele>473.11</ele>
        <time>2016-09-04T10:12:24Z</time>
      </trkpt>
      <trkpt lat="45.73027" lon="4.64671">
        <ele>471.18</ele>
        <time>2016-09-04T10:12:29Z</time>
      </trkpt>
      <trkpt lat="45.73003" lon="4.64699">
        <ele>466.86</ele>
        <time>2016-09-04T10:12:34Z</time>
      </trkpt>
      <trkpt lat="45.72984" lon="4.64718">
        <ele>463.97</ele>
        <time>2016-09-04T10:12:39Z</time>
      </trkpt>
      <trkpt lat="45.72984" lon="4.64758">
        <ele>459.17</ele>
        <time>2016-09-04T10:12:44Z</time>
      </trkpt>
      <trkpt lat="45.72957" lon="4.6478">
        <ele>452.44</ele>
        <time>2016-09-04T10:12:49Z</time>
      </trkpt>
      <trkpt lat="45.72924" lon="4.64798">
        <ele>448.11</ele>
        <time>2016-09-04T10:12:54Z</time>
      </trkpt>
      <trkpt lat="45.72913" lon="4.64824">
        <ele>445.71</ele>
        <time>2016-09-04T10:12:59Z</time>
      </trkpt>
      <trkpt lat="45.72899" lon="4.6485">
        <ele>443.31</ele>
        <time>2016-09-04T10:13:04Z</time>
      </trkpt>
      <trkpt lat="45.72879" lon="4.64889">
        <ele>440.9</ele>
        <time>2016-09-04T10:13:09Z</time>
      </trkpt>
      <trkpt lat="45.72864" lon="4.64931">
        <ele>438.5</ele>
        <time>2016-09-04T10:13:14Z</time>
      </trkpt>
      <trkpt lat="45.72853" lon="4.6495">
        <ele>438.02</ele>
        <time>2016-09-04T10:13:19Z</time>
      </trkpt>
      <trkpt lat="45.72852" lon="4.64951">
        <ele>438.5</ele>
        <time>2016-09-04T10:13:24Z</time>
      </trkpt>
      <trkpt lat="45.72851" lon="4.64953">
        <ele>438.02</ele>
        <time>2016-09-04T10:13:29Z</time>
      </trkpt>
      <trkpt lat="45.72851" lon="4.64954">
        <ele>437.54</ele>
        <time>2016-09-04T10:13:34Z</time>
      </trkpt>
      <trkpt lat="45.72851" lon="4.64954">
        <ele>437.54</ele>
        <time>2016-09-04T10:13:39Z</time>
      </trkpt>
      <trkpt lat="45.72851" lon="4.64954">
        <ele>438.5</ele>
        <time>2016-09-04T10:13:44Z</time>
      </trkpt>
      <trkpt lat="45.72851" lon="4.64954">
        <ele>438.98</ele>
        <time>2016-09-04T10:13:49Z</time>
      </trkpt>
      <trkpt lat="45.72851" lon="4.64955">
        <ele>439.94</ele>
        <time>2016-09-04T10:13:54Z</time>
      </trkpt>
      <trkpt lat="45.72852" lon="4.64955">
        <ele>439.94</ele>
        <time>2016-09-04T10:13:59Z</time>
      </trkpt>
      <trkpt lat="45.72852" lon="4.64955">
        <ele>439.94</ele>
        <time>2016-09-04T10:14:04Z</time>
      </trkpt>
      <trkpt lat="45.72852" lon="4.64955">
        <ele>439.94</ele>
        <time>2016-09-04T10:14:09Z</time>
      </trkpt>
      <trkpt lat="45.72852" lon="4.64955">
        <ele>440.9</ele>
        <time>2016-09-04T10:14:14Z</time>
      </trkpt>
      <trkpt lat="45.72852" lon="4.64955">
        <ele>441.38</ele>
        <time>2016-09-04T10:14:19Z</time>
      </trkpt>
      <trkpt lat="45.72853" lon="4.64954">
        <ele>441.86</ele>
        <time>2016-09-04T10:14:24Z</time>
      </trkpt>
      <trkpt lat="45.72853" lon="4.64954">
        <ele>442.82</ele>
        <time>2016-09-04T10:14:29Z</time>
      </trkpt>
      <trkpt lat="45.72853" lon="4.64953">
        <ele>442.82</ele>
        <time>2016-09-04T10:14:34Z</time>
      </trkpt>
      <trkpt lat="45.72853" lon="4.64953">
        <ele>443.31</ele>
        <time>2016-09-04T10:14:39Z</time>
      </trkpt>
      <trkpt lat="45.72853" lon="4.64953">
        <ele>443.31</ele>
        <time>2016-09-04T10:14:44Z</time>
      </trkpt>
      <trkpt lat="45.72853" lon="4.64953">
        <ele>443.31</ele>
        <time>2016-09-04T10:14:49Z</time>
      </trkpt>
      <trkpt lat="45.72854" lon="4.64953">
        <ele>443.79</ele>
        <time>2016-09-04T10:14:54Z</time>
      </trkpt>
      <trkpt lat="45.72854" lon="4.64953">
        <ele>443.79</ele>
        <time>2016-09-04T10:14:59Z</time>
      </trkpt>
      <trkpt lat="45.72854" lon="4.64953">
        <ele>443.79</ele>
        <time>2016-09-04T10:15:04Z</time>
      </trkpt>
      <trkpt lat="45.72854" lon="4.64953">
        <ele>443.79</ele>
        <time>2016-09-04T10:15:09Z</time>
      </trkpt>
      <trkpt lat="45.72854" lon="4.64953">
        <ele>443.31</ele>
        <time>2016-09-04T10:15:14Z</time>
      </trkpt>
      <trkpt lat="45.72854" lon="4.64953">
        <ele>443.31</ele>
        <time>2016-09-04T10:15:19Z</time>
      </trkpt>
      <trkpt lat="45.72854" lon="4.64953">
        <ele>443.31</ele>
        <time>2016-09-04T10:15:24Z</time>
      </trkpt>
      <trkpt lat="45.72855" lon="4.64953">
        <ele>443.31</ele>
        <time>2016-09-04T10:15:29Z</time>
      </trkpt>
      <trkpt lat="45.72855" lon="4.64953">
        <ele>443.31</ele>
        <time>2016-09-04T10:15:34Z</time>
      </trkpt>
      <trkpt lat="45.72855" lon="4.64953">
        <ele>443.31</ele>
        <time>2016-09-04T10:15:39Z</time>
      </trkpt>
      <trkpt lat="45.72855" lon="4.64953">
        <ele>443.31</ele>
        <time>2016-09-04T10:15:44Z</time>
      </trkpt>
      <trkpt lat="45.72855" lon="4.64953">
        <ele>443.79</ele>
        <time>2016-09-04T10:15:49Z</time>
      </trkpt>
      <trkpt lat="45.72855" lon="4.64953">
        <ele>444.27</ele>
        <time>2016-09-04T10:15:54Z</time>
      </trkpt>
      <trkpt lat="45.72854" lon="4.64954">
        <ele>444.27</ele>
        <time>2016-09-04T10:15:59Z</time>
      </trkpt>
      <trkpt lat="45.72854" lon="4.64954">
        <ele>444.27</ele>
        <time>2016-09-04T10:16:04Z</time>
      </trkpt>
      <trkpt lat="45.72853" lon="4.64954">
        <ele>443.31</ele>
        <time>2016-09-04T10:16:09Z</time>
      </trkpt>
      <trkpt lat="45.72853" lon="4.64954">
        <ele>442.82</ele>
        <time>2016-09-04T10:16:14Z</time>
      </trkpt>
      <trkpt lat="45.72852" lon="4.64954">
        <ele>442.34</ele>
        <time>2016-09-04T10:16:19Z</time>
      </trkpt>
      <trkpt lat="45.72852" lon="4.64954">
        <ele>441.86</ele>
        <time>2016-09-04T10:16:24Z</time>
      </trkpt>
      <trkpt lat="45.72852" lon="4.64954">
        <ele>441.38</ele>
        <time>2016-09-04T10:16:29Z</time>
      </trkpt>
      <trkpt lat="45.72851" lon="4.64954">
        <ele>441.38</ele>
        <time>2016-09-04T10:16:34Z</time>
      </trkpt>
      <trkpt lat="45.72852" lon="4.64954">
        <ele>440.42</ele>
        <time>2016-09-04T10:16:39Z</time>
      </trkpt>
      <trkpt lat="45.72852" lon="4.64954">
        <ele>440.42</ele>
        <time>2016-09-04T10:16:44Z</time>
      </trkpt>
      <trkpt lat="45.72852" lon="4.64954">
        <ele>439.94</ele>
        <time>2016-09-04T10:16:49Z</time>
      </trkpt>
      <trkpt lat="45.72852" lon="4.64953">
        <ele>439.94</ele>
        <time>2016-09-04T10:16:54Z</time>
      </trkpt>
      <trkpt lat="45.72852" lon="4.64953">
        <ele>439.46</ele>
        <time>2016-09-04T10:16:59Z</time>
      </trkpt>
      <trkpt lat="45.72852" lon="4.64954">
        <ele>439.46</ele>
        <time>2016-09-04T10:17:04Z</time>
      </trkpt>
      <trkpt lat="45.72852" lon="4.64953">
        <ele>439.46</ele>
        <time>2016-09-04T10:17:09Z</time>
      </trkpt>
      <trkpt lat="45.72852" lon="4.64954">
        <ele>439.46</ele>
        <time>2016-09-04T10:17:14Z</time>
      </trkpt>
      <trkpt lat="45.72852" lon="4.64954">
        <ele>439.46</ele>
        <time>2016-09-04T10:17:19Z</time>
      </trkpt>
      <trkpt lat="45.72852" lon="4.64954">
        <ele>438.98</ele>
        <time>2016-09-04T10:17:24Z</time>
      </trkpt>
      <trkpt lat="45.72852" lon="4.64954">
        <ele>438.98</ele>
        <time>2016-09-04T10:17:29Z</time>
      </trkpt>
      <trkpt lat="45.72852" lon="4.64953">
        <ele>438.98</ele>
        <time>2016-09-04T10:17:34Z</time>
      </trkpt>
      <trkpt lat="45.72851" lon="4.64953">
        <ele>438.98</ele>
        <time>2016-09-04T10:17:39Z</time>
      </trkpt>
      <trkpt lat="45.72851" lon="4.64953">
        <ele>438.98</ele>
        <time>2016-09-04T10:17:44Z</time>
      </trkpt>
      <trkpt lat="45.72851" lon="4.64954">
        <ele>438.98</ele>
        <time>2016-09-04T10:17:49Z</time>
      </trkpt>
      <trkpt lat="45.72851" lon="4.64954">
        <ele>438.98</ele>
        <time>2016-09-04T10:17:54Z</time>
      </trkpt>
      <trkpt lat="45.72851" lon="4.64954">
        <ele>438.98</ele>
        <time>2016-09-04T10:17:59Z</time>
      </trkpt>
      <trkpt lat="45.72851" lon="4.64956">
        <ele>438.5</ele>
        <time>2016-09-04T10:18:04Z</time>
      </trkpt>
      <trkpt lat="45.72847" lon="4.6497">
        <ele>438.5</ele>
        <time>2016-09-04T10:18:09Z</time>
      </trkpt>
      <trkpt lat="45.72841" lon="4.64991">
        <ele>438.98</ele>
        <time>2016-09-04T10:18:14Z</time>
      </trkpt>
      <trkpt lat="45.72839" lon="4.6502">
        <ele>438.98</ele>
        <time>2016-09-04T10:18:19Z</time>
      </trkpt>
      <trkpt lat="45.72845" lon="4.65054">
        <ele>438.02</ele>
        <time>2016-09-04T10:18:24Z</time>
      </trkpt>
      <trkpt lat="45.72847" lon="4.65093">
        <ele>436.1</ele>
        <time>2016-09-04T10:18:29Z</time>
      </trkpt>
      <trkpt lat="45.72849" lon="4.65138">
        <ele>433.21</ele>
        <time>2016-09-04T10:18:34Z</time>
      </trkpt>
      <trkpt lat="45.7285" lon="4.65176">
        <ele>428.89</ele>
        <time>2016-09-04T10:18:39Z</time>
      </trkpt>
      <trkpt lat="45.72848" lon="4.65207">
        <ele>425.52</ele>
        <time>2016-09-04T10:18:44Z</time>
      </trkpt>
      <trkpt lat="45.72844" lon="4.65249">
        <ele>421.68</ele>
        <time>2016-09-04T10:18:49Z</time>
      </trkpt>
      <trkpt lat="45.72843" lon="4.65276">
        <ele>418.79</ele>
        <time>2016-09-04T10:18:54Z</time>
      </trkpt>
      <trkpt lat="45.72844" lon="4.65312">
        <ele>414.47</ele>
        <time>2016-09-04T10:18:59Z</time>
      </trkpt>
      <trkpt lat="45.72846" lon="4.6534">
        <ele>411.1</ele>
        <time>2016-09-04T10:19:04Z</time>
      </trkpt>
      <trkpt lat="45.72845" lon="4.65366">
        <ele>408.22</ele>
        <time>2016-09-04T10:19:09Z</time>
      </trkpt>
      <trkpt lat="45.72849" lon="4.65406">
        <ele>403.41</ele>
        <time>2016-09-04T10:19:14Z</time>
      </trkpt>
      <trkpt lat="45.72849" lon="4.6547">
        <ele>396.2</ele>
        <time>2016-09-04T10:19:19Z</time>
      </trkpt>
      <trkpt lat="45.72848" lon="4.65519">
        <ele>390.91</ele>
        <time>2016-09-04T10:19:24Z</time>
      </trkpt>
      <trkpt lat="45.72847" lon="4.65564">
        <ele>387.07</ele>
        <time>2016-09-04T10:19:29Z</time>
      </trkpt>
      <trkpt lat="45.72838" lon="4.65612">
        <ele>381.3</ele>
        <time>2016-09-04T10:19:34Z</time>
      </trkpt>
      <trkpt lat="45.7283" lon="4.65645">
        <ele>377.45</ele>
        <time>2016-09-04T10:19:39Z</time>
      </trkpt>
      <trkpt lat="45.72826" lon="4.65656">
        <ele>375.53</ele>
        <time>2016-09-04T10:19:44Z</time>
      </trkpt>
      <trkpt lat="45.72833" lon="4.65669">
        <ele>375.05</ele>
        <time>2016-09-04T10:19:49Z</time>
      </trkpt>
      <trkpt lat="45.72853" lon="4.65682">
        <ele>374.57</ele>
        <time>2016-09-04T10:19:54Z</time>
      </trkpt>
      <trkpt lat="45.72869" lon="4.65698">
        <ele>373.61</ele>
        <time>2016-09-04T10:19:59Z</time>
      </trkpt>
      <trkpt lat="45.72865" lon="4.65728">
        <ele>370.73</ele>
        <time>2016-09-04T10:20:04Z</time>
      </trkpt>
      <trkpt lat="45.7288" lon="4.65759">
        <ele>368.8</ele>
        <time>2016-09-04T10:20:09Z</time>
      </trkpt>
      <trkpt lat="45.72902" lon="4.65798">
        <ele>365.92</ele>
        <time>2016-09-04T10:20:14Z</time>
      </trkpt>
      <trkpt lat="45.72926" lon="4.65846">
        <ele>362.07</ele>
        <time>2016-09-04T10:20:19Z</time>
      </trkpt>
      <trkpt lat="45.72954" lon="4.65896">
        <ele>357.75</ele>
        <time>2016-09-04T10:20:24Z</time>
      </trkpt>
      <trkpt lat="45.72973" lon="4.6593">
        <ele>353.42</ele>
        <time>2016-09-04T10:20:29Z</time>
      </trkpt>
      <trkpt lat="45.72984" lon="4.65945">
        <ele>350.54</ele>
        <time>2016-09-04T10:20:34Z</time>
      </trkpt>
      <trkpt lat="45.7301" lon="4.65962">
        <ele>345.73</ele>
        <time>2016-09-04T10:20:39Z</time>
      </trkpt>
      <trkpt lat="45.73034" lon="4.65992">
        <ele>341.41</ele>
        <time>2016-09-04T10:20:44Z</time>
      </trkpt>
      <trkpt lat="45.73038" lon="4.66014">
        <ele>341.89</ele>
        <time>2016-09-04T10:20:49Z</time>
      </trkpt>
      <trkpt lat="45.73039" lon="4.66025">
        <ele>342.37</ele>
        <time>2016-09-04T10:20:54Z</time>
      </trkpt>
      <trkpt lat="45.73037" lon="4.66039">
        <ele>343.81</ele>
        <time>2016-09-04T10:20:59Z</time>
      </trkpt>
      <trkpt lat="45.73031" lon="4.66055">
        <ele>344.77</ele>
        <time>2016-09-04T10:21:04Z</time>
      </trkpt>
      <trkpt lat="45.73025" lon="4.66074">
        <ele>345.73</ele>
        <time>2016-09-04T10:21:09Z</time>
      </trkpt>
      <trkpt lat="45.73018" lon="4.66096">
        <ele>346.21</ele>
        <time>2016-09-04T10:21:14Z</time>
      </trkpt>
      <trkpt lat="45.73011" lon="4.66117">
        <ele>346.69</ele>
        <time>2016-09-04T10:21:19Z</time>
      </trkpt>
      <trkpt lat="45.73005" lon="4.66137">
        <ele>347.17</ele>
        <time>2016-09-04T10:21:24Z</time>
      </trkpt>
      <trkpt lat="45.73002" lon="4.66155">
        <ele>348.13</ele>
        <time>2016-09-04T10:21:29Z</time>
      </trkpt>
      <trkpt lat="45.73" lon="4.6617">
        <ele>349.1</ele>
        <time>2016-09-04T10:21:34Z</time>
      </trkpt>
      <trkpt lat="45.72996" lon="4.66184">
        <ele>350.06</ele>
        <time>2016-09-04T10:21:39Z</time>
      </trkpt>
      <trkpt lat="45.72995" lon="4.66197">
        <ele>351.5</ele>
        <time>2016-09-04T10:21:44Z</time>
      </trkpt>
      <trkpt lat="45.72995" lon="4.66206">
        <ele>352.46</ele>
        <time>2016-09-04T10:21:49Z</time>
      </trkpt>
      <trkpt lat="45.72994" lon="4.66215">
        <ele>354.38</ele>
        <time>2016-09-04T10:21:54Z</time>
      </trkpt>
      <trkpt lat="45.72994" lon="4.66223">
        <ele>355.34</ele>
        <time>2016-09-04T10:21:59Z</time>
      </trkpt>
      <trkpt lat="45.72994" lon="4.66232">
        <ele>356.79</ele>
        <time>2016-09-04T10:22:04Z</time>
      </trkpt>
      <trkpt lat="45.72994" lon="4.66242">
        <ele>357.75</ele>
        <time>2016-09-04T10:22:09Z</time>
      </trkpt>
      <trkpt lat="45.72994" lon="4.66247">
        <ele>358.71</ele>
        <time>2016-09-04T10:22:14Z</time>
      </trkpt>
      <trkpt lat="45.72994" lon="4.66253">
        <ele>359.19</ele>
        <time>2016-09-04T10:22:19Z</time>
      </trkpt>
      <trkpt lat="45.72993" lon="4.66256">
        <ele>358.71</ele>
        <time>2016-09-04T10:22:24Z</time>
      </trkpt>
      <trkpt lat="45.72993" lon="4.66261">
        <ele>358.71</ele>
        <time>2016-09-04T10:22:29Z</time>
      </trkpt>
      <trkpt lat="45.72993" lon="4.66266">
        <ele>358.71</ele>
        <time>2016-09-04T10:22:34Z</time>
      </trkpt>
      <trkpt lat="45.72994" lon="4.66272">
        <ele>359.19</ele>
        <time>2016-09-04T10:22:39Z</time>
      </trkpt>
      <trkpt lat="45.72994" lon="4.66279">
        <ele>359.67</ele>
        <time>2016-09-04T10:22:44Z</time>
      </trkpt>
      <trkpt lat="45.72994" lon="4.66284">
        <ele>360.63</ele>
        <time>2016-09-04T10:22:49Z</time>
      </trkpt>
      <trkpt lat="45.72995" lon="4.6629">
        <ele>361.11</ele>
        <time>2016-09-04T10:22:54Z</time>
      </trkpt>
      <trkpt lat="45.72992" lon="4.66295">
        <ele>361.11</ele>
        <time>2016-09-04T10:22:59Z</time>
      </trkpt>
      <trkpt lat="45.7299" lon="4.66301">
        <ele>362.07</ele>
        <time>2016-09-04T10:23:04Z</time>
      </trkpt>
      <trkpt lat="45.72989" lon="4.66307">
        <ele>363.04</ele>
        <time>2016-09-04T10:23:09Z</time>
      </trkpt>
      <trkpt lat="45.72991" lon="4.66314">
        <ele>363.52</ele>
        <time>2016-09-04T10:23:14Z</time>
      </trkpt>
      <trkpt lat="45.72995" lon="4.66316">
        <ele>364.48</ele>
        <time>2016-09-04T10:23:19Z</time>
      </trkpt>
      <trkpt lat="45.72998" lon="4.6632">
        <ele>364.96</ele>
        <time>2016-09-04T10:23:24Z</time>
      </trkpt>
      <trkpt lat="45.73001" lon="4.66326">
        <ele>364.96</ele>
        <time>2016-09-04T10:23:29Z</time>
      </trkpt>
      <trkpt lat="45.73003" lon="4.66333">
        <ele>365.44</ele>
        <time>2016-09-04T10:23:34Z</time>
      </trkpt>
      <trkpt lat="45.73002" lon="4.6634">
        <ele>365.44</ele>
        <time>2016-09-04T10:23:39Z</time>
      </trkpt>
      <trkpt lat="45.73001" lon="4.66347">
        <ele>364.96</ele>
        <time>2016-09-04T10:23:44Z</time>
      </trkpt>
      <trkpt lat="45.73" lon="4.66355">
        <ele>364.96</ele>
        <time>2016-09-04T10:23:49Z</time>
      </trkpt>
      <trkpt lat="45.73" lon="4.66365">
        <ele>364.48</ele>
        <time>2016-09-04T10:23:54Z</time>
      </trkpt>
      <trkpt lat="45.73002" lon="4.66376">
        <ele>365.44</ele>
        <time>2016-09-04T10:23:59Z</time>
      </trkpt>
      <trkpt lat="45.73004" lon="4.66394">
        <ele>365.44</ele>
        <time>2016-09-04T10:24:04Z</time>
      </trkpt>
      <trkpt lat="45.73007" lon="4.66416">
        <ele>364.96</ele>
        <time>2016-09-04T10:24:09Z</time>
      </trkpt>
      <trkpt lat="45.7301" lon="4.66443">
        <ele>364.48</ele>
        <time>2016-09-04T10:24:14Z</time>
      </trkpt>
      <trkpt lat="45.73014" lon="4.66472">
        <ele>364.48</ele>
        <time>2016-09-04T10:24:19Z</time>
      </trkpt>
      <trkpt lat="45.73018" lon="4.66504">
        <ele>364.96</ele>
        <time>2016-09-04T10:24:24Z</time>
      </trkpt>
      <trkpt lat="45.73023" lon="4.66538">
        <ele>364.96</ele>
        <time>2016-09-04T10:24:29Z</time>
      </trkpt>
      <trkpt lat="45.73027" lon="4.66571">
        <ele>364.96</ele>
        <time>2016-09-04T10:24:34Z</time>
      </trkpt>
      <trkpt lat="45.73031" lon="4.66602">
        <ele>365.44</ele>
        <time>2016-09-04T10:24:39Z</time>
      </trkpt>
      <trkpt lat="45.73036" lon="4.66635">
        <ele>366.4</ele>
        <time>2016-09-04T10:24:44Z</time>
      </trkpt>
      <trkpt lat="45.73045" lon="4.66668">
        <ele>366.4</ele>
        <time>2016-09-04T10:24:49Z</time>
      </trkpt>
      <trkpt lat="45.73059" lon="4.667">
        <ele>365.92</ele>
        <time>2016-09-04T10:24:54Z</time>
      </trkpt>
      <trkpt lat="45.73077" lon="4.66732">
        <ele>365.44</ele>
        <time>2016-09-04T10:24:59Z</time>
      </trkpt>
      <trkpt lat="45.73098" lon="4.66771">
        <ele>364.96</ele>
        <time>2016-09-04T10:25:04Z</time>
      </trkpt>
      <trkpt lat="45.73118" lon="4.66811">
        <ele>364</ele>
        <time>2016-09-04T10:25:09Z</time>
      </trkpt>
      <trkpt lat="45.73139" lon="4.66853">
        <ele>363.52</ele>
        <time>2016-09-04T10:25:14Z</time>
      </trkpt>
      <trkpt lat="45.73158" lon="4.66894">
        <ele>363.52</ele>
        <time>2016-09-04T10:25:19Z</time>
      </trkpt>
      <trkpt lat="45.73176" lon="4.6693">
        <ele>364.48</ele>
        <time>2016-09-04T10:25:24Z</time>
      </trkpt>
      <trkpt lat="45.73171" lon="4.66956">
        <ele>364.48</ele>
        <time>2016-09-04T10:25:29Z</time>
      </trkpt>
      <trkpt lat="45.73147" lon="4.66971">
        <ele>363.52</ele>
        <time>2016-09-04T10:25:34Z</time>
      </trkpt>
      <trkpt lat="45.7312" lon="4.66993">
        <ele>361.11</ele>
        <time>2016-09-04T10:25:39Z</time>
      </trkpt>
      <trkpt lat="45.73085" lon="4.67022">
        <ele>357.75</ele>
        <time>2016-09-04T10:25:44Z</time>
      </trkpt>
      <trkpt lat="45.73044" lon="4.67059">
        <ele>352.94</ele>
        <time>2016-09-04T10:25:49Z</time>
      </trkpt>
      <trkpt lat="45.73001" lon="4.67103">
        <ele>348.62</ele>
        <time>2016-09-04T10:25:54Z</time>
      </trkpt>
      <trkpt lat="45.72968" lon="4.67161">
        <ele>345.73</ele>
        <time>2016-09-04T10:25:59Z</time>
      </trkpt>
      <trkpt lat="45.72944" lon="4.67224">
        <ele>342.85</ele>
        <time>2016-09-04T10:26:04Z</time>
      </trkpt>
      <trkpt lat="45.72922" lon="4.67289">
        <ele>339.48</ele>
        <time>2016-09-04T10:26:09Z</time>
      </trkpt>
      <trkpt lat="45.72896" lon="4.67351">
        <ele>337.08</ele>
        <time>2016-09-04T10:26:14Z</time>
      </trkpt>
      <trkpt lat="45.72864" lon="4.67404">
        <ele>334.68</ele>
        <time>2016-09-04T10:26:19Z</time>
      </trkpt>
      <trkpt lat="45.72836" lon="4.67437">
        <ele>333.23</ele>
        <time>2016-09-04T10:26:24Z</time>
      </trkpt>
      <trkpt lat="45.7282" lon="4.67456">
        <ele>332.27</ele>
        <time>2016-09-04T10:26:29Z</time>
      </trkpt>
      <trkpt lat="45.7281" lon="4.67467">
        <ele>330.83</ele>
        <time>2016-09-04T10:26:34Z</time>
      </trkpt>
      <trkpt lat="45.72796" lon="4.67468">
        <ele>331.79</ele>
        <time>2016-09-04T10:26:39Z</time>
      </trkpt>
      <trkpt lat="45.72778" lon="4.67476">
        <ele>331.31</ele>
        <time>2016-09-04T10:26:44Z</time>
      </trkpt>
      <trkpt lat="45.72761" lon="4.67489">
        <ele>330.35</ele>
        <time>2016-09-04T10:26:49Z</time>
      </trkpt>
      <trkpt lat="45.72743" lon="4.67515">
        <ele>329.39</ele>
        <time>2016-09-04T10:26:54Z</time>
      </trkpt>
      <trkpt lat="45.72736" lon="4.67536">
        <ele>327.95</ele>
        <time>2016-09-04T10:26:59Z</time>
      </trkpt>
      <trkpt lat="45.7273" lon="4.67549">
        <ele>326.99</ele>
        <time>2016-09-04T10:27:04Z</time>
      </trkpt>
      <trkpt lat="45.72715" lon="4.6756">
        <ele>326.02</ele>
        <time>2016-09-04T10:27:09Z</time>
      </trkpt>
      <trkpt lat="45.72688" lon="4.67566">
        <ele>322.18</ele>
        <time>2016-09-04T10:27:14Z</time>
      </trkpt>
      <trkpt lat="45.72654" lon="4.67578">
        <ele>316.89</ele>
        <time>2016-09-04T10:27:19Z</time>
      </trkpt>
      <trkpt lat="45.72624" lon="4.67589">
        <ele>313.05</ele>
        <time>2016-09-04T10:27:24Z</time>
      </trkpt>
      <trkpt lat="45.72589" lon="4.67601">
        <ele>309.2</ele>
        <time>2016-09-04T10:27:29Z</time>
      </trkpt>
      <trkpt lat="45.72559" lon="4.67628">
        <ele>306.32</ele>
        <time>2016-09-04T10:27:34Z</time>
      </trkpt>
      <trkpt lat="45.72541" lon="4.67662">
        <ele>301.51</ele>
        <time>2016-09-04T10:27:39Z</time>
      </trkpt>
      <trkpt lat="45.72532" lon="4.67697">
        <ele>298.63</ele>
        <time>2016-09-04T10:27:44Z</time>
      </trkpt>
      <trkpt lat="45.72524" lon="4.67732">
        <ele>296.22</ele>
        <time>2016-09-04T10:27:49Z</time>
      </trkpt>
      <trkpt lat="45.72511" lon="4.67768">
        <ele>293.82</ele>
        <time>2016-09-04T10:27:54Z</time>
      </trkpt>
      <trkpt lat="45.72495" lon="4.678">
        <ele>291.9</ele>
        <time>2016-09-04T10:27:59Z</time>
      </trkpt>
      <trkpt lat="45.72489" lon="4.67832">
        <ele>290.46</ele>
        <time>2016-09-04T10:28:04Z</time>
      </trkpt>
      <trkpt lat="45.72502" lon="4.67866">
        <ele>290.46</ele>
        <time>2016-09-04T10:28:09Z</time>
      </trkpt>
      <trkpt lat="45.72509" lon="4.67905">
        <ele>290.46</ele>
        <time>2016-09-04T10:28:14Z</time>
      </trkpt>
      <trkpt lat="45.72514" lon="4.6792">
        <ele>290.94</ele>
        <time>2016-09-04T10:28:19Z</time>
      </trkpt>
      <trkpt lat="45.72517" lon="4.67928">
        <ele>293.82</ele>
        <time>2016-09-04T10:28:24Z</time>
      </trkpt>
      <trkpt lat="45.72524" lon="4.67949">
        <ele>295.74</ele>
        <time>2016-09-04T10:28:29Z</time>
      </trkpt>
      <trkpt lat="45.72528" lon="4.67975">
        <ele>295.74</ele>
        <time>2016-09-04T10:28:34Z</time>
      </trkpt>
      <trkpt lat="45.72532" lon="4.67995">
        <ele>296.22</ele>
        <time>2016-09-04T10:28:39Z</time>
      </trkpt>
      <trkpt lat="45.72535" lon="4.68018">
        <ele>295.26</ele>
        <time>2016-09-04T10:28:44Z</time>
      </trkpt>
      <trkpt lat="45.7254" lon="4.68039">
        <ele>293.82</ele>
        <time>2016-09-04T10:28:49Z</time>
      </trkpt>
      <trkpt lat="45.72543" lon="4.68062">
        <ele>291.9</ele>
        <time>2016-09-04T10:28:54Z</time>
      </trkpt>
      <trkpt lat="45.72548" lon="4.68081">
        <ele>289.49</ele>
        <time>2016-09-04T10:28:59Z</time>
      </trkpt>
      <trkpt lat="45.72547" lon="4.68092">
        <ele>287.09</ele>
        <time>2016-09-04T10:29:04Z</time>
      </trkpt>
      <trkpt lat="45.72549" lon="4.68104">
        <ele>285.65</ele>
        <time>2016-09-04T10:29:09Z</time>
      </trkpt>
      <trkpt lat="45.72551" lon="4.68117">
        <ele>286.61</ele>
        <time>2016-09-04T10:29:14Z</time>
      </trkpt>
      <trkpt lat="45.72556" lon="4.68123">
        <ele>288.05</ele>
        <time>2016-09-04T10:29:19Z</time>
      </trkpt>
      <trkpt lat="45.72565" lon="4.68123">
        <ele>289.01</ele>
        <time>2016-09-04T10:29:24Z</time>
      </trkpt>
      <trkpt lat="45.72574" lon="4.68126">
        <ele>289.97</ele>
        <time>2016-09-04T10:29:29Z</time>
      </trkpt>
      <trkpt lat="45.7258" lon="4.68129">
        <ele>291.9</ele>
        <time>2016-09-04T10:29:34Z</time>
      </trkpt>
      <trkpt lat="45.7259" lon="4.68134">
        <ele>292.86</ele>
        <time>2016-09-04T10:29:39Z</time>
      </trkpt>
      <trkpt lat="45.72601" lon="4.6814">
        <ele>293.82</ele>
        <time>2016-09-04T10:29:44Z</time>
      </trkpt>
      <trkpt lat="45.72611" lon="4.68146">
        <ele>295.26</ele>
        <time>2016-09-04T10:29:49Z</time>
      </trkpt>
      <trkpt lat="45.72628" lon="4.68149">
        <ele>294.78</ele>
        <time>2016-09-04T10:29:54Z</time>
      </trkpt>
      <trkpt lat="45.72631" lon="4.68151">
        <ele>294.3</ele>
        <time>2016-09-04T10:29:59Z</time>
      </trkpt>
      <trkpt lat="45.72632" lon="4.68153">
        <ele>294.3</ele>
        <time>2016-09-04T10:30:04Z</time>
      </trkpt>
      <trkpt lat="45.72634" lon="4.68156">
        <ele>295.74</ele>
        <time>2016-09-04T10:30:09Z</time>
      </trkpt>
      <trkpt lat="45.72638" lon="4.68162">
        <ele>298.15</ele>
        <time>2016-09-04T10:30:14Z</time>
      </trkpt>
      <trkpt lat="45.7264" lon="4.68163">
        <ele>299.11</ele>
        <time>2016-09-04T10:30:19Z</time>
      </trkpt>
      <trkpt lat="45.72641" lon="4.68164">
        <ele>300.07</ele>
        <time>2016-09-04T10:30:24Z</time>
      </trkpt>
      <trkpt lat="45.72645" lon="4.68166">
        <ele>300.07</ele>
        <time>2016-09-04T10:30:29Z</time>
      </trkpt>
      <trkpt lat="45.72655" lon="4.68169">
        <ele>301.03</ele>
        <time>2016-09-04T10:30:34Z</time>
      </trkpt>
      <trkpt lat="45.72666" lon="4.68176">
        <ele>301.51</ele>
        <time>2016-09-04T10:30:39Z</time>
      </trkpt>
      <trkpt lat="45.72671" lon="4.68188">
        <ele>302.47</ele>
        <time>2016-09-04T10:30:44Z</time>
      </trkpt>
      <trkpt lat="45.72676" lon="4.68199">
        <ele>302.47</ele>
        <time>2016-09-04T10:30:49Z</time>
      </trkpt>
      <trkpt lat="45.72681" lon="4.68208">
        <ele>301.99</ele>
        <time>2016-09-04T10:30:54Z</time>
      </trkpt>
      <trkpt lat="45.72681" lon="4.68215">
        <ele>300.55</ele>
        <time>2016-09-04T10:30:59Z</time>
      </trkpt>
      <trkpt lat="45.72685" lon="4.68223">
        <ele>299.59</ele>
        <time>2016-09-04T10:31:04Z</time>
      </trkpt>
      <trkpt lat="45.72685" lon="4.68228">
        <ele>298.63</ele>
        <time>2016-09-04T10:31:09Z</time>
      </trkpt>
      <trkpt lat="45.72686" lon="4.68235">
        <ele>298.15</ele>
        <time>2016-09-04T10:31:14Z</time>
      </trkpt>
      <trkpt lat="45.7269" lon="4.68248">
        <ele>298.63</ele>
        <time>2016-09-04T10:31:19Z</time>
      </trkpt>
      <trkpt lat="45.7269" lon="4.68266">
        <ele>297.67</ele>
        <time>2016-09-04T10:31:24Z</time>
      </trkpt>
      <trkpt lat="45.72689" lon="4.68282">
        <ele>296.7</ele>
        <time>2016-09-04T10:31:29Z</time>
      </trkpt>
      <trkpt lat="45.7269" lon="4.68294">
        <ele>298.15</ele>
        <time>2016-09-04T10:31:34Z</time>
      </trkpt>
      <trkpt lat="45.7269" lon="4.68296">
        <ele>299.11</ele>
        <time>2016-09-04T10:31:39Z</time>
      </trkpt>
      <trkpt lat="45.72689" lon="4.68298">
        <ele>299.11</ele>
        <time>2016-09-04T10:31:44Z</time>
      </trkpt>
      <trkpt lat="45.72687" lon="4.68301">
        <ele>299.11</ele>
        <time>2016-09-04T10:31:49Z</time>
      </trkpt>
      <trkpt lat="45.72685" lon="4.68306">
        <ele>299.59</ele>
        <time>2016-09-04T10:31:54Z</time>
      </trkpt>
      <trkpt lat="45.72685" lon="4.6831">
        <ele>297.18</ele>
        <time>2016-09-04T10:31:59Z</time>
      </trkpt>
      <trkpt lat="45.72686" lon="4.68314">
        <ele>296.7</ele>
        <time>2016-09-04T10:32:04Z</time>
      </trkpt>
      <trkpt lat="45.72688" lon="4.68324">
        <ele>295.26</ele>
        <time>2016-09-04T10:32:09Z</time>
      </trkpt>
      <trkpt lat="45.72688" lon="4.68338">
        <ele>293.82</ele>
        <time>2016-09-04T10:32:14Z</time>
      </trkpt>
      <trkpt lat="45.72688" lon="4.6835">
        <ele>293.34</ele>
        <time>2016-09-04T10:32:19Z</time>
      </trkpt>
      <trkpt lat="45.72689" lon="4.68365">
        <ele>294.3</ele>
        <time>2016-09-04T10:32:24Z</time>
      </trkpt>
      <trkpt lat="45.7269" lon="4.68373">
        <ele>295.26</ele>
        <time>2016-09-04T10:32:29Z</time>
      </trkpt>
      <trkpt lat="45.72701" lon="4.68378">
        <ele>294.3</ele>
        <time>2016-09-04T10:32:34Z</time>
      </trkpt>
      <trkpt lat="45.72718" lon="4.68402">
        <ele>292.86</ele>
        <time>2016-09-04T10:32:39Z</time>
      </trkpt>
      <trkpt lat="45.72732" lon="4.68423">
        <ele>292.38</ele>
        <time>2016-09-04T10:32:44Z</time>
      </trkpt>
      <trkpt lat="45.72744" lon="4.68437">
        <ele>292.86</ele>
        <time>2016-09-04T10:32:49Z</time>
      </trkpt>
      <trkpt lat="45.72753" lon="4.68452">
        <ele>292.86</ele>
        <time>2016-09-04T10:32:54Z</time>
      </trkpt>
      <trkpt lat="45.72767" lon="4.68463">
        <ele>292.38</ele>
        <time>2016-09-04T10:32:59Z</time>
      </trkpt>
      <trkpt lat="45.72783" lon="4.68469">
        <ele>289.97</ele>
        <time>2016-09-04T10:33:04Z</time>
      </trkpt>
      <trkpt lat="45.72787" lon="4.68473">
        <ele>287.09</ele>
        <time>2016-09-04T10:33:09Z</time>
      </trkpt>
      <trkpt lat="45.72789" lon="4.68475">
        <ele>285.17</ele>
        <time>2016-09-04T10:33:14Z</time>
      </trkpt>
      <trkpt lat="45.72792" lon="4.68473">
        <ele>284.69</ele>
        <time>2016-09-04T10:33:19Z</time>
      </trkpt>
      <trkpt lat="45.72794" lon="4.68473">
        <ele>285.65</ele>
        <time>2016-09-04T10:33:24Z</time>
      </trkpt>
      <trkpt lat="45.72795" lon="4.68474">
        <ele>287.57</ele>
        <time>2016-09-04T10:33:29Z</time>
      </trkpt>
      <trkpt lat="45.72797" lon="4.68478">
        <ele>289.49</ele>
        <time>2016-09-04T10:33:34Z</time>
      </trkpt>
      <trkpt lat="45.72799" lon="4.68482">
        <ele>290.94</ele>
        <time>2016-09-04T10:33:39Z</time>
      </trkpt>
      <trkpt lat="45.72801" lon="4.68484">
        <ele>291.42</ele>
        <time>2016-09-04T10:33:44Z</time>
      </trkpt>
      <trkpt lat="45.72804" lon="4.68485">
        <ele>291.9</ele>
        <time>2016-09-04T10:33:49Z</time>
      </trkpt>
      <trkpt lat="45.72804" lon="4.68493">
        <ele>290.94</ele>
        <time>2016-09-04T10:33:54Z</time>
      </trkpt>
      <trkpt lat="45.72808" lon="4.68503">
        <ele>289.97</ele>
        <time>2016-09-04T10:33:59Z</time>
      </trkpt>
      <trkpt lat="45.72814" lon="4.68515">
        <ele>290.94</ele>
        <time>2016-09-04T10:34:04Z</time>
      </trkpt>
      <trkpt lat="45.72819" lon="4.68529">
        <ele>290.94</ele>
        <time>2016-09-04T10:34:09Z</time>
      </trkpt>
      <trkpt lat="45.72823" lon="4.68545">
        <ele>289.01</ele>
        <time>2016-09-04T10:34:14Z</time>
      </trkpt>
      <trkpt lat="45.72828" lon="4.68565">
        <ele>287.57</ele>
        <time>2016-09-04T10:34:19Z</time>
      </trkpt>
      <trkpt lat="45.72833" lon="4.68581">
        <ele>286.61</ele>
        <time>2016-09-04T10:34:24Z</time>
      </trkpt>
      <trkpt lat="45.72836" lon="4.686">
        <ele>286.13</ele>
        <time>2016-09-04T10:34:29Z</time>
      </trkpt>
      <trkpt lat="45.72841" lon="4.6862">
        <ele>287.09</ele>
        <time>2016-09-04T10:34:34Z</time>
      </trkpt>
      <trkpt lat="45.7284" lon="4.68639">
        <ele>288.05</ele>
        <time>2016-09-04T10:34:39Z</time>
      </trkpt>
      <trkpt lat="45.72831" lon="4.68662">
        <ele>287.57</ele>
        <time>2016-09-04T10:34:44Z</time>
      </trkpt>
      <trkpt lat="45.72827" lon="4.68695">
        <ele>284.69</ele>
        <time>2016-09-04T10:34:49Z</time>
      </trkpt>
      <trkpt lat="45.72839" lon="4.68726">
        <ele>282.28</ele>
        <time>2016-09-04T10:34:54Z</time>
      </trkpt>
      <trkpt lat="45.72851" lon="4.68753">
        <ele>281.8</ele>
        <time>2016-09-04T10:34:59Z</time>
      </trkpt>
      <trkpt lat="45.72862" lon="4.68773">
        <ele>282.28</ele>
        <time>2016-09-04T10:35:04Z</time>
      </trkpt>
      <trkpt lat="45.7287" lon="4.68793">
        <ele>284.69</ele>
        <time>2016-09-04T10:35:09Z</time>
      </trkpt>
      <trkpt lat="45.72876" lon="4.68819">
        <ele>285.65</ele>
        <time>2016-09-04T10:35:14Z</time>
      </trkpt>
      <trkpt lat="45.72881" lon="4.68845">
        <ele>284.69</ele>
        <time>2016-09-04T10:35:19Z</time>
      </trkpt>
      <trkpt lat="45.72891" lon="4.68876">
        <ele>282.28</ele>
        <time>2016-09-04T10:35:24Z</time>
      </trkpt>
      <trkpt lat="45.72897" lon="4.689">
        <ele>279.4</ele>
        <time>2016-09-04T10:35:29Z</time>
      </trkpt>
      <trkpt lat="45.72896" lon="4.68925">
        <ele>275.56</ele>
        <time>2016-09-04T10:35:34Z</time>
      </trkpt>
      <trkpt lat="45.72891" lon="4.68947">
        <ele>271.71</ele>
        <time>2016-09-04T10:35:39Z</time>
      </trkpt>
      <trkpt lat="45.72891" lon="4.68973">
        <ele>266.9</ele>
        <time>2016-09-04T10:35:44Z</time>
      </trkpt>
      <trkpt lat="45.7289" lon="4.69">
        <ele>263.06</ele>
        <time>2016-09-04T10:35:49Z</time>
      </trkpt>
      <trkpt lat="45.72895" lon="4.69024">
        <ele>262.1</ele>
        <time>2016-09-04T10:35:54Z</time>
      </trkpt>
      <trkpt lat="45.72896" lon="4.69041">
        <ele>263.54</ele>
        <time>2016-09-04T10:35:59Z</time>
      </trkpt>
      <trkpt lat="45.72896" lon="4.69059">
        <ele>264.98</ele>
        <time>2016-09-04T10:36:04Z</time>
      </trkpt>
      <trkpt lat="45.72894" lon="4.69077">
        <ele>265.46</ele>
        <time>2016-09-04T10:36:09Z</time>
      </trkpt>
      <trkpt lat="45.72891" lon="4.69098">
        <ele>264.98</ele>
        <time>2016-09-04T10:36:14Z</time>
      </trkpt>
      <trkpt lat="45.7289" lon="4.69117">
        <ele>264.5</ele>
        <time>2016-09-04T10:36:19Z</time>
      </trkpt>
      <trkpt lat="45.72888" lon="4.69135">
        <ele>265.46</ele>
        <time>2016-09-04T10:36:24Z</time>
      </trkpt>
      <trkpt lat="45.72892" lon="4.6915">
        <ele>264.98</ele>
        <time>2016-09-04T10:36:29Z</time>
      </trkpt>
      <trkpt lat="45.729" lon="4.69169">
        <ele>264.02</ele>
        <time>2016-09-04T10:36:34Z</time>
      </trkpt>
      <trkpt lat="45.72911" lon="4.69174">
        <ele>264.02</ele>
        <time>2016-09-04T10:36:39Z</time>
      </trkpt>
      <trkpt lat="45.72924" lon="4.69181">
        <ele>264.98</ele>
        <time>2016-09-04T10:36:44Z</time>
      </trkpt>
      <trkpt lat="45.72935" lon="4.69191">
        <ele>265.46</ele>
        <time>2016-09-04T10:36:49Z</time>
      </trkpt>
      <trkpt lat="45.72941" lon="4.69202">
        <ele>266.42</ele>
        <time>2016-09-04T10:36:54Z</time>
      </trkpt>
      <trkpt lat="45.72943" lon="4.69206">
        <ele>267.86</ele>
        <time>2016-09-04T10:36:59Z</time>
      </trkpt>
      <trkpt lat="45.72945" lon="4.69221">
        <ele>268.35</ele>
        <time>2016-09-04T10:37:04Z</time>
      </trkpt>
      <trkpt lat="45.72945" lon="4.6924">
        <ele>267.86</ele>
        <time>2016-09-04T10:37:09Z</time>
      </trkpt>
      <trkpt lat="45.72945" lon="4.6926">
        <ele>268.35</ele>
        <time>2016-09-04T10:37:14Z</time>
      </trkpt>
      <trkpt lat="45.72945" lon="4.69278">
        <ele>269.31</ele>
        <time>2016-09-04T10:37:19Z</time>
      </trkpt>
      <trkpt lat="45.72954" lon="4.69294">
        <ele>270.27</ele>
        <time>2016-09-04T10:37:24Z</time>
      </trkpt>
      <trkpt lat="45.72966" lon="4.693">
        <ele>271.23</ele>
        <time>2016-09-04T10:37:29Z</time>
      </trkpt>
      <trkpt lat="45.7298" lon="4.69303">
        <ele>271.71</ele>
        <time>2016-09-04T10:37:34Z</time>
      </trkpt>
      <trkpt lat="45.72996" lon="4.69301">
        <ele>272.67</ele>
        <time>2016-09-04T10:37:39Z</time>
      </trkpt>
      <trkpt lat="45.73011" lon="4.69299">
        <ele>273.15</ele>
        <time>2016-09-04T10:37:44Z</time>
      </trkpt>
      <trkpt lat="45.73024" lon="4.69298">
        <ele>273.63</ele>
        <time>2016-09-04T10:37:49Z</time>
      </trkpt>
      <trkpt lat="45.73035" lon="4.69294">
        <ele>273.63</ele>
        <time>2016-09-04T10:37:54Z</time>
      </trkpt>
      <trkpt lat="45.73043" lon="4.69293">
        <ele>273.15</ele>
        <time>2016-09-04T10:37:59Z</time>
      </trkpt>
      <trkpt lat="45.73044" lon="4.69293">
        <ele>273.63</ele>
        <time>2016-09-04T10:38:04Z</time>
      </trkpt>
      <trkpt lat="45.73047" lon="4.69292">
        <ele>273.15</ele>
        <time>2016-09-04T10:38:09Z</time>
      </trkpt>
      <trkpt lat="45.73052" lon="4.69295">
        <ele>273.63</ele>
        <time>2016-09-04T10:38:14Z</time>
      </trkpt>
      <trkpt lat="45.7306" lon="4.69294">
        <ele>274.59</ele>
        <time>2016-09-04T10:38:19Z</time>
      </trkpt>
      <trkpt lat="45.73067" lon="4.69295">
        <ele>276.52</ele>
        <time>2016-09-04T10:38:24Z</time>
      </trkpt>
      <trkpt lat="45.73076" lon="4.69299">
        <ele>276.04</ele>
        <time>2016-09-04T10:38:29Z</time>
      </trkpt>
      <trkpt lat="45.73085" lon="4.69302">
        <ele>275.56</ele>
        <time>2016-09-04T10:38:34Z</time>
      </trkpt>
      <trkpt lat="45.73095" lon="4.69308">
        <ele>275.07</ele>
        <time>2016-09-04T10:38:39Z</time>
      </trkpt>
      <trkpt lat="45.73102" lon="4.69324">
        <ele>275.56</ele>
        <time>2016-09-04T10:38:44Z</time>
      </trkpt>
      <trkpt lat="45.73104" lon="4.69349">
        <ele>273.15</ele>
        <time>2016-09-04T10:38:49Z</time>
      </trkpt>
      <trkpt lat="45.73115" lon="4.69357">
        <ele>270.27</ele>
        <time>2016-09-04T10:38:54Z</time>
      </trkpt>
      <trkpt lat="45.73126" lon="4.69362">
        <ele>268.83</ele>
        <time>2016-09-04T10:38:59Z</time>
      </trkpt>
      <trkpt lat="45.73131" lon="4.69366">
        <ele>269.31</ele>
        <time>2016-09-04T10:39:04Z</time>
      </trkpt>
      <trkpt lat="45.73136" lon="4.69368">
        <ele>270.27</ele>
        <time>2016-09-04T10:39:09Z</time>
      </trkpt>
      <trkpt lat="45.7314" lon="4.69368">
        <ele>272.67</ele>
        <time>2016-09-04T10:39:14Z</time>
      </trkpt>
      <trkpt lat="45.73144" lon="4.69368">
        <ele>274.59</ele>
        <time>2016-09-04T10:39:19Z</time>
      </trkpt>
      <trkpt lat="45.73146" lon="4.69366">
        <ele>275.56</ele>
        <time>2016-09-04T10:39:24Z</time>
      </trkpt>
      <trkpt lat="45.73149" lon="4.69364">
        <ele>277.48</ele>
        <time>2016-09-04T10:39:29Z</time>
      </trkpt>
      <trkpt lat="45.73151" lon="4.69364">
        <ele>278.92</ele>
        <time>2016-09-04T10:39:34Z</time>
      </trkpt>
      <trkpt lat="45.73153" lon="4.69365">
        <ele>279.88</ele>
        <time>2016-09-04T10:39:39Z</time>
      </trkpt>
      <trkpt lat="45.73154" lon="4.69366">
        <ele>280.84</ele>
        <time>2016-09-04T10:39:44Z</time>
      </trkpt>
      <trkpt lat="45.73155" lon="4.69375">
        <ele>281.32</ele>
        <time>2016-09-04T10:39:49Z</time>
      </trkpt>
      <trkpt lat="45.73149" lon="4.69388">
        <ele>279.4</ele>
        <time>2016-09-04T10:39:54Z</time>
      </trkpt>
      <trkpt lat="45.73143" lon="4.69401">
        <ele>278.92</ele>
        <time>2016-09-04T10:39:59Z</time>
      </trkpt>
      <trkpt lat="45.73136" lon="4.69407">
        <ele>280.36</ele>
        <time>2016-09-04T10:40:04Z</time>
      </trkpt>
      <trkpt lat="45.73126" lon="4.69397">
        <ele>281.8</ele>
        <time>2016-09-04T10:40:09Z</time>
      </trkpt>
      <trkpt lat="45.73114" lon="4.69389">
        <ele>282.77</ele>
        <time>2016-09-04T10:40:14Z</time>
      </trkpt>
      <trkpt lat="45.73104" lon="4.69388">
        <ele>283.25</ele>
        <time>2016-09-04T10:40:19Z</time>
      </trkpt>
      <trkpt lat="45.73094" lon="4.69385">
        <ele>283.25</ele>
        <time>2016-09-04T10:40:24Z</time>
      </trkpt>
      <trkpt lat="45.73084" lon="4.69384">
        <ele>283.25</ele>
        <time>2016-09-04T10:40:29Z</time>
      </trkpt>
      <trkpt lat="45.73076" lon="4.69382">
        <ele>283.73</ele>
        <time>2016-09-04T10:40:34Z</time>
      </trkpt>
      <trkpt lat="45.73074" lon="4.6938">
        <ele>283.73</ele>
        <time>2016-09-04T10:40:39Z</time>
      </trkpt>
      <trkpt lat="45.73075" lon="4.69379">
        <ele>283.25</ele>
        <time>2016-09-04T10:40:44Z</time>
      </trkpt>
      <trkpt lat="45.73073" lon="4.69379">
        <ele>283.25</ele>
        <time>2016-09-04T10:40:49Z</time>
      </trkpt>
      <trkpt lat="45.73073" lon="4.6938">
        <ele>282.77</ele>
        <time>2016-09-04T10:40:54Z</time>
      </trkpt>
      <trkpt lat="45.73071" lon="4.69379">
        <ele>282.28</ele>
        <time>2016-09-04T10:40:59Z</time>
      </trkpt>
      <trkpt lat="45.73071" lon="4.69379">
        <ele>281.32</ele>
        <time>2016-09-04T10:41:04Z</time>
      </trkpt>
      <trkpt lat="45.73071" lon="4.69381">
        <ele>280.84</ele>
        <time>2016-09-04T10:41:09Z</time>
      </trkpt>
      <trkpt lat="45.73071" lon="4.69382">
        <ele>280.36</ele>
        <time>2016-09-04T10:41:14Z</time>
      </trkpt>
      <trkpt lat="45.7307" lon="4.69381">
        <ele>279.88</ele>
        <time>2016-09-04T10:41:19Z</time>
      </trkpt>
      <trkpt lat="45.7307" lon="4.69377">
        <ele>279.88</ele>
        <time>2016-09-04T10:41:24Z</time>
      </trkpt>
      <trkpt lat="45.7307" lon="4.69378">
        <ele>280.36</ele>
        <time>2016-09-04T10:41:29Z</time>
      </trkpt>
      <trkpt lat="45.7307" lon="4.69378">
        <ele>281.32</ele>
        <time>2016-09-04T10:41:34Z</time>
      </trkpt>
      <trkpt lat="45.73071" lon="4.69377">
        <ele>281.32</ele>
        <time>2016-09-04T10:41:39Z</time>
      </trkpt>
      <trkpt lat="45.7307" lon="4.69377">
        <ele>281.32</ele>
        <time>2016-09-04T10:41:44Z</time>
      </trkpt>
      <trkpt lat="45.73069" lon="4.69377">
        <ele>279.88</ele>
        <time>2016-09-04T10:41:49Z</time>
      </trkpt>
      <trkpt lat="45.73069" lon="4.69378">
        <ele>279.88</ele>
        <time>2016-09-04T10:41:54Z</time>
      </trkpt>
      <trkpt lat="45.7307" lon="4.69379">
        <ele>279.88</ele>
        <time>2016-09-04T10:41:59Z</time>
      </trkpt>
      <trkpt lat="45.7307" lon="4.69381">
        <ele>280.84</ele>
        <time>2016-09-04T10:42:04Z</time>
      </trkpt>
      <trkpt lat="45.7307" lon="4.69382">
        <ele>281.32</ele>
        <time>2016-09-04T10:42:09Z</time>
      </trkpt>
      <trkpt lat="45.7307" lon="4.69382">
        <ele>283.25</ele>
        <time>2016-09-04T10:42:14Z</time>
      </trkpt>
      <trkpt lat="45.7307" lon="4.69382">
        <ele>283.73</ele>
        <time>2016-09-04T10:42:19Z</time>
      </trkpt>
      <trkpt lat="45.7307" lon="4.69381">
        <ele>283.73</ele>
        <time>2016-09-04T10:42:24Z</time>
      </trkpt>
      <trkpt lat="45.73069" lon="4.69382">
        <ele>283.73</ele>
        <time>2016-09-04T10:42:29Z</time>
      </trkpt>
      <trkpt lat="45.7307" lon="4.69382">
        <ele>284.21</ele>
        <time>2016-09-04T10:42:34Z</time>
      </trkpt>
      <trkpt lat="45.73071" lon="4.69381">
        <ele>284.21</ele>
        <time>2016-09-04T10:42:39Z</time>
      </trkpt>
      <trkpt lat="45.73071" lon="4.69382">
        <ele>284.69</ele>
        <time>2016-09-04T10:42:44Z</time>
      </trkpt>
      <trkpt lat="45.7307" lon="4.69381">
        <ele>285.17</ele>
        <time>2016-09-04T10:42:49Z</time>
      </trkpt>
      <trkpt lat="45.7307" lon="4.6938">
        <ele>284.69</ele>
        <time>2016-09-04T10:42:54Z</time>
      </trkpt>
      <trkpt lat="45.73069" lon="4.69378">
        <ele>283.73</ele>
        <time>2016-09-04T10:42:59Z</time>
      </trkpt>
      <trkpt lat="45.7307" lon="4.69378">
        <ele>285.17</ele>
        <time>2016-09-04T10:43:04Z</time>
      </trkpt>
      <trkpt lat="45.73071" lon="4.69378">
        <ele>284.69</ele>
        <time>2016-09-04T10:43:09Z</time>
      </trkpt>
      <trkpt lat="45.73071" lon="4.69379">
        <ele>284.21</ele>
        <time>2016-09-04T10:43:14Z</time>
      </trkpt>
      <trkpt lat="45.73071" lon="4.6938">
        <ele>284.69</ele>
        <time>2016-09-04T10:43:19Z</time>
      </trkpt>
      <trkpt lat="45.73071" lon="4.69385">
        <ele>285.65</ele>
        <time>2016-09-04T10:43:24Z</time>
      </trkpt>
      <trkpt lat="45.7307" lon="4.69387">
        <ele>287.57</ele>
        <time>2016-09-04T10:43:29Z</time>
      </trkpt>
      <trkpt lat="45.73069" lon="4.69387">
        <ele>287.09</ele>
        <time>2016-09-04T10:43:34Z</time>
      </trkpt>
      <trkpt lat="45.73069" lon="4.69388">
        <ele>288.53</ele>
        <time>2016-09-04T10:43:39Z</time>
      </trkpt>
      <trkpt lat="45.73069" lon="4.69387">
        <ele>288.53</ele>
        <time>2016-09-04T10:43:44Z</time>
      </trkpt>
      <trkpt lat="45.73068" lon="4.69387">
        <ele>288.05</ele>
        <time>2016-09-04T10:43:49Z</time>
      </trkpt>
      <trkpt lat="45.73069" lon="4.69387">
        <ele>288.05</ele>
        <time>2016-09-04T10:43:54Z</time>
      </trkpt>
      <trkpt lat="45.73068" lon="4.69387">
        <ele>287.09</ele>
        <time>2016-09-04T10:43:59Z</time>
      </trkpt>
      <trkpt lat="45.73067" lon="4.69388">
        <ele>285.65</ele>
        <time>2016-09-04T10:44:04Z</time>
      </trkpt>
      <trkpt lat="45.73067" lon="4.69388">
        <ele>285.17</ele>
        <time>2016-09-04T10:44:09Z</time>
      </trkpt>
      <trkpt lat="45.73068" lon="4.69388">
        <ele>286.13</ele>
        <time>2016-09-04T10:44:14Z</time>
      </trkpt>
      <trkpt lat="45.73068" lon="4.69389">
        <ele>287.09</ele>
        <time>2016-09-04T10:44:19Z</time>
      </trkpt>
      <trkpt lat="45.73068" lon="4.69391">
        <ele>287.57</ele>
        <time>2016-09-04T10:44:24Z</time>
      </trkpt>
      <trkpt lat="45.73068" lon="4.69394">
        <ele>287.57</ele>
        <time>2016-09-04T10:44:29Z</time>
      </trkpt>
      <trkpt lat="45.73068" lon="4.69394">
        <ele>287.09</ele>
        <time>2016-09-04T10:44:34Z</time>
      </trkpt>
      <trkpt lat="45.73068" lon="4.69394">
        <ele>287.09</ele>
        <time>2016-09-04T10:44:39Z</time>
      </trkpt>
      <trkpt lat="45.73067" lon="4.69392">
        <ele>287.57</ele>
        <time>2016-09-04T10:44:44Z</time>
      </trkpt>
      <trkpt lat="45.73066" lon="4.6939">
        <ele>289.01</ele>
        <time>2016-09-04T10:44:49Z</time>
      </trkpt>
      <trkpt lat="45.73067" lon="4.6939">
        <ele>289.97</ele>
        <time>2016-09-04T10:44:54Z</time>
      </trkpt>
      <trkpt lat="45.73067" lon="4.6939">
        <ele>290.46</ele>
        <time>2016-09-04T10:44:59Z</time>
      </trkpt>
      <trkpt lat="45.73069" lon="4.69388">
        <ele>289.97</ele>
        <time>2016-09-04T10:45:04Z</time>
      </trkpt>
      <trkpt lat="45.73069" lon="4.69387">
        <ele>290.94</ele>
        <time>2016-09-04T10:45:09Z</time>
      </trkpt>
      <trkpt lat="45.73067" lon="4.69385">
        <ele>290.94</ele>
        <time>2016-09-04T10:45:14Z</time>
      </trkpt>
      <trkpt lat="45.73067" lon="4.69384">
        <ele>291.9</ele>
        <time>2016-09-04T10:45:19Z</time>
      </trkpt>
      <trkpt lat="45.73065" lon="4.69384">
        <ele>292.38</ele>
        <time>2016-09-04T10:45:24Z</time>
      </trkpt>
      <trkpt lat="45.73064" lon="4.69385">
        <ele>292.38</ele>
        <time>2016-09-04T10:45:29Z</time>
      </trkpt>
      <trkpt lat="45.73064" lon="4.69386">
        <ele>291.9</ele>
        <time>2016-09-04T10:45:34Z</time>
      </trkpt>
      <trkpt lat="45.73064" lon="4.69387">
        <ele>291.42</ele>
        <time>2016-09-04T10:45:39Z</time>
      </trkpt>
      <trkpt lat="45.73065" lon="4.69388">
        <ele>290.94</ele>
        <time>2016-09-04T10:45:44Z</time>
      </trkpt>
      <trkpt lat="45.73066" lon="4.69388">
        <ele>290.46</ele>
        <time>2016-09-04T10:45:49Z</time>
      </trkpt>
      <trkpt lat="45.73068" lon="4.69387">
        <ele>289.97</ele>
        <time>2016-09-04T10:45:54Z</time>
      </trkpt>
      <trkpt lat="45.73068" lon="4.69387">
        <ele>289.97</ele>
        <time>2016-09-04T10:45:59Z</time>
      </trkpt>
      <trkpt lat="45.73068" lon="4.69386">
        <ele>289.97</ele>
        <time>2016-09-04T10:46:04Z</time>
      </trkpt>
      <trkpt lat="45.73068" lon="4.69386">
        <ele>290.46</ele>
        <time>2016-09-04T10:46:09Z</time>
      </trkpt>
      <trkpt lat="45.73068" lon="4.69384">
        <ele>290.94</ele>
        <time>2016-09-04T10:46:14Z</time>
      </trkpt>
      <trkpt lat="45.73069" lon="4.69384">
        <ele>290.94</ele>
        <time>2016-09-04T10:46:19Z</time>
      </trkpt>
      <trkpt lat="45.73069" lon="4.69384">
        <ele>290.94</ele>
        <time>2016-09-04T10:46:24Z</time>
      </trkpt>
      <trkpt lat="45.73068" lon="4.69384">
        <ele>290.94</ele>
        <time>2016-09-04T10:46:29Z</time>
      </trkpt>
      <trkpt lat="45.73068" lon="4.69383">
        <ele>291.9</ele>
        <time>2016-09-04T10:46:34Z</time>
      </trkpt>
      <trkpt lat="45.73067" lon="4.69383">
        <ele>292.38</ele>
        <time>2016-09-04T10:46:39Z</time>
      </trkpt>
      <trkpt lat="45.73068" lon="4.69385">
        <ele>292.38</ele>
        <time>2016-09-04T10:46:44Z</time>
      </trkpt>
      <trkpt lat="45.73066" lon="4.69383">
        <ele>292.86</ele>
        <time>2016-09-04T10:46:49Z</time>
      </trkpt>
      <trkpt lat="45.73065" lon="4.69382">
        <ele>292.86</ele>
        <time>2016-09-04T10:46:54Z</time>
      </trkpt>
      <trkpt lat="45.73065" lon="4.69383">
        <ele>292.86</ele>
        <time>2016-09-04T10:46:59Z</time>
      </trkpt>
      <trkpt lat="45.73066" lon="4.69383">
        <ele>293.34</ele>
        <time>2016-09-04T10:47:04Z</time>
      </trkpt>
      <trkpt lat="45.73066" lon="4.69384">
        <ele>293.34</ele>
        <time>2016-09-04T10:47:09Z</time>
      </trkpt>
      <trkpt lat="45.73067" lon="4.69383">
        <ele>294.78</ele>
        <time>2016-09-04T10:47:14Z</time>
      </trkpt>
      <trkpt lat="45.73068" lon="4.69383">
        <ele>295.26</ele>
        <time>2016-09-04T10:47:19Z</time>
      </trkpt>
      <trkpt lat="45.73068" lon="4.69383">
        <ele>295.74</ele>
        <time>2016-09-04T10:47:24Z</time>
      </trkpt>
      <trkpt lat="45.73068" lon="4.69383">
        <ele>295.26</ele>
        <time>2016-09-04T10:47:29Z</time>
      </trkpt>
      <trkpt lat="45.73068" lon="4.69384">
        <ele>295.26</ele>
        <time>2016-09-04T10:47:34Z</time>
      </trkpt>
      <trkpt lat="45.73067" lon="4.69383">
        <ele>294.78</ele>
        <time>2016-09-04T10:47:39Z</time>
      </trkpt>
      <trkpt lat="45.73067" lon="4.69383">
        <ele>293.82</ele>
        <time>2016-09-04T10:47:44Z</time>
      </trkpt>
      <trkpt lat="45.73068" lon="4.69384">
        <ele>292.38</ele>
        <time>2016-09-04T10:47:49Z</time>
      </trkpt>
      <trkpt lat="45.73068" lon="4.69386">
        <ele>291.9</ele>
        <time>2016-09-04T10:47:54Z</time>
      </trkpt>
      <trkpt lat="45.73067" lon="4.69388">
        <ele>291.42</ele>
        <time>2016-09-04T10:47:59Z</time>
      </trkpt>
      <trkpt lat="45.73068" lon="4.69389">
        <ele>290.46</ele>
        <time>2016-09-04T10:48:04Z</time>
      </trkpt>
      <trkpt lat="45.73069" lon="4.69388">
        <ele>289.49</ele>
        <time>2016-09-04T10:48:09Z</time>
      </trkpt>
      <trkpt lat="45.73069" lon="4.69386">
        <ele>289.49</ele>
        <time>2016-09-04T10:48:14Z</time>
      </trkpt>
      <trkpt lat="45.73069" lon="4.69383">
        <ele>290.46</ele>
        <time>2016-09-04T10:48:19Z</time>
      </trkpt>
      <trkpt lat="45.7307" lon="4.69383">
        <ele>289.97</ele>
        <time>2016-09-04T10:48:24Z</time>
      </trkpt>
      <trkpt lat="45.73069" lon="4.69383">
        <ele>289.49</ele>
        <time>2016-09-04T10:48:29Z</time>
      </trkpt>
      <trkpt lat="45.73069" lon="4.69383">
        <ele>289.01</ele>
        <time>2016-09-04T10:48:34Z</time>
      </trkpt>
      <trkpt lat="45.73069" lon="4.69383">
        <ele>288.05</ele>
        <time>2016-09-04T10:48:39Z</time>
      </trkpt>
      <trkpt lat="45.7307" lon="4.69385">
        <ele>288.05</ele>
        <time>2016-09-04T10:48:44Z</time>
      </trkpt>
      <trkpt lat="45.7307" lon="4.69389">
        <ele>289.01</ele>
        <time>2016-09-04T10:48:49Z</time>
      </trkpt>
      <trkpt lat="45.7307" lon="4.69395">
        <ele>290.46</ele>
        <time>2016-09-04T10:48:54Z</time>
      </trkpt>
      <trkpt lat="45.73069" lon="4.69399">
        <ele>290.94</ele>
        <time>2016-09-04T10:48:59Z</time>
      </trkpt>
      <trkpt lat="45.73068" lon="4.69402">
        <ele>291.42</ele>
        <time>2016-09-04T10:49:04Z</time>
      </trkpt>
      <trkpt lat="45.73067" lon="4.69406">
        <ele>291.9</ele>
        <time>2016-09-04T10:49:09Z</time>
      </trkpt>
      <trkpt lat="45.73066" lon="4.69411">
        <ele>292.86</ele>
        <time>2016-09-04T10:49:14Z</time>
      </trkpt>
      <trkpt lat="45.73065" lon="4.69417">
        <ele>293.82</ele>
        <time>2016-09-04T10:49:19Z</time>
      </trkpt>
      <trkpt lat="45.73063" lon="4.69421">
        <ele>294.78</ele>
        <time>2016-09-04T10:49:24Z</time>
      </trkpt>
      <trkpt lat="45.73061" lon="4.69425">
        <ele>295.74</ele>
        <time>2016-09-04T10:49:29Z</time>
      </trkpt>
      <trkpt lat="45.7306" lon="4.69429">
        <ele>296.7</ele>
        <time>2016-09-04T10:49:34Z</time>
      </trkpt>
      <trkpt lat="45.73059" lon="4.69433">
        <ele>297.67</ele>
        <time>2016-09-04T10:49:39Z</time>
      </trkpt>
      <trkpt lat="45.73058" lon="4.69436">
        <ele>298.15</ele>
        <time>2016-09-04T10:49:44Z</time>
      </trkpt>
      <trkpt lat="45.73056" lon="4.6944">
        <ele>298.63</ele>
        <time>2016-09-04T10:49:49Z</time>
      </trkpt>
      <trkpt lat="45.73054" lon="4.69445">
        <ele>299.59</ele>
        <time>2016-09-04T10:49:54Z</time>
      </trkpt>
      <trkpt lat="45.73053" lon="4.69451">
        <ele>299.11</ele>
        <time>2016-09-04T10:49:59Z</time>
      </trkpt>
      <trkpt lat="45.73052" lon="4.69454">
        <ele>298.15</ele>
        <time>2016-09-04T10:50:04Z</time>
      </trkpt>
      <trkpt lat="45.7305" lon="4.69461">
        <ele>297.67</ele>
        <time>2016-09-04T10:50:09Z</time>
      </trkpt>
      <trkpt lat="45.73048" lon="4.69468">
        <ele>297.67</ele>
        <time>2016-09-04T10:50:14Z</time>
      </trkpt>
      <trkpt lat="45.73047" lon="4.69472">
        <ele>297.67</ele>
        <time>2016-09-04T10:50:19Z</time>
      </trkpt>
      <trkpt lat="45.73045" lon="4.69476">
        <ele>297.67</ele>
        <time>2016-09-04T10:50:24Z</time>
      </trkpt>
      <trkpt lat="45.73043" lon="4.69481">
        <ele>298.15</ele>
        <time>2016-09-04T10:50:29Z</time>
      </trkpt>
      <trkpt lat="45.73042" lon="4.69486">
        <ele>298.63</ele>
        <time>2016-09-04T10:50:34Z</time>
      </trkpt>
      <trkpt lat="45.7304" lon="4.69491">
        <ele>299.59</ele>
        <time>2016-09-04T10:50:39Z</time>
      </trkpt>
      <trkpt lat="45.73039" lon="4.69495">
        <ele>300.55</ele>
        <time>2016-09-04T10:50:44Z</time>
      </trkpt>
      <trkpt lat="45.73037" lon="4.695">
        <ele>301.03</ele>
        <time>2016-09-04T10:50:49Z</time>
      </trkpt>
      <trkpt lat="45.73036" lon="4.69506">
        <ele>301.51</ele>
        <time>2016-09-04T10:50:54Z</time>
      </trkpt>
      <trkpt lat="45.73034" lon="4.6951">
        <ele>301.99</ele>
        <time>2016-09-04T10:50:59Z</time>
      </trkpt>
      <trkpt lat="45.73032" lon="4.69515">
        <ele>302.47</ele>
        <time>2016-09-04T10:51:04Z</time>
      </trkpt>
      <trkpt lat="45.73028" lon="4.6952">
        <ele>302.47</ele>
        <time>2016-09-04T10:51:09Z</time>
      </trkpt>
      <trkpt lat="45.73026" lon="4.69523">
        <ele>302.95</ele>
        <time>2016-09-04T10:51:14Z</time>
      </trkpt>
      <trkpt lat="45.73024" lon="4.69529">
        <ele>302.95</ele>
        <time>2016-09-04T10:51:19Z</time>
      </trkpt>
      <trkpt lat="45.73023" lon="4.69535">
        <ele>302.47</ele>
        <time>2016-09-04T10:51:24Z</time>
      </trkpt>
      <trkpt lat="45.73021" lon="4.6954">
        <ele>301.99</ele>
        <time>2016-09-04T10:51:29Z</time>
      </trkpt>
      <trkpt lat="45.73021" lon="4.69545">
        <ele>303.43</ele>
        <time>2016-09-04T10:51:34Z</time>
      </trkpt>
      <trkpt lat="45.73021" lon="4.69549">
        <ele>304.88</ele>
        <time>2016-09-04T10:51:39Z</time>
      </trkpt>
      <trkpt lat="45.73021" lon="4.69554">
        <ele>305.84</ele>
        <time>2016-09-04T10:51:44Z</time>
      </trkpt>
      <trkpt lat="45.73022" lon="4.6956">
        <ele>306.8</ele>
        <time>2016-09-04T10:51:49Z</time>
      </trkpt>
      <trkpt lat="45.73022" lon="4.69566">
        <ele>307.76</ele>
        <time>2016-09-04T10:51:54Z</time>
      </trkpt>
      <trkpt lat="45.73022" lon="4.69569">
        <ele>307.76</ele>
        <time>2016-09-04T10:51:59Z</time>
      </trkpt>
      <trkpt lat="45.73022" lon="4.6957">
        <ele>307.76</ele>
        <time>2016-09-04T10:52:04Z</time>
      </trkpt>
      <trkpt lat="45.73021" lon="4.69576">
        <ele>308.24</ele>
        <time>2016-09-04T10:52:09Z</time>
      </trkpt>
      <trkpt lat="45.73019" lon="4.69588">
        <ele>308.72</ele>
        <time>2016-09-04T10:52:14Z</time>
      </trkpt>
      <trkpt lat="45.73017" lon="4.69597">
        <ele>309.2</ele>
        <time>2016-09-04T10:52:19Z</time>
      </trkpt>
      <trkpt lat="45.73014" lon="4.69606">
        <ele>309.68</ele>
        <time>2016-09-04T10:52:24Z</time>
      </trkpt>
      <trkpt lat="45.73011" lon="4.69615">
        <ele>309.68</ele>
        <time>2016-09-04T10:52:29Z</time>
      </trkpt>
      <trkpt lat="45.73008" lon="4.69625">
        <ele>309.68</ele>
        <time>2016-09-04T10:52:34Z</time>
      </trkpt>
      <trkpt lat="45.73004" lon="4.69635">
        <ele>310.16</ele>
        <time>2016-09-04T10:52:39Z</time>
      </trkpt>
      <trkpt lat="45.72999" lon="4.69643">
        <ele>310.16</ele>
        <time>2016-09-04T10:52:44Z</time>
      </trkpt>
      <trkpt lat="45.72995" lon="4.6965">
        <ele>310.16</ele>
        <time>2016-09-04T10:52:49Z</time>
      </trkpt>
      <trkpt lat="45.72991" lon="4.69655">
        <ele>311.12</ele>
        <time>2016-09-04T10:52:54Z</time>
      </trkpt>
      <trkpt lat="45.72988" lon="4.69659">
        <ele>311.12</ele>
        <time>2016-09-04T10:52:59Z</time>
      </trkpt>
      <trkpt lat="45.72985" lon="4.69661">
        <ele>311.6</ele>
        <time>2016-09-04T10:53:04Z</time>
      </trkpt>
      <trkpt lat="45.72982" lon="4.69664">
        <ele>311.12</ele>
        <time>2016-09-04T10:53:09Z</time>
      </trkpt>
      <trkpt lat="45.72978" lon="4.69665">
        <ele>311.12</ele>
        <time>2016-09-04T10:53:14Z</time>
      </trkpt>
      <trkpt lat="45.72974" lon="4.69666">
        <ele>311.6</ele>
        <time>2016-09-04T10:53:19Z</time>
      </trkpt>
      <trkpt lat="45.7297" lon="4.69668">
        <ele>311.6</ele>
        <time>2016-09-04T10:53:24Z</time>
      </trkpt>
      <trkpt lat="45.72965" lon="4.69667">
        <ele>312.09</ele>
        <time>2016-09-04T10:53:29Z</time>
      </trkpt>
      <trkpt lat="45.7296" lon="4.69666">
        <ele>312.09</ele>
        <time>2016-09-04T10:53:34Z</time>
      </trkpt>
      <trkpt lat="45.72955" lon="4.69666">
        <ele>312.57</ele>
        <time>2016-09-04T10:53:39Z</time>
      </trkpt>
      <trkpt lat="45.72949" lon="4.69666">
        <ele>312.57</ele>
        <time>2016-09-04T10:53:44Z</time>
      </trkpt>
      <trkpt lat="45.72944" lon="4.69666">
        <ele>313.53</ele>
        <time>2016-09-04T10:53:49Z</time>
      </trkpt>
      <trkpt lat="45.72938" lon="4.69667">
        <ele>313.53</ele>
        <time>2016-09-04T10:53:54Z</time>
      </trkpt>
      <trkpt lat="45.72934" lon="4.69668">
        <ele>314.01</ele>
        <time>2016-09-04T10:53:59Z</time>
      </trkpt>
      <trkpt lat="45.72932" lon="4.69667">
        <ele>313.53</ele>
        <time>2016-09-04T10:54:04Z</time>
      </trkpt>
      <trkpt lat="45.72932" lon="4.69666">
        <ele>314.01</ele>
        <time>2016-09-04T10:54:09Z</time>
      </trkpt>
      <trkpt lat="45.72932" lon="4.69666">
        <ele>313.53</ele>
        <time>2016-09-04T10:54:14Z</time>
      </trkpt>
      <trkpt lat="45.72928" lon="4.69668">
        <ele>313.53</ele>
        <time>2016-09-04T10:54:19Z</time>
      </trkpt>
      <trkpt lat="45.72921" lon="4.69671">
        <ele>313.53</ele>
        <time>2016-09-04T10:54:24Z</time>
      </trkpt>
      <trkpt lat="45.72914" lon="4.69672">
        <ele>314.01</ele>
        <time>2016-09-04T10:54:29Z</time>
      </trkpt>
      <trkpt lat="45.72907" lon="4.69674">
        <ele>314.01</ele>
        <time>2016-09-04T10:54:34Z</time>
      </trkpt>
      <trkpt lat="45.72901" lon="4.69675">
        <ele>314.49</ele>
        <time>2016-09-04T10:54:39Z</time>
      </trkpt>
      <trkpt lat="45.72894" lon="4.69677">
        <ele>314.49</ele>
        <time>2016-09-04T10:54:44Z</time>
      </trkpt>
      <trkpt lat="45.72887" lon="4.69679">
        <ele>314.97</ele>
        <time>2016-09-04T10:54:49Z</time>
      </trkpt>
      <trkpt lat="45.7288" lon="4.69679">
        <ele>315.45</ele>
        <time>2016-09-04T10:54:54Z</time>
      </trkpt>
      <trkpt lat="45.72872" lon="4.6968">
        <ele>315.45</ele>
        <time>2016-09-04T10:54:59Z</time>
      </trkpt>
      <trkpt lat="45.72865" lon="4.69682">
        <ele>316.41</ele>
        <time>2016-09-04T10:55:04Z</time>
      </trkpt>
      <trkpt lat="45.72857" lon="4.69684">
        <ele>316.89</ele>
        <time>2016-09-04T10:55:09Z</time>
      </trkpt>
      <trkpt lat="45.7285" lon="4.69687">
        <ele>317.37</ele>
        <time>2016-09-04T10:55:14Z</time>
      </trkpt>
      <trkpt lat="45.72843" lon="4.69692">
        <ele>317.37</ele>
        <time>2016-09-04T10:55:19Z</time>
      </trkpt>
      <trkpt lat="45.72838" lon="4.69698">
        <ele>317.37</ele>
        <time>2016-09-04T10:55:24Z</time>
      </trkpt>
      <trkpt lat="45.72832" lon="4.69703">
        <ele>317.85</ele>
        <time>2016-09-04T10:55:29Z</time>
      </trkpt>
      <trkpt lat="45.72826" lon="4.69709">
        <ele>318.33</ele>
        <time>2016-09-04T10:55:34Z</time>
      </trkpt>
      <trkpt lat="45.72819" lon="4.69717">
        <ele>318.33</ele>
        <time>2016-09-04T10:55:39Z</time>
      </trkpt>
      <trkpt lat="45.72809" lon="4.69726">
        <ele>318.33</ele>
        <time>2016-09-04T10:55:44Z</time>
      </trkpt>
      <trkpt lat="45.72798" lon="4.69737">
        <ele>318.33</ele>
        <time>2016-09-04T10:55:49Z</time>
      </trkpt>
      <trkpt lat="45.72788" lon="4.69747">
        <ele>317.85</ele>
        <time>2016-09-04T10:55:54Z</time>
      </trkpt>
      <trkpt lat="45.72778" lon="4.69758">
        <ele>317.85</ele>
        <time>2016-09-04T10:55:59Z</time>
      </trkpt>
      <trkpt lat="45.7277" lon="4.69768">
        <ele>317.85</ele>
        <time>2016-09-04T10:56:04Z</time>
      </trkpt>
      <trkpt lat="45.72773" lon="4.69782">
        <ele>318.33</ele>
        <time>2016-09-04T10:56:09Z</time>
      </trkpt>
      <trkpt lat="45.72781" lon="4.69796">
        <ele>318.81</ele>
        <time>2016-09-04T10:56:14Z</time>
      </trkpt>
      <trkpt lat="45.72793" lon="4.69812">
        <ele>319.3</ele>
        <time>2016-09-04T10:56:19Z</time>
      </trkpt>
      <trkpt lat="45.72806" lon="4.6983">
        <ele>319.78</ele>
        <time>2016-09-04T10:56:24Z</time>
      </trkpt>
      <trkpt lat="45.72822" lon="4.69852">
        <ele>318.81</ele>
        <time>2016-09-04T10:56:29Z</time>
      </trkpt>
      <trkpt lat="45.72844" lon="4.69877">
        <ele>317.85</ele>
        <time>2016-09-04T10:56:34Z</time>
      </trkpt>
      <trkpt lat="45.7287" lon="4.69899">
        <ele>317.37</ele>
        <time>2016-09-04T10:56:39Z</time>
      </trkpt>
      <trkpt lat="45.72898" lon="4.69921">
        <ele>316.41</ele>
        <time>2016-09-04T10:56:44Z</time>
      </trkpt>
      <trkpt lat="45.72927" lon="4.69941">
        <ele>315.45</ele>
        <time>2016-09-04T10:56:49Z</time>
      </trkpt>
      <trkpt lat="45.72957" lon="4.69961">
        <ele>314.49</ele>
        <time>2016-09-04T10:56:54Z</time>
      </trkpt>
      <trkpt lat="45.72987" lon="4.69979">
        <ele>313.53</ele>
        <time>2016-09-04T10:56:59Z</time>
      </trkpt>
      <trkpt lat="45.73016" lon="4.69998">
        <ele>313.53</ele>
        <time>2016-09-04T10:57:04Z</time>
      </trkpt>
      <trkpt lat="45.73043" lon="4.70024">
        <ele>314.01</ele>
        <time>2016-09-04T10:57:09Z</time>
      </trkpt>
      <trkpt lat="45.73072" lon="4.7006">
        <ele>312.57</ele>
        <time>2016-09-04T10:57:14Z</time>
      </trkpt>
      <trkpt lat="45.73104" lon="4.70099">
        <ele>309.68</ele>
        <time>2016-09-04T10:57:19Z</time>
      </trkpt>
      <trkpt lat="45.73127" lon="4.70147">
        <ele>306.32</ele>
        <time>2016-09-04T10:57:24Z</time>
      </trkpt>
      <trkpt lat="45.73135" lon="4.70175">
        <ele>304.39</ele>
        <time>2016-09-04T10:57:29Z</time>
      </trkpt>
      <trkpt lat="45.73122" lon="4.70201">
        <ele>302.95</ele>
        <time>2016-09-04T10:57:34Z</time>
      </trkpt>
      <trkpt lat="45.73103" lon="4.70232">
        <ele>300.55</ele>
        <time>2016-09-04T10:57:39Z</time>
      </trkpt>
      <trkpt lat="45.73081" lon="4.70271">
        <ele>298.63</ele>
        <time>2016-09-04T10:57:44Z</time>
      </trkpt>
      <trkpt lat="45.73076" lon="4.70326">
        <ele>295.74</ele>
        <time>2016-09-04T10:57:49Z</time>
      </trkpt>
      <trkpt lat="45.7308" lon="4.70367">
        <ele>292.38</ele>
        <time>2016-09-04T10:57:54Z</time>
      </trkpt>
      <trkpt lat="45.73077" lon="4.70389">
        <ele>290.46</ele>
        <time>2016-09-04T10:57:59Z</time>
      </trkpt>
      <trkpt lat="45.73084" lon="4.70403">
        <ele>290.94</ele>
        <time>2016-09-04T10:58:04Z</time>
      </trkpt>
      <trkpt lat="45.73099" lon="4.70408">
        <ele>290.94</ele>
        <time>2016-09-04T10:58:09Z</time>
      </trkpt>
      <trkpt lat="45.73117" lon="4.70412">
        <ele>290.46</ele>
        <time>2016-09-04T10:58:14Z</time>
      </trkpt>
      <trkpt lat="45.73136" lon="4.70416">
        <ele>290.46</ele>
        <time>2016-09-04T10:58:19Z</time>
      </trkpt>
      <trkpt lat="45.73157" lon="4.70419">
        <ele>289.97</ele>
        <time>2016-09-04T10:58:24Z</time>
      </trkpt>
      <trkpt lat="45.73179" lon="4.70423">
        <ele>289.49</ele>
        <time>2016-09-04T10:58:29Z</time>
      </trkpt>
      <trkpt lat="45.73205" lon="4.70429">
        <ele>288.53</ele>
        <time>2016-09-04T10:58:34Z</time>
      </trkpt>
      <trkpt lat="45.73234" lon="4.70435">
        <ele>287.57</ele>
        <time>2016-09-04T10:58:39Z</time>
      </trkpt>
      <trkpt lat="45.73263" lon="4.70441">
        <ele>288.05</ele>
        <time>2016-09-04T10:58:44Z</time>
      </trkpt>
      <trkpt lat="45.73294" lon="4.70447">
        <ele>287.57</ele>
        <time>2016-09-04T10:58:49Z</time>
      </trkpt>
      <trkpt lat="45.73327" lon="4.70454">
        <ele>286.13</ele>
        <time>2016-09-04T10:58:54Z</time>
      </trkpt>
      <trkpt lat="45.73359" lon="4.7046">
        <ele>285.17</ele>
        <time>2016-09-04T10:58:59Z</time>
      </trkpt>
      <trkpt lat="45.73375" lon="4.70475">
        <ele>284.21</ele>
        <time>2016-09-04T10:59:04Z</time>
      </trkpt>
      <trkpt lat="45.73369" lon="4.70513">
        <ele>281.32</ele>
        <time>2016-09-04T10:59:09Z</time>
      </trkpt>
      <trkpt lat="45.73362" lon="4.70547">
        <ele>278.92</ele>
        <time>2016-09-04T10:59:14Z</time>
      </trkpt>
      <trkpt lat="45.73366" lon="4.70562">
        <ele>277.48</ele>
        <time>2016-09-04T10:59:19Z</time>
      </trkpt>
      <trkpt lat="45.73386" lon="4.7056">
        <ele>272.67</ele>
        <time>2016-09-04T10:59:24Z</time>
      </trkpt>
      <trkpt lat="45.73415" lon="4.70554">
        <ele>268.83</ele>
        <time>2016-09-04T10:59:29Z</time>
      </trkpt>
      <trkpt lat="45.73441" lon="4.7054">
        <ele>264.5</ele>
        <time>2016-09-04T10:59:34Z</time>
      </trkpt>
      <trkpt lat="45.73467" lon="4.70508">
        <ele>259.69</ele>
        <time>2016-09-04T10:59:39Z</time>
      </trkpt>
      <trkpt lat="45.73481" lon="4.70486">
        <ele>254.41</ele>
        <time>2016-09-04T10:59:44Z</time>
      </trkpt>
      <trkpt lat="45.73486" lon="4.70493">
        <ele>250.56</ele>
        <time>2016-09-04T10:59:49Z</time>
      </trkpt>
      <trkpt lat="45.73481" lon="4.70511">
        <ele>245.27</ele>
        <time>2016-09-04T10:59:54Z</time>
      </trkpt>
      <trkpt lat="45.73474" lon="4.70531">
        <ele>240.47</ele>
        <time>2016-09-04T10:59:59Z</time>
      </trkpt>
      <trkpt lat="45.73462" lon="4.70547">
        <ele>236.62</ele>
        <time>2016-09-04T11:00:04Z</time>
      </trkpt>
      <trkpt lat="45.73454" lon="4.70564">
        <ele>233.74</ele>
        <time>2016-09-04T11:00:09Z</time>
      </trkpt>
      <trkpt lat="45.7345" lon="4.70574">
        <ele>233.26</ele>
        <time>2016-09-04T11:00:14Z</time>
      </trkpt>
      <trkpt lat="45.73439" lon="4.70596">
        <ele>233.26</ele>
        <time>2016-09-04T11:00:19Z</time>
      </trkpt>
      <trkpt lat="45.73432" lon="4.70614">
        <ele>232.3</ele>
        <time>2016-09-04T11:00:24Z</time>
      </trkpt>
      <trkpt lat="45.73425" lon="4.70624">
        <ele>232.78</ele>
        <time>2016-09-04T11:00:29Z</time>
      </trkpt>
      <trkpt lat="45.7342" lon="4.70637">
        <ele>234.7</ele>
        <time>2016-09-04T11:00:34Z</time>
      </trkpt>
      <trkpt lat="45.73414" lon="4.70645">
        <ele>237.1</ele>
        <time>2016-09-04T11:00:39Z</time>
      </trkpt>
      <trkpt lat="45.73407" lon="4.7065">
        <ele>239.02</ele>
        <time>2016-09-04T11:00:44Z</time>
      </trkpt>
      <trkpt lat="45.73407" lon="4.70661">
        <ele>239.51</ele>
        <time>2016-09-04T11:00:49Z</time>
      </trkpt>
      <trkpt lat="45.73407" lon="4.70676">
        <ele>239.99</ele>
        <time>2016-09-04T11:00:54Z</time>
      </trkpt>
      <trkpt lat="45.73413" lon="4.70694">
        <ele>242.39</ele>
        <time>2016-09-04T11:00:59Z</time>
      </trkpt>
      <trkpt lat="45.73419" lon="4.70712">
        <ele>244.31</ele>
        <time>2016-09-04T11:01:04Z</time>
      </trkpt>
      <trkpt lat="45.73428" lon="4.70723">
        <ele>246.23</ele>
        <time>2016-09-04T11:01:09Z</time>
      </trkpt>
      <trkpt lat="45.73437" lon="4.70726">
        <ele>247.68</ele>
        <time>2016-09-04T11:01:14Z</time>
      </trkpt>
      <trkpt lat="45.73445" lon="4.70724">
        <ele>247.68</ele>
        <time>2016-09-04T11:01:19Z</time>
      </trkpt>
      <trkpt lat="45.73454" lon="4.70727">
        <ele>246.72</ele>
        <time>2016-09-04T11:01:24Z</time>
      </trkpt>
      <trkpt lat="45.7346" lon="4.70735">
        <ele>246.72</ele>
        <time>2016-09-04T11:01:29Z</time>
      </trkpt>
      <trkpt lat="45.73466" lon="4.70738">
        <ele>247.2</ele>
        <time>2016-09-04T11:01:34Z</time>
      </trkpt>
      <trkpt lat="45.73476" lon="4.70739">
        <ele>247.2</ele>
        <time>2016-09-04T11:01:39Z</time>
      </trkpt>
      <trkpt lat="45.73486" lon="4.70737">
        <ele>246.23</ele>
        <time>2016-09-04T11:01:44Z</time>
      </trkpt>
      <trkpt lat="45.73492" lon="4.70733">
        <ele>245.75</ele>
        <time>2016-09-04T11:01:49Z</time>
      </trkpt>
      <trkpt lat="45.73494" lon="4.70732">
        <ele>245.75</ele>
        <time>2016-09-04T11:01:54Z</time>
      </trkpt>
      <trkpt lat="45.73495" lon="4.70731">
        <ele>245.27</ele>
        <time>2016-09-04T11:01:59Z</time>
      </trkpt>
      <trkpt lat="45.73495" lon="4.70729">
        <ele>244.79</ele>
        <time>2016-09-04T11:02:04Z</time>
      </trkpt>
      <trkpt lat="45.73498" lon="4.70725">
        <ele>245.27</ele>
        <time>2016-09-04T11:02:09Z</time>
      </trkpt>
      <trkpt lat="45.73504" lon="4.70718">
        <ele>246.72</ele>
        <time>2016-09-04T11:02:14Z</time>
      </trkpt>
      <trkpt lat="45.73512" lon="4.70719">
        <ele>248.16</ele>
        <time>2016-09-04T11:02:19Z</time>
      </trkpt>
      <trkpt lat="45.73519" lon="4.70719">
        <ele>249.12</ele>
        <time>2016-09-04T11:02:24Z</time>
      </trkpt>
      <trkpt lat="45.7352" lon="4.70712">
        <ele>250.08</ele>
        <time>2016-09-04T11:02:29Z</time>
      </trkpt>
      <trkpt lat="45.73519" lon="4.70712">
        <ele>252</ele>
        <time>2016-09-04T11:02:34Z</time>
      </trkpt>
      <trkpt lat="45.73517" lon="4.70709">
        <ele>254.89</ele>
        <time>2016-09-04T11:02:39Z</time>
      </trkpt>
      <trkpt lat="45.73514" lon="4.70706">
        <ele>256.33</ele>
        <time>2016-09-04T11:02:44Z</time>
      </trkpt>
      <trkpt lat="45.73512" lon="4.70703">
        <ele>257.29</ele>
        <time>2016-09-04T11:02:49Z</time>
      </trkpt>
      <trkpt lat="45.73511" lon="4.707">
        <ele>258.73</ele>
        <time>2016-09-04T11:02:54Z</time>
      </trkpt>
      <trkpt lat="45.73509" lon="4.70697">
        <ele>259.69</ele>
        <time>2016-09-04T11:02:59Z</time>
      </trkpt>
      <trkpt lat="45.73507" lon="4.70691">
        <ele>261.62</ele>
        <time>2016-09-04T11:03:04Z</time>
      </trkpt>
      <trkpt lat="45.73505" lon="4.70687">
        <ele>263.54</ele>
        <time>2016-09-04T11:03:09Z</time>
      </trkpt>
      <trkpt lat="45.73502" lon="4.70684">
        <ele>264.02</ele>
        <time>2016-09-04T11:03:14Z</time>
      </trkpt>
      <trkpt lat="45.73499" lon="4.70682">
        <ele>264.02</ele>
        <time>2016-09-04T11:03:19Z</time>
      </trkpt>
      <trkpt lat="45.73497" lon="4.70682">
        <ele>265.46</ele>
        <time>2016-09-04T11:03:24Z</time>
      </trkpt>
      <trkpt lat="45.73494" lon="4.70683">
        <ele>265.94</ele>
        <time>2016-09-04T11:03:29Z</time>
      </trkpt>
      <trkpt lat="45.73492" lon="4.70682">
        <ele>267.38</ele>
        <time>2016-09-04T11:03:34Z</time>
      </trkpt>
      <trkpt lat="45.73488" lon="4.70681">
        <ele>267.38</ele>
        <time>2016-09-04T11:03:39Z</time>
      </trkpt>
      <trkpt lat="45.73484" lon="4.70678">
        <ele>267.86</ele>
        <time>2016-09-04T11:03:44Z</time>
      </trkpt>
      <trkpt lat="45.73483" lon="4.70677">
        <ele>267.86</ele>
        <time>2016-09-04T11:03:49Z</time>
      </trkpt>
      <trkpt lat="45.73481" lon="4.70676">
        <ele>267.38</ele>
        <time>2016-09-04T11:03:54Z</time>
      </trkpt>
      <trkpt lat="45.73478" lon="4.70673">
        <ele>268.83</ele>
        <time>2016-09-04T11:03:59Z</time>
      </trkpt>
      <trkpt lat="45.73475" lon="4.7067">
        <ele>270.27</ele>
        <time>2016-09-04T11:04:04Z</time>
      </trkpt>
      <trkpt lat="45.73471" lon="4.70666">
        <ele>270.75</ele>
        <time>2016-09-04T11:04:09Z</time>
      </trkpt>
      <trkpt lat="45.73469" lon="4.70661">
        <ele>269.79</ele>
        <time>2016-09-04T11:04:14Z</time>
      </trkpt>
      <trkpt lat="45.73468" lon="4.70655">
        <ele>268.83</ele>
        <time>2016-09-04T11:04:19Z</time>
      </trkpt>
      <trkpt lat="45.73469" lon="4.70649">
        <ele>269.79</ele>
        <time>2016-09-04T11:04:24Z</time>
      </trkpt>
      <trkpt lat="45.73471" lon="4.70644">
        <ele>270.27</ele>
        <time>2016-09-04T11:04:29Z</time>
      </trkpt>
      <trkpt lat="45.73472" lon="4.70643">
        <ele>271.23</ele>
        <time>2016-09-04T11:04:34Z</time>
      </trkpt>
      <trkpt lat="45.73472" lon="4.70643">
        <ele>270.75</ele>
        <time>2016-09-04T11:04:39Z</time>
      </trkpt>
      <trkpt lat="45.73471" lon="4.70645">
        <ele>269.79</ele>
        <time>2016-09-04T11:04:44Z</time>
      </trkpt>
      <trkpt lat="45.73471" lon="4.70644">
        <ele>268.83</ele>
        <time>2016-09-04T11:04:49Z</time>
      </trkpt>
      <trkpt lat="45.73473" lon="4.70642">
        <ele>268.83</ele>
        <time>2016-09-04T11:04:54Z</time>
      </trkpt>
      <trkpt lat="45.73476" lon="4.70642">
        <ele>269.31</ele>
        <time>2016-09-04T11:04:59Z</time>
      </trkpt>
      <trkpt lat="45.7348" lon="4.70644">
        <ele>269.31</ele>
        <time>2016-09-04T11:05:04Z</time>
      </trkpt>
      <trkpt lat="45.73484" lon="4.70647">
        <ele>269.79</ele>
        <time>2016-09-04T11:05:09Z</time>
      </trkpt>
      <trkpt lat="45.73488" lon="4.70649">
        <ele>270.27</ele>
        <time>2016-09-04T11:05:14Z</time>
      </trkpt>
      <trkpt lat="45.73492" lon="4.70652">
        <ele>270.27</ele>
        <time>2016-09-04T11:05:19Z</time>
      </trkpt>
      <trkpt lat="45.73497" lon="4.70652">
        <ele>269.79</ele>
        <time>2016-09-04T11:05:24Z</time>
      </trkpt>
      <trkpt lat="45.73501" lon="4.70651">
        <ele>269.79</ele>
        <time>2016-09-04T11:05:29Z</time>
      </trkpt>
      <trkpt lat="45.73506" lon="4.70651">
        <ele>270.27</ele>
        <time>2016-09-04T11:05:34Z</time>
      </trkpt>
      <trkpt lat="45.73509" lon="4.70651">
        <ele>270.75</ele>
        <time>2016-09-04T11:05:39Z</time>
      </trkpt>
      <trkpt lat="45.73513" lon="4.70651">
        <ele>270.27</ele>
        <time>2016-09-04T11:05:44Z</time>
      </trkpt>
      <trkpt lat="45.73517" lon="4.70649">
        <ele>270.75</ele>
        <time>2016-09-04T11:05:49Z</time>
      </trkpt>
      <trkpt lat="45.73521" lon="4.70647">
        <ele>272.19</ele>
        <time>2016-09-04T11:05:54Z</time>
      </trkpt>
      <trkpt lat="45.73525" lon="4.70646">
        <ele>273.63</ele>
        <time>2016-09-04T11:05:59Z</time>
      </trkpt>
      <trkpt lat="45.73529" lon="4.70645">
        <ele>273.63</ele>
        <time>2016-09-04T11:06:04Z</time>
      </trkpt>
      <trkpt lat="45.73532" lon="4.70641">
        <ele>273.63</ele>
        <time>2016-09-04T11:06:09Z</time>
      </trkpt>
      <trkpt lat="45.73536" lon="4.70639">
        <ele>273.63</ele>
        <time>2016-09-04T11:06:14Z</time>
      </trkpt>
      <trkpt lat="45.73537" lon="4.70637">
        <ele>273.15</ele>
        <time>2016-09-04T11:06:19Z</time>
      </trkpt>
      <trkpt lat="45.73537" lon="4.70635">
        <ele>273.15</ele>
        <time>2016-09-04T11:06:24Z</time>
      </trkpt>
      <trkpt lat="45.73538" lon="4.70635">
        <ele>273.63</ele>
        <time>2016-09-04T11:06:29Z</time>
      </trkpt>
      <trkpt lat="45.73541" lon="4.70635">
        <ele>274.59</ele>
        <time>2016-09-04T11:06:34Z</time>
      </trkpt>
      <trkpt lat="45.73546" lon="4.70636">
        <ele>276.04</ele>
        <time>2016-09-04T11:06:39Z</time>
      </trkpt>
      <trkpt lat="45.73551" lon="4.70636">
        <ele>276.04</ele>
        <time>2016-09-04T11:06:44Z</time>
      </trkpt>
      <trkpt lat="45.73555" lon="4.70636">
        <ele>276.04</ele>
        <time>2016-09-04T11:06:49Z</time>
      </trkpt>
      <trkpt lat="45.7356" lon="4.70636">
        <ele>276.04</ele>
        <time>2016-09-04T11:06:54Z</time>
      </trkpt>
      <trkpt lat="45.73564" lon="4.70636">
        <ele>277</ele>
        <time>2016-09-04T11:06:59Z</time>
      </trkpt>
      <trkpt lat="45.73568" lon="4.70636">
        <ele>277.96</ele>
        <time>2016-09-04T11:07:04Z</time>
      </trkpt>
      <trkpt lat="45.73571" lon="4.70637">
        <ele>278.92</ele>
        <time>2016-09-04T11:07:09Z</time>
      </trkpt>
      <trkpt lat="45.73575" lon="4.70636">
        <ele>278.92</ele>
        <time>2016-09-04T11:07:14Z</time>
      </trkpt>
      <trkpt lat="45.7358" lon="4.70636">
        <ele>279.4</ele>
        <time>2016-09-04T11:07:19Z</time>
      </trkpt>
      <trkpt lat="45.73584" lon="4.70635">
        <ele>279.88</ele>
        <time>2016-09-04T11:07:24Z</time>
      </trkpt>
      <trkpt lat="45.73587" lon="4.70635">
        <ele>279.88</ele>
        <time>2016-09-04T11:07:29Z</time>
      </trkpt>
      <trkpt lat="45.73591" lon="4.70633">
        <ele>280.84</ele>
        <time>2016-09-04T11:07:34Z</time>
      </trkpt>
      <trkpt lat="45.73595" lon="4.70631">
        <ele>281.8</ele>
        <time>2016-09-04T11:07:39Z</time>
      </trkpt>
      <trkpt lat="45.73599" lon="4.70628">
        <ele>284.21</ele>
        <time>2016-09-04T11:07:44Z</time>
      </trkpt>
      <trkpt lat="45.73602" lon="4.70627">
        <ele>284.69</ele>
        <time>2016-09-04T11:07:49Z</time>
      </trkpt>
      <trkpt lat="45.73605" lon="4.70623">
        <ele>285.17</ele>
        <time>2016-09-04T11:07:54Z</time>
      </trkpt>
      <trkpt lat="45.73608" lon="4.7062">
        <ele>285.17</ele>
        <time>2016-09-04T11:07:59Z</time>
      </trkpt>
      <trkpt lat="45.73612" lon="4.70618">
        <ele>284.69</ele>
        <time>2016-09-04T11:08:04Z</time>
      </trkpt>
      <trkpt lat="45.73617" lon="4.70618">
        <ele>283.73</ele>
        <time>2016-09-04T11:08:09Z</time>
      </trkpt>
      <trkpt lat="45.7362" lon="4.70617">
        <ele>283.73</ele>
        <time>2016-09-04T11:08:14Z</time>
      </trkpt>
      <trkpt lat="45.73622" lon="4.70614">
        <ele>283.73</ele>
        <time>2016-09-04T11:08:19Z</time>
      </trkpt>
      <trkpt lat="45.73622" lon="4.70614">
        <ele>284.69</ele>
        <time>2016-09-04T11:08:24Z</time>
      </trkpt>
      <trkpt lat="45.73622" lon="4.70613">
        <ele>285.65</ele>
        <time>2016-09-04T11:08:29Z</time>
      </trkpt>
      <trkpt lat="45.73622" lon="4.70613">
        <ele>287.09</ele>
        <time>2016-09-04T11:08:34Z</time>
      </trkpt>
      <trkpt lat="45.73621" lon="4.70613">
        <ele>288.53</ele>
        <time>2016-09-04T11:08:39Z</time>
      </trkpt>
      <trkpt lat="45.73621" lon="4.70613">
        <ele>289.97</ele>
        <time>2016-09-04T11:08:44Z</time>
      </trkpt>
      <trkpt lat="45.73621" lon="4.70614">
        <ele>289.97</ele>
        <time>2016-09-04T11:08:49Z</time>
      </trkpt>
      <trkpt lat="45.73622" lon="4.70614">
        <ele>289.49</ele>
        <time>2016-09-04T11:08:54Z</time>
      </trkpt>
      <trkpt lat="45.73622" lon="4.70615">
        <ele>289.49</ele>
        <time>2016-09-04T11:08:59Z</time>
      </trkpt>
      <trkpt lat="45.73623" lon="4.70615">
        <ele>289.01</ele>
        <time>2016-09-04T11:09:04Z</time>
      </trkpt>
      <trkpt lat="45.73623" lon="4.70615">
        <ele>288.05</ele>
        <time>2016-09-04T11:09:09Z</time>
      </trkpt>
      <trkpt lat="45.73623" lon="4.70616">
        <ele>287.09</ele>
        <time>2016-09-04T11:09:14Z</time>
      </trkpt>
      <trkpt lat="45.73624" lon="4.70617">
        <ele>286.61</ele>
        <time>2016-09-04T11:09:19Z</time>
      </trkpt>
      <trkpt lat="45.73624" lon="4.70617">
        <ele>286.13</ele>
        <time>2016-09-04T11:09:24Z</time>
      </trkpt>
      <trkpt lat="45.73624" lon="4.70617">
        <ele>285.65</ele>
        <time>2016-09-04T11:09:29Z</time>
      </trkpt>
      <trkpt lat="45.73623" lon="4.70617">
        <ele>285.65</ele>
        <time>2016-09-04T11:09:34Z</time>
      </trkpt>
      <trkpt lat="45.73624" lon="4.70616">
        <ele>285.65</ele>
        <time>2016-09-04T11:09:39Z</time>
      </trkpt>
      <trkpt lat="45.73625" lon="4.70615">
        <ele>286.13</ele>
        <time>2016-09-04T11:09:44Z</time>
      </trkpt>
      <trkpt lat="45.73625" lon="4.70615">
        <ele>285.65</ele>
        <time>2016-09-04T11:09:49Z</time>
      </trkpt>
      <trkpt lat="45.73626" lon="4.70616">
        <ele>285.17</ele>
        <time>2016-09-04T11:09:54Z</time>
      </trkpt>
      <trkpt lat="45.73626" lon="4.70617">
        <ele>284.69</ele>
        <time>2016-09-04T11:09:59Z</time>
      </trkpt>
      <trkpt lat="45.73626" lon="4.70617">
        <ele>284.69</ele>
        <time>2016-09-04T11:10:04Z</time>
      </trkpt>
      <trkpt lat="45.73626" lon="4.70616">
        <ele>284.69</ele>
        <time>2016-09-04T11:10:09Z</time>
      </trkpt>
      <trkpt lat="45.73625" lon="4.70616">
        <ele>285.17</ele>
        <time>2016-09-04T11:10:14Z</time>
      </trkpt>
      <trkpt lat="45.73625" lon="4.70615">
        <ele>285.65</ele>
        <time>2016-09-04T11:10:19Z</time>
      </trkpt>
      <trkpt lat="45.73625" lon="4.70615">
        <ele>287.09</ele>
        <time>2016-09-04T11:10:24Z</time>
      </trkpt>
      <trkpt lat="45.73624" lon="4.70614">
        <ele>287.09</ele>
        <time>2016-09-04T11:10:29Z</time>
      </trkpt>
      <trkpt lat="45.73624" lon="4.70613">
        <ele>287.57</ele>
        <time>2016-09-04T11:10:34Z</time>
      </trkpt>
      <trkpt lat="45.73623" lon="4.70612">
        <ele>287.09</ele>
        <time>2016-09-04T11:10:39Z</time>
      </trkpt>
      <trkpt lat="45.73623" lon="4.70611">
        <ele>287.09</ele>
        <time>2016-09-04T11:10:44Z</time>
      </trkpt>
      <trkpt lat="45.73623" lon="4.70611">
        <ele>287.09</ele>
        <time>2016-09-04T11:10:49Z</time>
      </trkpt>
      <trkpt lat="45.73623" lon="4.70612">
        <ele>286.61</ele>
        <time>2016-09-04T11:10:54Z</time>
      </trkpt>
      <trkpt lat="45.73623" lon="4.70612">
        <ele>286.61</ele>
        <time>2016-09-04T11:10:59Z</time>
      </trkpt>
      <trkpt lat="45.73623" lon="4.70613">
        <ele>286.13</ele>
        <time>2016-09-04T11:11:04Z</time>
      </trkpt>
      <trkpt lat="45.73624" lon="4.70613">
        <ele>286.13</ele>
        <time>2016-09-04T11:11:09Z</time>
      </trkpt>
      <trkpt lat="45.73624" lon="4.70614">
        <ele>287.09</ele>
        <time>2016-09-04T11:11:14Z</time>
      </trkpt>
      <trkpt lat="45.73625" lon="4.70615">
        <ele>287.57</ele>
        <time>2016-09-04T11:11:19Z</time>
      </trkpt>
      <trkpt lat="45.7363" lon="4.7062">
        <ele>287.09</ele>
        <time>2016-09-04T11:11:24Z</time>
      </trkpt>
      <trkpt lat="45.73639" lon="4.70626">
        <ele>287.09</ele>
        <time>2016-09-04T11:11:29Z</time>
      </trkpt>
      <trkpt lat="45.73648" lon="4.7063">
        <ele>287.09</ele>
        <time>2016-09-04T11:11:34Z</time>
      </trkpt>
      <trkpt lat="45.73657" lon="4.70631">
        <ele>286.61</ele>
        <time>2016-09-04T11:11:39Z</time>
      </trkpt>
      <trkpt lat="45.73668" lon="4.70632">
        <ele>286.13</ele>
        <time>2016-09-04T11:11:44Z</time>
      </trkpt>
      <trkpt lat="45.73678" lon="4.70635">
        <ele>285.65</ele>
        <time>2016-09-04T11:11:49Z</time>
      </trkpt>
      <trkpt lat="45.73687" lon="4.70636">
        <ele>285.65</ele>
        <time>2016-09-04T11:11:54Z</time>
      </trkpt>
      <trkpt lat="45.73697" lon="4.70637">
        <ele>285.65</ele>
        <time>2016-09-04T11:11:59Z</time>
      </trkpt>
      <trkpt lat="45.73705" lon="4.70637">
        <ele>285.17</ele>
        <time>2016-09-04T11:12:04Z</time>
      </trkpt>
      <trkpt lat="45.73715" lon="4.70637">
        <ele>285.17</ele>
        <time>2016-09-04T11:12:09Z</time>
      </trkpt>
      <trkpt lat="45.73725" lon="4.70638">
        <ele>284.69</ele>
        <time>2016-09-04T11:12:14Z</time>
      </trkpt>
      <trkpt lat="45.73735" lon="4.70639">
        <ele>284.21</ele>
        <time>2016-09-04T11:12:19Z</time>
      </trkpt>
      <trkpt lat="45.73746" lon="4.7064">
        <ele>285.17</ele>
        <time>2016-09-04T11:12:24Z</time>
      </trkpt>
      <trkpt lat="45.73756" lon="4.70643">
        <ele>285.17</ele>
        <time>2016-09-04T11:12:29Z</time>
      </trkpt>
      <trkpt lat="45.73766" lon="4.70647">
        <ele>285.65</ele>
        <time>2016-09-04T11:12:34Z</time>
      </trkpt>
      <trkpt lat="45.73777" lon="4.70653">
        <ele>286.13</ele>
        <time>2016-09-04T11:12:39Z</time>
      </trkpt>
      <trkpt lat="45.73786" lon="4.70657">
        <ele>286.61</ele>
        <time>2016-09-04T11:12:44Z</time>
      </trkpt>
      <trkpt lat="45.73796" lon="4.70662">
        <ele>287.57</ele>
        <time>2016-09-04T11:12:49Z</time>
      </trkpt>
      <trkpt lat="45.73805" lon="4.7067">
        <ele>289.01</ele>
        <time>2016-09-04T11:12:54Z</time>
      </trkpt>
      <trkpt lat="45.73814" lon="4.70675">
        <ele>290.46</ele>
        <time>2016-09-04T11:12:59Z</time>
      </trkpt>
      <trkpt lat="45.73824" lon="4.70682">
        <ele>290.94</ele>
        <time>2016-09-04T11:13:04Z</time>
      </trkpt>
      <trkpt lat="45.73833" lon="4.70691">
        <ele>291.42</ele>
        <time>2016-09-04T11:13:09Z</time>
      </trkpt>
      <trkpt lat="45.73843" lon="4.70699">
        <ele>291.9</ele>
        <time>2016-09-04T11:13:14Z</time>
      </trkpt>
      <trkpt lat="45.73851" lon="4.70706">
        <ele>291.42</ele>
        <time>2016-09-04T11:13:19Z</time>
      </trkpt>
      <trkpt lat="45.73858" lon="4.70715">
        <ele>290.94</ele>
        <time>2016-09-04T11:13:24Z</time>
      </trkpt>
      <trkpt lat="45.73868" lon="4.70722">
        <ele>290.94</ele>
        <time>2016-09-04T11:13:29Z</time>
      </trkpt>
      <trkpt lat="45.73877" lon="4.70729">
        <ele>290.94</ele>
        <time>2016-09-04T11:13:34Z</time>
      </trkpt>
      <trkpt lat="45.73892" lon="4.70736">
        <ele>290.94</ele>
        <time>2016-09-04T11:13:41Z</time>
      </trkpt>
      <trkpt lat="45.73905" lon="4.70743">
        <ele>291.9</ele>
        <time>2016-09-04T11:13:46Z</time>
      </trkpt>
      <trkpt lat="45.73919" lon="4.70748">
        <ele>291.9</ele>
        <time>2016-09-04T11:13:51Z</time>
      </trkpt>
      <trkpt lat="45.73932" lon="4.70752">
        <ele>292.38</ele>
        <time>2016-09-04T11:13:56Z</time>
      </trkpt>
      <trkpt lat="45.73945" lon="4.70755">
        <ele>292.86</ele>
        <time>2016-09-04T11:14:01Z</time>
      </trkpt>
      <trkpt lat="45.73957" lon="4.70754">
        <ele>292.86</ele>
        <time>2016-09-04T11:14:06Z</time>
      </trkpt>
      <trkpt lat="45.73968" lon="4.70754">
        <ele>292.86</ele>
        <time>2016-09-04T11:14:11Z</time>
      </trkpt>
      <trkpt lat="45.73981" lon="4.70752">
        <ele>292.86</ele>
        <time>2016-09-04T11:14:16Z</time>
      </trkpt>
      <trkpt lat="45.73993" lon="4.70751">
        <ele>292.86</ele>
        <time>2016-09-04T11:14:21Z</time>
      </trkpt>
      <trkpt lat="45.74005" lon="4.70749">
        <ele>293.34</ele>
        <time>2016-09-04T11:14:26Z</time>
      </trkpt>
      <trkpt lat="45.74016" lon="4.70746">
        <ele>293.34</ele>
        <time>2016-09-04T11:14:31Z</time>
      </trkpt>
      <trkpt lat="45.74027" lon="4.70742">
        <ele>293.34</ele>
        <time>2016-09-04T11:14:36Z</time>
      </trkpt>
      <trkpt lat="45.74038" lon="4.70737">
        <ele>293.34</ele>
        <time>2016-09-04T11:14:41Z</time>
      </trkpt>
      <trkpt lat="45.74049" lon="4.70732">
        <ele>293.82</ele>
        <time>2016-09-04T11:14:46Z</time>
      </trkpt>
      <trkpt lat="45.74059" lon="4.70728">
        <ele>293.82</ele>
        <time>2016-09-04T11:14:51Z</time>
      </trkpt>
      <trkpt lat="45.74068" lon="4.70725">
        <ele>293.34</ele>
        <time>2016-09-04T11:14:56Z</time>
      </trkpt>
      <trkpt lat="45.74077" lon="4.70721">
        <ele>292.86</ele>
        <time>2016-09-04T11:15:01Z</time>
      </trkpt>
      <trkpt lat="45.74087" lon="4.70718">
        <ele>291.42</ele>
        <time>2016-09-04T11:15:06Z</time>
      </trkpt>
      <trkpt lat="45.74097" lon="4.70716">
        <ele>291.42</ele>
        <time>2016-09-04T11:15:11Z</time>
      </trkpt>
      <trkpt lat="45.74107" lon="4.70714">
        <ele>292.38</ele>
        <time>2016-09-04T11:15:16Z</time>
      </trkpt>
      <trkpt lat="45.74116" lon="4.70711">
        <ele>292.86</ele>
        <time>2016-09-04T11:15:21Z</time>
      </trkpt>
      <trkpt lat="45.74126" lon="4.70707">
        <ele>293.34</ele>
        <time>2016-09-04T11:15:26Z</time>
      </trkpt>
      <trkpt lat="45.74135" lon="4.70703">
        <ele>293.82</ele>
        <time>2016-09-04T11:15:31Z</time>
      </trkpt>
      <trkpt lat="45.74143" lon="4.707">
        <ele>293.82</ele>
        <time>2016-09-04T11:15:36Z</time>
      </trkpt>
      <trkpt lat="45.7415" lon="4.70698">
        <ele>294.3</ele>
        <time>2016-09-04T11:15:41Z</time>
      </trkpt>
      <trkpt lat="45.74159" lon="4.70695">
        <ele>294.78</ele>
        <time>2016-09-04T11:15:46Z</time>
      </trkpt>
      <trkpt lat="45.74168" lon="4.70691">
        <ele>294.3</ele>
        <time>2016-09-04T11:15:51Z</time>
      </trkpt>
      <trkpt lat="45.74178" lon="4.70688">
        <ele>292.86</ele>
        <time>2016-09-04T11:15:56Z</time>
      </trkpt>
      <trkpt lat="45.74189" lon="4.70684">
        <ele>291.9</ele>
        <time>2016-09-04T11:16:01Z</time>
      </trkpt>
      <trkpt lat="45.74202" lon="4.70682">
        <ele>292.38</ele>
        <time>2016-09-04T11:16:06Z</time>
      </trkpt>
      <trkpt lat="45.74214" lon="4.70678">
        <ele>292.86</ele>
        <time>2016-09-04T11:16:11Z</time>
      </trkpt>
      <trkpt lat="45.74225" lon="4.70674">
        <ele>292.86</ele>
        <time>2016-09-04T11:16:16Z</time>
      </trkpt>
      <trkpt lat="45.74235" lon="4.70671">
        <ele>292.38</ele>
        <time>2016-09-04T11:16:21Z</time>
      </trkpt>
      <trkpt lat="45.74242" lon="4.7067">
        <ele>292.86</ele>
        <time>2016-09-04T11:16:26Z</time>
      </trkpt>
      <trkpt lat="45.74251" lon="4.70669">
        <ele>294.3</ele>
        <time>2016-09-04T11:16:31Z</time>
      </trkpt>
      <trkpt lat="45.7426" lon="4.70672">
        <ele>295.74</ele>
        <time>2016-09-04T11:16:36Z</time>
      </trkpt>
      <trkpt lat="45.74263" lon="4.70683">
        <ele>297.18</ele>
        <time>2016-09-04T11:16:41Z</time>
      </trkpt>
      <trkpt lat="45.74262" lon="4.70698">
        <ele>298.63</ele>
        <time>2016-09-04T11:16:46Z</time>
      </trkpt>
      <trkpt lat="45.74261" lon="4.7071">
        <ele>299.11</ele>
        <time>2016-09-04T11:16:51Z</time>
      </trkpt>
      <trkpt lat="45.74259" lon="4.70725">
        <ele>299.11</ele>
        <time>2016-09-04T11:16:56Z</time>
      </trkpt>
      <trkpt lat="45.74257" lon="4.70744">
        <ele>299.59</ele>
        <time>2016-09-04T11:17:01Z</time>
      </trkpt>
      <trkpt lat="45.74255" lon="4.70765">
        <ele>300.07</ele>
        <time>2016-09-04T11:17:06Z</time>
      </trkpt>
      <trkpt lat="45.74256" lon="4.70785">
        <ele>301.03</ele>
        <time>2016-09-04T11:17:11Z</time>
      </trkpt>
      <trkpt lat="45.74255" lon="4.70805">
        <ele>301.03</ele>
        <time>2016-09-04T11:17:16Z</time>
      </trkpt>
      <trkpt lat="45.74255" lon="4.70825">
        <ele>299.59</ele>
        <time>2016-09-04T11:17:21Z</time>
      </trkpt>
      <trkpt lat="45.74255" lon="4.70842">
        <ele>300.07</ele>
        <time>2016-09-04T11:17:26Z</time>
      </trkpt>
      <trkpt lat="45.74255" lon="4.70861">
        <ele>300.55</ele>
        <time>2016-09-04T11:17:31Z</time>
      </trkpt>
      <trkpt lat="45.74255" lon="4.70883">
        <ele>301.51</ele>
        <time>2016-09-04T11:17:36Z</time>
      </trkpt>
      <trkpt lat="45.74255" lon="4.70906">
        <ele>301.51</ele>
        <time>2016-09-04T11:17:41Z</time>
      </trkpt>
      <trkpt lat="45.74255" lon="4.70929">
        <ele>301.51</ele>
        <time>2016-09-04T11:17:46Z</time>
      </trkpt>
      <trkpt lat="45.74265" lon="4.70948">
        <ele>301.03</ele>
        <time>2016-09-04T11:17:51Z</time>
      </trkpt>
      <trkpt lat="45.74282" lon="4.70948">
        <ele>301.03</ele>
        <time>2016-09-04T11:17:56Z</time>
      </trkpt>
      <trkpt lat="45.74297" lon="4.70946">
        <ele>301.03</ele>
        <time>2016-09-04T11:18:01Z</time>
      </trkpt>
      <trkpt lat="45.74314" lon="4.70947">
        <ele>301.03</ele>
        <time>2016-09-04T11:18:06Z</time>
      </trkpt>
      <trkpt lat="45.74328" lon="4.70966">
        <ele>301.51</ele>
        <time>2016-09-04T11:18:11Z</time>
      </trkpt>
      <trkpt lat="45.74342" lon="4.70991">
        <ele>301.99</ele>
        <time>2016-09-04T11:18:16Z</time>
      </trkpt>
      <trkpt lat="45.74365" lon="4.70997">
        <ele>301.51</ele>
        <time>2016-09-04T11:18:21Z</time>
      </trkpt>
      <trkpt lat="45.74386" lon="4.70991">
        <ele>301.51</ele>
        <time>2016-09-04T11:18:26Z</time>
      </trkpt>
      <trkpt lat="45.74405" lon="4.70987">
        <ele>301.51</ele>
        <time>2016-09-04T11:18:31Z</time>
      </trkpt>
      <trkpt lat="45.74425" lon="4.70982">
        <ele>301.51</ele>
        <time>2016-09-04T11:18:36Z</time>
      </trkpt>
      <trkpt lat="45.74446" lon="4.70977">
        <ele>301.03</ele>
        <time>2016-09-04T11:18:41Z</time>
      </trkpt>
      <trkpt lat="45.74468" lon="4.70973">
        <ele>300.07</ele>
        <time>2016-09-04T11:18:46Z</time>
      </trkpt>
      <trkpt lat="45.74488" lon="4.70971">
        <ele>300.07</ele>
        <time>2016-09-04T11:18:51Z</time>
      </trkpt>
      <trkpt lat="45.74503" lon="4.70986">
        <ele>300.55</ele>
        <time>2016-09-04T11:18:56Z</time>
      </trkpt>
      <trkpt lat="45.74511" lon="4.71019">
        <ele>300.07</ele>
        <time>2016-09-04T11:19:01Z</time>
      </trkpt>
      <trkpt lat="45.74519" lon="4.71054">
        <ele>299.59</ele>
        <time>2016-09-04T11:19:06Z</time>
      </trkpt>
      <trkpt lat="45.74528" lon="4.71095">
        <ele>298.63</ele>
        <time>2016-09-04T11:19:11Z</time>
      </trkpt>
      <trkpt lat="45.74537" lon="4.71138">
        <ele>298.15</ele>
        <time>2016-09-04T11:19:16Z</time>
      </trkpt>
      <trkpt lat="45.74547" lon="4.71185">
        <ele>297.18</ele>
        <time>2016-09-04T11:19:21Z</time>
      </trkpt>
      <trkpt lat="45.74555" lon="4.7123">
        <ele>297.18</ele>
        <time>2016-09-04T11:19:26Z</time>
      </trkpt>
      <trkpt lat="45.74566" lon="4.71274">
        <ele>297.18</ele>
        <time>2016-09-04T11:19:31Z</time>
      </trkpt>
      <trkpt lat="45.74573" lon="4.71321">
        <ele>296.22</ele>
        <time>2016-09-04T11:19:36Z</time>
      </trkpt>
      <trkpt lat="45.74579" lon="4.71371">
        <ele>296.22</ele>
        <time>2016-09-04T11:19:41Z</time>
      </trkpt>
      <trkpt lat="45.74584" lon="4.71418">
        <ele>295.26</ele>
        <time>2016-09-04T11:19:46Z</time>
      </trkpt>
      <trkpt lat="45.74589" lon="4.71462">
        <ele>294.78</ele>
        <time>2016-09-04T11:19:51Z</time>
      </trkpt>
      <trkpt lat="45.74591" lon="4.71507">
        <ele>294.3</ele>
        <time>2016-09-04T11:19:56Z</time>
      </trkpt>
      <trkpt lat="45.74591" lon="4.7155">
        <ele>294.3</ele>
        <time>2016-09-04T11:20:01Z</time>
      </trkpt>
      <trkpt lat="45.74591" lon="4.71592">
        <ele>294.3</ele>
        <time>2016-09-04T11:20:06Z</time>
      </trkpt>
      <trkpt lat="45.74591" lon="4.71632">
        <ele>293.82</ele>
        <time>2016-09-04T11:20:11Z</time>
      </trkpt>
      <trkpt lat="45.7459" lon="4.71673">
        <ele>293.34</ele>
        <time>2016-09-04T11:20:16Z</time>
      </trkpt>
      <trkpt lat="45.74589" lon="4.71716">
        <ele>292.86</ele>
        <time>2016-09-04T11:20:21Z</time>
      </trkpt>
      <trkpt lat="45.74587" lon="4.71758">
        <ele>292.38</ele>
        <time>2016-09-04T11:20:26Z</time>
      </trkpt>
      <trkpt lat="45.74586" lon="4.71799">
        <ele>291.9</ele>
        <time>2016-09-04T11:20:31Z</time>
      </trkpt>
      <trkpt lat="45.74586" lon="4.7184">
        <ele>291.42</ele>
        <time>2016-09-04T11:20:36Z</time>
      </trkpt>
      <trkpt lat="45.74585" lon="4.71879">
        <ele>291.9</ele>
        <time>2016-09-04T11:20:41Z</time>
      </trkpt>
      <trkpt lat="45.74584" lon="4.71919">
        <ele>291.9</ele>
        <time>2016-09-04T11:20:46Z</time>
      </trkpt>
      <trkpt lat="45.74583" lon="4.71958">
        <ele>291.42</ele>
        <time>2016-09-04T11:20:51Z</time>
      </trkpt>
      <trkpt lat="45.74582" lon="4.71996">
        <ele>290.46</ele>
        <time>2016-09-04T11:20:56Z</time>
      </trkpt>
      <trkpt lat="45.74581" lon="4.72034">
        <ele>289.97</ele>
        <time>2016-09-04T11:21:01Z</time>
      </trkpt>
      <trkpt lat="45.74596" lon="4.7205">
        <ele>289.97</ele>
        <time>2016-09-04T11:21:06Z</time>
      </trkpt>
      <trkpt lat="45.7461" lon="4.72048">
        <ele>290.94</ele>
        <time>2016-09-04T11:21:11Z</time>
      </trkpt>
      <trkpt lat="45.74622" lon="4.72043">
        <ele>291.42</ele>
        <time>2016-09-04T11:21:16Z</time>
      </trkpt>
      <trkpt lat="45.74635" lon="4.72036">
        <ele>291.9</ele>
        <time>2016-09-04T11:21:21Z</time>
      </trkpt>
      <trkpt lat="45.74644" lon="4.72031">
        <ele>293.34</ele>
        <time>2016-09-04T11:21:26Z</time>
      </trkpt>
      <trkpt lat="45.74646" lon="4.7203">
        <ele>292.86</ele>
        <time>2016-09-04T11:21:31Z</time>
      </trkpt>
      <trkpt lat="45.74646" lon="4.7203">
        <ele>292.38</ele>
        <time>2016-09-04T11:21:36Z</time>
      </trkpt>
      <trkpt lat="45.74646" lon="4.72031">
        <ele>291.9</ele>
        <time>2016-09-04T11:21:41Z</time>
      </trkpt>
      <trkpt lat="45.74646" lon="4.72031">
        <ele>291.42</ele>
        <time>2016-09-04T11:21:46Z</time>
      </trkpt>
      <trkpt lat="45.74645" lon="4.72031">
        <ele>290.94</ele>
        <time>2016-09-04T11:21:51Z</time>
      </trkpt>
      <trkpt lat="45.74645" lon="4.7203">
        <ele>290.46</ele>
        <time>2016-09-04T11:21:56Z</time>
      </trkpt>
      <trkpt lat="45.74646" lon="4.72028">
        <ele>289.49</ele>
        <time>2016-09-04T11:22:01Z</time>
      </trkpt>
      <trkpt lat="45.74645" lon="4.72029">
        <ele>289.01</ele>
        <time>2016-09-04T11:22:06Z</time>
      </trkpt>
      <trkpt lat="45.74646" lon="4.7203">
        <ele>289.01</ele>
        <time>2016-09-04T11:22:11Z</time>
      </trkpt>
      <trkpt lat="45.74646" lon="4.7203">
        <ele>289.97</ele>
        <time>2016-09-04T11:22:16Z</time>
      </trkpt>
      <trkpt lat="45.74646" lon="4.72031">
        <ele>290.46</ele>
        <time>2016-09-04T11:22:21Z</time>
      </trkpt>
      <trkpt lat="45.74646" lon="4.72031">
        <ele>290.46</ele>
        <time>2016-09-04T11:22:26Z</time>
      </trkpt>
      <trkpt lat="45.74647" lon="4.7203">
        <ele>290.46</ele>
        <time>2016-09-04T11:22:31Z</time>
      </trkpt>
      <trkpt lat="45.74647" lon="4.7203">
        <ele>289.97</ele>
        <time>2016-09-04T11:22:36Z</time>
      </trkpt>
      <trkpt lat="45.74647" lon="4.7203">
        <ele>289.97</ele>
        <time>2016-09-04T11:22:41Z</time>
      </trkpt>
      <trkpt lat="45.74648" lon="4.72029">
        <ele>289.01</ele>
        <time>2016-09-04T11:22:46Z</time>
      </trkpt>
      <trkpt lat="45.74648" lon="4.72029">
        <ele>288.05</ele>
        <time>2016-09-04T11:22:51Z</time>
      </trkpt>
      <trkpt lat="45.74648" lon="4.72028">
        <ele>287.09</ele>
        <time>2016-09-04T11:22:56Z</time>
      </trkpt>
      <trkpt lat="45.74648" lon="4.72028">
        <ele>286.61</ele>
        <time>2016-09-04T11:23:01Z</time>
      </trkpt>
      <trkpt lat="45.74648" lon="4.72029">
        <ele>287.09</ele>
        <time>2016-09-04T11:23:06Z</time>
      </trkpt>
      <trkpt lat="45.74647" lon="4.7203">
        <ele>286.61</ele>
        <time>2016-09-04T11:23:11Z</time>
      </trkpt>
      <trkpt lat="45.74648" lon="4.7203">
        <ele>286.13</ele>
        <time>2016-09-04T11:23:16Z</time>
      </trkpt>
      <trkpt lat="45.74648" lon="4.7203">
        <ele>286.61</ele>
        <time>2016-09-04T11:23:21Z</time>
      </trkpt>
      <trkpt lat="45.74648" lon="4.7203">
        <ele>286.61</ele>
        <time>2016-09-04T11:23:26Z</time>
      </trkpt>
      <trkpt lat="45.74648" lon="4.72029">
        <ele>286.13</ele>
        <time>2016-09-04T11:23:31Z</time>
      </trkpt>
      <trkpt lat="45.74647" lon="4.72029">
        <ele>286.61</ele>
        <time>2016-09-04T11:23:36Z</time>
      </trkpt>
      <trkpt lat="45.74647" lon="4.72029">
        <ele>286.61</ele>
        <time>2016-09-04T11:23:41Z</time>
      </trkpt>
      <trkpt lat="45.74647" lon="4.72029">
        <ele>286.61</ele>
        <time>2016-09-04T11:23:46Z</time>
      </trkpt>
      <trkpt lat="45.74647" lon="4.72029">
        <ele>286.13</ele>
        <time>2016-09-04T11:23:51Z</time>
      </trkpt>
      <trkpt lat="45.74647" lon="4.72029">
        <ele>285.65</ele>
        <time>2016-09-04T11:23:56Z</time>
      </trkpt>
      <trkpt lat="45.74647" lon="4.72029">
        <ele>286.13</ele>
        <time>2016-09-04T11:24:01Z</time>
      </trkpt>
      <trkpt lat="45.74647" lon="4.7203">
        <ele>286.13</ele>
        <time>2016-09-04T11:24:06Z</time>
      </trkpt>
      <trkpt lat="45.74647" lon="4.7203">
        <ele>286.61</ele>
        <time>2016-09-04T11:24:11Z</time>
      </trkpt>
      <trkpt lat="45.74647" lon="4.7203">
        <ele>286.13</ele>
        <time>2016-09-04T11:24:16Z</time>
      </trkpt>
      <trkpt lat="45.74647" lon="4.7203">
        <ele>287.09</ele>
        <time>2016-09-04T11:24:21Z</time>
      </trkpt>
      <trkpt lat="45.74647" lon="4.72031">
        <ele>287.57</ele>
        <time>2016-09-04T11:24:26Z</time>
      </trkpt>
      <trkpt lat="45.74647" lon="4.72031">
        <ele>287.57</ele>
        <time>2016-09-04T11:24:31Z</time>
      </trkpt>
      <trkpt lat="45.74647" lon="4.72031">
        <ele>288.05</ele>
        <time>2016-09-04T11:24:36Z</time>
      </trkpt>
      <trkpt lat="45.74647" lon="4.72031">
        <ele>288.53</ele>
        <time>2016-09-04T11:24:41Z</time>
      </trkpt>
      <trkpt lat="45.74647" lon="4.72031">
        <ele>289.01</ele>
        <time>2016-09-04T11:24:46Z</time>
      </trkpt>
      <trkpt lat="45.74646" lon="4.72031">
        <ele>289.01</ele>
        <time>2016-09-04T11:24:51Z</time>
      </trkpt>
      <trkpt lat="45.74647" lon="4.72031">
        <ele>289.01</ele>
        <time>2016-09-04T11:24:56Z</time>
      </trkpt>
      <trkpt lat="45.74647" lon="4.72031">
        <ele>289.49</ele>
        <time>2016-09-04T11:25:01Z</time>
      </trkpt>
      <trkpt lat="45.74647" lon="4.72031">
        <ele>289.01</ele>
        <time>2016-09-04T11:25:06Z</time>
      </trkpt>
      <trkpt lat="45.74647" lon="4.72031">
        <ele>289.01</ele>
        <time>2016-09-04T11:25:11Z</time>
      </trkpt>
      <trkpt lat="45.74647" lon="4.72031">
        <ele>289.01</ele>
        <time>2016-09-04T11:25:16Z</time>
      </trkpt>
      <trkpt lat="45.74647" lon="4.72032">
        <ele>288.53</ele>
        <time>2016-09-04T11:25:21Z</time>
      </trkpt>
      <trkpt lat="45.74646" lon="4.72031">
        <ele>288.53</ele>
        <time>2016-09-04T11:25:26Z</time>
      </trkpt>
      <trkpt lat="45.74646" lon="4.72032">
        <ele>288.53</ele>
        <time>2016-09-04T11:25:31Z</time>
      </trkpt>
      <trkpt lat="45.74646" lon="4.72032">
        <ele>288.53</ele>
        <time>2016-09-04T11:25:36Z</time>
      </trkpt>
      <trkpt lat="45.74646" lon="4.72032">
        <ele>289.01</ele>
        <time>2016-09-04T11:25:41Z</time>
      </trkpt>
      <trkpt lat="45.74645" lon="4.72031">
        <ele>289.01</ele>
        <time>2016-09-04T11:25:46Z</time>
      </trkpt>
      <trkpt lat="45.74646" lon="4.7203">
        <ele>289.01</ele>
        <time>2016-09-04T11:25:51Z</time>
      </trkpt>
      <trkpt lat="45.74646" lon="4.72029">
        <ele>288.53</ele>
        <time>2016-09-04T11:25:56Z</time>
      </trkpt>
      <trkpt lat="45.74646" lon="4.72029">
        <ele>287.57</ele>
        <time>2016-09-04T11:26:01Z</time>
      </trkpt>
      <trkpt lat="45.74646" lon="4.72028">
        <ele>286.61</ele>
        <time>2016-09-04T11:26:06Z</time>
      </trkpt>
      <trkpt lat="45.74646" lon="4.72028">
        <ele>286.61</ele>
        <time>2016-09-04T11:26:11Z</time>
      </trkpt>
      <trkpt lat="45.74646" lon="4.72028">
        <ele>286.61</ele>
        <time>2016-09-04T11:26:16Z</time>
      </trkpt>
      <trkpt lat="45.74646" lon="4.72027">
        <ele>286.13</ele>
        <time>2016-09-04T11:26:21Z</time>
      </trkpt>
      <trkpt lat="45.74646" lon="4.72027">
        <ele>286.13</ele>
        <time>2016-09-04T11:26:26Z</time>
      </trkpt>
      <trkpt lat="45.74646" lon="4.72027">
        <ele>286.61</ele>
        <time>2016-09-04T11:26:31Z</time>
      </trkpt>
      <trkpt lat="45.74646" lon="4.72027">
        <ele>287.09</ele>
        <time>2016-09-04T11:26:36Z</time>
      </trkpt>
      <trkpt lat="45.74647" lon="4.72027">
        <ele>288.05</ele>
        <time>2016-09-04T11:26:41Z</time>
      </trkpt>
      <trkpt lat="45.74647" lon="4.72028">
        <ele>289.49</ele>
        <time>2016-09-04T11:26:46Z</time>
      </trkpt>
      <trkpt lat="45.74647" lon="4.72028">
        <ele>290.94</ele>
        <time>2016-09-04T11:26:51Z</time>
      </trkpt>
      <trkpt lat="45.74647" lon="4.72029">
        <ele>292.38</ele>
        <time>2016-09-04T11:26:56Z</time>
      </trkpt>
      <trkpt lat="45.74647" lon="4.72029">
        <ele>293.34</ele>
        <time>2016-09-04T11:27:01Z</time>
      </trkpt>
      <trkpt lat="45.74647" lon="4.7203">
        <ele>293.82</ele>
        <time>2016-09-04T11:27:06Z</time>
      </trkpt>
      <trkpt lat="45.74647" lon="4.7203">
        <ele>293.82</ele>
        <time>2016-09-04T11:27:11Z</time>
      </trkpt>
      <trkpt lat="45.74647" lon="4.7203">
        <ele>293.82</ele>
        <time>2016-09-04T11:27:16Z</time>
      </trkpt>
      <trkpt lat="45.74647" lon="4.7203">
        <ele>293.82</ele>
        <time>2016-09-04T11:27:21Z</time>
      </trkpt>
      <trkpt lat="45.74647" lon="4.7203">
        <ele>293.82</ele>
        <time>2016-09-04T11:27:26Z</time>
      </trkpt>
      <trkpt lat="45.74647" lon="4.72029">
        <ele>293.34</ele>
        <time>2016-09-04T11:27:31Z</time>
      </trkpt>
      <trkpt lat="45.74648" lon="4.72029">
        <ele>293.34</ele>
        <time>2016-09-04T11:27:36Z</time>
      </trkpt>
      <trkpt lat="45.74648" lon="4.72029">
        <ele>293.82</ele>
        <time>2016-09-04T11:27:41Z</time>
      </trkpt>
      <trkpt lat="45.74648" lon="4.72028">
        <ele>293.82</ele>
        <time>2016-09-04T11:27:46Z</time>
      </trkpt>
      <trkpt lat="45.74648" lon="4.72028">
        <ele>293.34</ele>
        <time>2016-09-04T11:27:51Z</time>
      </trkpt>
      <trkpt lat="45.74648" lon="4.72027">
        <ele>293.82</ele>
        <time>2016-09-04T11:27:56Z</time>
      </trkpt>
      <trkpt lat="45.74647" lon="4.72028">
        <ele>294.78</ele>
        <time>2016-09-04T11:28:01Z</time>
      </trkpt>
      <trkpt lat="45.74648" lon="4.72028">
        <ele>295.74</ele>
        <time>2016-09-04T11:28:06Z</time>
      </trkpt>
      <trkpt lat="45.74648" lon="4.72028">
        <ele>295.74</ele>
        <time>2016-09-04T11:28:11Z</time>
      </trkpt>
      <trkpt lat="45.74648" lon="4.72029">
        <ele>295.74</ele>
        <time>2016-09-04T11:28:16Z</time>
      </trkpt>
      <trkpt lat="45.74647" lon="4.72029">
        <ele>295.74</ele>
        <time>2016-09-04T11:28:21Z</time>
      </trkpt>
      <trkpt lat="45.74646" lon="4.72029">
        <ele>296.22</ele>
        <time>2016-09-04T11:28:26Z</time>
      </trkpt>
      <trkpt lat="45.74646" lon="4.7203">
        <ele>295.26</ele>
        <time>2016-09-04T11:28:31Z</time>
      </trkpt>
      <trkpt lat="45.74646" lon="4.72029">
        <ele>294.78</ele>
        <time>2016-09-04T11:28:36Z</time>
      </trkpt>
      <trkpt lat="45.74646" lon="4.72029">
        <ele>294.3</ele>
        <time>2016-09-04T11:28:41Z</time>
      </trkpt>
      <trkpt lat="45.74646" lon="4.72029">
        <ele>294.3</ele>
        <time>2016-09-04T11:28:46Z</time>
      </trkpt>
      <trkpt lat="45.74646" lon="4.72029">
        <ele>294.3</ele>
        <time>2016-09-04T11:28:51Z</time>
      </trkpt>
      <trkpt lat="45.74645" lon="4.72031">
        <ele>294.3</ele>
        <time>2016-09-04T11:28:56Z</time>
      </trkpt>
      <trkpt lat="45.74644" lon="4.72033">
        <ele>295.26</ele>
        <time>2016-09-04T11:29:01Z</time>
      </trkpt>
      <trkpt lat="45.74644" lon="4.72034">
        <ele>296.22</ele>
        <time>2016-09-04T11:29:06Z</time>
      </trkpt>
      <trkpt lat="45.74643" lon="4.72034">
        <ele>296.22</ele>
        <time>2016-09-04T11:29:11Z</time>
      </trkpt>
      <trkpt lat="45.74644" lon="4.72033">
        <ele>296.22</ele>
        <time>2016-09-04T11:29:16Z</time>
      </trkpt>
      <trkpt lat="45.74644" lon="4.72032">
        <ele>297.18</ele>
        <time>2016-09-04T11:29:21Z</time>
      </trkpt>
      <trkpt lat="45.74644" lon="4.7203">
        <ele>297.67</ele>
        <time>2016-09-04T11:29:26Z</time>
      </trkpt>
      <trkpt lat="45.74644" lon="4.72028">
        <ele>298.15</ele>
        <time>2016-09-04T11:29:31Z</time>
      </trkpt>
      <trkpt lat="45.74643" lon="4.72028">
        <ele>299.11</ele>
        <time>2016-09-04T11:29:36Z</time>
      </trkpt>
      <trkpt lat="45.74643" lon="4.72028">
        <ele>300.55</ele>
        <time>2016-09-04T11:29:41Z</time>
      </trkpt>
      <trkpt lat="45.74642" lon="4.72028">
        <ele>301.51</ele>
        <time>2016-09-04T11:29:46Z</time>
      </trkpt>
      <trkpt lat="45.74642" lon="4.72028">
        <ele>301.99</ele>
        <time>2016-09-04T11:29:51Z</time>
      </trkpt>
      <trkpt lat="45.74642" lon="4.72027">
        <ele>302.47</ele>
        <time>2016-09-04T11:29:56Z</time>
      </trkpt>
      <trkpt lat="45.74642" lon="4.72028">
        <ele>303.43</ele>
        <time>2016-09-04T11:30:01Z</time>
      </trkpt>
      <trkpt lat="45.74641" lon="4.72029">
        <ele>304.88</ele>
        <time>2016-09-04T11:30:06Z</time>
      </trkpt>
      <trkpt lat="45.74641" lon="4.7203">
        <ele>306.32</ele>
        <time>2016-09-04T11:30:11Z</time>
      </trkpt>
      <trkpt lat="45.74641" lon="4.7203">
        <ele>306.8</ele>
        <time>2016-09-04T11:30:16Z</time>
      </trkpt>
      <trkpt lat="45.74642" lon="4.72029">
        <ele>307.28</ele>
        <time>2016-09-04T11:30:21Z</time>
      </trkpt>
      <trkpt lat="45.74642" lon="4.72029">
        <ele>309.2</ele>
        <time>2016-09-04T11:30:26Z</time>
      </trkpt>
      <trkpt lat="45.74643" lon="4.72029">
        <ele>310.64</ele>
        <time>2016-09-04T11:30:31Z</time>
      </trkpt>
      <trkpt lat="45.74643" lon="4.72029">
        <ele>311.6</ele>
        <time>2016-09-04T11:30:36Z</time>
      </trkpt>
      <trkpt lat="45.74644" lon="4.72029">
        <ele>312.57</ele>
        <time>2016-09-04T11:30:41Z</time>
      </trkpt>
      <trkpt lat="45.74644" lon="4.72029">
        <ele>312.57</ele>
        <time>2016-09-04T11:30:46Z</time>
      </trkpt>
      <trkpt lat="45.74644" lon="4.72029">
        <ele>312.57</ele>
        <time>2016-09-04T11:30:51Z</time>
      </trkpt>
      <trkpt lat="45.74645" lon="4.72029">
        <ele>313.05</ele>
        <time>2016-09-04T11:30:56Z</time>
      </trkpt>
      <trkpt lat="45.74645" lon="4.72028">
        <ele>313.53</ele>
        <time>2016-09-04T11:31:01Z</time>
      </trkpt>
      <trkpt lat="45.74645" lon="4.72029">
        <ele>314.97</ele>
        <time>2016-09-04T11:31:06Z</time>
      </trkpt>
      <trkpt lat="45.74645" lon="4.72029">
        <ele>315.45</ele>
        <time>2016-09-04T11:31:11Z</time>
      </trkpt>
    </trkseg>
  </trk>
</gpx>